<?xml version="1.0" encoding="UTF-8"?>
<gpx version="1.1" creator="https://www.youtrack.es" xsi:schemaLocation="http://www.topografix.com/GPX/1/1 http://www.topografix.com/GPX/1/1/gpx.xsd http://www.garmin.com/xmlschemas/GpxExtensions/v3 http://www.garmin.com/xmlschemas/GpxExtensionsv3.xsd http://www.garmin.com/xmlschemas/TrackPointExtension/v1 http://www.garmin.com/xmlschemas/TrackPointExtensionv1.xsd" xmlns:gpxtpx="http://www.garmin.com/xmlschemas/TrackPointExtension/v1" xmlns:gpxx="http://www.garmin.com/xmlschemas/GpxExtensions/v3" xmlns:xsi="http://www.w3.org/2001/XMLSchema-instance">
  <metadata>
    <link href="https://www.youtrack.es">
      <text>YouTrack.es</text>
    </link>
    <time>2026-05-08T02:42:48Z</time>
  </metadata>
  <trk>
    <src>https://www.youtrack.es</src>
    <link href="https://www.youtrack.es/ruta/8084-kom-desert">
      <text>YouTrack.es</text>
    </link>
    <trkseg>
      <trkpt lat="39.9655360" lon="-0.0628700">
        <ele>58.8</ele>
        <time>2019-09-04T09:51:18Z</time>
      </trkpt>
      <trkpt lat="39.9654510" lon="-0.0630010">
        <ele>58.8</ele>
        <time>2019-09-04T09:51:20Z</time>
      </trkpt>
      <trkpt lat="39.9653640" lon="-0.0631310">
        <ele>58.8</ele>
        <time>2019-09-04T09:51:22Z</time>
      </trkpt>
      <trkpt lat="39.9652310" lon="-0.0633180">
        <ele>58.8</ele>
        <time>2019-09-04T09:51:25Z</time>
      </trkpt>
      <trkpt lat="39.9651400" lon="-0.0634390">
        <ele>58.8</ele>
        <time>2019-09-04T09:51:27Z</time>
      </trkpt>
      <trkpt lat="39.9650040" lon="-0.0636260">
        <ele>59.4</ele>
        <time>2019-09-04T09:51:30Z</time>
      </trkpt>
      <trkpt lat="39.9649070" lon="-0.0637540">
        <ele>59.4</ele>
        <time>2019-09-04T09:51:32Z</time>
      </trkpt>
      <trkpt lat="39.9648080" lon="-0.0638870">
        <ele>59.4</ele>
        <time>2019-09-04T09:51:34Z</time>
      </trkpt>
      <trkpt lat="39.9646580" lon="-0.0640740">
        <ele>59.2</ele>
        <time>2019-09-04T09:51:37Z</time>
      </trkpt>
      <trkpt lat="39.9645580" lon="-0.0642020">
        <ele>59.0</ele>
        <time>2019-09-04T09:51:39Z</time>
      </trkpt>
      <trkpt lat="39.9644600" lon="-0.0643340">
        <ele>59.0</ele>
        <time>2019-09-04T09:51:41Z</time>
      </trkpt>
      <trkpt lat="39.9641770" lon="-0.0647360">
        <ele>59.2</ele>
        <time>2019-09-04T09:51:47Z</time>
      </trkpt>
      <trkpt lat="39.9640760" lon="-0.0648790">
        <ele>59.4</ele>
        <time>2019-09-04T09:51:49Z</time>
      </trkpt>
      <trkpt lat="39.9639790" lon="-0.0650230">
        <ele>59.4</ele>
        <time>2019-09-04T09:51:51Z</time>
      </trkpt>
      <trkpt lat="39.9638320" lon="-0.0652420">
        <ele>59.6</ele>
        <time>2019-09-04T09:51:54Z</time>
      </trkpt>
      <trkpt lat="39.9636870" lon="-0.0654510">
        <ele>59.6</ele>
        <time>2019-09-04T09:51:57Z</time>
      </trkpt>
      <trkpt lat="39.9635780" lon="-0.0656080">
        <ele>59.6</ele>
        <time>2019-09-04T09:51:59Z</time>
      </trkpt>
      <trkpt lat="39.9634670" lon="-0.0657540">
        <ele>59.8</ele>
        <time>2019-09-04T09:52:01Z</time>
      </trkpt>
      <trkpt lat="39.9632490" lon="-0.0660570">
        <ele>60.6</ele>
        <time>2019-09-04T09:52:05Z</time>
      </trkpt>
      <trkpt lat="39.9631460" lon="-0.0662090">
        <ele>60.4</ele>
        <time>2019-09-04T09:52:07Z</time>
      </trkpt>
      <trkpt lat="39.9630440" lon="-0.0663510">
        <ele>59.8</ele>
        <time>2019-09-04T09:52:09Z</time>
      </trkpt>
      <trkpt lat="39.9629450" lon="-0.0665070">
        <ele>59.6</ele>
        <time>2019-09-04T09:52:11Z</time>
      </trkpt>
      <trkpt lat="39.9628440" lon="-0.0666490">
        <ele>59.8</ele>
        <time>2019-09-04T09:52:13Z</time>
      </trkpt>
      <trkpt lat="39.9627410" lon="-0.0667890">
        <ele>60.0</ele>
        <time>2019-09-04T09:52:15Z</time>
      </trkpt>
      <trkpt lat="39.9625460" lon="-0.0670320">
        <ele>60.8</ele>
        <time>2019-09-04T09:52:19Z</time>
      </trkpt>
      <trkpt lat="39.9625030" lon="-0.0670930">
        <ele>61.4</ele>
        <time>2019-09-04T09:52:20Z</time>
      </trkpt>
      <trkpt lat="39.9624600" lon="-0.0671540">
        <ele>61.8</ele>
        <time>2019-09-04T09:52:21Z</time>
      </trkpt>
      <trkpt lat="39.9624150" lon="-0.0672170">
        <ele>62.6</ele>
        <time>2019-09-04T09:52:22Z</time>
      </trkpt>
      <trkpt lat="39.9623700" lon="-0.0672790">
        <ele>62.8</ele>
        <time>2019-09-04T09:52:23Z</time>
      </trkpt>
      <trkpt lat="39.9622350" lon="-0.0674530">
        <ele>63.0</ele>
        <time>2019-09-04T09:52:26Z</time>
      </trkpt>
      <trkpt lat="39.9621640" lon="-0.0675520">
        <ele>63.2</ele>
        <time>2019-09-04T09:52:28Z</time>
      </trkpt>
      <trkpt lat="39.9621320" lon="-0.0676040">
        <ele>63.0</ele>
        <time>2019-09-04T09:52:30Z</time>
      </trkpt>
      <trkpt lat="39.9619850" lon="-0.0678030">
        <ele>62.8</ele>
        <time>2019-09-04T09:52:37Z</time>
      </trkpt>
      <trkpt lat="39.9618930" lon="-0.0679200">
        <ele>62.8</ele>
        <time>2019-09-04T09:52:39Z</time>
      </trkpt>
      <trkpt lat="39.9617930" lon="-0.0680460">
        <ele>63.0</ele>
        <time>2019-09-04T09:52:41Z</time>
      </trkpt>
      <trkpt lat="39.9617020" lon="-0.0681760">
        <ele>63.2</ele>
        <time>2019-09-04T09:52:43Z</time>
      </trkpt>
      <trkpt lat="39.9616060" lon="-0.0683090">
        <ele>63.4</ele>
        <time>2019-09-04T09:52:45Z</time>
      </trkpt>
      <trkpt lat="39.9615130" lon="-0.0684380">
        <ele>63.4</ele>
        <time>2019-09-04T09:52:47Z</time>
      </trkpt>
      <trkpt lat="39.9614240" lon="-0.0685560">
        <ele>63.4</ele>
        <time>2019-09-04T09:52:49Z</time>
      </trkpt>
      <trkpt lat="39.9613460" lon="-0.0686610">
        <ele>63.2</ele>
        <time>2019-09-04T09:52:51Z</time>
      </trkpt>
      <trkpt lat="39.9612830" lon="-0.0688220">
        <ele>63.0</ele>
        <time>2019-09-04T09:53:08Z</time>
      </trkpt>
      <trkpt lat="39.9612850" lon="-0.0688190">
        <ele>63.0</ele>
        <time>2019-09-04T09:53:09Z</time>
      </trkpt>
      <trkpt lat="39.9612800" lon="-0.0688260">
        <ele>63.0</ele>
        <time>2019-09-04T09:53:10Z</time>
      </trkpt>
      <trkpt lat="39.9612420" lon="-0.0688820">
        <ele>63.0</ele>
        <time>2019-09-04T09:53:13Z</time>
      </trkpt>
      <trkpt lat="39.9611900" lon="-0.0689510">
        <ele>62.8</ele>
        <time>2019-09-04T09:53:15Z</time>
      </trkpt>
      <trkpt lat="39.9611190" lon="-0.0690470">
        <ele>62.8</ele>
        <time>2019-09-04T09:53:17Z</time>
      </trkpt>
      <trkpt lat="39.9610390" lon="-0.0691580">
        <ele>62.8</ele>
        <time>2019-09-04T09:53:19Z</time>
      </trkpt>
      <trkpt lat="39.9609490" lon="-0.0692800">
        <ele>62.8</ele>
        <time>2019-09-04T09:53:21Z</time>
      </trkpt>
      <trkpt lat="39.9608570" lon="-0.0694080">
        <ele>63.2</ele>
        <time>2019-09-04T09:53:23Z</time>
      </trkpt>
      <trkpt lat="39.9607200" lon="-0.0695970">
        <ele>63.6</ele>
        <time>2019-09-04T09:53:26Z</time>
      </trkpt>
      <trkpt lat="39.9605700" lon="-0.0697970">
        <ele>63.8</ele>
        <time>2019-09-04T09:53:29Z</time>
      </trkpt>
      <trkpt lat="39.9604040" lon="-0.0700120">
        <ele>64.0</ele>
        <time>2019-09-04T09:53:32Z</time>
      </trkpt>
      <trkpt lat="39.9602990" lon="-0.0701590">
        <ele>64.2</ele>
        <time>2019-09-04T09:53:34Z</time>
      </trkpt>
      <trkpt lat="39.9601900" lon="-0.0703120">
        <ele>64.0</ele>
        <time>2019-09-04T09:53:36Z</time>
      </trkpt>
      <trkpt lat="39.9598680" lon="-0.0707760">
        <ele>64.2</ele>
        <time>2019-09-04T09:53:42Z</time>
      </trkpt>
      <trkpt lat="39.9597610" lon="-0.0709250">
        <ele>64.2</ele>
        <time>2019-09-04T09:53:44Z</time>
      </trkpt>
      <trkpt lat="39.9596560" lon="-0.0710740">
        <ele>63.8</ele>
        <time>2019-09-04T09:53:46Z</time>
      </trkpt>
      <trkpt lat="39.9594090" lon="-0.0714200">
        <ele>63.2</ele>
        <time>2019-09-04T09:53:51Z</time>
      </trkpt>
      <trkpt lat="39.9593170" lon="-0.0715450">
        <ele>63.4</ele>
        <time>2019-09-04T09:53:53Z</time>
      </trkpt>
      <trkpt lat="39.9591620" lon="-0.0717590">
        <ele>64.0</ele>
        <time>2019-09-04T09:53:57Z</time>
      </trkpt>
      <trkpt lat="39.9591020" lon="-0.0718580">
        <ele>64.4</ele>
        <time>2019-09-04T09:53:59Z</time>
      </trkpt>
      <trkpt lat="39.9590830" lon="-0.0719120">
        <ele>64.6</ele>
        <time>2019-09-04T09:54:00Z</time>
      </trkpt>
      <trkpt lat="39.9590730" lon="-0.0719710">
        <ele>64.8</ele>
        <time>2019-09-04T09:54:01Z</time>
      </trkpt>
      <trkpt lat="39.9591000" lon="-0.0721440">
        <ele>65.8</ele>
        <time>2019-09-04T09:54:04Z</time>
      </trkpt>
      <trkpt lat="39.9591480" lon="-0.0722150">
        <ele>67.0</ele>
        <time>2019-09-04T09:54:06Z</time>
      </trkpt>
      <trkpt lat="39.9592010" lon="-0.0722560">
        <ele>68.2</ele>
        <time>2019-09-04T09:54:08Z</time>
      </trkpt>
      <trkpt lat="39.9592580" lon="-0.0722800">
        <ele>69.2</ele>
        <time>2019-09-04T09:54:10Z</time>
      </trkpt>
      <trkpt lat="39.9592930" lon="-0.0722920">
        <ele>69.6</ele>
        <time>2019-09-04T09:54:11Z</time>
      </trkpt>
      <trkpt lat="39.9593300" lon="-0.0723080">
        <ele>70.0</ele>
        <time>2019-09-04T09:54:12Z</time>
      </trkpt>
      <trkpt lat="39.9594380" lon="-0.0723520">
        <ele>70.8</ele>
        <time>2019-09-04T09:54:15Z</time>
      </trkpt>
      <trkpt lat="39.9595930" lon="-0.0724310">
        <ele>72.0</ele>
        <time>2019-09-04T09:54:19Z</time>
      </trkpt>
      <trkpt lat="39.9596780" lon="-0.0724970">
        <ele>72.2</ele>
        <time>2019-09-04T09:54:21Z</time>
      </trkpt>
      <trkpt lat="39.9597690" lon="-0.0725730">
        <ele>72.4</ele>
        <time>2019-09-04T09:54:23Z</time>
      </trkpt>
      <trkpt lat="39.9598550" lon="-0.0726630">
        <ele>72.4</ele>
        <time>2019-09-04T09:54:25Z</time>
      </trkpt>
      <trkpt lat="39.9599930" lon="-0.0728690">
        <ele>72.4</ele>
        <time>2019-09-04T09:54:29Z</time>
      </trkpt>
      <trkpt lat="39.9600960" lon="-0.0731830">
        <ele>72.2</ele>
        <time>2019-09-04T09:54:34Z</time>
      </trkpt>
      <trkpt lat="39.9601350" lon="-0.0733350">
        <ele>71.8</ele>
        <time>2019-09-04T09:54:36Z</time>
      </trkpt>
      <trkpt lat="39.9601890" lon="-0.0734980">
        <ele>71.6</ele>
        <time>2019-09-04T09:54:38Z</time>
      </trkpt>
      <trkpt lat="39.9602400" lon="-0.0736570">
        <ele>71.2</ele>
        <time>2019-09-04T09:54:40Z</time>
      </trkpt>
      <trkpt lat="39.9602860" lon="-0.0737890">
        <ele>70.8</ele>
        <time>2019-09-04T09:54:42Z</time>
      </trkpt>
      <trkpt lat="39.9603270" lon="-0.0739050">
        <ele>70.8</ele>
        <time>2019-09-04T09:54:44Z</time>
      </trkpt>
      <trkpt lat="39.9603720" lon="-0.0740050">
        <ele>70.8</ele>
        <time>2019-09-04T09:54:46Z</time>
      </trkpt>
      <trkpt lat="39.9604440" lon="-0.0740860">
        <ele>70.6</ele>
        <time>2019-09-04T09:54:48Z</time>
      </trkpt>
      <trkpt lat="39.9605480" lon="-0.0741210">
        <ele>70.6</ele>
        <time>2019-09-04T09:54:50Z</time>
      </trkpt>
      <trkpt lat="39.9606640" lon="-0.0740770">
        <ele>70.4</ele>
        <time>2019-09-04T09:54:52Z</time>
      </trkpt>
      <trkpt lat="39.9607790" lon="-0.0737710">
        <ele>70.6</ele>
        <time>2019-09-04T09:54:56Z</time>
      </trkpt>
      <trkpt lat="39.9606770" lon="-0.0735520">
        <ele>70.0</ele>
        <time>2019-09-04T09:54:59Z</time>
      </trkpt>
      <trkpt lat="39.9606000" lon="-0.0735270">
        <ele>69.6</ele>
        <time>2019-09-04T09:55:00Z</time>
      </trkpt>
      <trkpt lat="39.9604400" lon="-0.0735540">
        <ele>68.4</ele>
        <time>2019-09-04T09:55:02Z</time>
      </trkpt>
      <trkpt lat="39.9602980" lon="-0.0736200">
        <ele>67.4</ele>
        <time>2019-09-04T09:55:04Z</time>
      </trkpt>
      <trkpt lat="39.9602250" lon="-0.0736630">
        <ele>67.0</ele>
        <time>2019-09-04T09:55:05Z</time>
      </trkpt>
      <trkpt lat="39.9600710" lon="-0.0737460">
        <ele>66.6</ele>
        <time>2019-09-04T09:55:07Z</time>
      </trkpt>
      <trkpt lat="39.9599160" lon="-0.0738340">
        <ele>66.0</ele>
        <time>2019-09-04T09:55:09Z</time>
      </trkpt>
      <trkpt lat="39.9597670" lon="-0.0739360">
        <ele>64.6</ele>
        <time>2019-09-04T09:55:11Z</time>
      </trkpt>
      <trkpt lat="39.9596910" lon="-0.0739770">
        <ele>63.8</ele>
        <time>2019-09-04T09:55:12Z</time>
      </trkpt>
      <trkpt lat="39.9596190" lon="-0.0740220">
        <ele>63.4</ele>
        <time>2019-09-04T09:55:13Z</time>
      </trkpt>
      <trkpt lat="39.9594820" lon="-0.0741090">
        <ele>63.2</ele>
        <time>2019-09-04T09:55:15Z</time>
      </trkpt>
      <trkpt lat="39.9592110" lon="-0.0742760">
        <ele>63.8</ele>
        <time>2019-09-04T09:55:19Z</time>
      </trkpt>
      <trkpt lat="39.9590190" lon="-0.0743930">
        <ele>63.8</ele>
        <time>2019-09-04T09:55:22Z</time>
      </trkpt>
      <trkpt lat="39.9587730" lon="-0.0745450">
        <ele>63.6</ele>
        <time>2019-09-04T09:55:26Z</time>
      </trkpt>
      <trkpt lat="39.9586580" lon="-0.0746260">
        <ele>63.4</ele>
        <time>2019-09-04T09:55:28Z</time>
      </trkpt>
      <trkpt lat="39.9584860" lon="-0.0747450">
        <ele>63.8</ele>
        <time>2019-09-04T09:55:31Z</time>
      </trkpt>
      <trkpt lat="39.9583700" lon="-0.0748260">
        <ele>64.4</ele>
        <time>2019-09-04T09:55:33Z</time>
      </trkpt>
      <trkpt lat="39.9583120" lon="-0.0748690">
        <ele>64.6</ele>
        <time>2019-09-04T09:55:34Z</time>
      </trkpt>
      <trkpt lat="39.9581990" lon="-0.0749600">
        <ele>64.8</ele>
        <time>2019-09-04T09:55:36Z</time>
      </trkpt>
      <trkpt lat="39.9580870" lon="-0.0750490">
        <ele>65.0</ele>
        <time>2019-09-04T09:55:38Z</time>
      </trkpt>
      <trkpt lat="39.9579760" lon="-0.0751420">
        <ele>65.0</ele>
        <time>2019-09-04T09:55:40Z</time>
      </trkpt>
      <trkpt lat="39.9578640" lon="-0.0752390">
        <ele>65.0</ele>
        <time>2019-09-04T09:55:42Z</time>
      </trkpt>
      <trkpt lat="39.9577520" lon="-0.0753350">
        <ele>64.8</ele>
        <time>2019-09-04T09:55:44Z</time>
      </trkpt>
      <trkpt lat="39.9576410" lon="-0.0754300">
        <ele>64.6</ele>
        <time>2019-09-04T09:55:46Z</time>
      </trkpt>
      <trkpt lat="39.9575330" lon="-0.0755250">
        <ele>64.6</ele>
        <time>2019-09-04T09:55:48Z</time>
      </trkpt>
      <trkpt lat="39.9574260" lon="-0.0756230">
        <ele>64.4</ele>
        <time>2019-09-04T09:55:50Z</time>
      </trkpt>
      <trkpt lat="39.9573200" lon="-0.0757200">
        <ele>64.8</ele>
        <time>2019-09-04T09:55:52Z</time>
      </trkpt>
      <trkpt lat="39.9571560" lon="-0.0758680">
        <ele>65.4</ele>
        <time>2019-09-04T09:55:55Z</time>
      </trkpt>
      <trkpt lat="39.9571000" lon="-0.0759130">
        <ele>65.6</ele>
        <time>2019-09-04T09:55:56Z</time>
      </trkpt>
      <trkpt lat="39.9569260" lon="-0.0760580">
        <ele>66.6</ele>
        <time>2019-09-04T09:55:59Z</time>
      </trkpt>
      <trkpt lat="39.9568110" lon="-0.0761580">
        <ele>67.8</ele>
        <time>2019-09-04T09:56:01Z</time>
      </trkpt>
      <trkpt lat="39.9566980" lon="-0.0762570">
        <ele>68.4</ele>
        <time>2019-09-04T09:56:03Z</time>
      </trkpt>
      <trkpt lat="39.9565840" lon="-0.0763470">
        <ele>68.8</ele>
        <time>2019-09-04T09:56:05Z</time>
      </trkpt>
      <trkpt lat="39.9564710" lon="-0.0764430">
        <ele>68.8</ele>
        <time>2019-09-04T09:56:07Z</time>
      </trkpt>
      <trkpt lat="39.9563670" lon="-0.0765570">
        <ele>68.8</ele>
        <time>2019-09-04T09:56:09Z</time>
      </trkpt>
      <trkpt lat="39.9562550" lon="-0.0766650">
        <ele>68.6</ele>
        <time>2019-09-04T09:56:11Z</time>
      </trkpt>
      <trkpt lat="39.9561450" lon="-0.0767740">
        <ele>68.6</ele>
        <time>2019-09-04T09:56:13Z</time>
      </trkpt>
      <trkpt lat="39.9560310" lon="-0.0768740">
        <ele>68.2</ele>
        <time>2019-09-04T09:56:15Z</time>
      </trkpt>
      <trkpt lat="39.9559200" lon="-0.0769810">
        <ele>68.0</ele>
        <time>2019-09-04T09:56:17Z</time>
      </trkpt>
      <trkpt lat="39.9558120" lon="-0.0770860">
        <ele>68.0</ele>
        <time>2019-09-04T09:56:19Z</time>
      </trkpt>
      <trkpt lat="39.9557010" lon="-0.0771870">
        <ele>68.0</ele>
        <time>2019-09-04T09:56:21Z</time>
      </trkpt>
      <trkpt lat="39.9555900" lon="-0.0772850">
        <ele>68.2</ele>
        <time>2019-09-04T09:56:23Z</time>
      </trkpt>
      <trkpt lat="39.9554790" lon="-0.0773900">
        <ele>68.4</ele>
        <time>2019-09-04T09:56:25Z</time>
      </trkpt>
      <trkpt lat="39.9553650" lon="-0.0774990">
        <ele>68.6</ele>
        <time>2019-09-04T09:56:27Z</time>
      </trkpt>
      <trkpt lat="39.9552490" lon="-0.0776070">
        <ele>68.6</ele>
        <time>2019-09-04T09:56:29Z</time>
      </trkpt>
      <trkpt lat="39.9551410" lon="-0.0777100">
        <ele>68.4</ele>
        <time>2019-09-04T09:56:31Z</time>
      </trkpt>
      <trkpt lat="39.9550280" lon="-0.0778110">
        <ele>68.2</ele>
        <time>2019-09-04T09:56:33Z</time>
      </trkpt>
      <trkpt lat="39.9548630" lon="-0.0779840">
        <ele>68.6</ele>
        <time>2019-09-04T09:56:36Z</time>
      </trkpt>
      <trkpt lat="39.9547460" lon="-0.0780930">
        <ele>68.8</ele>
        <time>2019-09-04T09:56:38Z</time>
      </trkpt>
      <trkpt lat="39.9546860" lon="-0.0781460">
        <ele>69.0</ele>
        <time>2019-09-04T09:56:39Z</time>
      </trkpt>
      <trkpt lat="39.9546280" lon="-0.0782010">
        <ele>69.2</ele>
        <time>2019-09-04T09:56:40Z</time>
      </trkpt>
      <trkpt lat="39.9545120" lon="-0.0783160">
        <ele>69.6</ele>
        <time>2019-09-04T09:56:42Z</time>
      </trkpt>
      <trkpt lat="39.9543430" lon="-0.0784950">
        <ele>70.0</ele>
        <time>2019-09-04T09:56:45Z</time>
      </trkpt>
      <trkpt lat="39.9542450" lon="-0.0786230">
        <ele>69.6</ele>
        <time>2019-09-04T09:56:47Z</time>
      </trkpt>
      <trkpt lat="39.9541940" lon="-0.0787510">
        <ele>69.0</ele>
        <time>2019-09-04T09:56:49Z</time>
      </trkpt>
      <trkpt lat="39.9542410" lon="-0.0788930">
        <ele>68.4</ele>
        <time>2019-09-04T09:56:51Z</time>
      </trkpt>
      <trkpt lat="39.9543360" lon="-0.0790110">
        <ele>68.0</ele>
        <time>2019-09-04T09:56:53Z</time>
      </trkpt>
      <trkpt lat="39.9543880" lon="-0.0790720">
        <ele>67.8</ele>
        <time>2019-09-04T09:56:54Z</time>
      </trkpt>
      <trkpt lat="39.9545010" lon="-0.0791930">
        <ele>67.8</ele>
        <time>2019-09-04T09:56:56Z</time>
      </trkpt>
      <trkpt lat="39.9546560" lon="-0.0793690">
        <ele>68.0</ele>
        <time>2019-09-04T09:56:59Z</time>
      </trkpt>
      <trkpt lat="39.9547460" lon="-0.0794730">
        <ele>68.2</ele>
        <time>2019-09-04T09:57:01Z</time>
      </trkpt>
      <trkpt lat="39.9548340" lon="-0.0795740">
        <ele>68.4</ele>
        <time>2019-09-04T09:57:03Z</time>
      </trkpt>
      <trkpt lat="39.9549300" lon="-0.0796630">
        <ele>68.6</ele>
        <time>2019-09-04T09:57:05Z</time>
      </trkpt>
      <trkpt lat="39.9551750" lon="-0.0799360">
        <ele>67.4</ele>
        <time>2019-09-04T09:57:10Z</time>
      </trkpt>
      <trkpt lat="39.9552720" lon="-0.0800540">
        <ele>67.0</ele>
        <time>2019-09-04T09:57:12Z</time>
      </trkpt>
      <trkpt lat="39.9554630" lon="-0.0802890">
        <ele>67.0</ele>
        <time>2019-09-04T09:57:16Z</time>
      </trkpt>
      <trkpt lat="39.9556300" lon="-0.0805100">
        <ele>67.4</ele>
        <time>2019-09-04T09:57:20Z</time>
      </trkpt>
      <trkpt lat="39.9557080" lon="-0.0806240">
        <ele>67.4</ele>
        <time>2019-09-04T09:57:22Z</time>
      </trkpt>
      <trkpt lat="39.9557660" lon="-0.0807370">
        <ele>67.8</ele>
        <time>2019-09-04T09:57:24Z</time>
      </trkpt>
      <trkpt lat="39.9557890" lon="-0.0807900">
        <ele>68.2</ele>
        <time>2019-09-04T09:57:25Z</time>
      </trkpt>
      <trkpt lat="39.9558330" lon="-0.0808950">
        <ele>68.8</ele>
        <time>2019-09-04T09:57:27Z</time>
      </trkpt>
      <trkpt lat="39.9559000" lon="-0.0810750">
        <ele>69.2</ele>
        <time>2019-09-04T09:57:30Z</time>
      </trkpt>
      <trkpt lat="39.9558940" lon="-0.0812240">
        <ele>69.8</ele>
        <time>2019-09-04T09:57:32Z</time>
      </trkpt>
      <trkpt lat="39.9558530" lon="-0.0814000">
        <ele>70.6</ele>
        <time>2019-09-04T09:57:34Z</time>
      </trkpt>
      <trkpt lat="39.9558050" lon="-0.0815820">
        <ele>71.2</ele>
        <time>2019-09-04T09:57:36Z</time>
      </trkpt>
      <trkpt lat="39.9556950" lon="-0.0820070">
        <ele>69.6</ele>
        <time>2019-09-04T09:57:41Z</time>
      </trkpt>
      <trkpt lat="39.9556700" lon="-0.0821130">
        <ele>68.6</ele>
        <time>2019-09-04T09:57:42Z</time>
      </trkpt>
      <trkpt lat="39.9556540" lon="-0.0822010">
        <ele>67.8</ele>
        <time>2019-09-04T09:57:43Z</time>
      </trkpt>
      <trkpt lat="39.9556260" lon="-0.0823690">
        <ele>67.0</ele>
        <time>2019-09-04T09:57:45Z</time>
      </trkpt>
      <trkpt lat="39.9555960" lon="-0.0825350">
        <ele>66.6</ele>
        <time>2019-09-04T09:57:47Z</time>
      </trkpt>
      <trkpt lat="39.9555590" lon="-0.0826980">
        <ele>66.4</ele>
        <time>2019-09-04T09:57:49Z</time>
      </trkpt>
      <trkpt lat="39.9555210" lon="-0.0828710">
        <ele>66.2</ele>
        <time>2019-09-04T09:57:51Z</time>
      </trkpt>
      <trkpt lat="39.9554240" lon="-0.0831170">
        <ele>65.8</ele>
        <time>2019-09-04T09:57:54Z</time>
      </trkpt>
      <trkpt lat="39.9553580" lon="-0.0832900">
        <ele>65.8</ele>
        <time>2019-09-04T09:57:56Z</time>
      </trkpt>
      <trkpt lat="39.9553310" lon="-0.0833820">
        <ele>65.6</ele>
        <time>2019-09-04T09:57:57Z</time>
      </trkpt>
      <trkpt lat="39.9552970" lon="-0.0834680">
        <ele>65.4</ele>
        <time>2019-09-04T09:57:58Z</time>
      </trkpt>
      <trkpt lat="39.9552080" lon="-0.0836440">
        <ele>64.4</ele>
        <time>2019-09-04T09:58:00Z</time>
      </trkpt>
      <trkpt lat="39.9551590" lon="-0.0837310">
        <ele>63.8</ele>
        <time>2019-09-04T09:58:01Z</time>
      </trkpt>
      <trkpt lat="39.9551110" lon="-0.0838130">
        <ele>63.2</ele>
        <time>2019-09-04T09:58:02Z</time>
      </trkpt>
      <trkpt lat="39.9550570" lon="-0.0838950">
        <ele>62.6</ele>
        <time>2019-09-04T09:58:03Z</time>
      </trkpt>
      <trkpt lat="39.9549500" lon="-0.0841140">
        <ele>62.0</ele>
        <time>2019-09-04T09:58:05Z</time>
      </trkpt>
      <trkpt lat="39.9548380" lon="-0.0842820">
        <ele>62.0</ele>
        <time>2019-09-04T09:58:07Z</time>
      </trkpt>
      <trkpt lat="39.9546950" lon="-0.0845360">
        <ele>63.0</ele>
        <time>2019-09-04T09:58:10Z</time>
      </trkpt>
      <trkpt lat="39.9546450" lon="-0.0846190">
        <ele>63.4</ele>
        <time>2019-09-04T09:58:11Z</time>
      </trkpt>
      <trkpt lat="39.9545690" lon="-0.0847850">
        <ele>63.8</ele>
        <time>2019-09-04T09:58:13Z</time>
      </trkpt>
      <trkpt lat="39.9545720" lon="-0.0849460">
        <ele>63.2</ele>
        <time>2019-09-04T09:58:15Z</time>
      </trkpt>
      <trkpt lat="39.9546520" lon="-0.0851060">
        <ele>62.2</ele>
        <time>2019-09-04T09:58:17Z</time>
      </trkpt>
      <trkpt lat="39.9547530" lon="-0.0852710">
        <ele>61.4</ele>
        <time>2019-09-04T09:58:19Z</time>
      </trkpt>
      <trkpt lat="39.9548530" lon="-0.0854240">
        <ele>61.6</ele>
        <time>2019-09-04T09:58:21Z</time>
      </trkpt>
      <trkpt lat="39.9549430" lon="-0.0855890">
        <ele>61.6</ele>
        <time>2019-09-04T09:58:23Z</time>
      </trkpt>
      <trkpt lat="39.9550210" lon="-0.0858090">
        <ele>61.8</ele>
        <time>2019-09-04T09:58:25Z</time>
      </trkpt>
      <trkpt lat="39.9550920" lon="-0.0860540">
        <ele>61.4</ele>
        <time>2019-09-04T09:58:27Z</time>
      </trkpt>
      <trkpt lat="39.9551140" lon="-0.0861890">
        <ele>61.0</ele>
        <time>2019-09-04T09:58:28Z</time>
      </trkpt>
      <trkpt lat="39.9551530" lon="-0.0864420">
        <ele>60.0</ele>
        <time>2019-09-04T09:58:30Z</time>
      </trkpt>
      <trkpt lat="39.9551700" lon="-0.0865610">
        <ele>59.6</ele>
        <time>2019-09-04T09:58:31Z</time>
      </trkpt>
      <trkpt lat="39.9551860" lon="-0.0866830">
        <ele>59.4</ele>
        <time>2019-09-04T09:58:32Z</time>
      </trkpt>
      <trkpt lat="39.9552170" lon="-0.0869180">
        <ele>59.2</ele>
        <time>2019-09-04T09:58:34Z</time>
      </trkpt>
      <trkpt lat="39.9552580" lon="-0.0872550">
        <ele>58.6</ele>
        <time>2019-09-04T09:58:37Z</time>
      </trkpt>
      <trkpt lat="39.9552710" lon="-0.0873690">
        <ele>58.2</ele>
        <time>2019-09-04T09:58:38Z</time>
      </trkpt>
      <trkpt lat="39.9552860" lon="-0.0874780">
        <ele>57.4</ele>
        <time>2019-09-04T09:58:39Z</time>
      </trkpt>
      <trkpt lat="39.9553020" lon="-0.0875860">
        <ele>56.6</ele>
        <time>2019-09-04T09:58:40Z</time>
      </trkpt>
      <trkpt lat="39.9553360" lon="-0.0877890">
        <ele>55.6</ele>
        <time>2019-09-04T09:58:42Z</time>
      </trkpt>
      <trkpt lat="39.9553990" lon="-0.0879520">
        <ele>55.2</ele>
        <time>2019-09-04T09:58:44Z</time>
      </trkpt>
      <trkpt lat="39.9554680" lon="-0.0880920">
        <ele>56.0</ele>
        <time>2019-09-04T09:58:46Z</time>
      </trkpt>
      <trkpt lat="39.9555010" lon="-0.0881490">
        <ele>56.6</ele>
        <time>2019-09-04T09:58:47Z</time>
      </trkpt>
      <trkpt lat="39.9555550" lon="-0.0882350">
        <ele>58.2</ele>
        <time>2019-09-04T09:58:49Z</time>
      </trkpt>
      <trkpt lat="39.9556060" lon="-0.0883190">
        <ele>59.6</ele>
        <time>2019-09-04T09:58:51Z</time>
      </trkpt>
      <trkpt lat="39.9556330" lon="-0.0883640">
        <ele>60.0</ele>
        <time>2019-09-04T09:58:52Z</time>
      </trkpt>
      <trkpt lat="39.9556970" lon="-0.0884430">
        <ele>60.8</ele>
        <time>2019-09-04T09:58:54Z</time>
      </trkpt>
      <trkpt lat="39.9557730" lon="-0.0885500">
        <ele>62.0</ele>
        <time>2019-09-04T09:58:57Z</time>
      </trkpt>
      <trkpt lat="39.9558480" lon="-0.0886480">
        <ele>63.0</ele>
        <time>2019-09-04T09:59:00Z</time>
      </trkpt>
      <trkpt lat="39.9558680" lon="-0.0886960">
        <ele>63.4</ele>
        <time>2019-09-04T09:59:01Z</time>
      </trkpt>
      <trkpt lat="39.9559220" lon="-0.0888210">
        <ele>64.2</ele>
        <time>2019-09-04T09:59:04Z</time>
      </trkpt>
      <trkpt lat="39.9560120" lon="-0.0889780">
        <ele>65.4</ele>
        <time>2019-09-04T09:59:08Z</time>
      </trkpt>
      <trkpt lat="39.9560900" lon="-0.0891610">
        <ele>66.6</ele>
        <time>2019-09-04T09:59:12Z</time>
      </trkpt>
      <trkpt lat="39.9561470" lon="-0.0893140">
        <ele>67.6</ele>
        <time>2019-09-04T09:59:15Z</time>
      </trkpt>
      <trkpt lat="39.9561520" lon="-0.0895300">
        <ele>69.0</ele>
        <time>2019-09-04T09:59:19Z</time>
      </trkpt>
      <trkpt lat="39.9561250" lon="-0.0896920">
        <ele>69.8</ele>
        <time>2019-09-04T09:59:22Z</time>
      </trkpt>
      <trkpt lat="39.9560760" lon="-0.0898850">
        <ele>70.0</ele>
        <time>2019-09-04T09:59:25Z</time>
      </trkpt>
      <trkpt lat="39.9560430" lon="-0.0900170">
        <ele>70.2</ele>
        <time>2019-09-04T09:59:27Z</time>
      </trkpt>
      <trkpt lat="39.9559790" lon="-0.0902370">
        <ele>70.4</ele>
        <time>2019-09-04T09:59:30Z</time>
      </trkpt>
      <trkpt lat="39.9557910" lon="-0.0908330">
        <ele>71.0</ele>
        <time>2019-09-04T09:59:38Z</time>
      </trkpt>
      <trkpt lat="39.9557440" lon="-0.0909910">
        <ele>70.8</ele>
        <time>2019-09-04T09:59:40Z</time>
      </trkpt>
      <trkpt lat="39.9556510" lon="-0.0912970">
        <ele>70.6</ele>
        <time>2019-09-04T09:59:44Z</time>
      </trkpt>
      <trkpt lat="39.9555830" lon="-0.0915350">
        <ele>70.8</ele>
        <time>2019-09-04T09:59:47Z</time>
      </trkpt>
      <trkpt lat="39.9555600" lon="-0.0916140">
        <ele>71.2</ele>
        <time>2019-09-04T09:59:48Z</time>
      </trkpt>
      <trkpt lat="39.9554490" lon="-0.0920170">
        <ele>71.6</ele>
        <time>2019-09-04T09:59:53Z</time>
      </trkpt>
      <trkpt lat="39.9553980" lon="-0.0921850">
        <ele>71.6</ele>
        <time>2019-09-04T09:59:55Z</time>
      </trkpt>
      <trkpt lat="39.9553550" lon="-0.0923540">
        <ele>71.6</ele>
        <time>2019-09-04T09:59:57Z</time>
      </trkpt>
      <trkpt lat="39.9553120" lon="-0.0925130">
        <ele>71.8</ele>
        <time>2019-09-04T09:59:59Z</time>
      </trkpt>
      <trkpt lat="39.9552630" lon="-0.0926720">
        <ele>71.8</ele>
        <time>2019-09-04T10:00:01Z</time>
      </trkpt>
      <trkpt lat="39.9551510" lon="-0.0930830">
        <ele>72.2</ele>
        <time>2019-09-04T10:00:06Z</time>
      </trkpt>
      <trkpt lat="39.9551030" lon="-0.0932500">
        <ele>72.4</ele>
        <time>2019-09-04T10:00:08Z</time>
      </trkpt>
      <trkpt lat="39.9550470" lon="-0.0934120">
        <ele>72.6</ele>
        <time>2019-09-04T10:00:10Z</time>
      </trkpt>
      <trkpt lat="39.9550010" lon="-0.0935760">
        <ele>72.4</ele>
        <time>2019-09-04T10:00:12Z</time>
      </trkpt>
      <trkpt lat="39.9549360" lon="-0.0939110">
        <ele>72.0</ele>
        <time>2019-09-04T10:00:16Z</time>
      </trkpt>
      <trkpt lat="39.9549340" lon="-0.0941560">
        <ele>71.8</ele>
        <time>2019-09-04T10:00:19Z</time>
      </trkpt>
      <trkpt lat="39.9549420" lon="-0.0943050">
        <ele>71.8</ele>
        <time>2019-09-04T10:00:21Z</time>
      </trkpt>
      <trkpt lat="39.9549130" lon="-0.0944820">
        <ele>71.8</ele>
        <time>2019-09-04T10:00:24Z</time>
      </trkpt>
      <trkpt lat="39.9548530" lon="-0.0945260">
        <ele>71.8</ele>
        <time>2019-09-04T10:00:26Z</time>
      </trkpt>
      <trkpt lat="39.9548000" lon="-0.0946060">
        <ele>71.8</ele>
        <time>2019-09-04T10:00:28Z</time>
      </trkpt>
      <trkpt lat="39.9546880" lon="-0.0947320">
        <ele>71.2</ele>
        <time>2019-09-04T10:00:32Z</time>
      </trkpt>
      <trkpt lat="39.9545920" lon="-0.0948190">
        <ele>70.4</ele>
        <time>2019-09-04T10:00:35Z</time>
      </trkpt>
      <trkpt lat="39.9545190" lon="-0.0949170">
        <ele>70.4</ele>
        <time>2019-09-04T10:00:37Z</time>
      </trkpt>
      <trkpt lat="39.9544370" lon="-0.0950280">
        <ele>70.0</ele>
        <time>2019-09-04T10:00:39Z</time>
      </trkpt>
      <trkpt lat="39.9542740" lon="-0.0950810">
        <ele>69.6</ele>
        <time>2019-09-04T10:00:42Z</time>
      </trkpt>
      <trkpt lat="39.9541700" lon="-0.0950640">
        <ele>68.8</ele>
        <time>2019-09-04T10:00:44Z</time>
      </trkpt>
      <trkpt lat="39.9540730" lon="-0.0950500">
        <ele>67.8</ele>
        <time>2019-09-04T10:00:46Z</time>
      </trkpt>
      <trkpt lat="39.9536910" lon="-0.0950230">
        <ele>67.6</ele>
        <time>2019-09-04T10:00:56Z</time>
      </trkpt>
      <trkpt lat="39.9536210" lon="-0.0950180">
        <ele>67.6</ele>
        <time>2019-09-04T10:00:58Z</time>
      </trkpt>
      <trkpt lat="39.9534440" lon="-0.0950090">
        <ele>67.4</ele>
        <time>2019-09-04T10:01:03Z</time>
      </trkpt>
      <trkpt lat="39.9534060" lon="-0.0950070">
        <ele>67.4</ele>
        <time>2019-09-04T10:01:04Z</time>
      </trkpt>
      <trkpt lat="39.9532940" lon="-0.0950100">
        <ele>67.6</ele>
        <time>2019-09-04T10:01:07Z</time>
      </trkpt>
      <trkpt lat="39.9530680" lon="-0.0950090">
        <ele>67.6</ele>
        <time>2019-09-04T10:01:13Z</time>
      </trkpt>
      <trkpt lat="39.9529960" lon="-0.0950060">
        <ele>67.6</ele>
        <time>2019-09-04T10:01:15Z</time>
      </trkpt>
      <trkpt lat="39.9527910" lon="-0.0950160">
        <ele>68.8</ele>
        <time>2019-09-04T10:01:21Z</time>
      </trkpt>
      <trkpt lat="39.9526970" lon="-0.0950390">
        <ele>69.0</ele>
        <time>2019-09-04T10:01:24Z</time>
      </trkpt>
      <trkpt lat="39.9524870" lon="-0.0950640">
        <ele>70.4</ele>
        <time>2019-09-04T10:01:30Z</time>
      </trkpt>
      <trkpt lat="39.9524160" lon="-0.0950690">
        <ele>71.8</ele>
        <time>2019-09-04T10:01:32Z</time>
      </trkpt>
      <trkpt lat="39.9523420" lon="-0.0950890">
        <ele>72.8</ele>
        <time>2019-09-04T10:01:34Z</time>
      </trkpt>
      <trkpt lat="39.9522230" lon="-0.0951050">
        <ele>73.0</ele>
        <time>2019-09-04T10:01:37Z</time>
      </trkpt>
      <trkpt lat="39.9520300" lon="-0.0951240">
        <ele>72.0</ele>
        <time>2019-09-04T10:01:41Z</time>
      </trkpt>
      <trkpt lat="39.9519370" lon="-0.0951450">
        <ele>71.6</ele>
        <time>2019-09-04T10:01:43Z</time>
      </trkpt>
      <trkpt lat="39.9518420" lon="-0.0951670">
        <ele>71.6</ele>
        <time>2019-09-04T10:01:45Z</time>
      </trkpt>
      <trkpt lat="39.9517020" lon="-0.0952060">
        <ele>71.8</ele>
        <time>2019-09-04T10:01:48Z</time>
      </trkpt>
      <trkpt lat="39.9515900" lon="-0.0951810">
        <ele>71.8</ele>
        <time>2019-09-04T10:01:50Z</time>
      </trkpt>
      <trkpt lat="39.9514740" lon="-0.0951840">
        <ele>72.0</ele>
        <time>2019-09-04T10:01:52Z</time>
      </trkpt>
      <trkpt lat="39.9513650" lon="-0.0952160">
        <ele>71.0</ele>
        <time>2019-09-04T10:01:54Z</time>
      </trkpt>
      <trkpt lat="39.9513170" lon="-0.0952370">
        <ele>70.4</ele>
        <time>2019-09-04T10:01:55Z</time>
      </trkpt>
      <trkpt lat="39.9512680" lon="-0.0952560">
        <ele>69.8</ele>
        <time>2019-09-04T10:01:56Z</time>
      </trkpt>
      <trkpt lat="39.9512260" lon="-0.0952680">
        <ele>69.4</ele>
        <time>2019-09-04T10:01:57Z</time>
      </trkpt>
      <trkpt lat="39.9511800" lon="-0.0952800">
        <ele>69.0</ele>
        <time>2019-09-04T10:01:58Z</time>
      </trkpt>
      <trkpt lat="39.9510870" lon="-0.0952950">
        <ele>69.8</ele>
        <time>2019-09-04T10:02:00Z</time>
      </trkpt>
      <trkpt lat="39.9510030" lon="-0.0953060">
        <ele>70.4</ele>
        <time>2019-09-04T10:02:02Z</time>
      </trkpt>
      <trkpt lat="39.9508590" lon="-0.0953670">
        <ele>70.8</ele>
        <time>2019-09-04T10:02:05Z</time>
      </trkpt>
      <trkpt lat="39.9507890" lon="-0.0954380">
        <ele>70.6</ele>
        <time>2019-09-04T10:02:07Z</time>
      </trkpt>
      <trkpt lat="39.9506430" lon="-0.0955310">
        <ele>71.0</ele>
        <time>2019-09-04T10:02:11Z</time>
      </trkpt>
      <trkpt lat="39.9505540" lon="-0.0955190">
        <ele>71.2</ele>
        <time>2019-09-04T10:02:13Z</time>
      </trkpt>
      <trkpt lat="39.9504420" lon="-0.0955160">
        <ele>71.6</ele>
        <time>2019-09-04T10:02:16Z</time>
      </trkpt>
      <trkpt lat="39.9502330" lon="-0.0955390">
        <ele>72.0</ele>
        <time>2019-09-04T10:02:24Z</time>
      </trkpt>
      <trkpt lat="39.9500830" lon="-0.0955670">
        <ele>72.6</ele>
        <time>2019-09-04T10:02:28Z</time>
      </trkpt>
      <trkpt lat="39.9499970" lon="-0.0955810">
        <ele>72.8</ele>
        <time>2019-09-04T10:02:30Z</time>
      </trkpt>
      <trkpt lat="39.9498540" lon="-0.0956010">
        <ele>71.8</ele>
        <time>2019-09-04T10:02:33Z</time>
      </trkpt>
      <trkpt lat="39.9497420" lon="-0.0955810">
        <ele>71.8</ele>
        <time>2019-09-04T10:02:35Z</time>
      </trkpt>
      <trkpt lat="39.9496340" lon="-0.0955680">
        <ele>72.0</ele>
        <time>2019-09-04T10:02:37Z</time>
      </trkpt>
      <trkpt lat="39.9494630" lon="-0.0955300">
        <ele>72.6</ele>
        <time>2019-09-04T10:02:40Z</time>
      </trkpt>
      <trkpt lat="39.9491880" lon="-0.0955320">
        <ele>73.2</ele>
        <time>2019-09-04T10:02:45Z</time>
      </trkpt>
      <trkpt lat="39.9490740" lon="-0.0955110">
        <ele>73.2</ele>
        <time>2019-09-04T10:02:47Z</time>
      </trkpt>
      <trkpt lat="39.9489680" lon="-0.0954850">
        <ele>73.0</ele>
        <time>2019-09-04T10:02:49Z</time>
      </trkpt>
      <trkpt lat="39.9488820" lon="-0.0954590">
        <ele>72.8</ele>
        <time>2019-09-04T10:02:51Z</time>
      </trkpt>
      <trkpt lat="39.9488070" lon="-0.0954090">
        <ele>73.0</ele>
        <time>2019-09-04T10:02:53Z</time>
      </trkpt>
      <trkpt lat="39.9487470" lon="-0.0952970">
        <ele>73.2</ele>
        <time>2019-09-04T10:02:55Z</time>
      </trkpt>
      <trkpt lat="39.9486450" lon="-0.0950440">
        <ele>73.2</ele>
        <time>2019-09-04T10:02:59Z</time>
      </trkpt>
      <trkpt lat="39.9486140" lon="-0.0949870">
        <ele>73.2</ele>
        <time>2019-09-04T10:03:00Z</time>
      </trkpt>
      <trkpt lat="39.9485510" lon="-0.0948920">
        <ele>73.4</ele>
        <time>2019-09-04T10:03:02Z</time>
      </trkpt>
      <trkpt lat="39.9484840" lon="-0.0947900">
        <ele>73.4</ele>
        <time>2019-09-04T10:03:04Z</time>
      </trkpt>
      <trkpt lat="39.9483130" lon="-0.0945880">
        <ele>73.2</ele>
        <time>2019-09-04T10:03:08Z</time>
      </trkpt>
      <trkpt lat="39.9482370" lon="-0.0944680">
        <ele>72.4</ele>
        <time>2019-09-04T10:03:10Z</time>
      </trkpt>
      <trkpt lat="39.9481230" lon="-0.0942980">
        <ele>71.6</ele>
        <time>2019-09-04T10:03:13Z</time>
      </trkpt>
      <trkpt lat="39.9480030" lon="-0.0941850">
        <ele>71.0</ele>
        <time>2019-09-04T10:03:15Z</time>
      </trkpt>
      <trkpt lat="39.9479340" lon="-0.0940880">
        <ele>70.4</ele>
        <time>2019-09-04T10:03:17Z</time>
      </trkpt>
      <trkpt lat="39.9478950" lon="-0.0940420">
        <ele>70.0</ele>
        <time>2019-09-04T10:03:18Z</time>
      </trkpt>
      <trkpt lat="39.9478540" lon="-0.0939920">
        <ele>69.2</ele>
        <time>2019-09-04T10:03:19Z</time>
      </trkpt>
      <trkpt lat="39.9478060" lon="-0.0939400">
        <ele>68.6</ele>
        <time>2019-09-04T10:03:20Z</time>
      </trkpt>
      <trkpt lat="39.9477280" lon="-0.0939030">
        <ele>68.0</ele>
        <time>2019-09-04T10:03:21Z</time>
      </trkpt>
      <trkpt lat="39.9476660" lon="-0.0938590">
        <ele>67.8</ele>
        <time>2019-09-04T10:03:22Z</time>
      </trkpt>
      <trkpt lat="39.9475820" lon="-0.0937700">
        <ele>67.0</ele>
        <time>2019-09-04T10:03:24Z</time>
      </trkpt>
      <trkpt lat="39.9475370" lon="-0.0937210">
        <ele>67.0</ele>
        <time>2019-09-04T10:03:25Z</time>
      </trkpt>
      <trkpt lat="39.9474040" lon="-0.0935580">
        <ele>67.4</ele>
        <time>2019-09-04T10:03:29Z</time>
      </trkpt>
      <trkpt lat="39.9473270" lon="-0.0934800">
        <ele>67.6</ele>
        <time>2019-09-04T10:03:31Z</time>
      </trkpt>
      <trkpt lat="39.9472280" lon="-0.0933480">
        <ele>67.4</ele>
        <time>2019-09-04T10:03:34Z</time>
      </trkpt>
      <trkpt lat="39.9471770" lon="-0.0932590">
        <ele>67.4</ele>
        <time>2019-09-04T10:03:36Z</time>
      </trkpt>
      <trkpt lat="39.9471620" lon="-0.0932250">
        <ele>67.8</ele>
        <time>2019-09-04T10:03:38Z</time>
      </trkpt>
      <trkpt lat="39.9471040" lon="-0.0931370">
        <ele>68.2</ele>
        <time>2019-09-04T10:03:40Z</time>
      </trkpt>
      <trkpt lat="39.9470270" lon="-0.0930040">
        <ele>68.6</ele>
        <time>2019-09-04T10:03:43Z</time>
      </trkpt>
      <trkpt lat="39.9469290" lon="-0.0928770">
        <ele>69.0</ele>
        <time>2019-09-04T10:03:45Z</time>
      </trkpt>
      <trkpt lat="39.9468400" lon="-0.0927610">
        <ele>69.2</ele>
        <time>2019-09-04T10:03:47Z</time>
      </trkpt>
      <trkpt lat="39.9467780" lon="-0.0926480">
        <ele>69.2</ele>
        <time>2019-09-04T10:03:49Z</time>
      </trkpt>
      <trkpt lat="39.9467110" lon="-0.0924420">
        <ele>68.2</ele>
        <time>2019-09-04T10:03:53Z</time>
      </trkpt>
      <trkpt lat="39.9466970" lon="-0.0923940">
        <ele>68.0</ele>
        <time>2019-09-04T10:03:54Z</time>
      </trkpt>
      <trkpt lat="39.9466290" lon="-0.0923120">
        <ele>68.8</ele>
        <time>2019-09-04T10:03:57Z</time>
      </trkpt>
      <trkpt lat="39.9465040" lon="-0.0923300">
        <ele>69.2</ele>
        <time>2019-09-04T10:04:00Z</time>
      </trkpt>
      <trkpt lat="39.9463960" lon="-0.0924450">
        <ele>69.4</ele>
        <time>2019-09-04T10:04:02Z</time>
      </trkpt>
      <trkpt lat="39.9462630" lon="-0.0927190">
        <ele>69.2</ele>
        <time>2019-09-04T10:04:06Z</time>
      </trkpt>
      <trkpt lat="39.9462220" lon="-0.0928790">
        <ele>68.6</ele>
        <time>2019-09-04T10:04:08Z</time>
      </trkpt>
      <trkpt lat="39.9461880" lon="-0.0929280">
        <ele>68.0</ele>
        <time>2019-09-04T10:04:09Z</time>
      </trkpt>
      <trkpt lat="39.9461300" lon="-0.0930350">
        <ele>67.6</ele>
        <time>2019-09-04T10:04:11Z</time>
      </trkpt>
      <trkpt lat="39.9460560" lon="-0.0932200">
        <ele>67.6</ele>
        <time>2019-09-04T10:04:15Z</time>
      </trkpt>
      <trkpt lat="39.9459910" lon="-0.0933940">
        <ele>67.6</ele>
        <time>2019-09-04T10:04:19Z</time>
      </trkpt>
      <trkpt lat="39.9459390" lon="-0.0935420">
        <ele>67.4</ele>
        <time>2019-09-04T10:04:23Z</time>
      </trkpt>
      <trkpt lat="39.9458830" lon="-0.0937320">
        <ele>67.4</ele>
        <time>2019-09-04T10:04:32Z</time>
      </trkpt>
      <trkpt lat="39.9458340" lon="-0.0938480">
        <ele>67.4</ele>
        <time>2019-09-04T10:04:34Z</time>
      </trkpt>
      <trkpt lat="39.9457890" lon="-0.0939780">
        <ele>67.2</ele>
        <time>2019-09-04T10:04:36Z</time>
      </trkpt>
      <trkpt lat="39.9457500" lon="-0.0941080">
        <ele>67.4</ele>
        <time>2019-09-04T10:04:38Z</time>
      </trkpt>
      <trkpt lat="39.9456800" lon="-0.0942980">
        <ele>67.6</ele>
        <time>2019-09-04T10:04:41Z</time>
      </trkpt>
      <trkpt lat="39.9456250" lon="-0.0944250">
        <ele>67.8</ele>
        <time>2019-09-04T10:04:43Z</time>
      </trkpt>
      <trkpt lat="39.9455410" lon="-0.0946120">
        <ele>67.8</ele>
        <time>2019-09-04T10:04:46Z</time>
      </trkpt>
      <trkpt lat="39.9454810" lon="-0.0947370">
        <ele>68.0</ele>
        <time>2019-09-04T10:04:48Z</time>
      </trkpt>
      <trkpt lat="39.9454250" lon="-0.0948510">
        <ele>68.6</ele>
        <time>2019-09-04T10:04:50Z</time>
      </trkpt>
      <trkpt lat="39.9453620" lon="-0.0949540">
        <ele>68.8</ele>
        <time>2019-09-04T10:04:52Z</time>
      </trkpt>
      <trkpt lat="39.9453050" lon="-0.0950980">
        <ele>68.8</ele>
        <time>2019-09-04T10:04:54Z</time>
      </trkpt>
      <trkpt lat="39.9452390" lon="-0.0952950">
        <ele>68.2</ele>
        <time>2019-09-04T10:04:57Z</time>
      </trkpt>
      <trkpt lat="39.9451360" lon="-0.0955430">
        <ele>67.4</ele>
        <time>2019-09-04T10:05:01Z</time>
      </trkpt>
      <trkpt lat="39.9450780" lon="-0.0956800">
        <ele>67.4</ele>
        <time>2019-09-04T10:05:03Z</time>
      </trkpt>
      <trkpt lat="39.9450280" lon="-0.0958150">
        <ele>67.4</ele>
        <time>2019-09-04T10:05:05Z</time>
      </trkpt>
      <trkpt lat="39.9449300" lon="-0.0960460">
        <ele>67.0</ele>
        <time>2019-09-04T10:05:10Z</time>
      </trkpt>
      <trkpt lat="39.9448790" lon="-0.0961340">
        <ele>67.0</ele>
        <time>2019-09-04T10:05:12Z</time>
      </trkpt>
      <trkpt lat="39.9447520" lon="-0.0964230">
        <ele>67.8</ele>
        <time>2019-09-04T10:05:16Z</time>
      </trkpt>
      <trkpt lat="39.9447320" lon="-0.0964950">
        <ele>68.2</ele>
        <time>2019-09-04T10:05:17Z</time>
      </trkpt>
      <trkpt lat="39.9446860" lon="-0.0966120">
        <ele>68.8</ele>
        <time>2019-09-04T10:05:19Z</time>
      </trkpt>
      <trkpt lat="39.9446510" lon="-0.0966710">
        <ele>68.6</ele>
        <time>2019-09-04T10:05:22Z</time>
      </trkpt>
      <trkpt lat="39.9447410" lon="-0.0966060">
        <ele>68.4</ele>
        <time>2019-09-04T10:05:26Z</time>
      </trkpt>
      <trkpt lat="39.9446200" lon="-0.0964100">
        <ele>69.0</ele>
        <time>2019-09-04T10:05:31Z</time>
      </trkpt>
      <trkpt lat="39.9444900" lon="-0.0962300">
        <ele>69.0</ele>
        <time>2019-09-04T10:05:34Z</time>
      </trkpt>
      <trkpt lat="39.9443980" lon="-0.0961010">
        <ele>69.0</ele>
        <time>2019-09-04T10:05:36Z</time>
      </trkpt>
      <trkpt lat="39.9442480" lon="-0.0958160">
        <ele>68.8</ele>
        <time>2019-09-04T10:05:40Z</time>
      </trkpt>
      <trkpt lat="39.9441780" lon="-0.0956970">
        <ele>69.2</ele>
        <time>2019-09-04T10:05:42Z</time>
      </trkpt>
      <trkpt lat="39.9440960" lon="-0.0956070">
        <ele>69.2</ele>
        <time>2019-09-04T10:05:44Z</time>
      </trkpt>
      <trkpt lat="39.9439580" lon="-0.0954970">
        <ele>68.4</ele>
        <time>2019-09-04T10:05:47Z</time>
      </trkpt>
      <trkpt lat="39.9438330" lon="-0.0954030">
        <ele>67.2</ele>
        <time>2019-09-04T10:05:51Z</time>
      </trkpt>
      <trkpt lat="39.9438070" lon="-0.0953780">
        <ele>67.0</ele>
        <time>2019-09-04T10:05:52Z</time>
      </trkpt>
      <trkpt lat="39.9437440" lon="-0.0953060">
        <ele>67.0</ele>
        <time>2019-09-04T10:05:54Z</time>
      </trkpt>
      <trkpt lat="39.9434420" lon="-0.0950320">
        <ele>67.4</ele>
        <time>2019-09-04T10:05:57Z</time>
      </trkpt>
      <trkpt lat="39.9431780" lon="-0.0947260">
        <ele>66.8</ele>
        <time>2019-09-04T10:06:03Z</time>
      </trkpt>
      <trkpt lat="39.9430730" lon="-0.0946230">
        <ele>66.0</ele>
        <time>2019-09-04T10:06:06Z</time>
      </trkpt>
      <trkpt lat="39.9429260" lon="-0.0946600">
        <ele>65.6</ele>
        <time>2019-09-04T10:06:10Z</time>
      </trkpt>
      <trkpt lat="39.9425330" lon="-0.0951690">
        <ele>66.0</ele>
        <time>2019-09-04T10:06:22Z</time>
      </trkpt>
      <trkpt lat="39.9424580" lon="-0.0952920">
        <ele>65.8</ele>
        <time>2019-09-04T10:06:24Z</time>
      </trkpt>
      <trkpt lat="39.9423980" lon="-0.0954250">
        <ele>65.8</ele>
        <time>2019-09-04T10:06:26Z</time>
      </trkpt>
      <trkpt lat="39.9423080" lon="-0.0956940">
        <ele>65.8</ele>
        <time>2019-09-04T10:06:30Z</time>
      </trkpt>
      <trkpt lat="39.9422630" lon="-0.0957990">
        <ele>65.6</ele>
        <time>2019-09-04T10:06:32Z</time>
      </trkpt>
      <trkpt lat="39.9422300" lon="-0.0959470">
        <ele>65.6</ele>
        <time>2019-09-04T10:06:34Z</time>
      </trkpt>
      <trkpt lat="39.9422000" lon="-0.0960440">
        <ele>65.4</ele>
        <time>2019-09-04T10:06:36Z</time>
      </trkpt>
      <trkpt lat="39.9421750" lon="-0.0961390">
        <ele>65.2</ele>
        <time>2019-09-04T10:06:38Z</time>
      </trkpt>
      <trkpt lat="39.9421400" lon="-0.0962470">
        <ele>65.0</ele>
        <time>2019-09-04T10:06:40Z</time>
      </trkpt>
      <trkpt lat="39.9420790" lon="-0.0964950">
        <ele>64.6</ele>
        <time>2019-09-04T10:06:45Z</time>
      </trkpt>
      <trkpt lat="39.9420330" lon="-0.0966280">
        <ele>64.6</ele>
        <time>2019-09-04T10:06:48Z</time>
      </trkpt>
      <trkpt lat="39.9419930" lon="-0.0967170">
        <ele>64.6</ele>
        <time>2019-09-04T10:06:50Z</time>
      </trkpt>
      <trkpt lat="39.9419070" lon="-0.0970110">
        <ele>64.6</ele>
        <time>2019-09-04T10:06:54Z</time>
      </trkpt>
      <trkpt lat="39.9417820" lon="-0.0973490">
        <ele>65.4</ele>
        <time>2019-09-04T10:07:05Z</time>
      </trkpt>
      <trkpt lat="39.9416860" lon="-0.0975250">
        <ele>66.0</ele>
        <time>2019-09-04T10:07:09Z</time>
      </trkpt>
      <trkpt lat="39.9416310" lon="-0.0976160">
        <ele>66.2</ele>
        <time>2019-09-04T10:07:11Z</time>
      </trkpt>
      <trkpt lat="39.9415810" lon="-0.0977230">
        <ele>66.2</ele>
        <time>2019-09-04T10:07:13Z</time>
      </trkpt>
      <trkpt lat="39.9415390" lon="-0.0978520">
        <ele>66.4</ele>
        <time>2019-09-04T10:07:15Z</time>
      </trkpt>
      <trkpt lat="39.9414920" lon="-0.0979690">
        <ele>66.2</ele>
        <time>2019-09-04T10:07:17Z</time>
      </trkpt>
      <trkpt lat="39.9414330" lon="-0.0980690">
        <ele>66.2</ele>
        <time>2019-09-04T10:07:19Z</time>
      </trkpt>
      <trkpt lat="39.9413780" lon="-0.0981640">
        <ele>66.0</ele>
        <time>2019-09-04T10:07:21Z</time>
      </trkpt>
      <trkpt lat="39.9413190" lon="-0.0982610">
        <ele>66.0</ele>
        <time>2019-09-04T10:07:23Z</time>
      </trkpt>
      <trkpt lat="39.9412530" lon="-0.0983780">
        <ele>65.8</ele>
        <time>2019-09-04T10:07:25Z</time>
      </trkpt>
      <trkpt lat="39.9412050" lon="-0.0984870">
        <ele>65.6</ele>
        <time>2019-09-04T10:07:27Z</time>
      </trkpt>
      <trkpt lat="39.9411570" lon="-0.0985820">
        <ele>65.8</ele>
        <time>2019-09-04T10:07:29Z</time>
      </trkpt>
      <trkpt lat="39.9411160" lon="-0.0986730">
        <ele>66.2</ele>
        <time>2019-09-04T10:07:31Z</time>
      </trkpt>
      <trkpt lat="39.9410260" lon="-0.0987810">
        <ele>66.6</ele>
        <time>2019-09-04T10:07:34Z</time>
      </trkpt>
      <trkpt lat="39.9409790" lon="-0.0988710">
        <ele>66.6</ele>
        <time>2019-09-04T10:07:36Z</time>
      </trkpt>
      <trkpt lat="39.9409250" lon="-0.0989760">
        <ele>66.6</ele>
        <time>2019-09-04T10:07:38Z</time>
      </trkpt>
      <trkpt lat="39.9408720" lon="-0.0990740">
        <ele>66.6</ele>
        <time>2019-09-04T10:07:40Z</time>
      </trkpt>
      <trkpt lat="39.9407250" lon="-0.0992860">
        <ele>65.8</ele>
        <time>2019-09-04T10:07:46Z</time>
      </trkpt>
      <trkpt lat="39.9406700" lon="-0.0993740">
        <ele>65.6</ele>
        <time>2019-09-04T10:07:48Z</time>
      </trkpt>
      <trkpt lat="39.9404220" lon="-0.0997000">
        <ele>66.0</ele>
        <time>2019-09-04T10:07:58Z</time>
      </trkpt>
      <trkpt lat="39.9404110" lon="-0.0997440">
        <ele>65.8</ele>
        <time>2019-09-04T10:08:01Z</time>
      </trkpt>
      <trkpt lat="39.9404720" lon="-0.0998160">
        <ele>65.4</ele>
        <time>2019-09-04T10:08:04Z</time>
      </trkpt>
      <trkpt lat="39.9406110" lon="-0.1000060">
        <ele>65.6</ele>
        <time>2019-09-04T10:08:09Z</time>
      </trkpt>
      <trkpt lat="39.9406890" lon="-0.1001110">
        <ele>65.8</ele>
        <time>2019-09-04T10:08:12Z</time>
      </trkpt>
      <trkpt lat="39.9407710" lon="-0.1001870">
        <ele>65.8</ele>
        <time>2019-09-04T10:08:14Z</time>
      </trkpt>
      <trkpt lat="39.9407790" lon="-0.1002890">
        <ele>65.8</ele>
        <time>2019-09-04T10:08:17Z</time>
      </trkpt>
      <trkpt lat="39.9408740" lon="-0.1003690">
        <ele>66.0</ele>
        <time>2019-09-04T10:08:22Z</time>
      </trkpt>
      <trkpt lat="39.9409120" lon="-0.1004230">
        <ele>65.8</ele>
        <time>2019-09-04T10:08:24Z</time>
      </trkpt>
      <trkpt lat="39.9412670" lon="-0.1009470">
        <ele>66.8</ele>
        <time>2019-09-04T10:08:45Z</time>
      </trkpt>
      <trkpt lat="39.9412780" lon="-0.1009600">
        <ele>66.8</ele>
        <time>2019-09-04T10:08:46Z</time>
      </trkpt>
      <trkpt lat="39.9413940" lon="-0.1010380">
        <ele>67.0</ele>
        <time>2019-09-04T10:09:04Z</time>
      </trkpt>
      <trkpt lat="39.9414220" lon="-0.1011080">
        <ele>67.0</ele>
        <time>2019-09-04T10:09:07Z</time>
      </trkpt>
      <trkpt lat="39.9415000" lon="-0.1011590">
        <ele>67.2</ele>
        <time>2019-09-04T10:09:09Z</time>
      </trkpt>
      <trkpt lat="39.9415240" lon="-0.1012120">
        <ele>67.2</ele>
        <time>2019-09-04T10:09:11Z</time>
      </trkpt>
      <trkpt lat="39.9415130" lon="-0.1012550">
        <ele>67.4</ele>
        <time>2019-09-04T10:09:13Z</time>
      </trkpt>
      <trkpt lat="39.9414990" lon="-0.1013230">
        <ele>67.0</ele>
        <time>2019-09-04T10:09:26Z</time>
      </trkpt>
      <trkpt lat="39.9424720" lon="-0.1032770">
        <ele>68.2</ele>
        <time>2019-09-04T10:13:44Z</time>
      </trkpt>
      <trkpt lat="39.9424590" lon="-0.1032990">
        <ele>68.2</ele>
        <time>2019-09-04T10:13:46Z</time>
      </trkpt>
      <trkpt lat="39.9424010" lon="-0.1033360">
        <ele>68.2</ele>
        <time>2019-09-04T10:13:49Z</time>
      </trkpt>
      <trkpt lat="39.9422910" lon="-0.1034540">
        <ele>68.2</ele>
        <time>2019-09-04T10:13:53Z</time>
      </trkpt>
      <trkpt lat="39.9422140" lon="-0.1035750">
        <ele>68.2</ele>
        <time>2019-09-04T10:13:57Z</time>
      </trkpt>
      <trkpt lat="39.9422140" lon="-0.1036040">
        <ele>68.0</ele>
        <time>2019-09-04T10:14:51Z</time>
      </trkpt>
      <trkpt lat="39.9422140" lon="-0.1036040">
        <ele>68.0</ele>
        <time>2019-09-04T10:14:52Z</time>
      </trkpt>
      <trkpt lat="39.9422070" lon="-0.1036390">
        <ele>68.0</ele>
        <time>2019-09-04T10:14:54Z</time>
      </trkpt>
      <trkpt lat="39.9421710" lon="-0.1037200">
        <ele>68.0</ele>
        <time>2019-09-04T10:14:57Z</time>
      </trkpt>
      <trkpt lat="39.9420820" lon="-0.1039420">
        <ele>68.4</ele>
        <time>2019-09-04T10:15:01Z</time>
      </trkpt>
      <trkpt lat="39.9419950" lon="-0.1041360">
        <ele>68.6</ele>
        <time>2019-09-04T10:15:04Z</time>
      </trkpt>
      <trkpt lat="39.9418630" lon="-0.1044800">
        <ele>69.0</ele>
        <time>2019-09-04T10:15:09Z</time>
      </trkpt>
      <trkpt lat="39.9417250" lon="-0.1047680">
        <ele>69.2</ele>
        <time>2019-09-04T10:15:13Z</time>
      </trkpt>
      <trkpt lat="39.9416960" lon="-0.1048380">
        <ele>69.2</ele>
        <time>2019-09-04T10:15:14Z</time>
      </trkpt>
      <trkpt lat="39.9416340" lon="-0.1049710">
        <ele>69.6</ele>
        <time>2019-09-04T10:15:16Z</time>
      </trkpt>
      <trkpt lat="39.9415500" lon="-0.1051460">
        <ele>70.0</ele>
        <time>2019-09-04T10:15:19Z</time>
      </trkpt>
      <trkpt lat="39.9414830" lon="-0.1052380">
        <ele>70.0</ele>
        <time>2019-09-04T10:15:21Z</time>
      </trkpt>
      <trkpt lat="39.9414370" lon="-0.1052900">
        <ele>68.4</ele>
        <time>2019-09-04T10:15:47Z</time>
      </trkpt>
      <trkpt lat="39.9414060" lon="-0.1053500">
        <ele>68.4</ele>
        <time>2019-09-04T10:15:51Z</time>
      </trkpt>
      <trkpt lat="39.9415220" lon="-0.1055850">
        <ele>68.8</ele>
        <time>2019-09-04T10:15:57Z</time>
      </trkpt>
      <trkpt lat="39.9415830" lon="-0.1057360">
        <ele>69.4</ele>
        <time>2019-09-04T10:15:59Z</time>
      </trkpt>
      <trkpt lat="39.9416750" lon="-0.1058470">
        <ele>70.0</ele>
        <time>2019-09-04T10:16:01Z</time>
      </trkpt>
      <trkpt lat="39.9417490" lon="-0.1059740">
        <ele>70.2</ele>
        <time>2019-09-04T10:16:03Z</time>
      </trkpt>
      <trkpt lat="39.9417790" lon="-0.1060490">
        <ele>70.2</ele>
        <time>2019-09-04T10:16:04Z</time>
      </trkpt>
      <trkpt lat="39.9418090" lon="-0.1061180">
        <ele>70.0</ele>
        <time>2019-09-04T10:16:05Z</time>
      </trkpt>
      <trkpt lat="39.9418570" lon="-0.1062660">
        <ele>69.8</ele>
        <time>2019-09-04T10:16:07Z</time>
      </trkpt>
      <trkpt lat="39.9419500" lon="-0.1064860">
        <ele>70.0</ele>
        <time>2019-09-04T10:16:10Z</time>
      </trkpt>
      <trkpt lat="39.9420630" lon="-0.1067660">
        <ele>70.2</ele>
        <time>2019-09-04T10:16:14Z</time>
      </trkpt>
      <trkpt lat="39.9421200" lon="-0.1069030">
        <ele>70.2</ele>
        <time>2019-09-04T10:16:16Z</time>
      </trkpt>
      <trkpt lat="39.9422920" lon="-0.1072030">
        <ele>70.0</ele>
        <time>2019-09-04T10:16:21Z</time>
      </trkpt>
      <trkpt lat="39.9423550" lon="-0.1072560">
        <ele>70.0</ele>
        <time>2019-09-04T10:16:22Z</time>
      </trkpt>
      <trkpt lat="39.9424310" lon="-0.1073610">
        <ele>70.6</ele>
        <time>2019-09-04T10:16:24Z</time>
      </trkpt>
      <trkpt lat="39.9424420" lon="-0.1074790">
        <ele>71.0</ele>
        <time>2019-09-04T10:16:26Z</time>
      </trkpt>
      <trkpt lat="39.9423440" lon="-0.1076050">
        <ele>70.8</ele>
        <time>2019-09-04T10:16:29Z</time>
      </trkpt>
      <trkpt lat="39.9421820" lon="-0.1076480">
        <ele>70.6</ele>
        <time>2019-09-04T10:16:32Z</time>
      </trkpt>
      <trkpt lat="39.9420520" lon="-0.1076830">
        <ele>71.0</ele>
        <time>2019-09-04T10:16:34Z</time>
      </trkpt>
      <trkpt lat="39.9419140" lon="-0.1077160">
        <ele>71.2</ele>
        <time>2019-09-04T10:16:36Z</time>
      </trkpt>
      <trkpt lat="39.9417810" lon="-0.1077610">
        <ele>71.2</ele>
        <time>2019-09-04T10:16:38Z</time>
      </trkpt>
      <trkpt lat="39.9416420" lon="-0.1077960">
        <ele>71.2</ele>
        <time>2019-09-04T10:16:40Z</time>
      </trkpt>
      <trkpt lat="39.9415000" lon="-0.1078150">
        <ele>70.8</ele>
        <time>2019-09-04T10:16:42Z</time>
      </trkpt>
      <trkpt lat="39.9412920" lon="-0.1078700">
        <ele>70.2</ele>
        <time>2019-09-04T10:16:45Z</time>
      </trkpt>
      <trkpt lat="39.9412200" lon="-0.1078910">
        <ele>70.2</ele>
        <time>2019-09-04T10:16:46Z</time>
      </trkpt>
      <trkpt lat="39.9410190" lon="-0.1079630">
        <ele>69.6</ele>
        <time>2019-09-04T10:16:49Z</time>
      </trkpt>
      <trkpt lat="39.9408980" lon="-0.1080000">
        <ele>69.0</ele>
        <time>2019-09-04T10:16:51Z</time>
      </trkpt>
      <trkpt lat="39.9407780" lon="-0.1080320">
        <ele>68.0</ele>
        <time>2019-09-04T10:16:53Z</time>
      </trkpt>
      <trkpt lat="39.9406590" lon="-0.1080680">
        <ele>67.4</ele>
        <time>2019-09-04T10:16:55Z</time>
      </trkpt>
      <trkpt lat="39.9404150" lon="-0.1081680">
        <ele>67.4</ele>
        <time>2019-09-04T10:16:59Z</time>
      </trkpt>
      <trkpt lat="39.9402240" lon="-0.1082410">
        <ele>68.8</ele>
        <time>2019-09-04T10:17:02Z</time>
      </trkpt>
      <trkpt lat="39.9401590" lon="-0.1082650">
        <ele>69.0</ele>
        <time>2019-09-04T10:17:03Z</time>
      </trkpt>
      <trkpt lat="39.9400930" lon="-0.1082890">
        <ele>69.0</ele>
        <time>2019-09-04T10:17:04Z</time>
      </trkpt>
      <trkpt lat="39.9399630" lon="-0.1083330">
        <ele>68.8</ele>
        <time>2019-09-04T10:17:06Z</time>
      </trkpt>
      <trkpt lat="39.9398380" lon="-0.1083830">
        <ele>68.8</ele>
        <time>2019-09-04T10:17:08Z</time>
      </trkpt>
      <trkpt lat="39.9397180" lon="-0.1084420">
        <ele>68.6</ele>
        <time>2019-09-04T10:17:10Z</time>
      </trkpt>
      <trkpt lat="39.9395300" lon="-0.1085050">
        <ele>68.4</ele>
        <time>2019-09-04T10:17:13Z</time>
      </trkpt>
      <trkpt lat="39.9394080" lon="-0.1085470">
        <ele>68.6</ele>
        <time>2019-09-04T10:17:15Z</time>
      </trkpt>
      <trkpt lat="39.9392950" lon="-0.1085960">
        <ele>68.6</ele>
        <time>2019-09-04T10:17:17Z</time>
      </trkpt>
      <trkpt lat="39.9391750" lon="-0.1086370">
        <ele>68.6</ele>
        <time>2019-09-04T10:17:19Z</time>
      </trkpt>
      <trkpt lat="39.9390350" lon="-0.1086440">
        <ele>68.4</ele>
        <time>2019-09-04T10:17:21Z</time>
      </trkpt>
      <trkpt lat="39.9389050" lon="-0.1086810">
        <ele>68.2</ele>
        <time>2019-09-04T10:17:23Z</time>
      </trkpt>
      <trkpt lat="39.9387780" lon="-0.1087350">
        <ele>68.4</ele>
        <time>2019-09-04T10:17:25Z</time>
      </trkpt>
      <trkpt lat="39.9385880" lon="-0.1088040">
        <ele>68.8</ele>
        <time>2019-09-04T10:17:28Z</time>
      </trkpt>
      <trkpt lat="39.9384710" lon="-0.1088470">
        <ele>69.4</ele>
        <time>2019-09-04T10:17:30Z</time>
      </trkpt>
      <trkpt lat="39.9383510" lon="-0.1088830">
        <ele>69.6</ele>
        <time>2019-09-04T10:17:32Z</time>
      </trkpt>
      <trkpt lat="39.9382320" lon="-0.1089080">
        <ele>69.4</ele>
        <time>2019-09-04T10:17:34Z</time>
      </trkpt>
      <trkpt lat="39.9381120" lon="-0.1089550">
        <ele>69.0</ele>
        <time>2019-09-04T10:17:36Z</time>
      </trkpt>
      <trkpt lat="39.9379910" lon="-0.1090040">
        <ele>67.8</ele>
        <time>2019-09-04T10:17:38Z</time>
      </trkpt>
      <trkpt lat="39.9378690" lon="-0.1090430">
        <ele>66.8</ele>
        <time>2019-09-04T10:17:40Z</time>
      </trkpt>
      <trkpt lat="39.9377450" lon="-0.1090870">
        <ele>66.2</ele>
        <time>2019-09-04T10:17:42Z</time>
      </trkpt>
      <trkpt lat="39.9376280" lon="-0.1091280">
        <ele>66.0</ele>
        <time>2019-09-04T10:17:44Z</time>
      </trkpt>
      <trkpt lat="39.9375130" lon="-0.1091800">
        <ele>66.0</ele>
        <time>2019-09-04T10:17:46Z</time>
      </trkpt>
      <trkpt lat="39.9373930" lon="-0.1092270">
        <ele>66.0</ele>
        <time>2019-09-04T10:17:48Z</time>
      </trkpt>
      <trkpt lat="39.9372770" lon="-0.1092700">
        <ele>66.0</ele>
        <time>2019-09-04T10:17:50Z</time>
      </trkpt>
      <trkpt lat="39.9371660" lon="-0.1093060">
        <ele>66.2</ele>
        <time>2019-09-04T10:17:52Z</time>
      </trkpt>
      <trkpt lat="39.9370620" lon="-0.1093530">
        <ele>66.4</ele>
        <time>2019-09-04T10:17:54Z</time>
      </trkpt>
      <trkpt lat="39.9369950" lon="-0.1095610">
        <ele>67.8</ele>
        <time>2019-09-04T10:17:57Z</time>
      </trkpt>
      <trkpt lat="39.9369940" lon="-0.1097190">
        <ele>69.2</ele>
        <time>2019-09-04T10:17:59Z</time>
      </trkpt>
      <trkpt lat="39.9370000" lon="-0.1098090">
        <ele>69.6</ele>
        <time>2019-09-04T10:18:00Z</time>
      </trkpt>
      <trkpt lat="39.9370060" lon="-0.1099620">
        <ele>69.6</ele>
        <time>2019-09-04T10:18:02Z</time>
      </trkpt>
      <trkpt lat="39.9370030" lon="-0.1101890">
        <ele>69.4</ele>
        <time>2019-09-04T10:18:05Z</time>
      </trkpt>
      <trkpt lat="39.9369990" lon="-0.1103370">
        <ele>69.6</ele>
        <time>2019-09-04T10:18:07Z</time>
      </trkpt>
      <trkpt lat="39.9369900" lon="-0.1104780">
        <ele>69.8</ele>
        <time>2019-09-04T10:18:09Z</time>
      </trkpt>
      <trkpt lat="39.9369690" lon="-0.1106160">
        <ele>70.0</ele>
        <time>2019-09-04T10:18:11Z</time>
      </trkpt>
      <trkpt lat="39.9369480" lon="-0.1108210">
        <ele>70.0</ele>
        <time>2019-09-04T10:18:14Z</time>
      </trkpt>
      <trkpt lat="39.9369290" lon="-0.1110300">
        <ele>70.2</ele>
        <time>2019-09-04T10:18:17Z</time>
      </trkpt>
      <trkpt lat="39.9369060" lon="-0.1111770">
        <ele>70.2</ele>
        <time>2019-09-04T10:18:19Z</time>
      </trkpt>
      <trkpt lat="39.9368800" lon="-0.1114530">
        <ele>69.0</ele>
        <time>2019-09-04T10:18:23Z</time>
      </trkpt>
      <trkpt lat="39.9368570" lon="-0.1116170">
        <ele>68.0</ele>
        <time>2019-09-04T10:18:25Z</time>
      </trkpt>
      <trkpt lat="39.9368510" lon="-0.1116960">
        <ele>67.6</ele>
        <time>2019-09-04T10:18:26Z</time>
      </trkpt>
      <trkpt lat="39.9368370" lon="-0.1118500">
        <ele>67.4</ele>
        <time>2019-09-04T10:18:28Z</time>
      </trkpt>
      <trkpt lat="39.9368020" lon="-0.1120770">
        <ele>67.8</ele>
        <time>2019-09-04T10:18:31Z</time>
      </trkpt>
      <trkpt lat="39.9367800" lon="-0.1123070">
        <ele>68.2</ele>
        <time>2019-09-04T10:18:34Z</time>
      </trkpt>
      <trkpt lat="39.9367560" lon="-0.1124560">
        <ele>67.8</ele>
        <time>2019-09-04T10:18:36Z</time>
      </trkpt>
      <trkpt lat="39.9367120" lon="-0.1126720">
        <ele>67.8</ele>
        <time>2019-09-04T10:18:39Z</time>
      </trkpt>
      <trkpt lat="39.9366880" lon="-0.1128170">
        <ele>68.0</ele>
        <time>2019-09-04T10:18:41Z</time>
      </trkpt>
      <trkpt lat="39.9366520" lon="-0.1130440">
        <ele>68.4</ele>
        <time>2019-09-04T10:18:44Z</time>
      </trkpt>
      <trkpt lat="39.9366210" lon="-0.1134110">
        <ele>68.6</ele>
        <time>2019-09-04T10:18:49Z</time>
      </trkpt>
      <trkpt lat="39.9366170" lon="-0.1135570">
        <ele>68.4</ele>
        <time>2019-09-04T10:18:51Z</time>
      </trkpt>
      <trkpt lat="39.9366070" lon="-0.1137060">
        <ele>68.6</ele>
        <time>2019-09-04T10:18:53Z</time>
      </trkpt>
      <trkpt lat="39.9366010" lon="-0.1140020">
        <ele>69.0</ele>
        <time>2019-09-04T10:18:57Z</time>
      </trkpt>
      <trkpt lat="39.9365930" lon="-0.1141510">
        <ele>69.2</ele>
        <time>2019-09-04T10:18:59Z</time>
      </trkpt>
      <trkpt lat="39.9365810" lon="-0.1143030">
        <ele>69.4</ele>
        <time>2019-09-04T10:19:01Z</time>
      </trkpt>
      <trkpt lat="39.9365620" lon="-0.1144510">
        <ele>69.8</ele>
        <time>2019-09-04T10:19:03Z</time>
      </trkpt>
      <trkpt lat="39.9365540" lon="-0.1146030">
        <ele>70.0</ele>
        <time>2019-09-04T10:19:05Z</time>
      </trkpt>
      <trkpt lat="39.9365500" lon="-0.1147560">
        <ele>70.0</ele>
        <time>2019-09-04T10:19:07Z</time>
      </trkpt>
      <trkpt lat="39.9365360" lon="-0.1150700">
        <ele>69.6</ele>
        <time>2019-09-04T10:19:11Z</time>
      </trkpt>
      <trkpt lat="39.9365360" lon="-0.1154540">
        <ele>69.0</ele>
        <time>2019-09-04T10:19:16Z</time>
      </trkpt>
      <trkpt lat="39.9365290" lon="-0.1156070">
        <ele>69.2</ele>
        <time>2019-09-04T10:19:18Z</time>
      </trkpt>
      <trkpt lat="39.9365290" lon="-0.1157610">
        <ele>69.2</ele>
        <time>2019-09-04T10:19:20Z</time>
      </trkpt>
      <trkpt lat="39.9365150" lon="-0.1159930">
        <ele>69.6</ele>
        <time>2019-09-04T10:19:23Z</time>
      </trkpt>
      <trkpt lat="39.9365030" lon="-0.1161500">
        <ele>69.4</ele>
        <time>2019-09-04T10:19:25Z</time>
      </trkpt>
      <trkpt lat="39.9364950" lon="-0.1163040">
        <ele>69.6</ele>
        <time>2019-09-04T10:19:27Z</time>
      </trkpt>
      <trkpt lat="39.9364830" lon="-0.1164520">
        <ele>69.6</ele>
        <time>2019-09-04T10:19:29Z</time>
      </trkpt>
      <trkpt lat="39.9364610" lon="-0.1165970">
        <ele>69.6</ele>
        <time>2019-09-04T10:19:31Z</time>
      </trkpt>
      <trkpt lat="39.9364390" lon="-0.1167280">
        <ele>69.8</ele>
        <time>2019-09-04T10:19:33Z</time>
      </trkpt>
      <trkpt lat="39.9364100" lon="-0.1168690">
        <ele>69.8</ele>
        <time>2019-09-04T10:19:35Z</time>
      </trkpt>
      <trkpt lat="39.9363870" lon="-0.1170200">
        <ele>70.0</ele>
        <time>2019-09-04T10:19:37Z</time>
      </trkpt>
      <trkpt lat="39.9363750" lon="-0.1170890">
        <ele>70.2</ele>
        <time>2019-09-04T10:19:38Z</time>
      </trkpt>
      <trkpt lat="39.9363420" lon="-0.1172170">
        <ele>70.6</ele>
        <time>2019-09-04T10:19:40Z</time>
      </trkpt>
      <trkpt lat="39.9362540" lon="-0.1177570">
        <ele>70.6</ele>
        <time>2019-09-04T10:19:50Z</time>
      </trkpt>
      <trkpt lat="39.9362300" lon="-0.1178600">
        <ele>70.6</ele>
        <time>2019-09-04T10:19:52Z</time>
      </trkpt>
      <trkpt lat="39.9362160" lon="-0.1179710">
        <ele>70.6</ele>
        <time>2019-09-04T10:19:54Z</time>
      </trkpt>
      <trkpt lat="39.9361440" lon="-0.1183760">
        <ele>70.8</ele>
        <time>2019-09-04T10:20:01Z</time>
      </trkpt>
      <trkpt lat="39.9360960" lon="-0.1184410">
        <ele>71.0</ele>
        <time>2019-09-04T10:20:03Z</time>
      </trkpt>
      <trkpt lat="39.9360360" lon="-0.1184720">
        <ele>71.2</ele>
        <time>2019-09-04T10:20:05Z</time>
      </trkpt>
      <trkpt lat="39.9360220" lon="-0.1184560">
        <ele>71.2</ele>
        <time>2019-09-04T10:20:06Z</time>
      </trkpt>
      <trkpt lat="39.9360140" lon="-0.1183420">
        <ele>71.4</ele>
        <time>2019-09-04T10:20:11Z</time>
      </trkpt>
      <trkpt lat="39.9358840" lon="-0.1233660">
        <ele>72.8</ele>
        <time>2019-09-04T10:22:39Z</time>
      </trkpt>
      <trkpt lat="39.9358620" lon="-0.1235820">
        <ele>73.0</ele>
        <time>2019-09-04T10:22:42Z</time>
      </trkpt>
      <trkpt lat="39.9358510" lon="-0.1237320">
        <ele>73.0</ele>
        <time>2019-09-04T10:22:44Z</time>
      </trkpt>
      <trkpt lat="39.9358250" lon="-0.1240350">
        <ele>72.8</ele>
        <time>2019-09-04T10:22:48Z</time>
      </trkpt>
      <trkpt lat="39.9358060" lon="-0.1241860">
        <ele>72.8</ele>
        <time>2019-09-04T10:22:50Z</time>
      </trkpt>
      <trkpt lat="39.9357710" lon="-0.1245770">
        <ele>73.8</ele>
        <time>2019-09-04T10:22:55Z</time>
      </trkpt>
      <trkpt lat="39.9357640" lon="-0.1246550">
        <ele>73.8</ele>
        <time>2019-09-04T10:22:56Z</time>
      </trkpt>
      <trkpt lat="39.9357500" lon="-0.1248120">
        <ele>73.8</ele>
        <time>2019-09-04T10:22:58Z</time>
      </trkpt>
      <trkpt lat="39.9357380" lon="-0.1249720">
        <ele>74.0</ele>
        <time>2019-09-04T10:23:00Z</time>
      </trkpt>
      <trkpt lat="39.9357270" lon="-0.1251330">
        <ele>73.8</ele>
        <time>2019-09-04T10:23:02Z</time>
      </trkpt>
      <trkpt lat="39.9357080" lon="-0.1254540">
        <ele>73.4</ele>
        <time>2019-09-04T10:23:06Z</time>
      </trkpt>
      <trkpt lat="39.9356970" lon="-0.1256100">
        <ele>73.4</ele>
        <time>2019-09-04T10:23:08Z</time>
      </trkpt>
      <trkpt lat="39.9356750" lon="-0.1259980">
        <ele>74.2</ele>
        <time>2019-09-04T10:23:13Z</time>
      </trkpt>
      <trkpt lat="39.9356650" lon="-0.1262300">
        <ele>74.2</ele>
        <time>2019-09-04T10:23:16Z</time>
      </trkpt>
      <trkpt lat="39.9356480" lon="-0.1265340">
        <ele>73.8</ele>
        <time>2019-09-04T10:23:20Z</time>
      </trkpt>
      <trkpt lat="39.9356360" lon="-0.1266870">
        <ele>73.6</ele>
        <time>2019-09-04T10:23:22Z</time>
      </trkpt>
      <trkpt lat="39.9356290" lon="-0.1268410">
        <ele>73.8</ele>
        <time>2019-09-04T10:23:24Z</time>
      </trkpt>
      <trkpt lat="39.9356260" lon="-0.1269960">
        <ele>74.0</ele>
        <time>2019-09-04T10:23:26Z</time>
      </trkpt>
      <trkpt lat="39.9356180" lon="-0.1271480">
        <ele>74.4</ele>
        <time>2019-09-04T10:23:28Z</time>
      </trkpt>
      <trkpt lat="39.9356100" lon="-0.1273830">
        <ele>74.4</ele>
        <time>2019-09-04T10:23:31Z</time>
      </trkpt>
      <trkpt lat="39.9356100" lon="-0.1275350">
        <ele>74.4</ele>
        <time>2019-09-04T10:23:33Z</time>
      </trkpt>
      <trkpt lat="39.9356120" lon="-0.1276920">
        <ele>74.4</ele>
        <time>2019-09-04T10:23:35Z</time>
      </trkpt>
      <trkpt lat="39.9356210" lon="-0.1280010">
        <ele>74.6</ele>
        <time>2019-09-04T10:23:39Z</time>
      </trkpt>
      <trkpt lat="39.9356270" lon="-0.1281500">
        <ele>74.8</ele>
        <time>2019-09-04T10:23:41Z</time>
      </trkpt>
      <trkpt lat="39.9356310" lon="-0.1282220">
        <ele>74.8</ele>
        <time>2019-09-04T10:23:42Z</time>
      </trkpt>
      <trkpt lat="39.9356400" lon="-0.1283600">
        <ele>74.8</ele>
        <time>2019-09-04T10:23:44Z</time>
      </trkpt>
      <trkpt lat="39.9356520" lon="-0.1286260">
        <ele>75.0</ele>
        <time>2019-09-04T10:23:48Z</time>
      </trkpt>
      <trkpt lat="39.9356650" lon="-0.1289510">
        <ele>75.2</ele>
        <time>2019-09-04T10:23:53Z</time>
      </trkpt>
      <trkpt lat="39.9356700" lon="-0.1290860">
        <ele>75.6</ele>
        <time>2019-09-04T10:23:55Z</time>
      </trkpt>
      <trkpt lat="39.9356910" lon="-0.1293450">
        <ele>75.6</ele>
        <time>2019-09-04T10:23:59Z</time>
      </trkpt>
      <trkpt lat="39.9357020" lon="-0.1295370">
        <ele>75.8</ele>
        <time>2019-09-04T10:24:02Z</time>
      </trkpt>
      <trkpt lat="39.9357010" lon="-0.1296030">
        <ele>75.8</ele>
        <time>2019-09-04T10:24:03Z</time>
      </trkpt>
      <trkpt lat="39.9357010" lon="-0.1297410">
        <ele>76.4</ele>
        <time>2019-09-04T10:24:05Z</time>
      </trkpt>
      <trkpt lat="39.9357060" lon="-0.1298800">
        <ele>76.6</ele>
        <time>2019-09-04T10:24:07Z</time>
      </trkpt>
      <trkpt lat="39.9357220" lon="-0.1301510">
        <ele>76.4</ele>
        <time>2019-09-04T10:24:11Z</time>
      </trkpt>
      <trkpt lat="39.9357370" lon="-0.1302870">
        <ele>76.2</ele>
        <time>2019-09-04T10:24:13Z</time>
      </trkpt>
      <trkpt lat="39.9357460" lon="-0.1304240">
        <ele>76.2</ele>
        <time>2019-09-04T10:24:15Z</time>
      </trkpt>
      <trkpt lat="39.9357540" lon="-0.1306180">
        <ele>76.4</ele>
        <time>2019-09-04T10:24:18Z</time>
      </trkpt>
      <trkpt lat="39.9357630" lon="-0.1308130">
        <ele>77.0</ele>
        <time>2019-09-04T10:24:21Z</time>
      </trkpt>
      <trkpt lat="39.9357720" lon="-0.1309550">
        <ele>77.2</ele>
        <time>2019-09-04T10:24:23Z</time>
      </trkpt>
      <trkpt lat="39.9357790" lon="-0.1310960">
        <ele>77.4</ele>
        <time>2019-09-04T10:24:25Z</time>
      </trkpt>
      <trkpt lat="39.9357840" lon="-0.1312420">
        <ele>77.6</ele>
        <time>2019-09-04T10:24:27Z</time>
      </trkpt>
      <trkpt lat="39.9357840" lon="-0.1313900">
        <ele>78.2</ele>
        <time>2019-09-04T10:24:29Z</time>
      </trkpt>
      <trkpt lat="39.9357840" lon="-0.1316100">
        <ele>78.6</ele>
        <time>2019-09-04T10:24:32Z</time>
      </trkpt>
      <trkpt lat="39.9357790" lon="-0.1317560">
        <ele>78.8</ele>
        <time>2019-09-04T10:24:34Z</time>
      </trkpt>
      <trkpt lat="39.9357710" lon="-0.1319070">
        <ele>79.0</ele>
        <time>2019-09-04T10:24:36Z</time>
      </trkpt>
      <trkpt lat="39.9357600" lon="-0.1320530">
        <ele>79.2</ele>
        <time>2019-09-04T10:24:38Z</time>
      </trkpt>
      <trkpt lat="39.9357470" lon="-0.1321220">
        <ele>79.4</ele>
        <time>2019-09-04T10:24:39Z</time>
      </trkpt>
      <trkpt lat="39.9357270" lon="-0.1321900">
        <ele>79.4</ele>
        <time>2019-09-04T10:24:40Z</time>
      </trkpt>
      <trkpt lat="39.9356770" lon="-0.1323380">
        <ele>79.6</ele>
        <time>2019-09-04T10:24:42Z</time>
      </trkpt>
      <trkpt lat="39.9355880" lon="-0.1325160">
        <ele>79.4</ele>
        <time>2019-09-04T10:24:45Z</time>
      </trkpt>
      <trkpt lat="39.9355330" lon="-0.1326000">
        <ele>79.2</ele>
        <time>2019-09-04T10:24:47Z</time>
      </trkpt>
      <trkpt lat="39.9354510" lon="-0.1327420">
        <ele>79.4</ele>
        <time>2019-09-04T10:24:51Z</time>
      </trkpt>
      <trkpt lat="39.9353720" lon="-0.1328590">
        <ele>80.4</ele>
        <time>2019-09-04T10:24:56Z</time>
      </trkpt>
      <trkpt lat="39.9353430" lon="-0.1329040">
        <ele>80.6</ele>
        <time>2019-09-04T10:24:58Z</time>
      </trkpt>
      <trkpt lat="39.9352660" lon="-0.1330560">
        <ele>81.6</ele>
        <time>2019-09-04T10:25:03Z</time>
      </trkpt>
      <trkpt lat="39.9352140" lon="-0.1332150">
        <ele>82.6</ele>
        <time>2019-09-04T10:25:08Z</time>
      </trkpt>
      <trkpt lat="39.9352060" lon="-0.1332490">
        <ele>82.8</ele>
        <time>2019-09-04T10:25:09Z</time>
      </trkpt>
      <trkpt lat="39.9351740" lon="-0.1334860">
        <ele>83.8</ele>
        <time>2019-09-04T10:25:16Z</time>
      </trkpt>
      <trkpt lat="39.9351870" lon="-0.1337230">
        <ele>85.0</ele>
        <time>2019-09-04T10:25:23Z</time>
      </trkpt>
      <trkpt lat="39.9352340" lon="-0.1340900">
        <ele>85.8</ele>
        <time>2019-09-04T10:25:33Z</time>
      </trkpt>
      <trkpt lat="39.9352400" lon="-0.1341340">
        <ele>86.0</ele>
        <time>2019-09-04T10:25:34Z</time>
      </trkpt>
      <trkpt lat="39.9352660" lon="-0.1344020">
        <ele>86.0</ele>
        <time>2019-09-04T10:25:39Z</time>
      </trkpt>
      <trkpt lat="39.9352900" lon="-0.1346050">
        <ele>86.4</ele>
        <time>2019-09-04T10:25:42Z</time>
      </trkpt>
      <trkpt lat="39.9353170" lon="-0.1348260">
        <ele>86.8</ele>
        <time>2019-09-04T10:25:45Z</time>
      </trkpt>
      <trkpt lat="39.9353400" lon="-0.1349890">
        <ele>86.4</ele>
        <time>2019-09-04T10:25:47Z</time>
      </trkpt>
      <trkpt lat="39.9353670" lon="-0.1352730">
        <ele>84.0</ele>
        <time>2019-09-04T10:25:50Z</time>
      </trkpt>
      <trkpt lat="39.9353850" lon="-0.1354670">
        <ele>82.0</ele>
        <time>2019-09-04T10:25:52Z</time>
      </trkpt>
      <trkpt lat="39.9353970" lon="-0.1356670">
        <ele>80.8</ele>
        <time>2019-09-04T10:25:54Z</time>
      </trkpt>
      <trkpt lat="39.9354080" lon="-0.1359630">
        <ele>79.8</ele>
        <time>2019-09-04T10:25:57Z</time>
      </trkpt>
      <trkpt lat="39.9354060" lon="-0.1360590">
        <ele>79.2</ele>
        <time>2019-09-04T10:25:58Z</time>
      </trkpt>
      <trkpt lat="39.9353980" lon="-0.1362400">
        <ele>78.4</ele>
        <time>2019-09-04T10:26:00Z</time>
      </trkpt>
      <trkpt lat="39.9353830" lon="-0.1364120">
        <ele>78.0</ele>
        <time>2019-09-04T10:26:02Z</time>
      </trkpt>
      <trkpt lat="39.9353630" lon="-0.1365680">
        <ele>78.0</ele>
        <time>2019-09-04T10:26:04Z</time>
      </trkpt>
      <trkpt lat="39.9353110" lon="-0.1368780">
        <ele>78.4</ele>
        <time>2019-09-04T10:26:08Z</time>
      </trkpt>
      <trkpt lat="39.9352840" lon="-0.1370370">
        <ele>79.8</ele>
        <time>2019-09-04T10:26:10Z</time>
      </trkpt>
      <trkpt lat="39.9352560" lon="-0.1371950">
        <ele>81.2</ele>
        <time>2019-09-04T10:26:12Z</time>
      </trkpt>
      <trkpt lat="39.9352060" lon="-0.1376040">
        <ele>81.8</ele>
        <time>2019-09-04T10:26:17Z</time>
      </trkpt>
      <trkpt lat="39.9351950" lon="-0.1377660">
        <ele>81.6</ele>
        <time>2019-09-04T10:26:19Z</time>
      </trkpt>
      <trkpt lat="39.9351870" lon="-0.1379240">
        <ele>81.4</ele>
        <time>2019-09-04T10:26:21Z</time>
      </trkpt>
      <trkpt lat="39.9351790" lon="-0.1380830">
        <ele>81.0</ele>
        <time>2019-09-04T10:26:23Z</time>
      </trkpt>
      <trkpt lat="39.9351770" lon="-0.1382480">
        <ele>80.6</ele>
        <time>2019-09-04T10:26:25Z</time>
      </trkpt>
      <trkpt lat="39.9351710" lon="-0.1384930">
        <ele>80.2</ele>
        <time>2019-09-04T10:26:28Z</time>
      </trkpt>
      <trkpt lat="39.9351600" lon="-0.1387370">
        <ele>80.2</ele>
        <time>2019-09-04T10:26:31Z</time>
      </trkpt>
      <trkpt lat="39.9351450" lon="-0.1389770">
        <ele>80.6</ele>
        <time>2019-09-04T10:26:34Z</time>
      </trkpt>
      <trkpt lat="39.9351170" lon="-0.1393030">
        <ele>80.8</ele>
        <time>2019-09-04T10:26:38Z</time>
      </trkpt>
      <trkpt lat="39.9351020" lon="-0.1394670">
        <ele>80.6</ele>
        <time>2019-09-04T10:26:40Z</time>
      </trkpt>
      <trkpt lat="39.9350890" lon="-0.1396330">
        <ele>80.2</ele>
        <time>2019-09-04T10:26:42Z</time>
      </trkpt>
      <trkpt lat="39.9350670" lon="-0.1398800">
        <ele>79.6</ele>
        <time>2019-09-04T10:26:45Z</time>
      </trkpt>
      <trkpt lat="39.9350520" lon="-0.1400470">
        <ele>79.4</ele>
        <time>2019-09-04T10:26:47Z</time>
      </trkpt>
      <trkpt lat="39.9350370" lon="-0.1402190">
        <ele>79.2</ele>
        <time>2019-09-04T10:26:49Z</time>
      </trkpt>
      <trkpt lat="39.9350250" lon="-0.1403900">
        <ele>79.4</ele>
        <time>2019-09-04T10:26:51Z</time>
      </trkpt>
      <trkpt lat="39.9349870" lon="-0.1406420">
        <ele>79.6</ele>
        <time>2019-09-04T10:26:54Z</time>
      </trkpt>
      <trkpt lat="39.9349560" lon="-0.1408030">
        <ele>79.6</ele>
        <time>2019-09-04T10:26:56Z</time>
      </trkpt>
      <trkpt lat="39.9349230" lon="-0.1409640">
        <ele>79.8</ele>
        <time>2019-09-04T10:26:58Z</time>
      </trkpt>
      <trkpt lat="39.9348870" lon="-0.1411240">
        <ele>79.8</ele>
        <time>2019-09-04T10:27:00Z</time>
      </trkpt>
      <trkpt lat="39.9348390" lon="-0.1413620">
        <ele>79.8</ele>
        <time>2019-09-04T10:27:03Z</time>
      </trkpt>
      <trkpt lat="39.9348040" lon="-0.1415200">
        <ele>79.0</ele>
        <time>2019-09-04T10:27:05Z</time>
      </trkpt>
      <trkpt lat="39.9347710" lon="-0.1416830">
        <ele>77.4</ele>
        <time>2019-09-04T10:27:07Z</time>
      </trkpt>
      <trkpt lat="39.9347400" lon="-0.1418470">
        <ele>76.8</ele>
        <time>2019-09-04T10:27:09Z</time>
      </trkpt>
      <trkpt lat="39.9347050" lon="-0.1420040">
        <ele>76.4</ele>
        <time>2019-09-04T10:27:11Z</time>
      </trkpt>
      <trkpt lat="39.9346030" lon="-0.1423980">
        <ele>76.4</ele>
        <time>2019-09-04T10:27:16Z</time>
      </trkpt>
      <trkpt lat="39.9345050" lon="-0.1425390">
        <ele>76.4</ele>
        <time>2019-09-04T10:27:18Z</time>
      </trkpt>
      <trkpt lat="39.9343430" lon="-0.1427090">
        <ele>75.8</ele>
        <time>2019-09-04T10:27:21Z</time>
      </trkpt>
      <trkpt lat="39.9342700" lon="-0.1428400">
        <ele>76.0</ele>
        <time>2019-09-04T10:27:23Z</time>
      </trkpt>
      <trkpt lat="39.9342400" lon="-0.1429710">
        <ele>77.2</ele>
        <time>2019-09-04T10:27:25Z</time>
      </trkpt>
      <trkpt lat="39.9342450" lon="-0.1430300">
        <ele>77.6</ele>
        <time>2019-09-04T10:27:26Z</time>
      </trkpt>
      <trkpt lat="39.9342790" lon="-0.1431390">
        <ele>77.8</ele>
        <time>2019-09-04T10:27:28Z</time>
      </trkpt>
      <trkpt lat="39.9343390" lon="-0.1433600">
        <ele>77.8</ele>
        <time>2019-09-04T10:27:32Z</time>
      </trkpt>
      <trkpt lat="39.9343900" lon="-0.1436990">
        <ele>78.0</ele>
        <time>2019-09-04T10:27:38Z</time>
      </trkpt>
      <trkpt lat="39.9344010" lon="-0.1438680">
        <ele>78.2</ele>
        <time>2019-09-04T10:27:41Z</time>
      </trkpt>
      <trkpt lat="39.9344130" lon="-0.1439840">
        <ele>78.2</ele>
        <time>2019-09-04T10:27:43Z</time>
      </trkpt>
      <trkpt lat="39.9344190" lon="-0.1440990">
        <ele>78.2</ele>
        <time>2019-09-04T10:27:45Z</time>
      </trkpt>
      <trkpt lat="39.9344360" lon="-0.1443370">
        <ele>78.4</ele>
        <time>2019-09-04T10:27:49Z</time>
      </trkpt>
      <trkpt lat="39.9344440" lon="-0.1444580">
        <ele>78.8</ele>
        <time>2019-09-04T10:27:51Z</time>
      </trkpt>
      <trkpt lat="39.9344470" lon="-0.1445190">
        <ele>78.8</ele>
        <time>2019-09-04T10:27:52Z</time>
      </trkpt>
      <trkpt lat="39.9344510" lon="-0.1447080">
        <ele>79.0</ele>
        <time>2019-09-04T10:27:55Z</time>
      </trkpt>
      <trkpt lat="39.9344530" lon="-0.1448360">
        <ele>79.0</ele>
        <time>2019-09-04T10:27:57Z</time>
      </trkpt>
      <trkpt lat="39.9344600" lon="-0.1450340">
        <ele>79.0</ele>
        <time>2019-09-04T10:28:00Z</time>
      </trkpt>
      <trkpt lat="39.9344590" lon="-0.1453090">
        <ele>79.4</ele>
        <time>2019-09-04T10:28:04Z</time>
      </trkpt>
      <trkpt lat="39.9344620" lon="-0.1454480">
        <ele>79.4</ele>
        <time>2019-09-04T10:28:06Z</time>
      </trkpt>
      <trkpt lat="39.9344660" lon="-0.1455860">
        <ele>79.4</ele>
        <time>2019-09-04T10:28:08Z</time>
      </trkpt>
      <trkpt lat="39.9344740" lon="-0.1457240">
        <ele>79.4</ele>
        <time>2019-09-04T10:28:10Z</time>
      </trkpt>
      <trkpt lat="39.9344870" lon="-0.1458620">
        <ele>79.6</ele>
        <time>2019-09-04T10:28:12Z</time>
      </trkpt>
      <trkpt lat="39.9344960" lon="-0.1459960">
        <ele>79.8</ele>
        <time>2019-09-04T10:28:14Z</time>
      </trkpt>
      <trkpt lat="39.9345110" lon="-0.1464920">
        <ele>80.2</ele>
        <time>2019-09-04T10:28:21Z</time>
      </trkpt>
      <trkpt lat="39.9345180" lon="-0.1466310">
        <ele>80.2</ele>
        <time>2019-09-04T10:28:23Z</time>
      </trkpt>
      <trkpt lat="39.9345230" lon="-0.1467710">
        <ele>80.4</ele>
        <time>2019-09-04T10:28:25Z</time>
      </trkpt>
      <trkpt lat="39.9345250" lon="-0.1469120">
        <ele>80.6</ele>
        <time>2019-09-04T10:28:27Z</time>
      </trkpt>
      <trkpt lat="39.9345240" lon="-0.1470520">
        <ele>80.6</ele>
        <time>2019-09-04T10:28:29Z</time>
      </trkpt>
      <trkpt lat="39.9345190" lon="-0.1471920">
        <ele>80.6</ele>
        <time>2019-09-04T10:28:31Z</time>
      </trkpt>
      <trkpt lat="39.9345070" lon="-0.1473330">
        <ele>80.8</ele>
        <time>2019-09-04T10:28:33Z</time>
      </trkpt>
      <trkpt lat="39.9344920" lon="-0.1474730">
        <ele>80.8</ele>
        <time>2019-09-04T10:28:35Z</time>
      </trkpt>
      <trkpt lat="39.9344760" lon="-0.1476120">
        <ele>80.8</ele>
        <time>2019-09-04T10:28:37Z</time>
      </trkpt>
      <trkpt lat="39.9344670" lon="-0.1476810">
        <ele>80.8</ele>
        <time>2019-09-04T10:28:38Z</time>
      </trkpt>
      <trkpt lat="39.9344440" lon="-0.1478870">
        <ele>80.8</ele>
        <time>2019-09-04T10:28:41Z</time>
      </trkpt>
      <trkpt lat="39.9344270" lon="-0.1480230">
        <ele>80.8</ele>
        <time>2019-09-04T10:28:43Z</time>
      </trkpt>
      <trkpt lat="39.9344080" lon="-0.1481590">
        <ele>81.0</ele>
        <time>2019-09-04T10:28:45Z</time>
      </trkpt>
      <trkpt lat="39.9343860" lon="-0.1482940">
        <ele>81.2</ele>
        <time>2019-09-04T10:28:47Z</time>
      </trkpt>
      <trkpt lat="39.9343470" lon="-0.1485020">
        <ele>81.8</ele>
        <time>2019-09-04T10:28:50Z</time>
      </trkpt>
      <trkpt lat="39.9343330" lon="-0.1485730">
        <ele>82.0</ele>
        <time>2019-09-04T10:28:51Z</time>
      </trkpt>
      <trkpt lat="39.9343060" lon="-0.1487120">
        <ele>82.0</ele>
        <time>2019-09-04T10:28:53Z</time>
      </trkpt>
      <trkpt lat="39.9342520" lon="-0.1489820">
        <ele>82.0</ele>
        <time>2019-09-04T10:28:57Z</time>
      </trkpt>
      <trkpt lat="39.9342260" lon="-0.1491180">
        <ele>82.0</ele>
        <time>2019-09-04T10:28:59Z</time>
      </trkpt>
      <trkpt lat="39.9341960" lon="-0.1492600">
        <ele>82.2</ele>
        <time>2019-09-04T10:29:01Z</time>
      </trkpt>
      <trkpt lat="39.9341730" lon="-0.1494050">
        <ele>83.0</ele>
        <time>2019-09-04T10:29:03Z</time>
      </trkpt>
      <trkpt lat="39.9341470" lon="-0.1495480">
        <ele>83.2</ele>
        <time>2019-09-04T10:29:05Z</time>
      </trkpt>
      <trkpt lat="39.9341060" lon="-0.1497670">
        <ele>83.0</ele>
        <time>2019-09-04T10:29:08Z</time>
      </trkpt>
      <trkpt lat="39.9340800" lon="-0.1499150">
        <ele>83.0</ele>
        <time>2019-09-04T10:29:10Z</time>
      </trkpt>
      <trkpt lat="39.9340510" lon="-0.1500640">
        <ele>83.0</ele>
        <time>2019-09-04T10:29:12Z</time>
      </trkpt>
      <trkpt lat="39.9339870" lon="-0.1503490">
        <ele>82.6</ele>
        <time>2019-09-04T10:29:16Z</time>
      </trkpt>
      <trkpt lat="39.9339160" lon="-0.1506320">
        <ele>82.6</ele>
        <time>2019-09-04T10:29:20Z</time>
      </trkpt>
      <trkpt lat="39.9338220" lon="-0.1509860">
        <ele>83.0</ele>
        <time>2019-09-04T10:29:25Z</time>
      </trkpt>
      <trkpt lat="39.9337640" lon="-0.1511910">
        <ele>83.0</ele>
        <time>2019-09-04T10:29:28Z</time>
      </trkpt>
      <trkpt lat="39.9337200" lon="-0.1513270">
        <ele>83.0</ele>
        <time>2019-09-04T10:29:30Z</time>
      </trkpt>
      <trkpt lat="39.9335100" lon="-0.1519470">
        <ele>82.6</ele>
        <time>2019-09-04T10:29:39Z</time>
      </trkpt>
      <trkpt lat="39.9334610" lon="-0.1520870">
        <ele>82.6</ele>
        <time>2019-09-04T10:29:41Z</time>
      </trkpt>
      <trkpt lat="39.9334150" lon="-0.1522260">
        <ele>82.6</ele>
        <time>2019-09-04T10:29:43Z</time>
      </trkpt>
      <trkpt lat="39.9333660" lon="-0.1523640">
        <ele>82.8</ele>
        <time>2019-09-04T10:29:45Z</time>
      </trkpt>
      <trkpt lat="39.9332960" lon="-0.1525750">
        <ele>82.8</ele>
        <time>2019-09-04T10:29:48Z</time>
      </trkpt>
      <trkpt lat="39.9332480" lon="-0.1527160">
        <ele>82.8</ele>
        <time>2019-09-04T10:29:50Z</time>
      </trkpt>
      <trkpt lat="39.9330920" lon="-0.1531290">
        <ele>83.6</ele>
        <time>2019-09-04T10:29:56Z</time>
      </trkpt>
      <trkpt lat="39.9330380" lon="-0.1532670">
        <ele>83.4</ele>
        <time>2019-09-04T10:29:58Z</time>
      </trkpt>
      <trkpt lat="39.9329570" lon="-0.1534780">
        <ele>83.4</ele>
        <time>2019-09-04T10:30:01Z</time>
      </trkpt>
      <trkpt lat="39.9328460" lon="-0.1537560">
        <ele>84.0</ele>
        <time>2019-09-04T10:30:05Z</time>
      </trkpt>
      <trkpt lat="39.9327910" lon="-0.1538910">
        <ele>84.0</ele>
        <time>2019-09-04T10:30:07Z</time>
      </trkpt>
      <trkpt lat="39.9327380" lon="-0.1540270">
        <ele>83.8</ele>
        <time>2019-09-04T10:30:09Z</time>
      </trkpt>
      <trkpt lat="39.9326820" lon="-0.1541580">
        <ele>83.8</ele>
        <time>2019-09-04T10:30:11Z</time>
      </trkpt>
      <trkpt lat="39.9326290" lon="-0.1542860">
        <ele>84.0</ele>
        <time>2019-09-04T10:30:13Z</time>
      </trkpt>
      <trkpt lat="39.9326050" lon="-0.1543490">
        <ele>84.2</ele>
        <time>2019-09-04T10:30:14Z</time>
      </trkpt>
      <trkpt lat="39.9325790" lon="-0.1544100">
        <ele>84.2</ele>
        <time>2019-09-04T10:30:15Z</time>
      </trkpt>
      <trkpt lat="39.9325020" lon="-0.1545880">
        <ele>84.4</ele>
        <time>2019-09-04T10:30:18Z</time>
      </trkpt>
      <trkpt lat="39.9324510" lon="-0.1547090">
        <ele>84.2</ele>
        <time>2019-09-04T10:30:20Z</time>
      </trkpt>
      <trkpt lat="39.9321860" lon="-0.1553610">
        <ele>83.4</ele>
        <time>2019-09-04T10:30:31Z</time>
      </trkpt>
      <trkpt lat="39.9320980" lon="-0.1555470">
        <ele>83.4</ele>
        <time>2019-09-04T10:30:34Z</time>
      </trkpt>
      <trkpt lat="39.9320310" lon="-0.1557810">
        <ele>83.0</ele>
        <time>2019-09-04T10:30:37Z</time>
      </trkpt>
      <trkpt lat="39.9319990" lon="-0.1559580">
        <ele>82.0</ele>
        <time>2019-09-04T10:30:39Z</time>
      </trkpt>
      <trkpt lat="39.9319870" lon="-0.1560460">
        <ele>81.4</ele>
        <time>2019-09-04T10:30:40Z</time>
      </trkpt>
      <trkpt lat="39.9319790" lon="-0.1561320">
        <ele>81.0</ele>
        <time>2019-09-04T10:30:41Z</time>
      </trkpt>
      <trkpt lat="39.9319710" lon="-0.1562150">
        <ele>80.6</ele>
        <time>2019-09-04T10:30:42Z</time>
      </trkpt>
      <trkpt lat="39.9319550" lon="-0.1563720">
        <ele>80.0</ele>
        <time>2019-09-04T10:30:44Z</time>
      </trkpt>
      <trkpt lat="39.9319350" lon="-0.1565230">
        <ele>80.0</ele>
        <time>2019-09-04T10:30:46Z</time>
      </trkpt>
      <trkpt lat="39.9319160" lon="-0.1566710">
        <ele>80.0</ele>
        <time>2019-09-04T10:30:48Z</time>
      </trkpt>
      <trkpt lat="39.9318890" lon="-0.1568880">
        <ele>81.6</ele>
        <time>2019-09-04T10:30:51Z</time>
      </trkpt>
      <trkpt lat="39.9318690" lon="-0.1570130">
        <ele>82.8</ele>
        <time>2019-09-04T10:30:53Z</time>
      </trkpt>
      <trkpt lat="39.9318370" lon="-0.1572120">
        <ele>84.0</ele>
        <time>2019-09-04T10:30:57Z</time>
      </trkpt>
      <trkpt lat="39.9317980" lon="-0.1574540">
        <ele>85.0</ele>
        <time>2019-09-04T10:31:04Z</time>
      </trkpt>
      <trkpt lat="39.9317560" lon="-0.1577600">
        <ele>85.6</ele>
        <time>2019-09-04T10:31:12Z</time>
      </trkpt>
      <trkpt lat="39.9317120" lon="-0.1581890">
        <ele>85.8</ele>
        <time>2019-09-04T10:31:21Z</time>
      </trkpt>
      <trkpt lat="39.9317030" lon="-0.1582990">
        <ele>86.0</ele>
        <time>2019-09-04T10:31:23Z</time>
      </trkpt>
      <trkpt lat="39.9316960" lon="-0.1584120">
        <ele>86.0</ele>
        <time>2019-09-04T10:31:25Z</time>
      </trkpt>
      <trkpt lat="39.9316830" lon="-0.1585880">
        <ele>86.2</ele>
        <time>2019-09-04T10:31:28Z</time>
      </trkpt>
      <trkpt lat="39.9316730" lon="-0.1587130">
        <ele>86.2</ele>
        <time>2019-09-04T10:31:30Z</time>
      </trkpt>
      <trkpt lat="39.9316460" lon="-0.1589720">
        <ele>86.2</ele>
        <time>2019-09-04T10:31:34Z</time>
      </trkpt>
      <trkpt lat="39.9316340" lon="-0.1590980">
        <ele>86.4</ele>
        <time>2019-09-04T10:31:36Z</time>
      </trkpt>
      <trkpt lat="39.9316100" lon="-0.1592870">
        <ele>86.6</ele>
        <time>2019-09-04T10:31:39Z</time>
      </trkpt>
      <trkpt lat="39.9315890" lon="-0.1594180">
        <ele>86.6</ele>
        <time>2019-09-04T10:31:41Z</time>
      </trkpt>
      <trkpt lat="39.9315710" lon="-0.1595520">
        <ele>86.6</ele>
        <time>2019-09-04T10:31:43Z</time>
      </trkpt>
      <trkpt lat="39.9315420" lon="-0.1597580">
        <ele>86.8</ele>
        <time>2019-09-04T10:31:46Z</time>
      </trkpt>
      <trkpt lat="39.9315150" lon="-0.1599720">
        <ele>86.8</ele>
        <time>2019-09-04T10:31:49Z</time>
      </trkpt>
      <trkpt lat="39.9314960" lon="-0.1601170">
        <ele>87.0</ele>
        <time>2019-09-04T10:31:51Z</time>
      </trkpt>
      <trkpt lat="39.9314760" lon="-0.1602660">
        <ele>87.2</ele>
        <time>2019-09-04T10:31:53Z</time>
      </trkpt>
      <trkpt lat="39.9314580" lon="-0.1604150">
        <ele>87.4</ele>
        <time>2019-09-04T10:31:55Z</time>
      </trkpt>
      <trkpt lat="39.9314380" lon="-0.1605630">
        <ele>87.6</ele>
        <time>2019-09-04T10:31:57Z</time>
      </trkpt>
      <trkpt lat="39.9314210" lon="-0.1607100">
        <ele>87.4</ele>
        <time>2019-09-04T10:31:59Z</time>
      </trkpt>
      <trkpt lat="39.9313900" lon="-0.1609290">
        <ele>87.6</ele>
        <time>2019-09-04T10:32:02Z</time>
      </trkpt>
      <trkpt lat="39.9313690" lon="-0.1610750">
        <ele>87.4</ele>
        <time>2019-09-04T10:32:04Z</time>
      </trkpt>
      <trkpt lat="39.9313470" lon="-0.1612170">
        <ele>87.6</ele>
        <time>2019-09-04T10:32:06Z</time>
      </trkpt>
      <trkpt lat="39.9313000" lon="-0.1615780">
        <ele>88.2</ele>
        <time>2019-09-04T10:32:11Z</time>
      </trkpt>
      <trkpt lat="39.9312760" lon="-0.1617220">
        <ele>88.4</ele>
        <time>2019-09-04T10:32:13Z</time>
      </trkpt>
      <trkpt lat="39.9312530" lon="-0.1618670">
        <ele>88.4</ele>
        <time>2019-09-04T10:32:15Z</time>
      </trkpt>
      <trkpt lat="39.9312270" lon="-0.1620140">
        <ele>88.4</ele>
        <time>2019-09-04T10:32:17Z</time>
      </trkpt>
      <trkpt lat="39.9311940" lon="-0.1621620">
        <ele>88.6</ele>
        <time>2019-09-04T10:32:19Z</time>
      </trkpt>
      <trkpt lat="39.9311310" lon="-0.1624630">
        <ele>89.0</ele>
        <time>2019-09-04T10:32:23Z</time>
      </trkpt>
      <trkpt lat="39.9311010" lon="-0.1626110">
        <ele>88.8</ele>
        <time>2019-09-04T10:32:25Z</time>
      </trkpt>
      <trkpt lat="39.9310690" lon="-0.1627550">
        <ele>88.8</ele>
        <time>2019-09-04T10:32:27Z</time>
      </trkpt>
      <trkpt lat="39.9310040" lon="-0.1630480">
        <ele>88.6</ele>
        <time>2019-09-04T10:32:31Z</time>
      </trkpt>
      <trkpt lat="39.9309730" lon="-0.1631980">
        <ele>88.6</ele>
        <time>2019-09-04T10:32:33Z</time>
      </trkpt>
      <trkpt lat="39.9309050" lon="-0.1635010">
        <ele>87.8</ele>
        <time>2019-09-04T10:32:37Z</time>
      </trkpt>
      <trkpt lat="39.9308740" lon="-0.1636540">
        <ele>87.8</ele>
        <time>2019-09-04T10:32:39Z</time>
      </trkpt>
      <trkpt lat="39.9308420" lon="-0.1638070">
        <ele>87.8</ele>
        <time>2019-09-04T10:32:41Z</time>
      </trkpt>
      <trkpt lat="39.9308100" lon="-0.1639610">
        <ele>88.0</ele>
        <time>2019-09-04T10:32:43Z</time>
      </trkpt>
      <trkpt lat="39.9307810" lon="-0.1641130">
        <ele>88.0</ele>
        <time>2019-09-04T10:32:45Z</time>
      </trkpt>
      <trkpt lat="39.9307300" lon="-0.1643370">
        <ele>88.0</ele>
        <time>2019-09-04T10:32:48Z</time>
      </trkpt>
      <trkpt lat="39.9306910" lon="-0.1644820">
        <ele>88.0</ele>
        <time>2019-09-04T10:32:50Z</time>
      </trkpt>
      <trkpt lat="39.9306480" lon="-0.1646230">
        <ele>87.8</ele>
        <time>2019-09-04T10:32:52Z</time>
      </trkpt>
      <trkpt lat="39.9306040" lon="-0.1647620">
        <ele>87.6</ele>
        <time>2019-09-04T10:32:54Z</time>
      </trkpt>
      <trkpt lat="39.9305300" lon="-0.1649650">
        <ele>87.6</ele>
        <time>2019-09-04T10:32:57Z</time>
      </trkpt>
      <trkpt lat="39.9304830" lon="-0.1651050">
        <ele>88.2</ele>
        <time>2019-09-04T10:32:59Z</time>
      </trkpt>
      <trkpt lat="39.9304490" lon="-0.1652530">
        <ele>89.2</ele>
        <time>2019-09-04T10:33:01Z</time>
      </trkpt>
      <trkpt lat="39.9304130" lon="-0.1654820">
        <ele>90.4</ele>
        <time>2019-09-04T10:33:04Z</time>
      </trkpt>
      <trkpt lat="39.9303830" lon="-0.1657810">
        <ele>90.2</ele>
        <time>2019-09-04T10:33:08Z</time>
      </trkpt>
      <trkpt lat="39.9303950" lon="-0.1659330">
        <ele>90.2</ele>
        <time>2019-09-04T10:33:10Z</time>
      </trkpt>
      <trkpt lat="39.9304220" lon="-0.1661520">
        <ele>90.0</ele>
        <time>2019-09-04T10:33:13Z</time>
      </trkpt>
      <trkpt lat="39.9304440" lon="-0.1663700">
        <ele>89.0</ele>
        <time>2019-09-04T10:33:16Z</time>
      </trkpt>
      <trkpt lat="39.9304620" lon="-0.1665960">
        <ele>88.2</ele>
        <time>2019-09-04T10:33:19Z</time>
      </trkpt>
      <trkpt lat="39.9304670" lon="-0.1668270">
        <ele>88.4</ele>
        <time>2019-09-04T10:33:22Z</time>
      </trkpt>
      <trkpt lat="39.9304540" lon="-0.1669790">
        <ele>88.6</ele>
        <time>2019-09-04T10:33:24Z</time>
      </trkpt>
      <trkpt lat="39.9303640" lon="-0.1673310">
        <ele>89.0</ele>
        <time>2019-09-04T10:33:29Z</time>
      </trkpt>
      <trkpt lat="39.9302860" lon="-0.1675910">
        <ele>89.4</ele>
        <time>2019-09-04T10:33:33Z</time>
      </trkpt>
      <trkpt lat="39.9302510" lon="-0.1677220">
        <ele>89.8</ele>
        <time>2019-09-04T10:33:35Z</time>
      </trkpt>
      <trkpt lat="39.9301900" lon="-0.1679950">
        <ele>90.2</ele>
        <time>2019-09-04T10:33:39Z</time>
      </trkpt>
      <trkpt lat="39.9301630" lon="-0.1681350">
        <ele>90.2</ele>
        <time>2019-09-04T10:33:41Z</time>
      </trkpt>
      <trkpt lat="39.9301370" lon="-0.1682790">
        <ele>90.2</ele>
        <time>2019-09-04T10:33:43Z</time>
      </trkpt>
      <trkpt lat="39.9301090" lon="-0.1684220">
        <ele>90.4</ele>
        <time>2019-09-04T10:33:45Z</time>
      </trkpt>
      <trkpt lat="39.9300800" lon="-0.1685670">
        <ele>90.6</ele>
        <time>2019-09-04T10:33:47Z</time>
      </trkpt>
      <trkpt lat="39.9300380" lon="-0.1687830">
        <ele>90.8</ele>
        <time>2019-09-04T10:33:50Z</time>
      </trkpt>
      <trkpt lat="39.9300100" lon="-0.1689280">
        <ele>91.2</ele>
        <time>2019-09-04T10:33:52Z</time>
      </trkpt>
      <trkpt lat="39.9299830" lon="-0.1690740">
        <ele>91.4</ele>
        <time>2019-09-04T10:33:54Z</time>
      </trkpt>
      <trkpt lat="39.9299530" lon="-0.1692200">
        <ele>91.4</ele>
        <time>2019-09-04T10:33:56Z</time>
      </trkpt>
      <trkpt lat="39.9299220" lon="-0.1693650">
        <ele>91.4</ele>
        <time>2019-09-04T10:33:58Z</time>
      </trkpt>
      <trkpt lat="39.9298920" lon="-0.1695070">
        <ele>91.4</ele>
        <time>2019-09-04T10:34:00Z</time>
      </trkpt>
      <trkpt lat="39.9298610" lon="-0.1696490">
        <ele>91.4</ele>
        <time>2019-09-04T10:34:02Z</time>
      </trkpt>
      <trkpt lat="39.9297940" lon="-0.1700050">
        <ele>91.8</ele>
        <time>2019-09-04T10:34:07Z</time>
      </trkpt>
      <trkpt lat="39.9297780" lon="-0.1701490">
        <ele>92.0</ele>
        <time>2019-09-04T10:34:09Z</time>
      </trkpt>
      <trkpt lat="39.9297760" lon="-0.1702920">
        <ele>92.0</ele>
        <time>2019-09-04T10:34:11Z</time>
      </trkpt>
      <trkpt lat="39.9297720" lon="-0.1704350">
        <ele>92.2</ele>
        <time>2019-09-04T10:34:13Z</time>
      </trkpt>
      <trkpt lat="39.9297690" lon="-0.1705780">
        <ele>92.8</ele>
        <time>2019-09-04T10:34:15Z</time>
      </trkpt>
      <trkpt lat="39.9297620" lon="-0.1707190">
        <ele>93.4</ele>
        <time>2019-09-04T10:34:17Z</time>
      </trkpt>
      <trkpt lat="39.9297540" lon="-0.1707910">
        <ele>93.8</ele>
        <time>2019-09-04T10:34:18Z</time>
      </trkpt>
      <trkpt lat="39.9297410" lon="-0.1709400">
        <ele>94.4</ele>
        <time>2019-09-04T10:34:20Z</time>
      </trkpt>
      <trkpt lat="39.9297340" lon="-0.1710160">
        <ele>94.6</ele>
        <time>2019-09-04T10:34:21Z</time>
      </trkpt>
      <trkpt lat="39.9297080" lon="-0.1712410">
        <ele>95.0</ele>
        <time>2019-09-04T10:34:24Z</time>
      </trkpt>
      <trkpt lat="39.9296750" lon="-0.1715390">
        <ele>95.0</ele>
        <time>2019-09-04T10:34:28Z</time>
      </trkpt>
      <trkpt lat="39.9296570" lon="-0.1716760">
        <ele>95.0</ele>
        <time>2019-09-04T10:34:30Z</time>
      </trkpt>
      <trkpt lat="39.9296330" lon="-0.1718640">
        <ele>95.2</ele>
        <time>2019-09-04T10:34:33Z</time>
      </trkpt>
      <trkpt lat="39.9296180" lon="-0.1720320">
        <ele>95.0</ele>
        <time>2019-09-04T10:34:36Z</time>
      </trkpt>
      <trkpt lat="39.9296120" lon="-0.1721500">
        <ele>94.8</ele>
        <time>2019-09-04T10:34:38Z</time>
      </trkpt>
      <trkpt lat="39.9296000" lon="-0.1722820">
        <ele>94.8</ele>
        <time>2019-09-04T10:34:40Z</time>
      </trkpt>
      <trkpt lat="39.9295890" lon="-0.1724190">
        <ele>94.8</ele>
        <time>2019-09-04T10:34:42Z</time>
      </trkpt>
      <trkpt lat="39.9295530" lon="-0.1726670">
        <ele>95.0</ele>
        <time>2019-09-04T10:34:46Z</time>
      </trkpt>
      <trkpt lat="39.9295260" lon="-0.1727940">
        <ele>95.0</ele>
        <time>2019-09-04T10:34:48Z</time>
      </trkpt>
      <trkpt lat="39.9294830" lon="-0.1729930">
        <ele>95.2</ele>
        <time>2019-09-04T10:34:51Z</time>
      </trkpt>
      <trkpt lat="39.9294500" lon="-0.1731230">
        <ele>95.4</ele>
        <time>2019-09-04T10:34:53Z</time>
      </trkpt>
      <trkpt lat="39.9294160" lon="-0.1732530">
        <ele>95.4</ele>
        <time>2019-09-04T10:34:55Z</time>
      </trkpt>
      <trkpt lat="39.9293890" lon="-0.1733810">
        <ele>95.4</ele>
        <time>2019-09-04T10:34:57Z</time>
      </trkpt>
      <trkpt lat="39.9293780" lon="-0.1734450">
        <ele>95.6</ele>
        <time>2019-09-04T10:34:58Z</time>
      </trkpt>
      <trkpt lat="39.9293720" lon="-0.1735100">
        <ele>95.6</ele>
        <time>2019-09-04T10:34:59Z</time>
      </trkpt>
      <trkpt lat="39.9293500" lon="-0.1737100">
        <ele>95.6</ele>
        <time>2019-09-04T10:35:02Z</time>
      </trkpt>
      <trkpt lat="39.9293130" lon="-0.1739750">
        <ele>95.2</ele>
        <time>2019-09-04T10:35:06Z</time>
      </trkpt>
      <trkpt lat="39.9292990" lon="-0.1741600">
        <ele>95.0</ele>
        <time>2019-09-04T10:35:09Z</time>
      </trkpt>
      <trkpt lat="39.9292810" lon="-0.1742850">
        <ele>95.6</ele>
        <time>2019-09-04T10:35:11Z</time>
      </trkpt>
      <trkpt lat="39.9292640" lon="-0.1744120">
        <ele>96.0</ele>
        <time>2019-09-04T10:35:13Z</time>
      </trkpt>
      <trkpt lat="39.9292470" lon="-0.1745410">
        <ele>96.4</ele>
        <time>2019-09-04T10:35:15Z</time>
      </trkpt>
      <trkpt lat="39.9292320" lon="-0.1746700">
        <ele>96.6</ele>
        <time>2019-09-04T10:35:17Z</time>
      </trkpt>
      <trkpt lat="39.9292130" lon="-0.1748630">
        <ele>96.8</ele>
        <time>2019-09-04T10:35:20Z</time>
      </trkpt>
      <trkpt lat="39.9291950" lon="-0.1749930">
        <ele>96.8</ele>
        <time>2019-09-04T10:35:22Z</time>
      </trkpt>
      <trkpt lat="39.9291630" lon="-0.1752620">
        <ele>97.4</ele>
        <time>2019-09-04T10:35:26Z</time>
      </trkpt>
      <trkpt lat="39.9291450" lon="-0.1753950">
        <ele>97.6</ele>
        <time>2019-09-04T10:35:28Z</time>
      </trkpt>
      <trkpt lat="39.9291360" lon="-0.1754600">
        <ele>97.8</ele>
        <time>2019-09-04T10:35:29Z</time>
      </trkpt>
      <trkpt lat="39.9291170" lon="-0.1755840">
        <ele>97.8</ele>
        <time>2019-09-04T10:35:31Z</time>
      </trkpt>
      <trkpt lat="39.9290850" lon="-0.1758210">
        <ele>98.0</ele>
        <time>2019-09-04T10:35:35Z</time>
      </trkpt>
      <trkpt lat="39.9290790" lon="-0.1758900">
        <ele>98.0</ele>
        <time>2019-09-04T10:35:37Z</time>
      </trkpt>
      <trkpt lat="39.9290820" lon="-0.1758980">
        <ele>98.0</ele>
        <time>2019-09-04T10:35:38Z</time>
      </trkpt>
      <trkpt lat="39.9290840" lon="-0.1760120">
        <ele>97.8</ele>
        <time>2019-09-04T10:37:51Z</time>
      </trkpt>
      <trkpt lat="39.9290710" lon="-0.1761820">
        <ele>98.0</ele>
        <time>2019-09-04T10:37:55Z</time>
      </trkpt>
      <trkpt lat="39.9290630" lon="-0.1762710">
        <ele>97.6</ele>
        <time>2019-09-04T10:37:57Z</time>
      </trkpt>
      <trkpt lat="39.9290510" lon="-0.1765690">
        <ele>98.0</ele>
        <time>2019-09-04T10:38:03Z</time>
      </trkpt>
      <trkpt lat="39.9290490" lon="-0.1767300">
        <ele>98.0</ele>
        <time>2019-09-04T10:38:06Z</time>
      </trkpt>
      <trkpt lat="39.9290650" lon="-0.1771650">
        <ele>98.6</ele>
        <time>2019-09-04T10:38:14Z</time>
      </trkpt>
      <trkpt lat="39.9290730" lon="-0.1772190">
        <ele>98.8</ele>
        <time>2019-09-04T10:38:15Z</time>
      </trkpt>
      <trkpt lat="39.9290790" lon="-0.1772740">
        <ele>98.8</ele>
        <time>2019-09-04T10:38:16Z</time>
      </trkpt>
      <trkpt lat="39.9290950" lon="-0.1774340">
        <ele>98.8</ele>
        <time>2019-09-04T10:38:19Z</time>
      </trkpt>
      <trkpt lat="39.9291060" lon="-0.1775440">
        <ele>98.8</ele>
        <time>2019-09-04T10:38:21Z</time>
      </trkpt>
      <trkpt lat="39.9291150" lon="-0.1776580">
        <ele>98.8</ele>
        <time>2019-09-04T10:38:23Z</time>
      </trkpt>
      <trkpt lat="39.9291360" lon="-0.1778250">
        <ele>99.0</ele>
        <time>2019-09-04T10:38:26Z</time>
      </trkpt>
      <trkpt lat="39.9291440" lon="-0.1780020">
        <ele>100.2</ele>
        <time>2019-09-04T10:38:29Z</time>
      </trkpt>
      <trkpt lat="39.9291650" lon="-0.1781690">
        <ele>100.6</ele>
        <time>2019-09-04T10:38:32Z</time>
      </trkpt>
      <trkpt lat="39.9292120" lon="-0.1784600">
        <ele>101.2</ele>
        <time>2019-09-04T10:38:37Z</time>
      </trkpt>
      <trkpt lat="39.9292230" lon="-0.1785200">
        <ele>101.4</ele>
        <time>2019-09-04T10:38:38Z</time>
      </trkpt>
      <trkpt lat="39.9292330" lon="-0.1785780">
        <ele>101.6</ele>
        <time>2019-09-04T10:38:39Z</time>
      </trkpt>
      <trkpt lat="39.9292550" lon="-0.1786970">
        <ele>101.8</ele>
        <time>2019-09-04T10:38:41Z</time>
      </trkpt>
      <trkpt lat="39.9293000" lon="-0.1789370">
        <ele>102.4</ele>
        <time>2019-09-04T10:38:45Z</time>
      </trkpt>
      <trkpt lat="39.9293070" lon="-0.1790010">
        <ele>102.6</ele>
        <time>2019-09-04T10:38:46Z</time>
      </trkpt>
      <trkpt lat="39.9293270" lon="-0.1791260">
        <ele>103.0</ele>
        <time>2019-09-04T10:38:48Z</time>
      </trkpt>
      <trkpt lat="39.9293430" lon="-0.1792430">
        <ele>102.8</ele>
        <time>2019-09-04T10:38:50Z</time>
      </trkpt>
      <trkpt lat="39.9293600" lon="-0.1793610">
        <ele>102.0</ele>
        <time>2019-09-04T10:38:52Z</time>
      </trkpt>
      <trkpt lat="39.9293750" lon="-0.1795420">
        <ele>101.6</ele>
        <time>2019-09-04T10:38:55Z</time>
      </trkpt>
      <trkpt lat="39.9293820" lon="-0.1796650">
        <ele>101.6</ele>
        <time>2019-09-04T10:38:57Z</time>
      </trkpt>
      <trkpt lat="39.9293880" lon="-0.1797910">
        <ele>101.6</ele>
        <time>2019-09-04T10:38:59Z</time>
      </trkpt>
      <trkpt lat="39.9293950" lon="-0.1799260">
        <ele>101.8</ele>
        <time>2019-09-04T10:39:01Z</time>
      </trkpt>
      <trkpt lat="39.9294040" lon="-0.1800530">
        <ele>101.8</ele>
        <time>2019-09-04T10:39:03Z</time>
      </trkpt>
      <trkpt lat="39.9294100" lon="-0.1804210">
        <ele>102.0</ele>
        <time>2019-09-04T10:39:09Z</time>
      </trkpt>
      <trkpt lat="39.9293970" lon="-0.1806650">
        <ele>102.2</ele>
        <time>2019-09-04T10:39:13Z</time>
      </trkpt>
      <trkpt lat="39.9293900" lon="-0.1807900">
        <ele>102.4</ele>
        <time>2019-09-04T10:39:15Z</time>
      </trkpt>
      <trkpt lat="39.9293700" lon="-0.1809100">
        <ele>102.4</ele>
        <time>2019-09-04T10:39:17Z</time>
      </trkpt>
      <trkpt lat="39.9293480" lon="-0.1811010">
        <ele>102.4</ele>
        <time>2019-09-04T10:39:20Z</time>
      </trkpt>
      <trkpt lat="39.9292970" lon="-0.1813730">
        <ele>104.2</ele>
        <time>2019-09-04T10:39:24Z</time>
      </trkpt>
      <trkpt lat="39.9292790" lon="-0.1815100">
        <ele>105.4</ele>
        <time>2019-09-04T10:39:26Z</time>
      </trkpt>
      <trkpt lat="39.9292530" lon="-0.1817040">
        <ele>106.6</ele>
        <time>2019-09-04T10:39:29Z</time>
      </trkpt>
      <trkpt lat="39.9292320" lon="-0.1818370">
        <ele>107.2</ele>
        <time>2019-09-04T10:39:31Z</time>
      </trkpt>
      <trkpt lat="39.9292050" lon="-0.1819720">
        <ele>107.0</ele>
        <time>2019-09-04T10:39:33Z</time>
      </trkpt>
      <trkpt lat="39.9291630" lon="-0.1821010">
        <ele>106.6</ele>
        <time>2019-09-04T10:39:35Z</time>
      </trkpt>
      <trkpt lat="39.9291220" lon="-0.1822270">
        <ele>106.2</ele>
        <time>2019-09-04T10:39:37Z</time>
      </trkpt>
      <trkpt lat="39.9290790" lon="-0.1823530">
        <ele>105.8</ele>
        <time>2019-09-04T10:39:39Z</time>
      </trkpt>
      <trkpt lat="39.9290370" lon="-0.1824720">
        <ele>105.4</ele>
        <time>2019-09-04T10:39:41Z</time>
      </trkpt>
      <trkpt lat="39.9289810" lon="-0.1826520">
        <ele>105.6</ele>
        <time>2019-09-04T10:39:44Z</time>
      </trkpt>
      <trkpt lat="39.9289670" lon="-0.1828490">
        <ele>106.2</ele>
        <time>2019-09-04T10:39:47Z</time>
      </trkpt>
      <trkpt lat="39.9289510" lon="-0.1830430">
        <ele>106.2</ele>
        <time>2019-09-04T10:39:50Z</time>
      </trkpt>
      <trkpt lat="39.9289360" lon="-0.1832530">
        <ele>106.2</ele>
        <time>2019-09-04T10:39:53Z</time>
      </trkpt>
      <trkpt lat="39.9289190" lon="-0.1833900">
        <ele>105.6</ele>
        <time>2019-09-04T10:39:55Z</time>
      </trkpt>
      <trkpt lat="39.9288910" lon="-0.1835680">
        <ele>105.0</ele>
        <time>2019-09-04T10:39:58Z</time>
      </trkpt>
      <trkpt lat="39.9288620" lon="-0.1837460">
        <ele>105.0</ele>
        <time>2019-09-04T10:40:01Z</time>
      </trkpt>
      <trkpt lat="39.9288320" lon="-0.1839240">
        <ele>105.0</ele>
        <time>2019-09-04T10:40:04Z</time>
      </trkpt>
      <trkpt lat="39.9287870" lon="-0.1841780">
        <ele>104.8</ele>
        <time>2019-09-04T10:40:08Z</time>
      </trkpt>
      <trkpt lat="39.9287590" lon="-0.1843020">
        <ele>104.8</ele>
        <time>2019-09-04T10:40:10Z</time>
      </trkpt>
      <trkpt lat="39.9287380" lon="-0.1844240">
        <ele>104.8</ele>
        <time>2019-09-04T10:40:12Z</time>
      </trkpt>
      <trkpt lat="39.9287100" lon="-0.1845960">
        <ele>105.0</ele>
        <time>2019-09-04T10:40:15Z</time>
      </trkpt>
      <trkpt lat="39.9287020" lon="-0.1847110">
        <ele>105.4</ele>
        <time>2019-09-04T10:40:17Z</time>
      </trkpt>
      <trkpt lat="39.9287060" lon="-0.1848280">
        <ele>105.6</ele>
        <time>2019-09-04T10:40:19Z</time>
      </trkpt>
      <trkpt lat="39.9287350" lon="-0.1849520">
        <ele>105.8</ele>
        <time>2019-09-04T10:40:21Z</time>
      </trkpt>
      <trkpt lat="39.9287860" lon="-0.1850740">
        <ele>106.0</ele>
        <time>2019-09-04T10:40:23Z</time>
      </trkpt>
      <trkpt lat="39.9288750" lon="-0.1852530">
        <ele>106.2</ele>
        <time>2019-09-04T10:40:26Z</time>
      </trkpt>
      <trkpt lat="39.9289320" lon="-0.1853730">
        <ele>106.0</ele>
        <time>2019-09-04T10:40:28Z</time>
      </trkpt>
      <trkpt lat="39.9289860" lon="-0.1854930">
        <ele>106.0</ele>
        <time>2019-09-04T10:40:30Z</time>
      </trkpt>
      <trkpt lat="39.9290360" lon="-0.1856210">
        <ele>106.0</ele>
        <time>2019-09-04T10:40:32Z</time>
      </trkpt>
      <trkpt lat="39.9290840" lon="-0.1857490">
        <ele>106.2</ele>
        <time>2019-09-04T10:40:34Z</time>
      </trkpt>
      <trkpt lat="39.9291040" lon="-0.1858100">
        <ele>106.6</ele>
        <time>2019-09-04T10:40:35Z</time>
      </trkpt>
      <trkpt lat="39.9291210" lon="-0.1858700">
        <ele>106.8</ele>
        <time>2019-09-04T10:40:36Z</time>
      </trkpt>
      <trkpt lat="39.9291550" lon="-0.1859850">
        <ele>107.0</ele>
        <time>2019-09-04T10:40:38Z</time>
      </trkpt>
      <trkpt lat="39.9292530" lon="-0.1862790">
        <ele>106.2</ele>
        <time>2019-09-04T10:40:43Z</time>
      </trkpt>
      <trkpt lat="39.9293090" lon="-0.1864610">
        <ele>106.2</ele>
        <time>2019-09-04T10:40:46Z</time>
      </trkpt>
      <trkpt lat="39.9293520" lon="-0.1865900">
        <ele>106.0</ele>
        <time>2019-09-04T10:40:48Z</time>
      </trkpt>
      <trkpt lat="39.9293940" lon="-0.1867200">
        <ele>105.8</ele>
        <time>2019-09-04T10:40:50Z</time>
      </trkpt>
      <trkpt lat="39.9294730" lon="-0.1869700">
        <ele>105.8</ele>
        <time>2019-09-04T10:40:54Z</time>
      </trkpt>
      <trkpt lat="39.9295010" lon="-0.1870840">
        <ele>106.0</ele>
        <time>2019-09-04T10:40:56Z</time>
      </trkpt>
      <trkpt lat="39.9295230" lon="-0.1872050">
        <ele>106.2</ele>
        <time>2019-09-04T10:40:58Z</time>
      </trkpt>
      <trkpt lat="39.9295360" lon="-0.1873290">
        <ele>106.2</ele>
        <time>2019-09-04T10:41:00Z</time>
      </trkpt>
      <trkpt lat="39.9295580" lon="-0.1874500">
        <ele>106.2</ele>
        <time>2019-09-04T10:41:02Z</time>
      </trkpt>
      <trkpt lat="39.9295790" lon="-0.1878070">
        <ele>106.4</ele>
        <time>2019-09-04T10:41:07Z</time>
      </trkpt>
      <trkpt lat="39.9295840" lon="-0.1880110">
        <ele>106.6</ele>
        <time>2019-09-04T10:41:10Z</time>
      </trkpt>
      <trkpt lat="39.9295910" lon="-0.1881470">
        <ele>107.0</ele>
        <time>2019-09-04T10:41:12Z</time>
      </trkpt>
      <trkpt lat="39.9295960" lon="-0.1882140">
        <ele>107.2</ele>
        <time>2019-09-04T10:41:13Z</time>
      </trkpt>
      <trkpt lat="39.9296020" lon="-0.1883510">
        <ele>107.2</ele>
        <time>2019-09-04T10:41:15Z</time>
      </trkpt>
      <trkpt lat="39.9296150" lon="-0.1886120">
        <ele>107.4</ele>
        <time>2019-09-04T10:41:19Z</time>
      </trkpt>
      <trkpt lat="39.9296240" lon="-0.1887400">
        <ele>107.8</ele>
        <time>2019-09-04T10:41:21Z</time>
      </trkpt>
      <trkpt lat="39.9296250" lon="-0.1889260">
        <ele>108.0</ele>
        <time>2019-09-04T10:41:24Z</time>
      </trkpt>
      <trkpt lat="39.9296250" lon="-0.1890500">
        <ele>108.6</ele>
        <time>2019-09-04T10:41:26Z</time>
      </trkpt>
      <trkpt lat="39.9296220" lon="-0.1891840">
        <ele>108.8</ele>
        <time>2019-09-04T10:41:28Z</time>
      </trkpt>
      <trkpt lat="39.9296260" lon="-0.1892520">
        <ele>109.0</ele>
        <time>2019-09-04T10:41:29Z</time>
      </trkpt>
      <trkpt lat="39.9296490" lon="-0.1893980">
        <ele>109.0</ele>
        <time>2019-09-04T10:41:31Z</time>
      </trkpt>
      <trkpt lat="39.9296640" lon="-0.1896250">
        <ele>108.8</ele>
        <time>2019-09-04T10:41:34Z</time>
      </trkpt>
      <trkpt lat="39.9296900" lon="-0.1897510">
        <ele>108.0</ele>
        <time>2019-09-04T10:41:36Z</time>
      </trkpt>
      <trkpt lat="39.9296790" lon="-0.1899310">
        <ele>107.8</ele>
        <time>2019-09-04T10:41:39Z</time>
      </trkpt>
      <trkpt lat="39.9297100" lon="-0.1900510">
        <ele>108.4</ele>
        <time>2019-09-04T10:41:41Z</time>
      </trkpt>
      <trkpt lat="39.9297430" lon="-0.1901680">
        <ele>109.2</ele>
        <time>2019-09-04T10:41:43Z</time>
      </trkpt>
      <trkpt lat="39.9297770" lon="-0.1902820">
        <ele>109.6</ele>
        <time>2019-09-04T10:41:45Z</time>
      </trkpt>
      <trkpt lat="39.9297900" lon="-0.1903470">
        <ele>109.8</ele>
        <time>2019-09-04T10:41:46Z</time>
      </trkpt>
      <trkpt lat="39.9298080" lon="-0.1904110">
        <ele>109.8</ele>
        <time>2019-09-04T10:41:47Z</time>
      </trkpt>
      <trkpt lat="39.9298560" lon="-0.1905250">
        <ele>110.0</ele>
        <time>2019-09-04T10:41:49Z</time>
      </trkpt>
      <trkpt lat="39.9299040" lon="-0.1906230">
        <ele>110.2</ele>
        <time>2019-09-04T10:41:51Z</time>
      </trkpt>
      <trkpt lat="39.9299540" lon="-0.1907240">
        <ele>110.2</ele>
        <time>2019-09-04T10:41:53Z</time>
      </trkpt>
      <trkpt lat="39.9300190" lon="-0.1908140">
        <ele>110.2</ele>
        <time>2019-09-04T10:41:55Z</time>
      </trkpt>
      <trkpt lat="39.9300790" lon="-0.1909110">
        <ele>110.4</ele>
        <time>2019-09-04T10:41:57Z</time>
      </trkpt>
      <trkpt lat="39.9301410" lon="-0.1910920">
        <ele>110.4</ele>
        <time>2019-09-04T10:42:00Z</time>
      </trkpt>
      <trkpt lat="39.9302010" lon="-0.1912800">
        <ele>110.6</ele>
        <time>2019-09-04T10:42:03Z</time>
      </trkpt>
      <trkpt lat="39.9302470" lon="-0.1914680">
        <ele>110.6</ele>
        <time>2019-09-04T10:42:06Z</time>
      </trkpt>
      <trkpt lat="39.9302750" lon="-0.1915930">
        <ele>110.6</ele>
        <time>2019-09-04T10:42:08Z</time>
      </trkpt>
      <trkpt lat="39.9303080" lon="-0.1917090">
        <ele>110.8</ele>
        <time>2019-09-04T10:42:10Z</time>
      </trkpt>
      <trkpt lat="39.9303440" lon="-0.1918340">
        <ele>111.4</ele>
        <time>2019-09-04T10:42:12Z</time>
      </trkpt>
      <trkpt lat="39.9303940" lon="-0.1920330">
        <ele>111.6</ele>
        <time>2019-09-04T10:42:15Z</time>
      </trkpt>
      <trkpt lat="39.9304320" lon="-0.1921570">
        <ele>111.4</ele>
        <time>2019-09-04T10:42:17Z</time>
      </trkpt>
      <trkpt lat="39.9304690" lon="-0.1922830">
        <ele>111.4</ele>
        <time>2019-09-04T10:42:19Z</time>
      </trkpt>
      <trkpt lat="39.9305090" lon="-0.1924100">
        <ele>111.4</ele>
        <time>2019-09-04T10:42:21Z</time>
      </trkpt>
      <trkpt lat="39.9305600" lon="-0.1925980">
        <ele>111.8</ele>
        <time>2019-09-04T10:42:24Z</time>
      </trkpt>
      <trkpt lat="39.9306010" lon="-0.1927240">
        <ele>111.8</ele>
        <time>2019-09-04T10:42:26Z</time>
      </trkpt>
      <trkpt lat="39.9306750" lon="-0.1929200">
        <ele>111.8</ele>
        <time>2019-09-04T10:42:29Z</time>
      </trkpt>
      <trkpt lat="39.9307540" lon="-0.1931020">
        <ele>111.8</ele>
        <time>2019-09-04T10:42:32Z</time>
      </trkpt>
      <trkpt lat="39.9308110" lon="-0.1932090">
        <ele>112.0</ele>
        <time>2019-09-04T10:42:34Z</time>
      </trkpt>
      <trkpt lat="39.9308620" lon="-0.1933310">
        <ele>112.0</ele>
        <time>2019-09-04T10:42:36Z</time>
      </trkpt>
      <trkpt lat="39.9309310" lon="-0.1935150">
        <ele>112.0</ele>
        <time>2019-09-04T10:42:39Z</time>
      </trkpt>
      <trkpt lat="39.9309700" lon="-0.1936300">
        <ele>112.4</ele>
        <time>2019-09-04T10:42:41Z</time>
      </trkpt>
      <trkpt lat="39.9310100" lon="-0.1937390">
        <ele>113.4</ele>
        <time>2019-09-04T10:42:43Z</time>
      </trkpt>
      <trkpt lat="39.9310510" lon="-0.1938490">
        <ele>114.0</ele>
        <time>2019-09-04T10:42:45Z</time>
      </trkpt>
      <trkpt lat="39.9310990" lon="-0.1939570">
        <ele>114.2</ele>
        <time>2019-09-04T10:42:47Z</time>
      </trkpt>
      <trkpt lat="39.9311620" lon="-0.1940490">
        <ele>114.0</ele>
        <time>2019-09-04T10:42:49Z</time>
      </trkpt>
      <trkpt lat="39.9312360" lon="-0.1941270">
        <ele>113.8</ele>
        <time>2019-09-04T10:42:51Z</time>
      </trkpt>
      <trkpt lat="39.9313120" lon="-0.1941920">
        <ele>114.0</ele>
        <time>2019-09-04T10:42:53Z</time>
      </trkpt>
      <trkpt lat="39.9314210" lon="-0.1942750">
        <ele>114.4</ele>
        <time>2019-09-04T10:42:56Z</time>
      </trkpt>
      <trkpt lat="39.9314570" lon="-0.1943000">
        <ele>114.6</ele>
        <time>2019-09-04T10:42:57Z</time>
      </trkpt>
      <trkpt lat="39.9315290" lon="-0.1943520">
        <ele>114.8</ele>
        <time>2019-09-04T10:42:59Z</time>
      </trkpt>
      <trkpt lat="39.9316380" lon="-0.1944390">
        <ele>115.4</ele>
        <time>2019-09-04T10:43:02Z</time>
      </trkpt>
      <trkpt lat="39.9316740" lon="-0.1944700">
        <ele>115.6</ele>
        <time>2019-09-04T10:43:03Z</time>
      </trkpt>
      <trkpt lat="39.9317090" lon="-0.1945030">
        <ele>116.0</ele>
        <time>2019-09-04T10:43:04Z</time>
      </trkpt>
      <trkpt lat="39.9318070" lon="-0.1946120">
        <ele>116.6</ele>
        <time>2019-09-04T10:43:07Z</time>
      </trkpt>
      <trkpt lat="39.9319290" lon="-0.1946890">
        <ele>117.2</ele>
        <time>2019-09-04T10:43:10Z</time>
      </trkpt>
      <trkpt lat="39.9320030" lon="-0.1947370">
        <ele>117.4</ele>
        <time>2019-09-04T10:43:12Z</time>
      </trkpt>
      <trkpt lat="39.9320520" lon="-0.1948340">
        <ele>117.0</ele>
        <time>2019-09-04T10:43:14Z</time>
      </trkpt>
      <trkpt lat="39.9319660" lon="-0.1950570">
        <ele>116.4</ele>
        <time>2019-09-04T10:43:18Z</time>
      </trkpt>
      <trkpt lat="39.9318850" lon="-0.1951740">
        <ele>116.4</ele>
        <time>2019-09-04T10:43:20Z</time>
      </trkpt>
      <trkpt lat="39.9317970" lon="-0.1953870">
        <ele>116.6</ele>
        <time>2019-09-04T10:43:23Z</time>
      </trkpt>
      <trkpt lat="39.9317290" lon="-0.1955300">
        <ele>116.8</ele>
        <time>2019-09-04T10:43:25Z</time>
      </trkpt>
      <trkpt lat="39.9316240" lon="-0.1957370">
        <ele>116.6</ele>
        <time>2019-09-04T10:43:28Z</time>
      </trkpt>
      <trkpt lat="39.9315600" lon="-0.1958720">
        <ele>116.2</ele>
        <time>2019-09-04T10:43:30Z</time>
      </trkpt>
      <trkpt lat="39.9314950" lon="-0.1960120">
        <ele>116.0</ele>
        <time>2019-09-04T10:43:32Z</time>
      </trkpt>
      <trkpt lat="39.9314260" lon="-0.1961520">
        <ele>115.6</ele>
        <time>2019-09-04T10:43:34Z</time>
      </trkpt>
      <trkpt lat="39.9313930" lon="-0.1962200">
        <ele>115.6</ele>
        <time>2019-09-04T10:43:35Z</time>
      </trkpt>
      <trkpt lat="39.9313290" lon="-0.1963450">
        <ele>115.4</ele>
        <time>2019-09-04T10:43:37Z</time>
      </trkpt>
      <trkpt lat="39.9312300" lon="-0.1965300">
        <ele>115.0</ele>
        <time>2019-09-04T10:43:40Z</time>
      </trkpt>
      <trkpt lat="39.9311600" lon="-0.1966560">
        <ele>115.0</ele>
        <time>2019-09-04T10:43:42Z</time>
      </trkpt>
      <trkpt lat="39.9310850" lon="-0.1967780">
        <ele>115.0</ele>
        <time>2019-09-04T10:43:44Z</time>
      </trkpt>
      <trkpt lat="39.9309930" lon="-0.1968790">
        <ele>115.2</ele>
        <time>2019-09-04T10:43:46Z</time>
      </trkpt>
      <trkpt lat="39.9308930" lon="-0.1969430">
        <ele>115.2</ele>
        <time>2019-09-04T10:43:48Z</time>
      </trkpt>
      <trkpt lat="39.9307890" lon="-0.1969740">
        <ele>115.2</ele>
        <time>2019-09-04T10:43:50Z</time>
      </trkpt>
      <trkpt lat="39.9306900" lon="-0.1969870">
        <ele>115.4</ele>
        <time>2019-09-04T10:43:52Z</time>
      </trkpt>
      <trkpt lat="39.9305470" lon="-0.1969600">
        <ele>115.8</ele>
        <time>2019-09-04T10:43:55Z</time>
      </trkpt>
      <trkpt lat="39.9304560" lon="-0.1969400">
        <ele>116.2</ele>
        <time>2019-09-04T10:43:57Z</time>
      </trkpt>
      <trkpt lat="39.9303660" lon="-0.1969220">
        <ele>117.0</ele>
        <time>2019-09-04T10:43:59Z</time>
      </trkpt>
      <trkpt lat="39.9302750" lon="-0.1968990">
        <ele>117.6</ele>
        <time>2019-09-04T10:44:01Z</time>
      </trkpt>
      <trkpt lat="39.9301370" lon="-0.1968580">
        <ele>118.0</ele>
        <time>2019-09-04T10:44:04Z</time>
      </trkpt>
      <trkpt lat="39.9299690" lon="-0.1968010">
        <ele>118.6</ele>
        <time>2019-09-04T10:44:08Z</time>
      </trkpt>
      <trkpt lat="39.9298120" lon="-0.1967620">
        <ele>116.8</ele>
        <time>2019-09-04T10:44:12Z</time>
      </trkpt>
      <trkpt lat="39.9296840" lon="-0.1967210">
        <ele>116.8</ele>
        <time>2019-09-04T10:44:15Z</time>
      </trkpt>
      <trkpt lat="39.9313320" lon="-0.1942560">
        <ele>90.4</ele>
        <time>2019-09-04T06:02:35Z</time>
      </trkpt>
      <trkpt lat="39.9313320" lon="-0.1942560">
        <ele>90.4</ele>
        <time>2019-09-04T06:02:38Z</time>
      </trkpt>
      <trkpt lat="39.9313320" lon="-0.1942560">
        <ele>90.4</ele>
        <time>2019-09-04T06:02:42Z</time>
      </trkpt>
      <trkpt lat="39.9313320" lon="-0.1942560">
        <ele>90.4</ele>
        <time>2019-09-04T06:02:44Z</time>
      </trkpt>
      <trkpt lat="39.9313320" lon="-0.1942560">
        <ele>90.4</ele>
        <time>2019-09-04T06:02:47Z</time>
      </trkpt>
      <trkpt lat="39.9313320" lon="-0.1942560">
        <ele>90.4</ele>
        <time>2019-09-04T06:02:51Z</time>
      </trkpt>
      <trkpt lat="39.9313320" lon="-0.1942560">
        <ele>90.4</ele>
        <time>2019-09-04T06:02:52Z</time>
      </trkpt>
      <trkpt lat="39.9313320" lon="-0.1942560">
        <ele>90.4</ele>
        <time>2019-09-04T06:02:53Z</time>
      </trkpt>
      <trkpt lat="39.9313320" lon="-0.1942560">
        <ele>90.4</ele>
        <time>2019-09-04T06:02:55Z</time>
      </trkpt>
      <trkpt lat="39.9313320" lon="-0.1942560">
        <ele>90.4</ele>
        <time>2019-09-04T06:03:03Z</time>
      </trkpt>
      <trkpt lat="39.9313320" lon="-0.1942560">
        <ele>90.4</ele>
        <time>2019-09-04T06:03:05Z</time>
      </trkpt>
      <trkpt lat="39.9313320" lon="-0.1942560">
        <ele>90.4</ele>
        <time>2019-09-04T06:03:08Z</time>
      </trkpt>
      <trkpt lat="39.9313320" lon="-0.1942560">
        <ele>90.4</ele>
        <time>2019-09-04T06:03:10Z</time>
      </trkpt>
      <trkpt lat="39.9313320" lon="-0.1942560">
        <ele>90.4</ele>
        <time>2019-09-04T06:03:12Z</time>
      </trkpt>
      <trkpt lat="39.9313320" lon="-0.1942560">
        <ele>90.4</ele>
        <time>2019-09-04T06:03:14Z</time>
      </trkpt>
      <trkpt lat="39.9313320" lon="-0.1942560">
        <ele>90.4</ele>
        <time>2019-09-04T06:03:17Z</time>
      </trkpt>
      <trkpt lat="39.9313320" lon="-0.1942560">
        <ele>90.4</ele>
        <time>2019-09-04T06:03:26Z</time>
      </trkpt>
      <trkpt lat="39.9313320" lon="-0.1942560">
        <ele>90.4</ele>
        <time>2019-09-04T06:03:35Z</time>
      </trkpt>
      <trkpt lat="39.9312520" lon="-0.1942080">
        <ele>90.2</ele>
        <time>2019-09-04T06:03:36Z</time>
      </trkpt>
      <trkpt lat="39.9311750" lon="-0.1941490">
        <ele>89.9</ele>
        <time>2019-09-04T06:03:37Z</time>
      </trkpt>
      <trkpt lat="39.9311060" lon="-0.1940650">
        <ele>89.6</ele>
        <time>2019-09-04T06:03:38Z</time>
      </trkpt>
      <trkpt lat="39.9309910" lon="-0.1938620">
        <ele>89.1</ele>
        <time>2019-09-04T06:03:40Z</time>
      </trkpt>
      <trkpt lat="39.9309060" lon="-0.1936410">
        <ele>88.7</ele>
        <time>2019-09-04T06:03:42Z</time>
      </trkpt>
      <trkpt lat="39.9308220" lon="-0.1934250">
        <ele>88.5</ele>
        <time>2019-09-04T06:03:44Z</time>
      </trkpt>
      <trkpt lat="39.9307340" lon="-0.1932070">
        <ele>88.5</ele>
        <time>2019-09-04T06:03:46Z</time>
      </trkpt>
      <trkpt lat="39.9305560" lon="-0.1927830">
        <ele>88.5</ele>
        <time>2019-09-04T06:03:50Z</time>
      </trkpt>
      <trkpt lat="39.9304840" lon="-0.1925580">
        <ele>88.3</ele>
        <time>2019-09-04T06:03:52Z</time>
      </trkpt>
      <trkpt lat="39.9302990" lon="-0.1918670">
        <ele>87.4</ele>
        <time>2019-09-04T06:03:58Z</time>
      </trkpt>
      <trkpt lat="39.9302400" lon="-0.1916300">
        <ele>87.1</ele>
        <time>2019-09-04T06:04:00Z</time>
      </trkpt>
      <trkpt lat="39.9301040" lon="-0.1910600">
        <ele>86.8</ele>
        <time>2019-09-04T06:04:05Z</time>
      </trkpt>
      <trkpt lat="39.9300600" lon="-0.1909540">
        <ele>86.7</ele>
        <time>2019-09-04T06:04:06Z</time>
      </trkpt>
      <trkpt lat="39.9298160" lon="-0.1904610">
        <ele>86.7</ele>
        <time>2019-09-04T06:04:11Z</time>
      </trkpt>
      <trkpt lat="39.9297790" lon="-0.1903540">
        <ele>86.6</ele>
        <time>2019-09-04T06:04:12Z</time>
      </trkpt>
      <trkpt lat="39.9296710" lon="-0.1897830">
        <ele>85.8</ele>
        <time>2019-09-04T06:04:17Z</time>
      </trkpt>
      <trkpt lat="39.9296720" lon="-0.1896700">
        <ele>85.7</ele>
        <time>2019-09-04T06:04:18Z</time>
      </trkpt>
      <trkpt lat="39.9296810" lon="-0.1895550">
        <ele>85.6</ele>
        <time>2019-09-04T06:04:19Z</time>
      </trkpt>
      <trkpt lat="39.9296830" lon="-0.1894220">
        <ele>85.5</ele>
        <time>2019-09-04T06:04:20Z</time>
      </trkpt>
      <trkpt lat="39.9296770" lon="-0.1892840">
        <ele>85.3</ele>
        <time>2019-09-04T06:04:21Z</time>
      </trkpt>
      <trkpt lat="39.9296590" lon="-0.1891600">
        <ele>85.2</ele>
        <time>2019-09-04T06:04:22Z</time>
      </trkpt>
      <trkpt lat="39.9296300" lon="-0.1889480">
        <ele>84.6</ele>
        <time>2019-09-04T06:04:24Z</time>
      </trkpt>
      <trkpt lat="39.9296300" lon="-0.1887380">
        <ele>84.1</ele>
        <time>2019-09-04T06:04:26Z</time>
      </trkpt>
      <trkpt lat="39.9296270" lon="-0.1884000">
        <ele>83.5</ele>
        <time>2019-09-04T06:04:29Z</time>
      </trkpt>
      <trkpt lat="39.9296110" lon="-0.1881570">
        <ele>83.3</ele>
        <time>2019-09-04T06:04:31Z</time>
      </trkpt>
      <trkpt lat="39.9295940" lon="-0.1879050">
        <ele>83.2</ele>
        <time>2019-09-04T06:04:33Z</time>
      </trkpt>
      <trkpt lat="39.9295660" lon="-0.1874010">
        <ele>83.0</ele>
        <time>2019-09-04T06:04:37Z</time>
      </trkpt>
      <trkpt lat="39.9294360" lon="-0.1868010">
        <ele>82.4</ele>
        <time>2019-09-04T06:04:42Z</time>
      </trkpt>
      <trkpt lat="39.9292150" lon="-0.1861320">
        <ele>82.9</ele>
        <time>2019-09-04T06:04:48Z</time>
      </trkpt>
      <trkpt lat="39.9291100" lon="-0.1858060">
        <ele>83.1</ele>
        <time>2019-09-04T06:04:51Z</time>
      </trkpt>
      <trkpt lat="39.9288490" lon="-0.1851900">
        <ele>82.3</ele>
        <time>2019-09-04T06:04:57Z</time>
      </trkpt>
      <trkpt lat="39.9287260" lon="-0.1848780">
        <ele>82.9</ele>
        <time>2019-09-04T06:05:00Z</time>
      </trkpt>
      <trkpt lat="39.9287140" lon="-0.1847620">
        <ele>83.2</ele>
        <time>2019-09-04T06:05:01Z</time>
      </trkpt>
      <trkpt lat="39.9287140" lon="-0.1846460">
        <ele>83.3</ele>
        <time>2019-09-04T06:05:02Z</time>
      </trkpt>
      <trkpt lat="39.9287490" lon="-0.1844180">
        <ele>83.0</ele>
        <time>2019-09-04T06:05:04Z</time>
      </trkpt>
      <trkpt lat="39.9288890" lon="-0.1836250">
        <ele>81.1</ele>
        <time>2019-09-04T06:05:11Z</time>
      </trkpt>
      <trkpt lat="39.9289660" lon="-0.1829230">
        <ele>81.4</ele>
        <time>2019-09-04T06:05:17Z</time>
      </trkpt>
      <trkpt lat="39.9290000" lon="-0.1825800">
        <ele>82.0</ele>
        <time>2019-09-04T06:05:20Z</time>
      </trkpt>
      <trkpt lat="39.9290680" lon="-0.1823630">
        <ele>81.8</ele>
        <time>2019-09-04T06:05:22Z</time>
      </trkpt>
      <trkpt lat="39.9292270" lon="-0.1818260">
        <ele>81.6</ele>
        <time>2019-09-04T06:05:27Z</time>
      </trkpt>
      <trkpt lat="39.9293400" lon="-0.1810290">
        <ele>81.2</ele>
        <time>2019-09-04T06:05:34Z</time>
      </trkpt>
      <trkpt lat="39.9293860" lon="-0.1803340">
        <ele>80.7</ele>
        <time>2019-09-04T06:05:40Z</time>
      </trkpt>
      <trkpt lat="39.9293560" lon="-0.1796250">
        <ele>79.8</ele>
        <time>2019-09-04T06:05:46Z</time>
      </trkpt>
      <trkpt lat="39.9292790" lon="-0.1789130">
        <ele>79.0</ele>
        <time>2019-09-04T06:05:52Z</time>
      </trkpt>
      <trkpt lat="39.9292370" lon="-0.1786760">
        <ele>78.7</ele>
        <time>2019-09-04T06:05:54Z</time>
      </trkpt>
      <trkpt lat="39.9291210" lon="-0.1779480">
        <ele>77.9</ele>
        <time>2019-09-04T06:06:00Z</time>
      </trkpt>
      <trkpt lat="39.9291080" lon="-0.1778220">
        <ele>77.8</ele>
        <time>2019-09-04T06:06:01Z</time>
      </trkpt>
      <trkpt lat="39.9290400" lon="-0.1771800">
        <ele>76.9</ele>
        <time>2019-09-04T06:06:06Z</time>
      </trkpt>
      <trkpt lat="39.9290290" lon="-0.1767980">
        <ele>76.2</ele>
        <time>2019-09-04T06:06:09Z</time>
      </trkpt>
      <trkpt lat="39.9290680" lon="-0.1760550">
        <ele>75.0</ele>
        <time>2019-09-04T06:06:15Z</time>
      </trkpt>
      <trkpt lat="39.9290780" lon="-0.1759310">
        <ele>74.8</ele>
        <time>2019-09-04T06:06:16Z</time>
      </trkpt>
      <trkpt lat="39.9291680" lon="-0.1751890">
        <ele>74.3</ele>
        <time>2019-09-04T06:06:22Z</time>
      </trkpt>
      <trkpt lat="39.9291990" lon="-0.1749420">
        <ele>74.1</ele>
        <time>2019-09-04T06:06:24Z</time>
      </trkpt>
      <trkpt lat="39.9292730" lon="-0.1743460">
        <ele>73.7</ele>
        <time>2019-09-04T06:06:29Z</time>
      </trkpt>
      <trkpt lat="39.9293320" lon="-0.1738750">
        <ele>73.2</ele>
        <time>2019-09-04T06:06:33Z</time>
      </trkpt>
      <trkpt lat="39.9293970" lon="-0.1734100">
        <ele>72.8</ele>
        <time>2019-09-04T06:06:37Z</time>
      </trkpt>
      <trkpt lat="39.9294440" lon="-0.1731770">
        <ele>72.7</ele>
        <time>2019-09-04T06:06:39Z</time>
      </trkpt>
      <trkpt lat="39.9295820" lon="-0.1724870">
        <ele>72.2</ele>
        <time>2019-09-04T06:06:45Z</time>
      </trkpt>
      <trkpt lat="39.9295950" lon="-0.1723710">
        <ele>72.1</ele>
        <time>2019-09-04T06:06:46Z</time>
      </trkpt>
      <trkpt lat="39.9296670" lon="-0.1716720">
        <ele>71.6</ele>
        <time>2019-09-04T06:06:52Z</time>
      </trkpt>
      <trkpt lat="39.9296910" lon="-0.1714370">
        <ele>71.5</ele>
        <time>2019-09-04T06:06:54Z</time>
      </trkpt>
      <trkpt lat="39.9297680" lon="-0.1706320">
        <ele>70.7</ele>
        <time>2019-09-04T06:07:01Z</time>
      </trkpt>
      <trkpt lat="39.9297730" lon="-0.1705160">
        <ele>70.6</ele>
        <time>2019-09-04T06:07:02Z</time>
      </trkpt>
      <trkpt lat="39.9298250" lon="-0.1698280">
        <ele>69.8</ele>
        <time>2019-09-04T06:07:08Z</time>
      </trkpt>
      <trkpt lat="39.9299570" lon="-0.1691390">
        <ele>69.4</ele>
        <time>2019-09-04T06:07:14Z</time>
      </trkpt>
      <trkpt lat="39.9300020" lon="-0.1689090">
        <ele>69.1</ele>
        <time>2019-09-04T06:07:16Z</time>
      </trkpt>
      <trkpt lat="39.9301400" lon="-0.1681940">
        <ele>68.6</ele>
        <time>2019-09-04T06:07:22Z</time>
      </trkpt>
      <trkpt lat="39.9301880" lon="-0.1679530">
        <ele>68.7</ele>
        <time>2019-09-04T06:07:24Z</time>
      </trkpt>
      <trkpt lat="39.9303700" lon="-0.1672630">
        <ele>68.1</ele>
        <time>2019-09-04T06:07:30Z</time>
      </trkpt>
      <trkpt lat="39.9304360" lon="-0.1670320">
        <ele>67.6</ele>
        <time>2019-09-04T06:07:32Z</time>
      </trkpt>
      <trkpt lat="39.9304720" lon="-0.1667870">
        <ele>67.0</ele>
        <time>2019-09-04T06:07:34Z</time>
      </trkpt>
      <trkpt lat="39.9304530" lon="-0.1664150">
        <ele>66.4</ele>
        <time>2019-09-04T06:07:37Z</time>
      </trkpt>
      <trkpt lat="39.9303920" lon="-0.1656880">
        <ele>65.3</ele>
        <time>2019-09-04T06:07:43Z</time>
      </trkpt>
      <trkpt lat="39.9304600" lon="-0.1652080">
        <ele>64.3</ele>
        <time>2019-09-04T06:07:47Z</time>
      </trkpt>
      <trkpt lat="39.9304870" lon="-0.1650900">
        <ele>64.2</ele>
        <time>2019-09-04T06:07:48Z</time>
      </trkpt>
      <trkpt lat="39.9305950" lon="-0.1647570">
        <ele>64.1</ele>
        <time>2019-09-04T06:07:51Z</time>
      </trkpt>
      <trkpt lat="39.9307950" lon="-0.1639910">
        <ele>63.8</ele>
        <time>2019-09-04T06:07:58Z</time>
      </trkpt>
      <trkpt lat="39.9309600" lon="-0.1632170">
        <ele>65.3</ele>
        <time>2019-09-04T06:08:05Z</time>
      </trkpt>
      <trkpt lat="39.9309810" lon="-0.1631090">
        <ele>65.3</ele>
        <time>2019-09-04T06:08:06Z</time>
      </trkpt>
      <trkpt lat="39.9311180" lon="-0.1624620">
        <ele>64.3</ele>
        <time>2019-09-04T06:08:12Z</time>
      </trkpt>
      <trkpt lat="39.9312830" lon="-0.1616780">
        <ele>64.0</ele>
        <time>2019-09-04T06:08:19Z</time>
      </trkpt>
      <trkpt lat="39.9313740" lon="-0.1609950">
        <ele>63.7</ele>
        <time>2019-09-04T06:08:25Z</time>
      </trkpt>
      <trkpt lat="39.9314710" lon="-0.1602970">
        <ele>63.3</ele>
        <time>2019-09-04T06:08:31Z</time>
      </trkpt>
      <trkpt lat="39.9315480" lon="-0.1597170">
        <ele>62.5</ele>
        <time>2019-09-04T06:08:36Z</time>
      </trkpt>
      <trkpt lat="39.9316610" lon="-0.1589150">
        <ele>62.4</ele>
        <time>2019-09-04T06:08:43Z</time>
      </trkpt>
      <trkpt lat="39.9316730" lon="-0.1588000">
        <ele>62.4</ele>
        <time>2019-09-04T06:08:44Z</time>
      </trkpt>
      <trkpt lat="39.9317300" lon="-0.1580030">
        <ele>60.9</ele>
        <time>2019-09-04T06:08:51Z</time>
      </trkpt>
      <trkpt lat="39.9317380" lon="-0.1578870">
        <ele>60.6</ele>
        <time>2019-09-04T06:08:52Z</time>
      </trkpt>
      <trkpt lat="39.9318200" lon="-0.1572930">
        <ele>59.5</ele>
        <time>2019-09-04T06:08:57Z</time>
      </trkpt>
      <trkpt lat="39.9319440" lon="-0.1565480">
        <ele>59.0</ele>
        <time>2019-09-04T06:09:03Z</time>
      </trkpt>
      <trkpt lat="39.9319580" lon="-0.1564260">
        <ele>58.9</ele>
        <time>2019-09-04T06:09:04Z</time>
      </trkpt>
      <trkpt lat="39.9320170" lon="-0.1559470">
        <ele>59.3</ele>
        <time>2019-09-04T06:09:08Z</time>
      </trkpt>
      <trkpt lat="39.9320750" lon="-0.1556330">
        <ele>59.7</ele>
        <time>2019-09-04T06:09:11Z</time>
      </trkpt>
      <trkpt lat="39.9321330" lon="-0.1554610">
        <ele>59.7</ele>
        <time>2019-09-04T06:09:13Z</time>
      </trkpt>
      <trkpt lat="39.9322030" lon="-0.1553080">
        <ele>59.7</ele>
        <time>2019-09-04T06:09:15Z</time>
      </trkpt>
      <trkpt lat="39.9324030" lon="-0.1548250">
        <ele>60.1</ele>
        <time>2019-09-04T06:09:21Z</time>
      </trkpt>
      <trkpt lat="39.9326010" lon="-0.1543200">
        <ele>60.6</ele>
        <time>2019-09-04T06:09:27Z</time>
      </trkpt>
      <trkpt lat="39.9326700" lon="-0.1541390">
        <ele>60.7</ele>
        <time>2019-09-04T06:09:29Z</time>
      </trkpt>
      <trkpt lat="39.9328840" lon="-0.1535940">
        <ele>60.7</ele>
        <time>2019-09-04T06:09:35Z</time>
      </trkpt>
      <trkpt lat="39.9329220" lon="-0.1535020">
        <ele>60.7</ele>
        <time>2019-09-04T06:09:36Z</time>
      </trkpt>
      <trkpt lat="39.9331860" lon="-0.1528350">
        <ele>60.7</ele>
        <time>2019-09-04T06:09:43Z</time>
      </trkpt>
      <trkpt lat="39.9332240" lon="-0.1527330">
        <ele>60.7</ele>
        <time>2019-09-04T06:09:44Z</time>
      </trkpt>
      <trkpt lat="39.9334720" lon="-0.1520050">
        <ele>60.8</ele>
        <time>2019-09-04T06:09:51Z</time>
      </trkpt>
      <trkpt lat="39.9335080" lon="-0.1518990">
        <ele>60.8</ele>
        <time>2019-09-04T06:09:52Z</time>
      </trkpt>
      <trkpt lat="39.9337530" lon="-0.1511790">
        <ele>60.8</ele>
        <time>2019-09-04T06:09:59Z</time>
      </trkpt>
      <trkpt lat="39.9337850" lon="-0.1510760">
        <ele>60.8</ele>
        <time>2019-09-04T06:10:00Z</time>
      </trkpt>
      <trkpt lat="39.9338450" lon="-0.1508710">
        <ele>60.8</ele>
        <time>2019-09-04T06:10:02Z</time>
      </trkpt>
      <trkpt lat="39.9339930" lon="-0.1502630">
        <ele>60.8</ele>
        <time>2019-09-04T06:10:08Z</time>
      </trkpt>
      <trkpt lat="39.9341430" lon="-0.1495010">
        <ele>60.8</ele>
        <time>2019-09-04T06:10:15Z</time>
      </trkpt>
      <trkpt lat="39.9341640" lon="-0.1493910">
        <ele>60.8</ele>
        <time>2019-09-04T06:10:16Z</time>
      </trkpt>
      <trkpt lat="39.9343180" lon="-0.1486000">
        <ele>60.0</ele>
        <time>2019-09-04T06:10:23Z</time>
      </trkpt>
      <trkpt lat="39.9344290" lon="-0.1479020">
        <ele>59.4</ele>
        <time>2019-09-04T06:10:29Z</time>
      </trkpt>
      <trkpt lat="39.9344580" lon="-0.1476590">
        <ele>59.1</ele>
        <time>2019-09-04T06:10:31Z</time>
      </trkpt>
      <trkpt lat="39.9345260" lon="-0.1469440">
        <ele>58.3</ele>
        <time>2019-09-04T06:10:37Z</time>
      </trkpt>
      <trkpt lat="39.9345260" lon="-0.1467040">
        <ele>58.0</ele>
        <time>2019-09-04T06:10:39Z</time>
      </trkpt>
      <trkpt lat="39.9345060" lon="-0.1459930">
        <ele>57.5</ele>
        <time>2019-09-04T06:10:45Z</time>
      </trkpt>
      <trkpt lat="39.9344900" lon="-0.1457580">
        <ele>57.5</ele>
        <time>2019-09-04T06:10:47Z</time>
      </trkpt>
      <trkpt lat="39.9344640" lon="-0.1451740">
        <ele>57.3</ele>
        <time>2019-09-04T06:10:52Z</time>
      </trkpt>
      <trkpt lat="39.9344630" lon="-0.1450580">
        <ele>57.2</ele>
        <time>2019-09-04T06:10:53Z</time>
      </trkpt>
      <trkpt lat="39.9344460" lon="-0.1443540">
        <ele>56.9</ele>
        <time>2019-09-04T06:10:59Z</time>
      </trkpt>
      <trkpt lat="39.9344330" lon="-0.1441250">
        <ele>56.8</ele>
        <time>2019-09-04T06:11:01Z</time>
      </trkpt>
      <trkpt lat="39.9343890" lon="-0.1435400">
        <ele>55.9</ele>
        <time>2019-09-04T06:11:06Z</time>
      </trkpt>
      <trkpt lat="39.9343570" lon="-0.1433130">
        <ele>55.4</ele>
        <time>2019-09-04T06:11:08Z</time>
      </trkpt>
      <trkpt lat="39.9343290" lon="-0.1432060">
        <ele>55.2</ele>
        <time>2019-09-04T06:11:09Z</time>
      </trkpt>
      <trkpt lat="39.9342710" lon="-0.1429990">
        <ele>54.7</ele>
        <time>2019-09-04T06:11:11Z</time>
      </trkpt>
      <trkpt lat="39.9342810" lon="-0.1427870">
        <ele>54.3</ele>
        <time>2019-09-04T06:11:13Z</time>
      </trkpt>
      <trkpt lat="39.9343870" lon="-0.1426110">
        <ele>53.8</ele>
        <time>2019-09-04T06:11:15Z</time>
      </trkpt>
      <trkpt lat="39.9345810" lon="-0.1423970">
        <ele>53.3</ele>
        <time>2019-09-04T06:11:18Z</time>
      </trkpt>
      <trkpt lat="39.9346260" lon="-0.1423180">
        <ele>53.2</ele>
        <time>2019-09-04T06:11:19Z</time>
      </trkpt>
      <trkpt lat="39.9346550" lon="-0.1422340">
        <ele>53.2</ele>
        <time>2019-09-04T06:11:20Z</time>
      </trkpt>
      <trkpt lat="39.9347090" lon="-0.1419810">
        <ele>53.4</ele>
        <time>2019-09-04T06:11:23Z</time>
      </trkpt>
      <trkpt lat="39.9348680" lon="-0.1412340">
        <ele>55.3</ele>
        <time>2019-09-04T06:11:32Z</time>
      </trkpt>
      <trkpt lat="39.9350050" lon="-0.1405970">
        <ele>55.5</ele>
        <time>2019-09-04T06:11:39Z</time>
      </trkpt>
      <trkpt lat="39.9350650" lon="-0.1400120">
        <ele>55.2</ele>
        <time>2019-09-04T06:11:45Z</time>
      </trkpt>
      <trkpt lat="39.9351250" lon="-0.1393090">
        <ele>55.2</ele>
        <time>2019-09-04T06:11:52Z</time>
      </trkpt>
      <trkpt lat="39.9351330" lon="-0.1392070">
        <ele>55.2</ele>
        <time>2019-09-04T06:11:53Z</time>
      </trkpt>
      <trkpt lat="39.9351760" lon="-0.1385960">
        <ele>55.4</ele>
        <time>2019-09-04T06:11:59Z</time>
      </trkpt>
      <trkpt lat="39.9351850" lon="-0.1383840">
        <ele>55.4</ele>
        <time>2019-09-04T06:12:01Z</time>
      </trkpt>
      <trkpt lat="39.9352150" lon="-0.1376390">
        <ele>55.1</ele>
        <time>2019-09-04T06:12:08Z</time>
      </trkpt>
      <trkpt lat="39.9352220" lon="-0.1375320">
        <ele>55.1</ele>
        <time>2019-09-04T06:12:09Z</time>
      </trkpt>
      <trkpt lat="39.9353010" lon="-0.1369410">
        <ele>55.1</ele>
        <time>2019-09-04T06:12:15Z</time>
      </trkpt>
      <trkpt lat="39.9353900" lon="-0.1363850">
        <ele>55.6</ele>
        <time>2019-09-04T06:12:21Z</time>
      </trkpt>
      <trkpt lat="39.9354020" lon="-0.1361990">
        <ele>55.7</ele>
        <time>2019-09-04T06:12:23Z</time>
      </trkpt>
      <trkpt lat="39.9353970" lon="-0.1355580">
        <ele>55.1</ele>
        <time>2019-09-04T06:12:30Z</time>
      </trkpt>
      <trkpt lat="39.9353850" lon="-0.1353900">
        <ele>54.7</ele>
        <time>2019-09-04T06:12:32Z</time>
      </trkpt>
      <trkpt lat="39.9353650" lon="-0.1351490">
        <ele>54.2</ele>
        <time>2019-09-04T06:12:35Z</time>
      </trkpt>
      <trkpt lat="39.9353240" lon="-0.1347530">
        <ele>54.1</ele>
        <time>2019-09-04T06:12:40Z</time>
      </trkpt>
      <trkpt lat="39.9353140" lon="-0.1346780">
        <ele>54.2</ele>
        <time>2019-09-04T06:12:41Z</time>
      </trkpt>
      <trkpt lat="39.9352940" lon="-0.1345390">
        <ele>54.5</ele>
        <time>2019-09-04T06:12:43Z</time>
      </trkpt>
      <trkpt lat="39.9352800" lon="-0.1343910">
        <ele>55.0</ele>
        <time>2019-09-04T06:12:45Z</time>
      </trkpt>
      <trkpt lat="39.9352280" lon="-0.1338690">
        <ele>56.5</ele>
        <time>2019-09-04T06:12:52Z</time>
      </trkpt>
      <trkpt lat="39.9351960" lon="-0.1334250">
        <ele>56.4</ele>
        <time>2019-09-04T06:12:57Z</time>
      </trkpt>
      <trkpt lat="39.9352040" lon="-0.1333230">
        <ele>56.3</ele>
        <time>2019-09-04T06:12:58Z</time>
      </trkpt>
      <trkpt lat="39.9352800" lon="-0.1330130">
        <ele>55.7</ele>
        <time>2019-09-04T06:13:01Z</time>
      </trkpt>
      <trkpt lat="39.9353730" lon="-0.1328350">
        <ele>55.3</ele>
        <time>2019-09-04T06:13:03Z</time>
      </trkpt>
      <trkpt lat="39.9354910" lon="-0.1326610">
        <ele>54.6</ele>
        <time>2019-09-04T06:13:05Z</time>
      </trkpt>
      <trkpt lat="39.9355430" lon="-0.1325680">
        <ele>54.4</ele>
        <time>2019-09-04T06:13:06Z</time>
      </trkpt>
      <trkpt lat="39.9356920" lon="-0.1322570">
        <ele>53.4</ele>
        <time>2019-09-04T06:13:09Z</time>
      </trkpt>
      <trkpt lat="39.9357630" lon="-0.1320280">
        <ele>52.9</ele>
        <time>2019-09-04T06:13:11Z</time>
      </trkpt>
      <trkpt lat="39.9357810" lon="-0.1319080">
        <ele>52.8</ele>
        <time>2019-09-04T06:13:12Z</time>
      </trkpt>
      <trkpt lat="39.9357850" lon="-0.1317890">
        <ele>52.8</ele>
        <time>2019-09-04T06:13:13Z</time>
      </trkpt>
      <trkpt lat="39.9357840" lon="-0.1314390">
        <ele>52.8</ele>
        <time>2019-09-04T06:13:16Z</time>
      </trkpt>
      <trkpt lat="39.9357780" lon="-0.1309910">
        <ele>53.2</ele>
        <time>2019-09-04T06:13:20Z</time>
      </trkpt>
      <trkpt lat="39.9357590" lon="-0.1306570">
        <ele>53.3</ele>
        <time>2019-09-04T06:13:23Z</time>
      </trkpt>
      <trkpt lat="39.9357440" lon="-0.1303180">
        <ele>53.2</ele>
        <time>2019-09-04T06:13:26Z</time>
      </trkpt>
      <trkpt lat="39.9357040" lon="-0.1297420">
        <ele>52.9</ele>
        <time>2019-09-04T06:13:31Z</time>
      </trkpt>
      <trkpt lat="39.9356580" lon="-0.1289370">
        <ele>52.3</ele>
        <time>2019-09-04T06:13:38Z</time>
      </trkpt>
      <trkpt lat="39.9356500" lon="-0.1287000">
        <ele>52.1</ele>
        <time>2019-09-04T06:13:40Z</time>
      </trkpt>
      <trkpt lat="39.9356370" lon="-0.1279980">
        <ele>51.8</ele>
        <time>2019-09-04T06:13:46Z</time>
      </trkpt>
      <trkpt lat="39.9356300" lon="-0.1276360">
        <ele>51.7</ele>
        <time>2019-09-04T06:13:49Z</time>
      </trkpt>
      <trkpt lat="39.9356300" lon="-0.1271500">
        <ele>51.6</ele>
        <time>2019-09-04T06:13:53Z</time>
      </trkpt>
      <trkpt lat="39.9356330" lon="-0.1267770">
        <ele>51.6</ele>
        <time>2019-09-04T06:13:56Z</time>
      </trkpt>
      <trkpt lat="39.9356600" lon="-0.1260490">
        <ele>51.6</ele>
        <time>2019-09-04T06:14:02Z</time>
      </trkpt>
      <trkpt lat="39.9356710" lon="-0.1258140">
        <ele>51.6</ele>
        <time>2019-09-04T06:14:04Z</time>
      </trkpt>
      <trkpt lat="39.9357130" lon="-0.1250990">
        <ele>51.5</ele>
        <time>2019-09-04T06:14:10Z</time>
      </trkpt>
      <trkpt lat="39.9357390" lon="-0.1246400">
        <ele>51.2</ele>
        <time>2019-09-04T06:14:14Z</time>
      </trkpt>
      <trkpt lat="39.9358130" lon="-0.1239420">
        <ele>50.5</ele>
        <time>2019-09-04T06:14:20Z</time>
      </trkpt>
      <trkpt lat="39.9358390" lon="-0.1237030">
        <ele>50.1</ele>
        <time>2019-09-04T06:14:22Z</time>
      </trkpt>
      <trkpt lat="39.9359180" lon="-0.1230060">
        <ele>49.2</ele>
        <time>2019-09-04T06:14:28Z</time>
      </trkpt>
      <trkpt lat="39.9359270" lon="-0.1228870">
        <ele>49.2</ele>
        <time>2019-09-04T06:14:29Z</time>
      </trkpt>
      <trkpt lat="39.9360100" lon="-0.1221690">
        <ele>48.9</ele>
        <time>2019-09-04T06:14:35Z</time>
      </trkpt>
      <trkpt lat="39.9360970" lon="-0.1214400">
        <ele>48.3</ele>
        <time>2019-09-04T06:14:41Z</time>
      </trkpt>
      <trkpt lat="39.9361210" lon="-0.1210810">
        <ele>48.3</ele>
        <time>2019-09-04T06:14:44Z</time>
      </trkpt>
      <trkpt lat="39.9361740" lon="-0.1203500">
        <ele>48.4</ele>
        <time>2019-09-04T06:14:50Z</time>
      </trkpt>
      <trkpt lat="39.9361800" lon="-0.1202300">
        <ele>48.4</ele>
        <time>2019-09-04T06:14:51Z</time>
      </trkpt>
      <trkpt lat="39.9361890" lon="-0.1195060">
        <ele>48.5</ele>
        <time>2019-09-04T06:14:57Z</time>
      </trkpt>
      <trkpt lat="39.9361690" lon="-0.1192810">
        <ele>48.5</ele>
        <time>2019-09-04T06:14:59Z</time>
      </trkpt>
      <trkpt lat="39.9360750" lon="-0.1187320">
        <ele>48.4</ele>
        <time>2019-09-04T06:15:04Z</time>
      </trkpt>
      <trkpt lat="39.9360430" lon="-0.1185170">
        <ele>48.6</ele>
        <time>2019-09-04T06:15:06Z</time>
      </trkpt>
      <trkpt lat="39.9359020" lon="-0.1178230">
        <ele>48.7</ele>
        <time>2019-09-04T06:15:13Z</time>
      </trkpt>
      <trkpt lat="39.9358100" lon="-0.1173960">
        <ele>49.2</ele>
        <time>2019-09-04T06:15:18Z</time>
      </trkpt>
      <trkpt lat="39.9357760" lon="-0.1172390">
        <ele>49.4</ele>
        <time>2019-09-04T06:15:20Z</time>
      </trkpt>
      <trkpt lat="39.9356980" lon="-0.1167340">
        <ele>49.3</ele>
        <time>2019-09-04T06:15:27Z</time>
      </trkpt>
      <trkpt lat="39.9356860" lon="-0.1166010">
        <ele>49.1</ele>
        <time>2019-09-04T06:15:29Z</time>
      </trkpt>
      <trkpt lat="39.9357870" lon="-0.1164090">
        <ele>49.1</ele>
        <time>2019-09-04T06:26:45Z</time>
      </trkpt>
      <trkpt lat="39.9357780" lon="-0.1163780">
        <ele>49.2</ele>
        <time>2019-09-04T06:26:46Z</time>
      </trkpt>
      <trkpt lat="39.9357460" lon="-0.1162520">
        <ele>49.3</ele>
        <time>2019-09-04T06:26:49Z</time>
      </trkpt>
      <trkpt lat="39.9357270" lon="-0.1161880">
        <ele>49.3</ele>
        <time>2019-09-04T06:26:50Z</time>
      </trkpt>
      <trkpt lat="39.9356850" lon="-0.1160090">
        <ele>49.5</ele>
        <time>2019-09-04T06:26:53Z</time>
      </trkpt>
      <trkpt lat="39.9356690" lon="-0.1158810">
        <ele>49.6</ele>
        <time>2019-09-04T06:26:55Z</time>
      </trkpt>
      <trkpt lat="39.9356640" lon="-0.1158280">
        <ele>49.7</ele>
        <time>2019-09-04T06:26:56Z</time>
      </trkpt>
      <trkpt lat="39.9356490" lon="-0.1154740">
        <ele>49.5</ele>
        <time>2019-09-04T06:27:02Z</time>
      </trkpt>
      <trkpt lat="39.9356330" lon="-0.1152970">
        <ele>49.0</ele>
        <time>2019-09-04T06:27:05Z</time>
      </trkpt>
      <trkpt lat="39.9356210" lon="-0.1151770">
        <ele>48.6</ele>
        <time>2019-09-04T06:27:07Z</time>
      </trkpt>
      <trkpt lat="39.9356130" lon="-0.1150560">
        <ele>48.6</ele>
        <time>2019-09-04T06:27:09Z</time>
      </trkpt>
      <trkpt lat="39.9355990" lon="-0.1147170">
        <ele>51.7</ele>
        <time>2019-09-04T06:27:14Z</time>
      </trkpt>
      <trkpt lat="39.9355580" lon="-0.1142530">
        <ele>52.7</ele>
        <time>2019-09-04T06:27:20Z</time>
      </trkpt>
      <trkpt lat="39.9355380" lon="-0.1141730">
        <ele>52.8</ele>
        <time>2019-09-04T06:27:21Z</time>
      </trkpt>
      <trkpt lat="39.9354730" lon="-0.1137650">
        <ele>52.8</ele>
        <time>2019-09-04T06:27:26Z</time>
      </trkpt>
      <trkpt lat="39.9354480" lon="-0.1135300">
        <ele>52.1</ele>
        <time>2019-09-04T06:27:29Z</time>
      </trkpt>
      <trkpt lat="39.9354040" lon="-0.1132920">
        <ele>51.8</ele>
        <time>2019-09-04T06:27:32Z</time>
      </trkpt>
      <trkpt lat="39.9353090" lon="-0.1126370">
        <ele>50.7</ele>
        <time>2019-09-04T06:27:40Z</time>
      </trkpt>
      <trkpt lat="39.9352380" lon="-0.1120730">
        <ele>49.1</ele>
        <time>2019-09-04T06:27:47Z</time>
      </trkpt>
      <trkpt lat="39.9351660" lon="-0.1115140">
        <ele>46.9</ele>
        <time>2019-09-04T06:27:54Z</time>
      </trkpt>
      <trkpt lat="39.9351240" lon="-0.1111480">
        <ele>44.8</ele>
        <time>2019-09-04T06:27:59Z</time>
      </trkpt>
      <trkpt lat="39.9351060" lon="-0.1110140">
        <ele>44.4</ele>
        <time>2019-09-04T06:28:01Z</time>
      </trkpt>
      <trkpt lat="39.9350960" lon="-0.1108860">
        <ele>44.4</ele>
        <time>2019-09-04T06:28:03Z</time>
      </trkpt>
      <trkpt lat="39.9351010" lon="-0.1108270">
        <ele>44.5</ele>
        <time>2019-09-04T06:28:04Z</time>
      </trkpt>
      <trkpt lat="39.9351170" lon="-0.1107750">
        <ele>44.6</ele>
        <time>2019-09-04T06:28:05Z</time>
      </trkpt>
      <trkpt lat="39.9351460" lon="-0.1107200">
        <ele>44.7</ele>
        <time>2019-09-04T06:28:06Z</time>
      </trkpt>
      <trkpt lat="39.9352800" lon="-0.1105130">
        <ele>45.1</ele>
        <time>2019-09-04T06:28:10Z</time>
      </trkpt>
      <trkpt lat="39.9353480" lon="-0.1104180">
        <ele>45.2</ele>
        <time>2019-09-04T06:28:12Z</time>
      </trkpt>
      <trkpt lat="39.9354250" lon="-0.1103200">
        <ele>45.3</ele>
        <time>2019-09-04T06:28:14Z</time>
      </trkpt>
      <trkpt lat="39.9356320" lon="-0.1100260">
        <ele>45.6</ele>
        <time>2019-09-04T06:28:20Z</time>
      </trkpt>
      <trkpt lat="39.9357940" lon="-0.1098110">
        <ele>45.7</ele>
        <time>2019-09-04T06:28:25Z</time>
      </trkpt>
      <trkpt lat="39.9358050" lon="-0.1097670">
        <ele>45.7</ele>
        <time>2019-09-04T06:28:26Z</time>
      </trkpt>
      <trkpt lat="39.9358100" lon="-0.1097150">
        <ele>45.7</ele>
        <time>2019-09-04T06:28:27Z</time>
      </trkpt>
      <trkpt lat="39.9357480" lon="-0.1096540">
        <ele>45.9</ele>
        <time>2019-09-04T06:28:29Z</time>
      </trkpt>
      <trkpt lat="39.9356570" lon="-0.1096250">
        <ele>46.0</ele>
        <time>2019-09-04T06:28:31Z</time>
      </trkpt>
      <trkpt lat="39.9355470" lon="-0.1096060">
        <ele>46.1</ele>
        <time>2019-09-04T06:28:33Z</time>
      </trkpt>
      <trkpt lat="39.9354300" lon="-0.1095930">
        <ele>46.2</ele>
        <time>2019-09-04T06:28:35Z</time>
      </trkpt>
      <trkpt lat="39.9353540" lon="-0.1095390">
        <ele>46.3</ele>
        <time>2019-09-04T06:28:37Z</time>
      </trkpt>
      <trkpt lat="39.9353420" lon="-0.1094660">
        <ele>46.5</ele>
        <time>2019-09-04T06:28:40Z</time>
      </trkpt>
      <trkpt lat="39.9353390" lon="-0.1094540">
        <ele>46.5</ele>
        <time>2019-09-04T06:28:48Z</time>
      </trkpt>
      <trkpt lat="39.9353390" lon="-0.1094540">
        <ele>46.5</ele>
        <time>2019-09-04T06:28:54Z</time>
      </trkpt>
      <trkpt lat="39.9353390" lon="-0.1094540">
        <ele>46.5</ele>
        <time>2019-09-04T06:29:00Z</time>
      </trkpt>
      <trkpt lat="39.9353460" lon="-0.1094220">
        <ele>46.5</ele>
        <time>2019-09-04T06:29:02Z</time>
      </trkpt>
      <trkpt lat="39.9353870" lon="-0.1093370">
        <ele>46.5</ele>
        <time>2019-09-04T06:29:04Z</time>
      </trkpt>
      <trkpt lat="39.9354680" lon="-0.1091920">
        <ele>46.4</ele>
        <time>2019-09-04T06:29:07Z</time>
      </trkpt>
      <trkpt lat="39.9355160" lon="-0.1091190">
        <ele>46.4</ele>
        <time>2019-09-04T06:29:09Z</time>
      </trkpt>
      <trkpt lat="39.9356400" lon="-0.1089300">
        <ele>46.2</ele>
        <time>2019-09-04T06:29:13Z</time>
      </trkpt>
      <trkpt lat="39.9357090" lon="-0.1088390">
        <ele>46.0</ele>
        <time>2019-09-04T06:29:15Z</time>
      </trkpt>
      <trkpt lat="39.9357380" lon="-0.1087930">
        <ele>45.9</ele>
        <time>2019-09-04T06:29:16Z</time>
      </trkpt>
      <trkpt lat="39.9358440" lon="-0.1086260">
        <ele>45.9</ele>
        <time>2019-09-04T06:29:20Z</time>
      </trkpt>
      <trkpt lat="39.9358790" lon="-0.1085840">
        <ele>46.0</ele>
        <time>2019-09-04T06:29:21Z</time>
      </trkpt>
      <trkpt lat="39.9359680" lon="-0.1085190">
        <ele>46.1</ele>
        <time>2019-09-04T06:29:23Z</time>
      </trkpt>
      <trkpt lat="39.9360530" lon="-0.1083380">
        <ele>46.0</ele>
        <time>2019-09-04T06:29:27Z</time>
      </trkpt>
      <trkpt lat="39.9360770" lon="-0.1082980">
        <ele>46.0</ele>
        <time>2019-09-04T06:29:28Z</time>
      </trkpt>
      <trkpt lat="39.9362340" lon="-0.1080500">
        <ele>46.1</ele>
        <time>2019-09-04T06:29:33Z</time>
      </trkpt>
      <trkpt lat="39.9362690" lon="-0.1079970">
        <ele>46.1</ele>
        <time>2019-09-04T06:29:34Z</time>
      </trkpt>
      <trkpt lat="39.9363610" lon="-0.1078350">
        <ele>46.2</ele>
        <time>2019-09-04T06:29:37Z</time>
      </trkpt>
      <trkpt lat="39.9365020" lon="-0.1076050">
        <ele>46.3</ele>
        <time>2019-09-04T06:29:41Z</time>
      </trkpt>
      <trkpt lat="39.9365780" lon="-0.1074890">
        <ele>46.3</ele>
        <time>2019-09-04T06:29:43Z</time>
      </trkpt>
      <trkpt lat="39.9367160" lon="-0.1072620">
        <ele>46.3</ele>
        <time>2019-09-04T06:29:47Z</time>
      </trkpt>
      <trkpt lat="39.9369620" lon="-0.1068900">
        <ele>45.6</ele>
        <time>2019-09-04T06:29:54Z</time>
      </trkpt>
      <trkpt lat="39.9370940" lon="-0.1066950">
        <ele>45.7</ele>
        <time>2019-09-04T06:29:58Z</time>
      </trkpt>
      <trkpt lat="39.9371400" lon="-0.1066210">
        <ele>45.8</ele>
        <time>2019-09-04T06:30:00Z</time>
      </trkpt>
      <trkpt lat="39.9371550" lon="-0.1065860">
        <ele>45.8</ele>
        <time>2019-09-04T06:30:01Z</time>
      </trkpt>
      <trkpt lat="39.9371720" lon="-0.1065430">
        <ele>45.9</ele>
        <time>2019-09-04T06:30:02Z</time>
      </trkpt>
      <trkpt lat="39.9372010" lon="-0.1065040">
        <ele>46.0</ele>
        <time>2019-09-04T06:30:03Z</time>
      </trkpt>
      <trkpt lat="39.9372640" lon="-0.1064190">
        <ele>46.0</ele>
        <time>2019-09-04T06:30:05Z</time>
      </trkpt>
      <trkpt lat="39.9372850" lon="-0.1063860">
        <ele>46.1</ele>
        <time>2019-09-04T06:30:06Z</time>
      </trkpt>
      <trkpt lat="39.9373300" lon="-0.1063410">
        <ele>46.0</ele>
        <time>2019-09-04T06:30:08Z</time>
      </trkpt>
      <trkpt lat="39.9373830" lon="-0.1063010">
        <ele>46.0</ele>
        <time>2019-09-04T06:30:10Z</time>
      </trkpt>
      <trkpt lat="39.9374470" lon="-0.1062080">
        <ele>45.8</ele>
        <time>2019-09-04T06:30:14Z</time>
      </trkpt>
      <trkpt lat="39.9374680" lon="-0.1061640">
        <ele>45.7</ele>
        <time>2019-09-04T06:30:15Z</time>
      </trkpt>
      <trkpt lat="39.9374950" lon="-0.1061120">
        <ele>45.6</ele>
        <time>2019-09-04T06:30:16Z</time>
      </trkpt>
      <trkpt lat="39.9375760" lon="-0.1059860">
        <ele>45.9</ele>
        <time>2019-09-04T06:30:18Z</time>
      </trkpt>
      <trkpt lat="39.9376050" lon="-0.1059270">
        <ele>46.1</ele>
        <time>2019-09-04T06:30:19Z</time>
      </trkpt>
      <trkpt lat="39.9376270" lon="-0.1058720">
        <ele>46.2</ele>
        <time>2019-09-04T06:30:20Z</time>
      </trkpt>
      <trkpt lat="39.9376520" lon="-0.1058250">
        <ele>46.3</ele>
        <time>2019-09-04T06:30:21Z</time>
      </trkpt>
      <trkpt lat="39.9377570" lon="-0.1056760">
        <ele>46.6</ele>
        <time>2019-09-04T06:30:24Z</time>
      </trkpt>
      <trkpt lat="39.9379870" lon="-0.1052900">
        <ele>47.4</ele>
        <time>2019-09-04T06:30:31Z</time>
      </trkpt>
      <trkpt lat="39.9381730" lon="-0.1050070">
        <ele>48.2</ele>
        <time>2019-09-04T06:30:36Z</time>
      </trkpt>
      <trkpt lat="39.9382120" lon="-0.1049500">
        <ele>48.2</ele>
        <time>2019-09-04T06:30:37Z</time>
      </trkpt>
      <trkpt lat="39.9383650" lon="-0.1047160">
        <ele>48.1</ele>
        <time>2019-09-04T06:30:41Z</time>
      </trkpt>
      <trkpt lat="39.9384570" lon="-0.1046020">
        <ele>47.9</ele>
        <time>2019-09-04T06:30:43Z</time>
      </trkpt>
      <trkpt lat="39.9386190" lon="-0.1043490">
        <ele>47.5</ele>
        <time>2019-09-04T06:30:47Z</time>
      </trkpt>
      <trkpt lat="39.9387070" lon="-0.1042150">
        <ele>47.5</ele>
        <time>2019-09-04T06:30:49Z</time>
      </trkpt>
      <trkpt lat="39.9389780" lon="-0.1038080">
        <ele>47.8</ele>
        <time>2019-09-04T06:30:56Z</time>
      </trkpt>
      <trkpt lat="39.9390400" lon="-0.1037150">
        <ele>47.8</ele>
        <time>2019-09-04T06:30:58Z</time>
      </trkpt>
      <trkpt lat="39.9391440" lon="-0.1035710">
        <ele>47.7</ele>
        <time>2019-09-04T06:31:01Z</time>
      </trkpt>
      <trkpt lat="39.9391830" lon="-0.1035310">
        <ele>47.7</ele>
        <time>2019-09-04T06:31:02Z</time>
      </trkpt>
      <trkpt lat="39.9392550" lon="-0.1034450">
        <ele>47.8</ele>
        <time>2019-09-04T06:31:04Z</time>
      </trkpt>
      <trkpt lat="39.9393960" lon="-0.1032680">
        <ele>47.9</ele>
        <time>2019-09-04T06:31:08Z</time>
      </trkpt>
      <trkpt lat="39.9394580" lon="-0.1032560">
        <ele>48.0</ele>
        <time>2019-09-04T06:31:10Z</time>
      </trkpt>
      <trkpt lat="39.9394840" lon="-0.1032590">
        <ele>48.0</ele>
        <time>2019-09-04T06:31:12Z</time>
      </trkpt>
      <trkpt lat="39.9394940" lon="-0.1032440">
        <ele>48.0</ele>
        <time>2019-09-04T06:31:13Z</time>
      </trkpt>
      <trkpt lat="39.9395330" lon="-0.1031620">
        <ele>48.0</ele>
        <time>2019-09-04T06:31:16Z</time>
      </trkpt>
      <trkpt lat="39.9395540" lon="-0.1031080">
        <ele>48.0</ele>
        <time>2019-09-04T06:31:17Z</time>
      </trkpt>
      <trkpt lat="39.9395740" lon="-0.1030550">
        <ele>48.1</ele>
        <time>2019-09-04T06:31:18Z</time>
      </trkpt>
      <trkpt lat="39.9396010" lon="-0.1030010">
        <ele>48.1</ele>
        <time>2019-09-04T06:31:19Z</time>
      </trkpt>
      <trkpt lat="39.9396670" lon="-0.1028910">
        <ele>48.1</ele>
        <time>2019-09-04T06:31:21Z</time>
      </trkpt>
      <trkpt lat="39.9397040" lon="-0.1028360">
        <ele>48.2</ele>
        <time>2019-09-04T06:31:22Z</time>
      </trkpt>
      <trkpt lat="39.9397730" lon="-0.1027220">
        <ele>48.2</ele>
        <time>2019-09-04T06:31:24Z</time>
      </trkpt>
      <trkpt lat="39.9398880" lon="-0.1025730">
        <ele>48.3</ele>
        <time>2019-09-04T06:31:27Z</time>
      </trkpt>
      <trkpt lat="39.9399210" lon="-0.1025480">
        <ele>48.3</ele>
        <time>2019-09-04T06:31:28Z</time>
      </trkpt>
      <trkpt lat="39.9399600" lon="-0.1025320">
        <ele>48.3</ele>
        <time>2019-09-04T06:31:29Z</time>
      </trkpt>
      <trkpt lat="39.9399880" lon="-0.1025110">
        <ele>48.4</ele>
        <time>2019-09-04T06:31:30Z</time>
      </trkpt>
      <trkpt lat="39.9400110" lon="-0.1024820">
        <ele>48.4</ele>
        <time>2019-09-04T06:31:31Z</time>
      </trkpt>
      <trkpt lat="39.9400380" lon="-0.1024380">
        <ele>48.4</ele>
        <time>2019-09-04T06:31:32Z</time>
      </trkpt>
      <trkpt lat="39.9401110" lon="-0.1023280">
        <ele>48.5</ele>
        <time>2019-09-04T06:31:34Z</time>
      </trkpt>
      <trkpt lat="39.9401940" lon="-0.1022140">
        <ele>48.5</ele>
        <time>2019-09-04T06:31:36Z</time>
      </trkpt>
      <trkpt lat="39.9402890" lon="-0.1020450">
        <ele>48.5</ele>
        <time>2019-09-04T06:31:39Z</time>
      </trkpt>
      <trkpt lat="39.9404430" lon="-0.1018000">
        <ele>48.9</ele>
        <time>2019-09-04T06:31:45Z</time>
      </trkpt>
      <trkpt lat="39.9405370" lon="-0.1017160">
        <ele>49.0</ele>
        <time>2019-09-04T06:31:49Z</time>
      </trkpt>
      <trkpt lat="39.9405380" lon="-0.1017220">
        <ele>49.0</ele>
        <time>2019-09-04T06:31:51Z</time>
      </trkpt>
      <trkpt lat="39.9405970" lon="-0.1017350">
        <ele>48.9</ele>
        <time>2019-09-04T06:31:53Z</time>
      </trkpt>
      <trkpt lat="39.9406380" lon="-0.1017620">
        <ele>48.5</ele>
        <time>2019-09-04T06:31:54Z</time>
      </trkpt>
      <trkpt lat="39.9407310" lon="-0.1018320">
        <ele>48.5</ele>
        <time>2019-09-04T06:31:56Z</time>
      </trkpt>
      <trkpt lat="39.9408370" lon="-0.1018880">
        <ele>48.5</ele>
        <time>2019-09-04T06:31:58Z</time>
      </trkpt>
      <trkpt lat="39.9409160" lon="-0.1019580">
        <ele>48.5</ele>
        <time>2019-09-04T06:32:00Z</time>
      </trkpt>
      <trkpt lat="39.9409490" lon="-0.1019920">
        <ele>48.5</ele>
        <time>2019-09-04T06:32:01Z</time>
      </trkpt>
      <trkpt lat="39.9409860" lon="-0.1020080">
        <ele>48.5</ele>
        <time>2019-09-04T06:32:02Z</time>
      </trkpt>
      <trkpt lat="39.9410500" lon="-0.1020040">
        <ele>48.5</ele>
        <time>2019-09-04T06:32:04Z</time>
      </trkpt>
      <trkpt lat="39.9410580" lon="-0.1020250">
        <ele>48.5</ele>
        <time>2019-09-04T06:32:05Z</time>
      </trkpt>
      <trkpt lat="39.9410440" lon="-0.1020960">
        <ele>48.5</ele>
        <time>2019-09-04T06:32:06Z</time>
      </trkpt>
      <trkpt lat="39.9410470" lon="-0.1021280">
        <ele>48.5</ele>
        <time>2019-09-04T06:32:08Z</time>
      </trkpt>
      <trkpt lat="39.9410620" lon="-0.1021050">
        <ele>48.5</ele>
        <time>2019-09-04T06:32:10Z</time>
      </trkpt>
      <trkpt lat="39.9411130" lon="-0.1020240">
        <ele>48.5</ele>
        <time>2019-09-04T06:32:11Z</time>
      </trkpt>
      <trkpt lat="39.9411920" lon="-0.1018970">
        <ele>48.5</ele>
        <time>2019-09-04T06:32:13Z</time>
      </trkpt>
      <trkpt lat="39.9412080" lon="-0.1018010">
        <ele>48.5</ele>
        <time>2019-09-04T06:32:15Z</time>
      </trkpt>
      <trkpt lat="39.9411580" lon="-0.1017200">
        <ele>48.6</ele>
        <time>2019-09-04T06:32:17Z</time>
      </trkpt>
      <trkpt lat="39.9409600" lon="-0.1013580">
        <ele>48.8</ele>
        <time>2019-09-04T06:34:46Z</time>
      </trkpt>
      <trkpt lat="39.9409420" lon="-0.1013490">
        <ele>48.8</ele>
        <time>2019-09-04T06:34:47Z</time>
      </trkpt>
      <trkpt lat="39.9409240" lon="-0.1012960">
        <ele>48.8</ele>
        <time>2019-09-04T06:34:50Z</time>
      </trkpt>
      <trkpt lat="39.9409190" lon="-0.1012590">
        <ele>48.8</ele>
        <time>2019-09-04T06:34:52Z</time>
      </trkpt>
      <trkpt lat="39.9408990" lon="-0.1012070">
        <ele>48.9</ele>
        <time>2019-09-04T06:34:55Z</time>
      </trkpt>
      <trkpt lat="39.9409180" lon="-0.1011310">
        <ele>49.0</ele>
        <time>2019-09-04T06:34:58Z</time>
      </trkpt>
      <trkpt lat="39.9409320" lon="-0.1010880">
        <ele>49.0</ele>
        <time>2019-09-04T06:35:00Z</time>
      </trkpt>
      <trkpt lat="39.9409530" lon="-0.1010470">
        <ele>49.1</ele>
        <time>2019-09-04T06:35:02Z</time>
      </trkpt>
      <trkpt lat="39.9409710" lon="-0.1010180">
        <ele>49.1</ele>
        <time>2019-09-04T06:35:04Z</time>
      </trkpt>
      <trkpt lat="39.9410090" lon="-0.1010260">
        <ele>49.2</ele>
        <time>2019-09-04T06:35:05Z</time>
      </trkpt>
      <trkpt lat="39.9410660" lon="-0.1009980">
        <ele>49.2</ele>
        <time>2019-09-04T06:35:07Z</time>
      </trkpt>
      <trkpt lat="39.9411560" lon="-0.1008860">
        <ele>49.3</ele>
        <time>2019-09-04T06:35:10Z</time>
      </trkpt>
      <trkpt lat="39.9412870" lon="-0.1006920">
        <ele>49.4</ele>
        <time>2019-09-04T06:35:16Z</time>
      </trkpt>
      <trkpt lat="39.9414010" lon="-0.1005160">
        <ele>49.4</ele>
        <time>2019-09-04T06:35:22Z</time>
      </trkpt>
      <trkpt lat="39.9415600" lon="-0.1004310">
        <ele>49.4</ele>
        <time>2019-09-04T06:35:26Z</time>
      </trkpt>
      <trkpt lat="39.9416180" lon="-0.1003600">
        <ele>49.4</ele>
        <time>2019-09-04T06:35:28Z</time>
      </trkpt>
      <trkpt lat="39.9416380" lon="-0.1003210">
        <ele>49.4</ele>
        <time>2019-09-04T06:35:29Z</time>
      </trkpt>
      <trkpt lat="39.9416470" lon="-0.1002860">
        <ele>49.4</ele>
        <time>2019-09-04T06:35:30Z</time>
      </trkpt>
      <trkpt lat="39.9416790" lon="-0.1002420">
        <ele>49.3</ele>
        <time>2019-09-04T06:35:31Z</time>
      </trkpt>
      <trkpt lat="39.9418090" lon="-0.1000370">
        <ele>49.2</ele>
        <time>2019-09-04T06:35:35Z</time>
      </trkpt>
      <trkpt lat="39.9418860" lon="-0.0999050">
        <ele>49.0</ele>
        <time>2019-09-04T06:35:38Z</time>
      </trkpt>
      <trkpt lat="39.9419470" lon="-0.0998400">
        <ele>49.0</ele>
        <time>2019-09-04T06:35:40Z</time>
      </trkpt>
      <trkpt lat="39.9419950" lon="-0.0997780">
        <ele>48.9</ele>
        <time>2019-09-04T06:35:42Z</time>
      </trkpt>
      <trkpt lat="39.9420510" lon="-0.0997260">
        <ele>48.8</ele>
        <time>2019-09-04T06:35:44Z</time>
      </trkpt>
      <trkpt lat="39.9421530" lon="-0.0995960">
        <ele>48.7</ele>
        <time>2019-09-04T06:35:47Z</time>
      </trkpt>
      <trkpt lat="39.9421970" lon="-0.0994980">
        <ele>48.6</ele>
        <time>2019-09-04T06:35:49Z</time>
      </trkpt>
      <trkpt lat="39.9423750" lon="-0.0991920">
        <ele>48.3</ele>
        <time>2019-09-04T06:35:56Z</time>
      </trkpt>
      <trkpt lat="39.9425090" lon="-0.0989730">
        <ele>47.9</ele>
        <time>2019-09-04T06:36:01Z</time>
      </trkpt>
      <trkpt lat="39.9426950" lon="-0.0987060">
        <ele>47.2</ele>
        <time>2019-09-04T06:36:07Z</time>
      </trkpt>
      <trkpt lat="39.9428380" lon="-0.0984550">
        <ele>46.9</ele>
        <time>2019-09-04T06:36:12Z</time>
      </trkpt>
      <trkpt lat="39.9429210" lon="-0.0982970">
        <ele>46.5</ele>
        <time>2019-09-04T06:36:15Z</time>
      </trkpt>
      <trkpt lat="39.9429800" lon="-0.0982040">
        <ele>46.4</ele>
        <time>2019-09-04T06:36:17Z</time>
      </trkpt>
      <trkpt lat="39.9430330" lon="-0.0981100">
        <ele>46.4</ele>
        <time>2019-09-04T06:36:19Z</time>
      </trkpt>
      <trkpt lat="39.9431130" lon="-0.0980290">
        <ele>46.5</ele>
        <time>2019-09-04T06:36:21Z</time>
      </trkpt>
      <trkpt lat="39.9432540" lon="-0.0978390">
        <ele>46.7</ele>
        <time>2019-09-04T06:36:25Z</time>
      </trkpt>
      <trkpt lat="39.9433190" lon="-0.0977400">
        <ele>46.7</ele>
        <time>2019-09-04T06:36:27Z</time>
      </trkpt>
      <trkpt lat="39.9433600" lon="-0.0976540">
        <ele>47.0</ele>
        <time>2019-09-04T06:36:29Z</time>
      </trkpt>
      <trkpt lat="39.9433840" lon="-0.0976110">
        <ele>47.1</ele>
        <time>2019-09-04T06:36:30Z</time>
      </trkpt>
      <trkpt lat="39.9434460" lon="-0.0975170">
        <ele>47.4</ele>
        <time>2019-09-04T06:36:32Z</time>
      </trkpt>
      <trkpt lat="39.9435320" lon="-0.0973800">
        <ele>47.8</ele>
        <time>2019-09-04T06:36:35Z</time>
      </trkpt>
      <trkpt lat="39.9436000" lon="-0.0972410">
        <ele>48.3</ele>
        <time>2019-09-04T06:36:38Z</time>
      </trkpt>
      <trkpt lat="39.9436280" lon="-0.0971880">
        <ele>48.3</ele>
        <time>2019-09-04T06:36:39Z</time>
      </trkpt>
      <trkpt lat="39.9436480" lon="-0.0970890">
        <ele>49.0</ele>
        <time>2019-09-04T06:36:41Z</time>
      </trkpt>
      <trkpt lat="39.9436570" lon="-0.0970680">
        <ele>49.0</ele>
        <time>2019-09-04T06:36:42Z</time>
      </trkpt>
      <trkpt lat="39.9436520" lon="-0.0970960">
        <ele>49.0</ele>
        <time>2019-09-04T06:36:44Z</time>
      </trkpt>
      <trkpt lat="39.9437170" lon="-0.0970850">
        <ele>49.0</ele>
        <time>2019-09-04T06:36:46Z</time>
      </trkpt>
      <trkpt lat="39.9437940" lon="-0.0970600">
        <ele>49.0</ele>
        <time>2019-09-04T06:36:48Z</time>
      </trkpt>
      <trkpt lat="39.9438230" lon="-0.0970580">
        <ele>49.0</ele>
        <time>2019-09-04T06:36:49Z</time>
      </trkpt>
      <trkpt lat="39.9438730" lon="-0.0970380">
        <ele>49.0</ele>
        <time>2019-09-04T06:36:50Z</time>
      </trkpt>
      <trkpt lat="39.9439800" lon="-0.0969930">
        <ele>48.8</ele>
        <time>2019-09-04T06:36:52Z</time>
      </trkpt>
      <trkpt lat="39.9440720" lon="-0.0969670">
        <ele>48.6</ele>
        <time>2019-09-04T06:36:54Z</time>
      </trkpt>
      <trkpt lat="39.9441630" lon="-0.0969400">
        <ele>48.4</ele>
        <time>2019-09-04T06:36:56Z</time>
      </trkpt>
      <trkpt lat="39.9443690" lon="-0.0968490">
        <ele>48.3</ele>
        <time>2019-09-04T06:37:00Z</time>
      </trkpt>
      <trkpt lat="39.9444420" lon="-0.0967970">
        <ele>48.5</ele>
        <time>2019-09-04T06:37:02Z</time>
      </trkpt>
      <trkpt lat="39.9445840" lon="-0.0966610">
        <ele>49.0</ele>
        <time>2019-09-04T06:37:06Z</time>
      </trkpt>
      <trkpt lat="39.9446100" lon="-0.0966130">
        <ele>49.0</ele>
        <time>2019-09-04T06:37:07Z</time>
      </trkpt>
      <trkpt lat="39.9446330" lon="-0.0965700">
        <ele>49.1</ele>
        <time>2019-09-04T06:37:08Z</time>
      </trkpt>
      <trkpt lat="39.9447030" lon="-0.0964880">
        <ele>49.2</ele>
        <time>2019-09-04T06:37:10Z</time>
      </trkpt>
      <trkpt lat="39.9447770" lon="-0.0963850">
        <ele>49.1</ele>
        <time>2019-09-04T06:37:12Z</time>
      </trkpt>
      <trkpt lat="39.9448050" lon="-0.0963190">
        <ele>49.2</ele>
        <time>2019-09-04T06:37:13Z</time>
      </trkpt>
      <trkpt lat="39.9449230" lon="-0.0961200">
        <ele>49.5</ele>
        <time>2019-09-04T06:37:16Z</time>
      </trkpt>
      <trkpt lat="39.9449840" lon="-0.0959740">
        <ele>49.5</ele>
        <time>2019-09-04T06:37:18Z</time>
      </trkpt>
      <trkpt lat="39.9450750" lon="-0.0957420">
        <ele>49.1</ele>
        <time>2019-09-04T06:37:21Z</time>
      </trkpt>
      <trkpt lat="39.9451470" lon="-0.0955760">
        <ele>48.8</ele>
        <time>2019-09-04T06:37:23Z</time>
      </trkpt>
      <trkpt lat="39.9451870" lon="-0.0954930">
        <ele>48.7</ele>
        <time>2019-09-04T06:37:24Z</time>
      </trkpt>
      <trkpt lat="39.9452620" lon="-0.0953110">
        <ele>48.3</ele>
        <time>2019-09-04T06:37:26Z</time>
      </trkpt>
      <trkpt lat="39.9453620" lon="-0.0951400">
        <ele>47.9</ele>
        <time>2019-09-04T06:37:28Z</time>
      </trkpt>
      <trkpt lat="39.9454800" lon="-0.0949590">
        <ele>47.8</ele>
        <time>2019-09-04T06:37:30Z</time>
      </trkpt>
      <trkpt lat="39.9456860" lon="-0.0944860">
        <ele>47.5</ele>
        <time>2019-09-04T06:37:35Z</time>
      </trkpt>
      <trkpt lat="39.9457280" lon="-0.0943860">
        <ele>47.5</ele>
        <time>2019-09-04T06:37:36Z</time>
      </trkpt>
      <trkpt lat="39.9458900" lon="-0.0939700">
        <ele>47.2</ele>
        <time>2019-09-04T06:37:40Z</time>
      </trkpt>
      <trkpt lat="39.9460500" lon="-0.0935580">
        <ele>47.1</ele>
        <time>2019-09-04T06:37:44Z</time>
      </trkpt>
      <trkpt lat="39.9462920" lon="-0.0929520">
        <ele>47.3</ele>
        <time>2019-09-04T06:37:50Z</time>
      </trkpt>
      <trkpt lat="39.9464780" lon="-0.0924850">
        <ele>47.7</ele>
        <time>2019-09-04T06:37:55Z</time>
      </trkpt>
      <trkpt lat="39.9464720" lon="-0.0922980">
        <ele>47.9</ele>
        <time>2019-09-04T06:37:57Z</time>
      </trkpt>
      <trkpt lat="39.9464470" lon="-0.0922130">
        <ele>48.0</ele>
        <time>2019-09-04T06:37:58Z</time>
      </trkpt>
      <trkpt lat="39.9464270" lon="-0.0921340">
        <ele>47.3</ele>
        <time>2019-09-04T06:37:59Z</time>
      </trkpt>
      <trkpt lat="39.9464670" lon="-0.0919940">
        <ele>47.0</ele>
        <time>2019-09-04T06:38:01Z</time>
      </trkpt>
      <trkpt lat="39.9465780" lon="-0.0919080">
        <ele>47.2</ele>
        <time>2019-09-04T06:38:03Z</time>
      </trkpt>
      <trkpt lat="39.9466450" lon="-0.0918730">
        <ele>47.2</ele>
        <time>2019-09-04T06:38:04Z</time>
      </trkpt>
      <trkpt lat="39.9467020" lon="-0.0918250">
        <ele>47.2</ele>
        <time>2019-09-04T06:38:05Z</time>
      </trkpt>
      <trkpt lat="39.9467840" lon="-0.0917100">
        <ele>47.1</ele>
        <time>2019-09-04T06:38:07Z</time>
      </trkpt>
      <trkpt lat="39.9468580" lon="-0.0915830">
        <ele>46.8</ele>
        <time>2019-09-04T06:38:09Z</time>
      </trkpt>
      <trkpt lat="39.9469430" lon="-0.0913670">
        <ele>46.5</ele>
        <time>2019-09-04T06:38:12Z</time>
      </trkpt>
      <trkpt lat="39.9470650" lon="-0.0910140">
        <ele>46.6</ele>
        <time>2019-09-04T06:38:17Z</time>
      </trkpt>
      <trkpt lat="39.9470920" lon="-0.0909420">
        <ele>46.6</ele>
        <time>2019-09-04T06:38:18Z</time>
      </trkpt>
      <trkpt lat="39.9471410" lon="-0.0907940">
        <ele>46.7</ele>
        <time>2019-09-04T06:38:20Z</time>
      </trkpt>
      <trkpt lat="39.9472060" lon="-0.0906380">
        <ele>46.9</ele>
        <time>2019-09-04T06:38:22Z</time>
      </trkpt>
      <trkpt lat="39.9474410" lon="-0.0900930">
        <ele>47.4</ele>
        <time>2019-09-04T06:38:29Z</time>
      </trkpt>
      <trkpt lat="39.9476900" lon="-0.0894780">
        <ele>48.2</ele>
        <time>2019-09-04T06:38:36Z</time>
      </trkpt>
      <trkpt lat="39.9478700" lon="-0.0890020">
        <ele>48.5</ele>
        <time>2019-09-04T06:38:41Z</time>
      </trkpt>
      <trkpt lat="39.9479800" lon="-0.0887220">
        <ele>48.5</ele>
        <time>2019-09-04T06:38:44Z</time>
      </trkpt>
      <trkpt lat="39.9482370" lon="-0.0881060">
        <ele>48.6</ele>
        <time>2019-09-04T06:38:51Z</time>
      </trkpt>
      <trkpt lat="39.9482720" lon="-0.0880200">
        <ele>48.6</ele>
        <time>2019-09-04T06:38:52Z</time>
      </trkpt>
      <trkpt lat="39.9484200" lon="-0.0876310">
        <ele>48.9</ele>
        <time>2019-09-04T06:38:57Z</time>
      </trkpt>
      <trkpt lat="39.9484870" lon="-0.0875030">
        <ele>49.2</ele>
        <time>2019-09-04T06:38:59Z</time>
      </trkpt>
      <trkpt lat="39.9485380" lon="-0.0873690">
        <ele>49.3</ele>
        <time>2019-09-04T06:39:01Z</time>
      </trkpt>
      <trkpt lat="39.9486240" lon="-0.0870830">
        <ele>48.5</ele>
        <time>2019-09-04T06:39:05Z</time>
      </trkpt>
      <trkpt lat="39.9486520" lon="-0.0870060">
        <ele>48.3</ele>
        <time>2019-09-04T06:39:06Z</time>
      </trkpt>
      <trkpt lat="39.9488300" lon="-0.0866740">
        <ele>47.2</ele>
        <time>2019-09-04T06:39:11Z</time>
      </trkpt>
      <trkpt lat="39.9490230" lon="-0.0863240">
        <ele>46.7</ele>
        <time>2019-09-04T06:39:17Z</time>
      </trkpt>
      <trkpt lat="39.9490330" lon="-0.0862890">
        <ele>46.7</ele>
        <time>2019-09-04T06:39:18Z</time>
      </trkpt>
      <trkpt lat="39.9490330" lon="-0.0862710">
        <ele>46.7</ele>
        <time>2019-09-04T06:39:19Z</time>
      </trkpt>
      <trkpt lat="39.9490330" lon="-0.0862640">
        <ele>46.7</ele>
        <time>2019-09-04T06:39:20Z</time>
      </trkpt>
      <trkpt lat="39.9490230" lon="-0.0862290">
        <ele>46.6</ele>
        <time>2019-09-04T06:39:23Z</time>
      </trkpt>
      <trkpt lat="39.9490090" lon="-0.0862020">
        <ele>46.6</ele>
        <time>2019-09-04T06:39:24Z</time>
      </trkpt>
      <trkpt lat="39.9489640" lon="-0.0861180">
        <ele>46.5</ele>
        <time>2019-09-04T06:39:26Z</time>
      </trkpt>
      <trkpt lat="39.9489270" lon="-0.0860030">
        <ele>46.3</ele>
        <time>2019-09-04T06:39:28Z</time>
      </trkpt>
      <trkpt lat="39.9489060" lon="-0.0858680">
        <ele>46.1</ele>
        <time>2019-09-04T06:39:30Z</time>
      </trkpt>
      <trkpt lat="39.9489120" lon="-0.0857270">
        <ele>46.0</ele>
        <time>2019-09-04T06:39:32Z</time>
      </trkpt>
      <trkpt lat="39.9489260" lon="-0.0856520">
        <ele>46.0</ele>
        <time>2019-09-04T06:39:33Z</time>
      </trkpt>
      <trkpt lat="39.9489460" lon="-0.0855790">
        <ele>46.1</ele>
        <time>2019-09-04T06:39:34Z</time>
      </trkpt>
      <trkpt lat="39.9490030" lon="-0.0854470">
        <ele>46.3</ele>
        <time>2019-09-04T06:39:36Z</time>
      </trkpt>
      <trkpt lat="39.9490440" lon="-0.0853900">
        <ele>46.4</ele>
        <time>2019-09-04T06:39:37Z</time>
      </trkpt>
      <trkpt lat="39.9491410" lon="-0.0852980">
        <ele>46.4</ele>
        <time>2019-09-04T06:39:39Z</time>
      </trkpt>
      <trkpt lat="39.9492990" lon="-0.0851540">
        <ele>46.3</ele>
        <time>2019-09-04T06:39:42Z</time>
      </trkpt>
      <trkpt lat="39.9496630" lon="-0.0847200">
        <ele>45.4</ele>
        <time>2019-09-04T06:39:49Z</time>
      </trkpt>
      <trkpt lat="39.9500660" lon="-0.0841700">
        <ele>44.1</ele>
        <time>2019-09-04T06:39:56Z</time>
      </trkpt>
      <trkpt lat="39.9505120" lon="-0.0836220">
        <ele>42.2</ele>
        <time>2019-09-04T06:40:03Z</time>
      </trkpt>
      <trkpt lat="39.9506850" lon="-0.0833570">
        <ele>41.2</ele>
        <time>2019-09-04T06:40:06Z</time>
      </trkpt>
      <trkpt lat="39.9510900" lon="-0.0827560">
        <ele>38.0</ele>
        <time>2019-09-04T06:40:13Z</time>
      </trkpt>
      <trkpt lat="39.9512070" lon="-0.0825920">
        <ele>37.4</ele>
        <time>2019-09-04T06:40:15Z</time>
      </trkpt>
      <trkpt lat="39.9514930" lon="-0.0821930">
        <ele>36.2</ele>
        <time>2019-09-04T06:40:20Z</time>
      </trkpt>
      <trkpt lat="39.9516670" lon="-0.0819620">
        <ele>35.6</ele>
        <time>2019-09-04T06:40:23Z</time>
      </trkpt>
      <trkpt lat="39.9517870" lon="-0.0818130">
        <ele>35.2</ele>
        <time>2019-09-04T06:40:25Z</time>
      </trkpt>
      <trkpt lat="39.9519150" lon="-0.0816600">
        <ele>34.8</ele>
        <time>2019-09-04T06:40:27Z</time>
      </trkpt>
      <trkpt lat="39.9520370" lon="-0.0814890">
        <ele>34.4</ele>
        <time>2019-09-04T06:40:29Z</time>
      </trkpt>
      <trkpt lat="39.9520970" lon="-0.0814060">
        <ele>34.2</ele>
        <time>2019-09-04T06:40:30Z</time>
      </trkpt>
      <trkpt lat="39.9522840" lon="-0.0811450">
        <ele>33.9</ele>
        <time>2019-09-04T06:40:33Z</time>
      </trkpt>
      <trkpt lat="39.9525940" lon="-0.0807150">
        <ele>34.0</ele>
        <time>2019-09-04T06:40:38Z</time>
      </trkpt>
      <trkpt lat="39.9528280" lon="-0.0803890">
        <ele>34.7</ele>
        <time>2019-09-04T06:40:42Z</time>
      </trkpt>
      <trkpt lat="39.9531160" lon="-0.0799870">
        <ele>36.4</ele>
        <time>2019-09-04T06:40:47Z</time>
      </trkpt>
      <trkpt lat="39.9535120" lon="-0.0794430">
        <ele>39.6</ele>
        <time>2019-09-04T06:40:54Z</time>
      </trkpt>
      <trkpt lat="39.9536220" lon="-0.0792910">
        <ele>40.3</ele>
        <time>2019-09-04T06:40:56Z</time>
      </trkpt>
      <trkpt lat="39.9540200" lon="-0.0787720">
        <ele>42.8</ele>
        <time>2019-09-04T06:41:03Z</time>
      </trkpt>
      <trkpt lat="39.9540770" lon="-0.0787000">
        <ele>43.1</ele>
        <time>2019-09-04T06:41:04Z</time>
      </trkpt>
      <trkpt lat="39.9544880" lon="-0.0782040">
        <ele>44.6</ele>
        <time>2019-09-04T06:41:11Z</time>
      </trkpt>
      <trkpt lat="39.9549710" lon="-0.0777240">
        <ele>45.1</ele>
        <time>2019-09-04T06:41:18Z</time>
      </trkpt>
      <trkpt lat="39.9554060" lon="-0.0773300">
        <ele>46.6</ele>
        <time>2019-09-04T06:41:24Z</time>
      </trkpt>
      <trkpt lat="39.9555540" lon="-0.0772010">
        <ele>47.0</ele>
        <time>2019-09-04T06:41:26Z</time>
      </trkpt>
      <trkpt lat="39.9560580" lon="-0.0767420">
        <ele>47.3</ele>
        <time>2019-09-04T06:41:33Z</time>
      </trkpt>
      <trkpt lat="39.9561300" lon="-0.0766790">
        <ele>47.3</ele>
        <time>2019-09-04T06:41:34Z</time>
      </trkpt>
      <trkpt lat="39.9566240" lon="-0.0762580">
        <ele>47.4</ele>
        <time>2019-09-04T06:41:41Z</time>
      </trkpt>
      <trkpt lat="39.9567690" lon="-0.0761240">
        <ele>47.4</ele>
        <time>2019-09-04T06:41:43Z</time>
      </trkpt>
      <trkpt lat="39.9572770" lon="-0.0756620">
        <ele>47.4</ele>
        <time>2019-09-04T06:41:50Z</time>
      </trkpt>
      <trkpt lat="39.9573480" lon="-0.0755960">
        <ele>47.4</ele>
        <time>2019-09-04T06:41:51Z</time>
      </trkpt>
      <trkpt lat="39.9578520" lon="-0.0751420">
        <ele>47.3</ele>
        <time>2019-09-04T06:41:58Z</time>
      </trkpt>
      <trkpt lat="39.9580010" lon="-0.0750200">
        <ele>46.9</ele>
        <time>2019-09-04T06:42:00Z</time>
      </trkpt>
      <trkpt lat="39.9585230" lon="-0.0745870">
        <ele>46.4</ele>
        <time>2019-09-04T06:42:07Z</time>
      </trkpt>
      <trkpt lat="39.9586710" lon="-0.0744650">
        <ele>46.2</ele>
        <time>2019-09-04T06:42:09Z</time>
      </trkpt>
      <trkpt lat="39.9592060" lon="-0.0740610">
        <ele>45.7</ele>
        <time>2019-09-04T06:42:16Z</time>
      </trkpt>
      <trkpt lat="39.9592840" lon="-0.0740080">
        <ele>45.6</ele>
        <time>2019-09-04T06:42:17Z</time>
      </trkpt>
      <trkpt lat="39.9597070" lon="-0.0737210">
        <ele>45.1</ele>
        <time>2019-09-04T06:42:23Z</time>
      </trkpt>
      <trkpt lat="39.9599390" lon="-0.0735160">
        <ele>45.1</ele>
        <time>2019-09-04T06:42:27Z</time>
      </trkpt>
      <trkpt lat="39.9599780" lon="-0.0734460">
        <ele>45.2</ele>
        <time>2019-09-04T06:42:28Z</time>
      </trkpt>
      <trkpt lat="39.9599980" lon="-0.0733650">
        <ele>45.3</ele>
        <time>2019-09-04T06:42:29Z</time>
      </trkpt>
      <trkpt lat="39.9600020" lon="-0.0731930">
        <ele>45.5</ele>
        <time>2019-09-04T06:42:31Z</time>
      </trkpt>
      <trkpt lat="39.9599600" lon="-0.0730420">
        <ele>45.7</ele>
        <time>2019-09-04T06:42:33Z</time>
      </trkpt>
      <trkpt lat="39.9598980" lon="-0.0729140">
        <ele>45.6</ele>
        <time>2019-09-04T06:42:35Z</time>
      </trkpt>
      <trkpt lat="39.9597420" lon="-0.0726860">
        <ele>45.6</ele>
        <time>2019-09-04T06:42:39Z</time>
      </trkpt>
      <trkpt lat="39.9596970" lon="-0.0726380">
        <ele>45.6</ele>
        <time>2019-09-04T06:42:40Z</time>
      </trkpt>
      <trkpt lat="39.9594930" lon="-0.0724760">
        <ele>45.8</ele>
        <time>2019-09-04T06:42:44Z</time>
      </trkpt>
      <trkpt lat="39.9594360" lon="-0.0724550">
        <ele>46.0</ele>
        <time>2019-09-04T06:42:45Z</time>
      </trkpt>
      <trkpt lat="39.9592410" lon="-0.0723640">
        <ele>46.3</ele>
        <time>2019-09-04T06:42:48Z</time>
      </trkpt>
      <trkpt lat="39.9591380" lon="-0.0723090">
        <ele>46.3</ele>
        <time>2019-09-04T06:42:50Z</time>
      </trkpt>
      <trkpt lat="39.9590420" lon="-0.0722740">
        <ele>46.3</ele>
        <time>2019-09-04T06:42:53Z</time>
      </trkpt>
      <trkpt lat="39.9589940" lon="-0.0722400">
        <ele>46.2</ele>
        <time>2019-09-04T06:42:55Z</time>
      </trkpt>
      <trkpt lat="39.9589880" lon="-0.0722220">
        <ele>46.2</ele>
        <time>2019-09-04T06:42:56Z</time>
      </trkpt>
      <trkpt lat="39.9589880" lon="-0.0722180">
        <ele>46.2</ele>
        <time>2019-09-04T06:43:00Z</time>
      </trkpt>
      <trkpt lat="39.9589880" lon="-0.0722180">
        <ele>46.2</ele>
        <time>2019-09-04T06:43:01Z</time>
      </trkpt>
      <trkpt lat="39.9589950" lon="-0.0722150">
        <ele>46.2</ele>
        <time>2019-09-04T06:43:16Z</time>
      </trkpt>
      <trkpt lat="39.9589950" lon="-0.0722150">
        <ele>46.2</ele>
        <time>2019-09-04T06:43:17Z</time>
      </trkpt>
      <trkpt lat="39.9589550" lon="-0.0721660">
        <ele>46.1</ele>
        <time>2019-09-04T06:43:20Z</time>
      </trkpt>
      <trkpt lat="39.9589360" lon="-0.0721210">
        <ele>46.1</ele>
        <time>2019-09-04T06:43:21Z</time>
      </trkpt>
      <trkpt lat="39.9589360" lon="-0.0720380">
        <ele>45.9</ele>
        <time>2019-09-04T06:43:23Z</time>
      </trkpt>
      <trkpt lat="39.9589870" lon="-0.0718920">
        <ele>45.9</ele>
        <time>2019-09-04T06:43:26Z</time>
      </trkpt>
      <trkpt lat="39.9590200" lon="-0.0718290">
        <ele>45.9</ele>
        <time>2019-09-04T06:43:27Z</time>
      </trkpt>
      <trkpt lat="39.9591690" lon="-0.0716200">
        <ele>46.0</ele>
        <time>2019-09-04T06:43:30Z</time>
      </trkpt>
      <trkpt lat="39.9592840" lon="-0.0714560">
        <ele>45.7</ele>
        <time>2019-09-04T06:43:32Z</time>
      </trkpt>
      <trkpt lat="39.9594750" lon="-0.0712020">
        <ele>44.8</ele>
        <time>2019-09-04T06:43:35Z</time>
      </trkpt>
      <trkpt lat="39.9596100" lon="-0.0710170">
        <ele>44.0</ele>
        <time>2019-09-04T06:43:37Z</time>
      </trkpt>
      <trkpt lat="39.9596790" lon="-0.0709220">
        <ele>43.7</ele>
        <time>2019-09-04T06:43:38Z</time>
      </trkpt>
      <trkpt lat="39.9598130" lon="-0.0707300">
        <ele>43.5</ele>
        <time>2019-09-04T06:43:40Z</time>
      </trkpt>
      <trkpt lat="39.9600220" lon="-0.0704420">
        <ele>43.3</ele>
        <time>2019-09-04T06:43:43Z</time>
      </trkpt>
      <trkpt lat="39.9601640" lon="-0.0702400">
        <ele>43.1</ele>
        <time>2019-09-04T06:43:45Z</time>
      </trkpt>
      <trkpt lat="39.9605740" lon="-0.0696420">
        <ele>42.8</ele>
        <time>2019-09-04T06:43:51Z</time>
      </trkpt>
      <trkpt lat="39.9607130" lon="-0.0694550">
        <ele>43.0</ele>
        <time>2019-09-04T06:43:53Z</time>
      </trkpt>
      <trkpt lat="39.9609350" lon="-0.0691520">
        <ele>43.2</ele>
        <time>2019-09-04T06:43:57Z</time>
      </trkpt>
      <trkpt lat="39.9610090" lon="-0.0690560">
        <ele>43.2</ele>
        <time>2019-09-04T06:43:59Z</time>
      </trkpt>
      <trkpt lat="39.9610370" lon="-0.0690200">
        <ele>43.1</ele>
        <time>2019-09-04T06:44:00Z</time>
      </trkpt>
      <trkpt lat="39.9610700" lon="-0.0689690">
        <ele>43.1</ele>
        <time>2019-09-04T06:44:02Z</time>
      </trkpt>
      <trkpt lat="39.9610660" lon="-0.0689650">
        <ele>43.1</ele>
        <time>2019-09-04T06:44:03Z</time>
      </trkpt>
      <trkpt lat="39.9610660" lon="-0.0689650">
        <ele>43.1</ele>
        <time>2019-09-04T06:44:11Z</time>
      </trkpt>
      <trkpt lat="39.9610660" lon="-0.0689650">
        <ele>43.1</ele>
        <time>2019-09-04T06:44:14Z</time>
      </trkpt>
      <trkpt lat="39.9610660" lon="-0.0689650">
        <ele>43.1</ele>
        <time>2019-09-04T06:44:15Z</time>
      </trkpt>
      <trkpt lat="39.9610660" lon="-0.0689650">
        <ele>43.1</ele>
        <time>2019-09-04T06:44:18Z</time>
      </trkpt>
      <trkpt lat="39.9610660" lon="-0.0689650">
        <ele>43.1</ele>
        <time>2019-09-04T06:44:20Z</time>
      </trkpt>
      <trkpt lat="39.9610660" lon="-0.0689650">
        <ele>43.1</ele>
        <time>2019-09-04T06:44:22Z</time>
      </trkpt>
      <trkpt lat="39.9610660" lon="-0.0689650">
        <ele>43.1</ele>
        <time>2019-09-04T06:44:25Z</time>
      </trkpt>
      <trkpt lat="39.9610660" lon="-0.0689650">
        <ele>43.1</ele>
        <time>2019-09-04T06:44:29Z</time>
      </trkpt>
      <trkpt lat="39.9610660" lon="-0.0689650">
        <ele>43.1</ele>
        <time>2019-09-04T06:44:30Z</time>
      </trkpt>
      <trkpt lat="39.9619210" lon="-0.0677750">
        <ele>42.2</ele>
        <time>2019-09-04T06:44:55Z</time>
      </trkpt>
      <trkpt lat="39.9619360" lon="-0.0677490">
        <ele>42.2</ele>
        <time>2019-09-04T06:44:56Z</time>
      </trkpt>
      <trkpt lat="39.9619490" lon="-0.0677300">
        <ele>42.1</ele>
        <time>2019-09-04T06:44:57Z</time>
      </trkpt>
      <trkpt lat="39.9625920" lon="-0.0668760">
        <ele>41.5</ele>
        <time>2019-09-04T06:45:14Z</time>
      </trkpt>
      <trkpt lat="39.9626130" lon="-0.0668430">
        <ele>41.5</ele>
        <time>2019-09-04T06:45:15Z</time>
      </trkpt>
      <trkpt lat="39.9628210" lon="-0.0665510">
        <ele>41.4</ele>
        <time>2019-09-04T06:45:19Z</time>
      </trkpt>
      <trkpt lat="39.9628790" lon="-0.0664710">
        <ele>41.3</ele>
        <time>2019-09-04T06:45:20Z</time>
      </trkpt>
      <trkpt lat="39.9630630" lon="-0.0662220">
        <ele>41.2</ele>
        <time>2019-09-04T06:45:23Z</time>
      </trkpt>
      <trkpt lat="39.9631860" lon="-0.0660460">
        <ele>41.1</ele>
        <time>2019-09-04T06:45:25Z</time>
      </trkpt>
      <trkpt lat="39.9633080" lon="-0.0658720">
        <ele>41.0</ele>
        <time>2019-09-04T06:45:27Z</time>
      </trkpt>
      <trkpt lat="39.9634320" lon="-0.0656920">
        <ele>40.9</ele>
        <time>2019-09-04T06:45:29Z</time>
      </trkpt>
      <trkpt lat="39.9636350" lon="-0.0654130">
        <ele>40.5</ele>
        <time>2019-09-04T06:45:32Z</time>
      </trkpt>
      <trkpt lat="39.9640240" lon="-0.0648730">
        <ele>40.2</ele>
        <time>2019-09-04T06:45:38Z</time>
      </trkpt>
      <trkpt lat="39.9644120" lon="-0.0643220">
        <ele>40.3</ele>
        <time>2019-09-04T06:45:44Z</time>
      </trkpt>
      <trkpt lat="39.9646220" lon="-0.0640500">
        <ele>40.4</ele>
        <time>2019-09-04T06:45:47Z</time>
      </trkpt>
      <trkpt lat="39.9650280" lon="-0.0634710">
        <ele>40.4</ele>
        <time>2019-09-04T06:45:53Z</time>
      </trkpt>
      <trkpt lat="39.9651010" lon="-0.0633720">
        <ele>40.4</ele>
        <time>2019-09-04T06:45:54Z</time>
      </trkpt>
      <trkpt lat="39.9655260" lon="-0.0627520">
        <ele>39.9</ele>
        <time>2019-09-04T06:46:00Z</time>
      </trkpt>
      <trkpt lat="39.9656650" lon="-0.0625490">
        <ele>39.2</ele>
        <time>2019-09-04T06:46:02Z</time>
      </trkpt>
      <trkpt lat="39.9660800" lon="-0.0619700">
        <ele>38.1</ele>
        <time>2019-09-04T06:46:08Z</time>
      </trkpt>
      <trkpt lat="39.9662200" lon="-0.0617810">
        <ele>37.9</ele>
        <time>2019-09-04T06:46:10Z</time>
      </trkpt>
      <trkpt lat="39.9666270" lon="-0.0612200">
        <ele>37.5</ele>
        <time>2019-09-04T06:46:16Z</time>
      </trkpt>
      <trkpt lat="39.9667490" lon="-0.0610460">
        <ele>37.3</ele>
        <time>2019-09-04T06:46:18Z</time>
      </trkpt>
      <trkpt lat="39.9668580" lon="-0.0608860">
        <ele>37.3</ele>
        <time>2019-09-04T06:46:20Z</time>
      </trkpt>
      <trkpt lat="39.9669390" lon="-0.0607530">
        <ele>37.2</ele>
        <time>2019-09-04T06:46:22Z</time>
      </trkpt>
      <trkpt lat="39.9670900" lon="-0.0605460">
        <ele>37.2</ele>
        <time>2019-09-04T06:46:26Z</time>
      </trkpt>
      <trkpt lat="39.9671570" lon="-0.0604330">
        <ele>37.3</ele>
        <time>2019-09-04T06:46:30Z</time>
      </trkpt>
      <trkpt lat="39.9671920" lon="-0.0603780">
        <ele>37.4</ele>
        <time>2019-09-04T06:46:32Z</time>
      </trkpt>
      <trkpt lat="39.9672340" lon="-0.0603160">
        <ele>37.5</ele>
        <time>2019-09-04T06:46:34Z</time>
      </trkpt>
      <trkpt lat="39.9672900" lon="-0.0602340">
        <ele>37.7</ele>
        <time>2019-09-04T06:46:36Z</time>
      </trkpt>
      <trkpt lat="39.9673070" lon="-0.0601170">
        <ele>37.8</ele>
        <time>2019-09-04T06:46:38Z</time>
      </trkpt>
      <trkpt lat="39.9673070" lon="-0.0600510">
        <ele>37.8</ele>
        <time>2019-09-04T06:46:39Z</time>
      </trkpt>
      <trkpt lat="39.9673130" lon="-0.0598540">
        <ele>37.8</ele>
        <time>2019-09-04T06:46:42Z</time>
      </trkpt>
      <trkpt lat="39.9673910" lon="-0.0597240">
        <ele>37.5</ele>
        <time>2019-09-04T06:46:44Z</time>
      </trkpt>
      <trkpt lat="39.9675150" lon="-0.0596340">
        <ele>37.2</ele>
        <time>2019-09-04T06:46:46Z</time>
      </trkpt>
      <trkpt lat="39.9675790" lon="-0.0596140">
        <ele>37.1</ele>
        <time>2019-09-04T06:46:47Z</time>
      </trkpt>
      <trkpt lat="39.9677130" lon="-0.0595820">
        <ele>36.7</ele>
        <time>2019-09-04T06:46:49Z</time>
      </trkpt>
      <trkpt lat="39.9678480" lon="-0.0595040">
        <ele>36.4</ele>
        <time>2019-09-04T06:46:51Z</time>
      </trkpt>
      <trkpt lat="39.9679640" lon="-0.0593730">
        <ele>36.2</ele>
        <time>2019-09-04T06:46:53Z</time>
      </trkpt>
      <trkpt lat="39.9680680" lon="-0.0592260">
        <ele>36.3</ele>
        <time>2019-09-04T06:46:55Z</time>
      </trkpt>
      <trkpt lat="39.9682910" lon="-0.0589140">
        <ele>36.3</ele>
        <time>2019-09-04T06:46:59Z</time>
      </trkpt>
      <trkpt lat="39.9684030" lon="-0.0587520">
        <ele>36.2</ele>
        <time>2019-09-04T06:47:01Z</time>
      </trkpt>
      <trkpt lat="39.9688280" lon="-0.0581960">
        <ele>35.8</ele>
        <time>2019-09-04T06:47:08Z</time>
      </trkpt>
      <trkpt lat="39.9688970" lon="-0.0581230">
        <ele>35.8</ele>
        <time>2019-09-04T06:47:09Z</time>
      </trkpt>
      <trkpt lat="39.9691490" lon="-0.0577890">
        <ele>35.6</ele>
        <time>2019-09-04T06:47:13Z</time>
      </trkpt>
      <trkpt lat="39.9693320" lon="-0.0575020">
        <ele>35.5</ele>
        <time>2019-09-04T06:47:16Z</time>
      </trkpt>
      <trkpt lat="39.9697330" lon="-0.0569530">
        <ele>35.3</ele>
        <time>2019-09-04T06:47:22Z</time>
      </trkpt>
      <trkpt lat="39.9698690" lon="-0.0567800">
        <ele>35.2</ele>
        <time>2019-09-04T06:47:24Z</time>
      </trkpt>
      <trkpt lat="39.9702530" lon="-0.0562330">
        <ele>35.0</ele>
        <time>2019-09-04T06:47:30Z</time>
      </trkpt>
      <trkpt lat="39.9703150" lon="-0.0561440">
        <ele>35.0</ele>
        <time>2019-09-04T06:47:31Z</time>
      </trkpt>
      <trkpt lat="39.9706690" lon="-0.0556260">
        <ele>34.6</ele>
        <time>2019-09-04T06:47:37Z</time>
      </trkpt>
      <trkpt lat="39.9710410" lon="-0.0551080">
        <ele>33.9</ele>
        <time>2019-09-04T06:47:44Z</time>
      </trkpt>
      <trkpt lat="39.9711460" lon="-0.0549240">
        <ele>34.3</ele>
        <time>2019-09-04T06:47:47Z</time>
      </trkpt>
      <trkpt lat="39.9711620" lon="-0.0548750">
        <ele>34.3</ele>
        <time>2019-09-04T06:47:48Z</time>
      </trkpt>
      <trkpt lat="39.9711750" lon="-0.0548260">
        <ele>34.4</ele>
        <time>2019-09-04T06:47:50Z</time>
      </trkpt>
      <trkpt lat="39.9711810" lon="-0.0548050">
        <ele>34.4</ele>
        <time>2019-09-04T06:47:51Z</time>
      </trkpt>
      <trkpt lat="39.9711900" lon="-0.0546430">
        <ele>34.3</ele>
        <time>2019-09-04T06:47:55Z</time>
      </trkpt>
      <trkpt lat="39.9711560" lon="-0.0545090">
        <ele>34.3</ele>
        <time>2019-09-04T06:47:56Z</time>
      </trkpt>
      <trkpt lat="39.9711350" lon="-0.0544430">
        <ele>34.2</ele>
        <time>2019-09-04T06:47:58Z</time>
      </trkpt>
      <trkpt lat="39.9710670" lon="-0.0543070">
        <ele>34.2</ele>
        <time>2019-09-04T06:47:59Z</time>
      </trkpt>
      <trkpt lat="39.9708110" lon="-0.0538760">
        <ele>34.2</ele>
        <time>2019-09-04T06:48:05Z</time>
      </trkpt>
      <trkpt lat="39.9706970" lon="-0.0536200">
        <ele>34.2</ele>
        <time>2019-09-04T06:48:08Z</time>
      </trkpt>
      <trkpt lat="39.9706030" lon="-0.0533420">
        <ele>34.2</ele>
        <time>2019-09-04T06:48:11Z</time>
      </trkpt>
      <trkpt lat="39.9704410" lon="-0.0528720">
        <ele>33.3</ele>
        <time>2019-09-04T06:48:16Z</time>
      </trkpt>
      <trkpt lat="39.9703470" lon="-0.0525950">
        <ele>32.8</ele>
        <time>2019-09-04T06:48:20Z</time>
      </trkpt>
      <trkpt lat="39.9702340" lon="-0.0520210">
        <ele>32.7</ele>
        <time>2019-09-04T06:48:25Z</time>
      </trkpt>
      <trkpt lat="39.9702060" lon="-0.0518470">
        <ele>32.7</ele>
        <time>2019-09-04T06:48:27Z</time>
      </trkpt>
      <trkpt lat="39.9701710" lon="-0.0517280">
        <ele>32.7</ele>
        <time>2019-09-04T06:48:29Z</time>
      </trkpt>
      <trkpt lat="39.9701560" lon="-0.0517010">
        <ele>32.7</ele>
        <time>2019-09-04T06:48:30Z</time>
      </trkpt>
      <trkpt lat="39.9700830" lon="-0.0516340">
        <ele>32.8</ele>
        <time>2019-09-04T06:48:34Z</time>
      </trkpt>
      <trkpt lat="39.9700500" lon="-0.0516070">
        <ele>32.8</ele>
        <time>2019-09-04T06:48:35Z</time>
      </trkpt>
      <trkpt lat="39.9699140" lon="-0.0515070">
        <ele>33.0</ele>
        <time>2019-09-04T06:48:38Z</time>
      </trkpt>
      <trkpt lat="39.9698490" lon="-0.0513740">
        <ele>33.1</ele>
        <time>2019-09-04T06:48:40Z</time>
      </trkpt>
      <trkpt lat="39.9698500" lon="-0.0510990">
        <ele>32.8</ele>
        <time>2019-09-04T06:48:43Z</time>
      </trkpt>
      <trkpt lat="39.9698740" lon="-0.0506950">
        <ele>32.1</ele>
        <time>2019-09-04T06:48:47Z</time>
      </trkpt>
      <trkpt lat="39.9698580" lon="-0.0505980">
        <ele>31.9</ele>
        <time>2019-09-04T06:48:48Z</time>
      </trkpt>
      <trkpt lat="39.9698360" lon="-0.0505000">
        <ele>31.7</ele>
        <time>2019-09-04T06:48:49Z</time>
      </trkpt>
      <trkpt lat="39.9697420" lon="-0.0502200">
        <ele>31.2</ele>
        <time>2019-09-04T06:48:52Z</time>
      </trkpt>
      <trkpt lat="39.9695510" lon="-0.0496400">
        <ele>29.4</ele>
        <time>2019-09-04T06:48:58Z</time>
      </trkpt>
      <trkpt lat="39.9694030" lon="-0.0490450">
        <ele>28.5</ele>
        <time>2019-09-04T06:49:04Z</time>
      </trkpt>
      <trkpt lat="39.9692040" lon="-0.0482900">
        <ele>27.4</ele>
        <time>2019-09-04T06:49:12Z</time>
      </trkpt>
      <trkpt lat="39.9690220" lon="-0.0476190">
        <ele>26.4</ele>
        <time>2019-09-04T06:49:19Z</time>
      </trkpt>
      <trkpt lat="39.9689970" lon="-0.0475180">
        <ele>26.3</ele>
        <time>2019-09-04T06:49:20Z</time>
      </trkpt>
      <trkpt lat="39.9688580" lon="-0.0468850">
        <ele>25.3</ele>
        <time>2019-09-04T06:49:26Z</time>
      </trkpt>
      <trkpt lat="39.9688400" lon="-0.0467760">
        <ele>25.3</ele>
        <time>2019-09-04T06:49:27Z</time>
      </trkpt>
      <trkpt lat="39.9687510" lon="-0.0460950">
        <ele>25.2</ele>
        <time>2019-09-04T06:49:33Z</time>
      </trkpt>
      <trkpt lat="39.9687360" lon="-0.0458590">
        <ele>25.3</ele>
        <time>2019-09-04T06:49:35Z</time>
      </trkpt>
      <trkpt lat="39.9687190" lon="-0.0451450">
        <ele>25.3</ele>
        <time>2019-09-04T06:49:41Z</time>
      </trkpt>
      <trkpt lat="39.9687190" lon="-0.0450240">
        <ele>25.3</ele>
        <time>2019-09-04T06:49:42Z</time>
      </trkpt>
      <trkpt lat="39.9687760" lon="-0.0442840">
        <ele>24.6</ele>
        <time>2019-09-04T06:49:48Z</time>
      </trkpt>
      <trkpt lat="39.9688690" lon="-0.0436850">
        <ele>24.3</ele>
        <time>2019-09-04T06:49:53Z</time>
      </trkpt>
      <trkpt lat="39.9688930" lon="-0.0435650">
        <ele>24.4</ele>
        <time>2019-09-04T06:49:54Z</time>
      </trkpt>
      <trkpt lat="39.9690730" lon="-0.0428420">
        <ele>24.7</ele>
        <time>2019-09-04T06:50:00Z</time>
      </trkpt>
      <trkpt lat="39.9691460" lon="-0.0426080">
        <ele>24.3</ele>
        <time>2019-09-04T06:50:02Z</time>
      </trkpt>
      <trkpt lat="39.9694020" lon="-0.0419260">
        <ele>24.3</ele>
        <time>2019-09-04T06:50:08Z</time>
      </trkpt>
      <trkpt lat="39.9694480" lon="-0.0418160">
        <ele>24.4</ele>
        <time>2019-09-04T06:50:09Z</time>
      </trkpt>
      <trkpt lat="39.9697260" lon="-0.0411720">
        <ele>23.9</ele>
        <time>2019-09-04T06:50:15Z</time>
      </trkpt>
      <trkpt lat="39.9698300" lon="-0.0409800">
        <ele>23.7</ele>
        <time>2019-09-04T06:50:17Z</time>
      </trkpt>
      <trkpt lat="39.9698840" lon="-0.0407660">
        <ele>23.6</ele>
        <time>2019-09-04T06:50:19Z</time>
      </trkpt>
      <trkpt lat="39.9698910" lon="-0.0404180">
        <ele>23.3</ele>
        <time>2019-09-04T06:50:22Z</time>
      </trkpt>
      <trkpt lat="39.9699810" lon="-0.0402260">
        <ele>23.1</ele>
        <time>2019-09-04T06:50:24Z</time>
      </trkpt>
      <trkpt lat="39.9701270" lon="-0.0400990">
        <ele>23.1</ele>
        <time>2019-09-04T06:50:26Z</time>
      </trkpt>
      <trkpt lat="39.9701940" lon="-0.0400230">
        <ele>23.0</ele>
        <time>2019-09-04T06:50:27Z</time>
      </trkpt>
      <trkpt lat="39.9702480" lon="-0.0399360">
        <ele>23.1</ele>
        <time>2019-09-04T06:50:28Z</time>
      </trkpt>
      <trkpt lat="39.9703380" lon="-0.0397360">
        <ele>23.1</ele>
        <time>2019-09-04T06:50:30Z</time>
      </trkpt>
      <trkpt lat="39.9705600" lon="-0.0390800">
        <ele>22.3</ele>
        <time>2019-09-04T06:50:36Z</time>
      </trkpt>
      <trkpt lat="39.9708120" lon="-0.0384550">
        <ele>21.9</ele>
        <time>2019-09-04T06:50:42Z</time>
      </trkpt>
      <trkpt lat="39.9709430" lon="-0.0381410">
        <ele>21.6</ele>
        <time>2019-09-04T06:50:45Z</time>
      </trkpt>
      <trkpt lat="39.9712440" lon="-0.0374320">
        <ele>20.2</ele>
        <time>2019-09-04T06:50:52Z</time>
      </trkpt>
      <trkpt lat="39.9714500" lon="-0.0369190">
        <ele>19.5</ele>
        <time>2019-09-04T06:50:57Z</time>
      </trkpt>
      <trkpt lat="39.9715750" lon="-0.0366160">
        <ele>19.3</ele>
        <time>2019-09-04T06:51:00Z</time>
      </trkpt>
      <trkpt lat="39.9718750" lon="-0.0359070">
        <ele>19.3</ele>
        <time>2019-09-04T06:51:07Z</time>
      </trkpt>
      <trkpt lat="39.9719170" lon="-0.0358030">
        <ele>19.3</ele>
        <time>2019-09-04T06:51:08Z</time>
      </trkpt>
      <trkpt lat="39.9722170" lon="-0.0350860">
        <ele>18.6</ele>
        <time>2019-09-04T06:51:15Z</time>
      </trkpt>
      <trkpt lat="39.9723460" lon="-0.0347750">
        <ele>18.4</ele>
        <time>2019-09-04T06:51:18Z</time>
      </trkpt>
      <trkpt lat="39.9725990" lon="-0.0341560">
        <ele>18.6</ele>
        <time>2019-09-04T06:51:24Z</time>
      </trkpt>
      <trkpt lat="39.9726400" lon="-0.0340520">
        <ele>18.6</ele>
        <time>2019-09-04T06:51:25Z</time>
      </trkpt>
      <trkpt lat="39.9729100" lon="-0.0334250">
        <ele>18.8</ele>
        <time>2019-09-04T06:51:31Z</time>
      </trkpt>
      <trkpt lat="39.9729960" lon="-0.0332250">
        <ele>18.8</ele>
        <time>2019-09-04T06:51:33Z</time>
      </trkpt>
      <trkpt lat="39.9732790" lon="-0.0325490">
        <ele>18.2</ele>
        <time>2019-09-04T06:51:40Z</time>
      </trkpt>
      <trkpt lat="39.9733160" lon="-0.0324610">
        <ele>18.1</ele>
        <time>2019-09-04T06:51:41Z</time>
      </trkpt>
      <trkpt lat="39.9734100" lon="-0.0322090">
        <ele>17.8</ele>
        <time>2019-09-04T06:51:44Z</time>
      </trkpt>
      <trkpt lat="39.9735280" lon="-0.0319050">
        <ele>18.1</ele>
        <time>2019-09-04T06:51:48Z</time>
      </trkpt>
      <trkpt lat="39.9737610" lon="-0.0313960">
        <ele>18.2</ele>
        <time>2019-09-04T06:51:54Z</time>
      </trkpt>
      <trkpt lat="39.9739550" lon="-0.0310050">
        <ele>17.8</ele>
        <time>2019-09-04T06:51:59Z</time>
      </trkpt>
      <trkpt lat="39.9741400" lon="-0.0305170">
        <ele>18.1</ele>
        <time>2019-09-04T06:52:05Z</time>
      </trkpt>
      <trkpt lat="39.9741560" lon="-0.0304360">
        <ele>18.2</ele>
        <time>2019-09-04T06:52:06Z</time>
      </trkpt>
      <trkpt lat="39.9741560" lon="-0.0303110">
        <ele>18.5</ele>
        <time>2019-09-04T06:52:08Z</time>
      </trkpt>
      <trkpt lat="39.9741150" lon="-0.0301470">
        <ele>18.7</ele>
        <time>2019-09-04T06:52:12Z</time>
      </trkpt>
      <trkpt lat="39.9740750" lon="-0.0300080">
        <ele>18.9</ele>
        <time>2019-09-04T06:52:14Z</time>
      </trkpt>
      <trkpt lat="39.9740600" lon="-0.0298470">
        <ele>19.0</ele>
        <time>2019-09-04T06:52:16Z</time>
      </trkpt>
      <trkpt lat="39.9740890" lon="-0.0296830">
        <ele>19.1</ele>
        <time>2019-09-04T06:52:18Z</time>
      </trkpt>
      <trkpt lat="39.9741210" lon="-0.0296030">
        <ele>19.1</ele>
        <time>2019-09-04T06:52:19Z</time>
      </trkpt>
      <trkpt lat="39.9741600" lon="-0.0295320">
        <ele>19.2</ele>
        <time>2019-09-04T06:52:20Z</time>
      </trkpt>
      <trkpt lat="39.9742760" lon="-0.0294170">
        <ele>19.3</ele>
        <time>2019-09-04T06:52:22Z</time>
      </trkpt>
      <trkpt lat="39.9744230" lon="-0.0293570">
        <ele>19.4</ele>
        <time>2019-09-04T06:52:24Z</time>
      </trkpt>
      <trkpt lat="39.9745010" lon="-0.0293510">
        <ele>19.4</ele>
        <time>2019-09-04T06:52:25Z</time>
      </trkpt>
      <trkpt lat="39.9747450" lon="-0.0293800">
        <ele>19.8</ele>
        <time>2019-09-04T06:52:28Z</time>
      </trkpt>
      <trkpt lat="39.9748260" lon="-0.0293710">
        <ele>19.8</ele>
        <time>2019-09-04T06:52:29Z</time>
      </trkpt>
      <trkpt lat="39.9749050" lon="-0.0293480">
        <ele>19.7</ele>
        <time>2019-09-04T06:52:30Z</time>
      </trkpt>
      <trkpt lat="39.9751370" lon="-0.0292340">
        <ele>19.5</ele>
        <time>2019-09-04T06:52:33Z</time>
      </trkpt>
      <trkpt lat="39.9755970" lon="-0.0289740">
        <ele>18.7</ele>
        <time>2019-09-04T06:52:39Z</time>
      </trkpt>
      <trkpt lat="39.9757490" lon="-0.0288880">
        <ele>18.4</ele>
        <time>2019-09-04T06:52:41Z</time>
      </trkpt>
      <trkpt lat="39.9760620" lon="-0.0287020">
        <ele>18.4</ele>
        <time>2019-09-04T06:52:45Z</time>
      </trkpt>
      <trkpt lat="39.9762890" lon="-0.0285710">
        <ele>18.4</ele>
        <time>2019-09-04T06:52:48Z</time>
      </trkpt>
      <trkpt lat="39.9768300" lon="-0.0282630">
        <ele>18.4</ele>
        <time>2019-09-04T06:52:55Z</time>
      </trkpt>
      <trkpt lat="39.9773830" lon="-0.0279440">
        <ele>18.8</ele>
        <time>2019-09-04T06:53:02Z</time>
      </trkpt>
      <trkpt lat="39.9775420" lon="-0.0278550">
        <ele>18.7</ele>
        <time>2019-09-04T06:53:04Z</time>
      </trkpt>
      <trkpt lat="39.9780170" lon="-0.0275850">
        <ele>20.1</ele>
        <time>2019-09-04T06:53:10Z</time>
      </trkpt>
      <trkpt lat="39.9782590" lon="-0.0274470">
        <ele>20.1</ele>
        <time>2019-09-04T06:53:13Z</time>
      </trkpt>
      <trkpt lat="39.9787600" lon="-0.0271670">
        <ele>18.4</ele>
        <time>2019-09-04T06:53:19Z</time>
      </trkpt>
      <trkpt lat="39.9788430" lon="-0.0271180">
        <ele>18.6</ele>
        <time>2019-09-04T06:53:20Z</time>
      </trkpt>
      <trkpt lat="39.9793490" lon="-0.0268390">
        <ele>16.5</ele>
        <time>2019-09-04T06:53:26Z</time>
      </trkpt>
      <trkpt lat="39.9794340" lon="-0.0267910">
        <ele>16.1</ele>
        <time>2019-09-04T06:53:27Z</time>
      </trkpt>
      <trkpt lat="39.9799400" lon="-0.0265120">
        <ele>17.0</ele>
        <time>2019-09-04T06:53:33Z</time>
      </trkpt>
      <trkpt lat="39.9800220" lon="-0.0264650">
        <ele>16.9</ele>
        <time>2019-09-04T06:53:34Z</time>
      </trkpt>
      <trkpt lat="39.9803450" lon="-0.0262830">
        <ele>15.3</ele>
        <time>2019-09-04T06:53:38Z</time>
      </trkpt>
      <trkpt lat="39.9807290" lon="-0.0260640">
        <ele>14.5</ele>
        <time>2019-09-04T06:53:43Z</time>
      </trkpt>
      <trkpt lat="39.9809490" lon="-0.0259360">
        <ele>14.9</ele>
        <time>2019-09-04T06:53:46Z</time>
      </trkpt>
      <trkpt lat="39.9811610" lon="-0.0258210">
        <ele>15.4</ele>
        <time>2019-09-04T06:53:49Z</time>
      </trkpt>
      <trkpt lat="39.9812300" lon="-0.0257770">
        <ele>15.7</ele>
        <time>2019-09-04T06:53:50Z</time>
      </trkpt>
      <trkpt lat="39.9813500" lon="-0.0256510">
        <ele>16.1</ele>
        <time>2019-09-04T06:53:52Z</time>
      </trkpt>
      <trkpt lat="39.9813980" lon="-0.0255730">
        <ele>16.3</ele>
        <time>2019-09-04T06:53:53Z</time>
      </trkpt>
      <trkpt lat="39.9814930" lon="-0.0254180">
        <ele>16.6</ele>
        <time>2019-09-04T06:53:55Z</time>
      </trkpt>
      <trkpt lat="39.9816200" lon="-0.0253400">
        <ele>17.0</ele>
        <time>2019-09-04T06:53:57Z</time>
      </trkpt>
      <trkpt lat="39.9817610" lon="-0.0253670">
        <ele>17.0</ele>
        <time>2019-09-04T06:53:59Z</time>
      </trkpt>
      <trkpt lat="39.9818330" lon="-0.0254040">
        <ele>17.0</ele>
        <time>2019-09-04T06:54:00Z</time>
      </trkpt>
      <trkpt lat="39.9819070" lon="-0.0254390">
        <ele>17.1</ele>
        <time>2019-09-04T06:54:01Z</time>
      </trkpt>
      <trkpt lat="39.9820580" lon="-0.0254730">
        <ele>17.2</ele>
        <time>2019-09-04T06:54:03Z</time>
      </trkpt>
      <trkpt lat="39.9822070" lon="-0.0254330">
        <ele>17.3</ele>
        <time>2019-09-04T06:54:05Z</time>
      </trkpt>
      <trkpt lat="39.9822820" lon="-0.0253970">
        <ele>17.3</ele>
        <time>2019-09-04T06:54:06Z</time>
      </trkpt>
      <trkpt lat="39.9827340" lon="-0.0251890">
        <ele>16.5</ele>
        <time>2019-09-04T06:54:12Z</time>
      </trkpt>
      <trkpt lat="39.9830190" lon="-0.0250690">
        <ele>16.2</ele>
        <time>2019-09-04T06:54:17Z</time>
      </trkpt>
      <trkpt lat="39.9830830" lon="-0.0250290">
        <ele>16.2</ele>
        <time>2019-09-04T06:54:19Z</time>
      </trkpt>
      <trkpt lat="39.9831180" lon="-0.0250070">
        <ele>16.1</ele>
        <time>2019-09-04T06:54:20Z</time>
      </trkpt>
      <trkpt lat="39.9831810" lon="-0.0249790">
        <ele>16.1</ele>
        <time>2019-09-04T06:54:22Z</time>
      </trkpt>
      <trkpt lat="39.9832670" lon="-0.0249390">
        <ele>16.6</ele>
        <time>2019-09-04T06:54:25Z</time>
      </trkpt>
      <trkpt lat="39.9833220" lon="-0.0249150">
        <ele>16.9</ele>
        <time>2019-09-04T06:54:27Z</time>
      </trkpt>
      <trkpt lat="39.9834500" lon="-0.0248400">
        <ele>17.5</ele>
        <time>2019-09-04T06:54:32Z</time>
      </trkpt>
      <trkpt lat="39.9835580" lon="-0.0246730">
        <ele>17.2</ele>
        <time>2019-09-04T06:54:36Z</time>
      </trkpt>
      <trkpt lat="39.9835920" lon="-0.0245440">
        <ele>16.8</ele>
        <time>2019-09-04T06:54:38Z</time>
      </trkpt>
      <trkpt lat="39.9836030" lon="-0.0244000">
        <ele>16.5</ele>
        <time>2019-09-04T06:54:40Z</time>
      </trkpt>
      <trkpt lat="39.9835810" lon="-0.0242590">
        <ele>16.6</ele>
        <time>2019-09-04T06:54:42Z</time>
      </trkpt>
      <trkpt lat="39.9835290" lon="-0.0240550">
        <ele>16.8</ele>
        <time>2019-09-04T06:54:45Z</time>
      </trkpt>
      <trkpt lat="39.9834150" lon="-0.0235150">
        <ele>17.3</ele>
        <time>2019-09-04T06:54:52Z</time>
      </trkpt>
      <trkpt lat="39.9833200" lon="-0.0230910">
        <ele>17.2</ele>
        <time>2019-09-04T06:54:57Z</time>
      </trkpt>
      <trkpt lat="39.9833050" lon="-0.0229980">
        <ele>17.0</ele>
        <time>2019-09-04T06:54:58Z</time>
      </trkpt>
      <trkpt lat="39.9831490" lon="-0.0222340">
        <ele>15.1</ele>
        <time>2019-09-04T06:55:06Z</time>
      </trkpt>
      <trkpt lat="39.9830030" lon="-0.0214810">
        <ele>14.7</ele>
        <time>2019-09-04T06:55:13Z</time>
      </trkpt>
      <trkpt lat="39.9829840" lon="-0.0213720">
        <ele>14.6</ele>
        <time>2019-09-04T06:55:14Z</time>
      </trkpt>
      <trkpt lat="39.9828200" lon="-0.0206120">
        <ele>13.6</ele>
        <time>2019-09-04T06:55:21Z</time>
      </trkpt>
      <trkpt lat="39.9827800" lon="-0.0203960">
        <ele>13.4</ele>
        <time>2019-09-04T06:55:23Z</time>
      </trkpt>
      <trkpt lat="39.9826720" lon="-0.0198460">
        <ele>13.3</ele>
        <time>2019-09-04T06:55:28Z</time>
      </trkpt>
      <trkpt lat="39.9825800" lon="-0.0194130">
        <ele>12.9</ele>
        <time>2019-09-04T06:55:32Z</time>
      </trkpt>
      <trkpt lat="39.9824510" lon="-0.0187440">
        <ele>11.9</ele>
        <time>2019-09-04T06:55:38Z</time>
      </trkpt>
      <trkpt lat="39.9823850" lon="-0.0184120">
        <ele>11.8</ele>
        <time>2019-09-04T06:55:41Z</time>
      </trkpt>
      <trkpt lat="39.9822850" lon="-0.0178990">
        <ele>11.3</ele>
        <time>2019-09-04T06:55:46Z</time>
      </trkpt>
      <trkpt lat="39.9822530" lon="-0.0177960">
        <ele>11.2</ele>
        <time>2019-09-04T06:55:47Z</time>
      </trkpt>
      <trkpt lat="39.9821250" lon="-0.0174950">
        <ele>11.0</ele>
        <time>2019-09-04T06:55:50Z</time>
      </trkpt>
      <trkpt lat="39.9821020" lon="-0.0172680">
        <ele>10.7</ele>
        <time>2019-09-04T06:55:52Z</time>
      </trkpt>
      <trkpt lat="39.9821120" lon="-0.0171530">
        <ele>10.6</ele>
        <time>2019-09-04T06:55:53Z</time>
      </trkpt>
      <trkpt lat="39.9821180" lon="-0.0170380">
        <ele>10.2</ele>
        <time>2019-09-04T06:55:54Z</time>
      </trkpt>
      <trkpt lat="39.9820880" lon="-0.0168140">
        <ele>9.9</ele>
        <time>2019-09-04T06:55:56Z</time>
      </trkpt>
      <trkpt lat="39.9819260" lon="-0.0160440">
        <ele>9.7</ele>
        <time>2019-09-04T06:56:03Z</time>
      </trkpt>
      <trkpt lat="39.9818830" lon="-0.0158340">
        <ele>9.6</ele>
        <time>2019-09-04T06:56:05Z</time>
      </trkpt>
      <trkpt lat="39.9817300" lon="-0.0150880">
        <ele>9.4</ele>
        <time>2019-09-04T06:56:12Z</time>
      </trkpt>
      <trkpt lat="39.9816900" lon="-0.0148710">
        <ele>9.3</ele>
        <time>2019-09-04T06:56:14Z</time>
      </trkpt>
      <trkpt lat="39.9815320" lon="-0.0141070">
        <ele>9.1</ele>
        <time>2019-09-04T06:56:21Z</time>
      </trkpt>
      <trkpt lat="39.9815100" lon="-0.0139960">
        <ele>9.0</ele>
        <time>2019-09-04T06:56:22Z</time>
      </trkpt>
      <trkpt lat="39.9813460" lon="-0.0132150">
        <ele>8.8</ele>
        <time>2019-09-04T06:56:29Z</time>
      </trkpt>
      <trkpt lat="39.9812190" lon="-0.0125270">
        <ele>7.6</ele>
        <time>2019-09-04T06:56:35Z</time>
      </trkpt>
      <trkpt lat="39.9811760" lon="-0.0122990">
        <ele>7.3</ele>
        <time>2019-09-04T06:56:37Z</time>
      </trkpt>
      <trkpt lat="39.9810300" lon="-0.0116090">
        <ele>6.6</ele>
        <time>2019-09-04T06:56:43Z</time>
      </trkpt>
      <trkpt lat="39.9809410" lon="-0.0111530">
        <ele>5.8</ele>
        <time>2019-09-04T06:56:47Z</time>
      </trkpt>
      <trkpt lat="39.9808320" lon="-0.0106510">
        <ele>5.1</ele>
        <time>2019-09-04T06:56:52Z</time>
      </trkpt>
      <trkpt lat="39.9808030" lon="-0.0105660">
        <ele>5.0</ele>
        <time>2019-09-04T06:56:53Z</time>
      </trkpt>
      <trkpt lat="39.9806990" lon="-0.0104270">
        <ele>4.9</ele>
        <time>2019-09-04T06:56:55Z</time>
      </trkpt>
      <trkpt lat="39.9805640" lon="-0.0103160">
        <ele>4.9</ele>
        <time>2019-09-04T06:56:57Z</time>
      </trkpt>
      <trkpt lat="39.9804760" lon="-0.0101560">
        <ele>4.6</ele>
        <time>2019-09-04T06:56:59Z</time>
      </trkpt>
      <trkpt lat="39.9804670" lon="-0.0099530">
        <ele>4.2</ele>
        <time>2019-09-04T06:57:01Z</time>
      </trkpt>
      <trkpt lat="39.9804850" lon="-0.0098500">
        <ele>4.1</ele>
        <time>2019-09-04T06:57:02Z</time>
      </trkpt>
      <trkpt lat="39.9805150" lon="-0.0097550">
        <ele>4.1</ele>
        <time>2019-09-04T06:57:03Z</time>
      </trkpt>
      <trkpt lat="39.9805890" lon="-0.0095690">
        <ele>4.1</ele>
        <time>2019-09-04T06:57:05Z</time>
      </trkpt>
      <trkpt lat="39.9806030" lon="-0.0094660">
        <ele>4.2</ele>
        <time>2019-09-04T06:57:06Z</time>
      </trkpt>
      <trkpt lat="39.9805910" lon="-0.0093600">
        <ele>4.2</ele>
        <time>2019-09-04T06:57:07Z</time>
      </trkpt>
      <trkpt lat="39.9805430" lon="-0.0091470">
        <ele>4.4</ele>
        <time>2019-09-04T06:57:09Z</time>
      </trkpt>
      <trkpt lat="39.9804220" lon="-0.0085840">
        <ele>4.6</ele>
        <time>2019-09-04T06:57:14Z</time>
      </trkpt>
      <trkpt lat="39.9803300" lon="-0.0081330">
        <ele>4.8</ele>
        <time>2019-09-04T06:57:18Z</time>
      </trkpt>
      <trkpt lat="39.9802220" lon="-0.0075790">
        <ele>4.8</ele>
        <time>2019-09-04T06:57:23Z</time>
      </trkpt>
      <trkpt lat="39.9801060" lon="-0.0070250">
        <ele>4.8</ele>
        <time>2019-09-04T06:57:28Z</time>
      </trkpt>
      <trkpt lat="39.9799690" lon="-0.0063450">
        <ele>4.6</ele>
        <time>2019-09-04T06:57:34Z</time>
      </trkpt>
      <trkpt lat="39.9799240" lon="-0.0061180">
        <ele>4.2</ele>
        <time>2019-09-04T06:57:36Z</time>
      </trkpt>
      <trkpt lat="39.9797710" lon="-0.0053430">
        <ele>3.7</ele>
        <time>2019-09-04T06:57:43Z</time>
      </trkpt>
      <trkpt lat="39.9797280" lon="-0.0051230">
        <ele>3.7</ele>
        <time>2019-09-04T06:57:45Z</time>
      </trkpt>
      <trkpt lat="39.9796470" lon="-0.0048110">
        <ele>3.5</ele>
        <time>2019-09-04T06:57:48Z</time>
      </trkpt>
      <trkpt lat="39.9795650" lon="-0.0046200">
        <ele>3.4</ele>
        <time>2019-09-04T06:57:50Z</time>
      </trkpt>
      <trkpt lat="39.9795350" lon="-0.0044190">
        <ele>3.3</ele>
        <time>2019-09-04T06:57:52Z</time>
      </trkpt>
      <trkpt lat="39.9795370" lon="-0.0043100">
        <ele>3.3</ele>
        <time>2019-09-04T06:57:53Z</time>
      </trkpt>
      <trkpt lat="39.9795360" lon="-0.0042020">
        <ele>3.2</ele>
        <time>2019-09-04T06:57:54Z</time>
      </trkpt>
      <trkpt lat="39.9794980" lon="-0.0039850">
        <ele>3.1</ele>
        <time>2019-09-04T06:57:56Z</time>
      </trkpt>
      <trkpt lat="39.9793370" lon="-0.0032520">
        <ele>1.2</ele>
        <time>2019-09-04T06:58:03Z</time>
      </trkpt>
      <trkpt lat="39.9793140" lon="-0.0031480">
        <ele>1.1</ele>
        <time>2019-09-04T06:58:04Z</time>
      </trkpt>
      <trkpt lat="39.9791630" lon="-0.0024200">
        <ele>0.7</ele>
        <time>2019-09-04T06:58:11Z</time>
      </trkpt>
      <trkpt lat="39.9791200" lon="-0.0022100">
        <ele>0.6</ele>
        <time>2019-09-04T06:58:13Z</time>
      </trkpt>
      <trkpt lat="39.9789660" lon="-0.0014610">
        <ele>0.7</ele>
        <time>2019-09-04T06:58:20Z</time>
      </trkpt>
      <trkpt lat="39.9789260" lon="-0.0012470">
        <ele>0.8</ele>
        <time>2019-09-04T06:58:22Z</time>
      </trkpt>
      <trkpt lat="39.9788500" lon="-0.0009330">
        <ele>0.9</ele>
        <time>2019-09-04T06:58:25Z</time>
      </trkpt>
      <trkpt lat="39.9787330" lon="-0.0003890">
        <ele>1.3</ele>
        <time>2019-09-04T06:58:30Z</time>
      </trkpt>
      <trkpt lat="39.9785890" lon="0.0003530">
        <ele>1.4</ele>
        <time>2019-09-04T06:58:37Z</time>
      </trkpt>
      <trkpt lat="39.9785360" lon="0.0006520">
        <ele>1.5</ele>
        <time>2019-09-04T06:58:40Z</time>
      </trkpt>
      <trkpt lat="39.9783920" lon="0.0013720">
        <ele>1.6</ele>
        <time>2019-09-04T06:58:47Z</time>
      </trkpt>
      <trkpt lat="39.9782520" lon="0.0020890">
        <ele>1.6</ele>
        <time>2019-09-04T06:58:54Z</time>
      </trkpt>
      <trkpt lat="39.9781030" lon="0.0028280">
        <ele>1.7</ele>
        <time>2019-09-04T06:59:01Z</time>
      </trkpt>
      <trkpt lat="39.9780590" lon="0.0030400">
        <ele>1.7</ele>
        <time>2019-09-04T06:59:03Z</time>
      </trkpt>
      <trkpt lat="39.9779090" lon="0.0037990">
        <ele>1.5</ele>
        <time>2019-09-04T06:59:10Z</time>
      </trkpt>
      <trkpt lat="39.9778150" lon="0.0042300">
        <ele>0.9</ele>
        <time>2019-09-04T06:59:14Z</time>
      </trkpt>
      <trkpt lat="39.9776740" lon="0.0049930">
        <ele>0.7</ele>
        <time>2019-09-04T06:59:21Z</time>
      </trkpt>
      <trkpt lat="39.9776310" lon="0.0052000">
        <ele>0.7</ele>
        <time>2019-09-04T06:59:23Z</time>
      </trkpt>
      <trkpt lat="39.9775050" lon="0.0059330">
        <ele>1.3</ele>
        <time>2019-09-04T06:59:30Z</time>
      </trkpt>
      <trkpt lat="39.9774840" lon="0.0060380">
        <ele>1.3</ele>
        <time>2019-09-04T06:59:31Z</time>
      </trkpt>
      <trkpt lat="39.9773430" lon="0.0067490">
        <ele>1.6</ele>
        <time>2019-09-04T06:59:38Z</time>
      </trkpt>
      <trkpt lat="39.9773220" lon="0.0068460">
        <ele>1.7</ele>
        <time>2019-09-04T06:59:39Z</time>
      </trkpt>
      <trkpt lat="39.9772150" lon="0.0074080">
        <ele>1.8</ele>
        <time>2019-09-04T06:59:45Z</time>
      </trkpt>
      <trkpt lat="39.9771290" lon="0.0077730">
        <ele>1.9</ele>
        <time>2019-09-04T06:59:49Z</time>
      </trkpt>
      <trkpt lat="39.9770940" lon="0.0079410">
        <ele>2.2</ele>
        <time>2019-09-04T06:59:51Z</time>
      </trkpt>
      <trkpt lat="39.9770350" lon="0.0082590">
        <ele>2.7</ele>
        <time>2019-09-04T06:59:55Z</time>
      </trkpt>
      <trkpt lat="39.9770190" lon="0.0083370">
        <ele>2.8</ele>
        <time>2019-09-04T06:59:56Z</time>
      </trkpt>
      <trkpt lat="39.9770000" lon="0.0084150">
        <ele>2.7</ele>
        <time>2019-09-04T06:59:57Z</time>
      </trkpt>
      <trkpt lat="39.9768850" lon="0.0089080">
        <ele>1.8</ele>
        <time>2019-09-04T07:00:03Z</time>
      </trkpt>
      <trkpt lat="39.9767880" lon="0.0094270">
        <ele>1.3</ele>
        <time>2019-09-04T07:00:09Z</time>
      </trkpt>
      <trkpt lat="39.9767720" lon="0.0095130">
        <ele>1.2</ele>
        <time>2019-09-04T07:00:10Z</time>
      </trkpt>
      <trkpt lat="39.9767470" lon="0.0096840">
        <ele>1.5</ele>
        <time>2019-09-04T07:00:12Z</time>
      </trkpt>
      <trkpt lat="39.9766490" lon="0.0100870">
        <ele>2.1</ele>
        <time>2019-09-04T07:00:17Z</time>
      </trkpt>
      <trkpt lat="39.9766260" lon="0.0102530">
        <ele>2.2</ele>
        <time>2019-09-04T07:00:19Z</time>
      </trkpt>
      <trkpt lat="39.9765930" lon="0.0104160">
        <ele>2.2</ele>
        <time>2019-09-04T07:00:21Z</time>
      </trkpt>
      <trkpt lat="39.9765220" lon="0.0107350">
        <ele>2.4</ele>
        <time>2019-09-04T07:00:25Z</time>
      </trkpt>
      <trkpt lat="39.9765040" lon="0.0108080">
        <ele>2.5</ele>
        <time>2019-09-04T07:00:26Z</time>
      </trkpt>
      <trkpt lat="39.9764770" lon="0.0109610">
        <ele>2.6</ele>
        <time>2019-09-04T07:00:28Z</time>
      </trkpt>
      <trkpt lat="39.9764300" lon="0.0111850">
        <ele>3.0</ele>
        <time>2019-09-04T07:00:31Z</time>
      </trkpt>
      <trkpt lat="39.9764030" lon="0.0113360">
        <ele>3.3</ele>
        <time>2019-09-04T07:00:33Z</time>
      </trkpt>
      <trkpt lat="39.9763820" lon="0.0115360">
        <ele>4.0</ele>
        <time>2019-09-04T07:00:36Z</time>
      </trkpt>
      <trkpt lat="39.9763400" lon="0.0116690">
        <ele>4.5</ele>
        <time>2019-09-04T07:00:38Z</time>
      </trkpt>
      <trkpt lat="39.9763020" lon="0.0118000">
        <ele>4.9</ele>
        <time>2019-09-04T07:00:40Z</time>
      </trkpt>
      <trkpt lat="39.9762680" lon="0.0120290">
        <ele>5.4</ele>
        <time>2019-09-04T07:00:43Z</time>
      </trkpt>
      <trkpt lat="39.9762340" lon="0.0121880">
        <ele>5.9</ele>
        <time>2019-09-04T07:00:45Z</time>
      </trkpt>
      <trkpt lat="39.9761400" lon="0.0125100">
        <ele>7.1</ele>
        <time>2019-09-04T07:00:49Z</time>
      </trkpt>
      <trkpt lat="39.9760000" lon="0.0128980">
        <ele>6.8</ele>
        <time>2019-09-04T07:00:54Z</time>
      </trkpt>
      <trkpt lat="39.9759690" lon="0.0129740">
        <ele>6.7</ele>
        <time>2019-09-04T07:00:55Z</time>
      </trkpt>
      <trkpt lat="39.9758310" lon="0.0133900">
        <ele>6.6</ele>
        <time>2019-09-04T07:01:00Z</time>
      </trkpt>
      <trkpt lat="39.9756590" lon="0.0138640">
        <ele>6.8</ele>
        <time>2019-09-04T07:01:06Z</time>
      </trkpt>
      <trkpt lat="39.9756460" lon="0.0139770">
        <ele>6.9</ele>
        <time>2019-09-04T07:01:09Z</time>
      </trkpt>
      <trkpt lat="39.9756460" lon="0.0139770">
        <ele>6.9</ele>
        <time>2019-09-04T07:01:10Z</time>
      </trkpt>
      <trkpt lat="39.9756460" lon="0.0139770">
        <ele>6.9</ele>
        <time>2019-09-04T07:01:40Z</time>
      </trkpt>
      <trkpt lat="39.9756040" lon="0.0140220">
        <ele>6.9</ele>
        <time>2019-09-04T07:01:43Z</time>
      </trkpt>
      <trkpt lat="39.9755140" lon="0.0141800">
        <ele>7.0</ele>
        <time>2019-09-04T07:01:48Z</time>
      </trkpt>
      <trkpt lat="39.9754510" lon="0.0143160">
        <ele>7.1</ele>
        <time>2019-09-04T07:01:51Z</time>
      </trkpt>
      <trkpt lat="39.9754160" lon="0.0144270">
        <ele>7.2</ele>
        <time>2019-09-04T07:01:53Z</time>
      </trkpt>
      <trkpt lat="39.9752390" lon="0.0149290">
        <ele>7.1</ele>
        <time>2019-09-04T07:02:01Z</time>
      </trkpt>
      <trkpt lat="39.9751720" lon="0.0150990">
        <ele>6.8</ele>
        <time>2019-09-04T07:02:04Z</time>
      </trkpt>
      <trkpt lat="39.9751340" lon="0.0152110">
        <ele>6.6</ele>
        <time>2019-09-04T07:02:06Z</time>
      </trkpt>
      <trkpt lat="39.9751150" lon="0.0152660">
        <ele>6.6</ele>
        <time>2019-09-04T07:02:07Z</time>
      </trkpt>
      <trkpt lat="39.9750100" lon="0.0154980">
        <ele>6.3</ele>
        <time>2019-09-04T07:02:11Z</time>
      </trkpt>
      <trkpt lat="39.9749070" lon="0.0155740">
        <ele>6.5</ele>
        <time>2019-09-04T07:02:13Z</time>
      </trkpt>
      <trkpt lat="39.9748050" lon="0.0156230">
        <ele>6.5</ele>
        <time>2019-09-04T07:02:15Z</time>
      </trkpt>
      <trkpt lat="39.9747540" lon="0.0156540">
        <ele>6.4</ele>
        <time>2019-09-04T07:02:16Z</time>
      </trkpt>
      <trkpt lat="39.9746770" lon="0.0157510">
        <ele>6.4</ele>
        <time>2019-09-04T07:02:18Z</time>
      </trkpt>
      <trkpt lat="39.9746620" lon="0.0158160">
        <ele>6.4</ele>
        <time>2019-09-04T07:02:19Z</time>
      </trkpt>
      <trkpt lat="39.9746610" lon="0.0158850">
        <ele>6.0</ele>
        <time>2019-09-04T07:02:20Z</time>
      </trkpt>
      <trkpt lat="39.9747120" lon="0.0160140">
        <ele>5.5</ele>
        <time>2019-09-04T07:02:22Z</time>
      </trkpt>
      <trkpt lat="39.9748100" lon="0.0161000">
        <ele>5.4</ele>
        <time>2019-09-04T07:02:24Z</time>
      </trkpt>
      <trkpt lat="39.9748680" lon="0.0161140">
        <ele>5.4</ele>
        <time>2019-09-04T07:02:25Z</time>
      </trkpt>
      <trkpt lat="39.9749230" lon="0.0161070">
        <ele>5.4</ele>
        <time>2019-09-04T07:02:26Z</time>
      </trkpt>
      <trkpt lat="39.9750230" lon="0.0160430">
        <ele>5.4</ele>
        <time>2019-09-04T07:02:28Z</time>
      </trkpt>
      <trkpt lat="39.9751400" lon="0.0158820">
        <ele>5.4</ele>
        <time>2019-09-04T07:02:31Z</time>
      </trkpt>
      <trkpt lat="39.9752440" lon="0.0158770">
        <ele>5.3</ele>
        <time>2019-09-04T07:02:33Z</time>
      </trkpt>
      <trkpt lat="39.9753410" lon="0.0159260">
        <ele>5.1</ele>
        <time>2019-09-04T07:02:35Z</time>
      </trkpt>
      <trkpt lat="39.9754770" lon="0.0160130">
        <ele>4.9</ele>
        <time>2019-09-04T07:02:38Z</time>
      </trkpt>
      <trkpt lat="39.9755900" lon="0.0160930">
        <ele>4.7</ele>
        <time>2019-09-04T07:02:40Z</time>
      </trkpt>
      <trkpt lat="39.9757690" lon="0.0162030">
        <ele>4.6</ele>
        <time>2019-09-04T07:02:43Z</time>
      </trkpt>
      <trkpt lat="39.9759260" lon="0.0163110">
        <ele>4.5</ele>
        <time>2019-09-04T07:02:46Z</time>
      </trkpt>
      <trkpt lat="39.9760890" lon="0.0163990">
        <ele>4.5</ele>
        <time>2019-09-04T07:02:49Z</time>
      </trkpt>
      <trkpt lat="39.9765180" lon="0.0166290">
        <ele>4.5</ele>
        <time>2019-09-04T07:02:57Z</time>
      </trkpt>
      <trkpt lat="39.9768500" lon="0.0168240">
        <ele>4.9</ele>
        <time>2019-09-04T07:03:03Z</time>
      </trkpt>
      <trkpt lat="39.9771320" lon="0.0170320">
        <ele>5.2</ele>
        <time>2019-09-04T07:03:08Z</time>
      </trkpt>
      <trkpt lat="39.9772520" lon="0.0171140">
        <ele>5.4</ele>
        <time>2019-09-04T07:03:10Z</time>
      </trkpt>
      <trkpt lat="39.9778180" lon="0.0174760">
        <ele>6.3</ele>
        <time>2019-09-04T07:03:19Z</time>
      </trkpt>
      <trkpt lat="39.9778810" lon="0.0175170">
        <ele>6.3</ele>
        <time>2019-09-04T07:03:20Z</time>
      </trkpt>
      <trkpt lat="39.9781750" lon="0.0177070">
        <ele>6.2</ele>
        <time>2019-09-04T07:03:25Z</time>
      </trkpt>
      <trkpt lat="39.9782440" lon="0.0178020">
        <ele>5.8</ele>
        <time>2019-09-04T07:03:27Z</time>
      </trkpt>
      <trkpt lat="39.9782700" lon="0.0178860">
        <ele>5.5</ele>
        <time>2019-09-04T07:03:29Z</time>
      </trkpt>
      <trkpt lat="39.9782670" lon="0.0179320">
        <ele>5.3</ele>
        <time>2019-09-04T07:03:30Z</time>
      </trkpt>
      <trkpt lat="39.9782590" lon="0.0180610">
        <ele>5.0</ele>
        <time>2019-09-04T07:03:32Z</time>
      </trkpt>
      <trkpt lat="39.9782870" lon="0.0181900">
        <ele>4.5</ele>
        <time>2019-09-04T07:03:34Z</time>
      </trkpt>
      <trkpt lat="39.9783640" lon="0.0182980">
        <ele>4.4</ele>
        <time>2019-09-04T07:03:36Z</time>
      </trkpt>
      <trkpt lat="39.9784210" lon="0.0183330">
        <ele>4.4</ele>
        <time>2019-09-04T07:03:37Z</time>
      </trkpt>
      <trkpt lat="39.9784840" lon="0.0183460">
        <ele>4.4</ele>
        <time>2019-09-04T07:03:38Z</time>
      </trkpt>
      <trkpt lat="39.9786030" lon="0.0183110">
        <ele>4.5</ele>
        <time>2019-09-04T07:03:40Z</time>
      </trkpt>
      <trkpt lat="39.9788050" lon="0.0181070">
        <ele>4.9</ele>
        <time>2019-09-04T07:03:44Z</time>
      </trkpt>
      <trkpt lat="39.9789320" lon="0.0181040">
        <ele>5.0</ele>
        <time>2019-09-04T07:03:46Z</time>
      </trkpt>
      <trkpt lat="39.9789960" lon="0.0181310">
        <ele>5.1</ele>
        <time>2019-09-04T07:03:47Z</time>
      </trkpt>
      <trkpt lat="39.9792480" lon="0.0182810">
        <ele>5.0</ele>
        <time>2019-09-04T07:03:51Z</time>
      </trkpt>
      <trkpt lat="39.9793120" lon="0.0183200">
        <ele>5.0</ele>
        <time>2019-09-04T07:03:52Z</time>
      </trkpt>
      <trkpt lat="39.9797070" lon="0.0185410">
        <ele>5.1</ele>
        <time>2019-09-04T07:03:58Z</time>
      </trkpt>
      <trkpt lat="39.9798400" lon="0.0186160">
        <ele>5.1</ele>
        <time>2019-09-04T07:04:00Z</time>
      </trkpt>
      <trkpt lat="39.9803070" lon="0.0188620">
        <ele>5.1</ele>
        <time>2019-09-04T07:04:07Z</time>
      </trkpt>
      <trkpt lat="39.9808460" lon="0.0191550">
        <ele>5.4</ele>
        <time>2019-09-04T07:04:15Z</time>
      </trkpt>
      <trkpt lat="39.9809120" lon="0.0191980">
        <ele>5.4</ele>
        <time>2019-09-04T07:04:16Z</time>
      </trkpt>
      <trkpt lat="39.9813810" lon="0.0194380">
        <ele>5.5</ele>
        <time>2019-09-04T07:04:23Z</time>
      </trkpt>
      <trkpt lat="39.9817190" lon="0.0196350">
        <ele>5.6</ele>
        <time>2019-09-04T07:04:28Z</time>
      </trkpt>
      <trkpt lat="39.9818520" lon="0.0197010">
        <ele>5.7</ele>
        <time>2019-09-04T07:04:30Z</time>
      </trkpt>
      <trkpt lat="39.9822510" lon="0.0199270">
        <ele>5.8</ele>
        <time>2019-09-04T07:04:36Z</time>
      </trkpt>
      <trkpt lat="39.9826510" lon="0.0201470">
        <ele>6.0</ele>
        <time>2019-09-04T07:04:42Z</time>
      </trkpt>
      <trkpt lat="39.9830570" lon="0.0203450">
        <ele>6.5</ele>
        <time>2019-09-04T07:04:48Z</time>
      </trkpt>
      <trkpt lat="39.9835870" lon="0.0206500">
        <ele>6.1</ele>
        <time>2019-09-04T07:04:56Z</time>
      </trkpt>
      <trkpt lat="39.9840530" lon="0.0208980">
        <ele>5.6</ele>
        <time>2019-09-04T07:05:03Z</time>
      </trkpt>
      <trkpt lat="39.9845840" lon="0.0212030">
        <ele>5.4</ele>
        <time>2019-09-04T07:05:11Z</time>
      </trkpt>
      <trkpt lat="39.9850470" lon="0.0214560">
        <ele>4.9</ele>
        <time>2019-09-04T07:05:18Z</time>
      </trkpt>
      <trkpt lat="39.9855640" lon="0.0217570">
        <ele>4.2</ele>
        <time>2019-09-04T07:05:26Z</time>
      </trkpt>
      <trkpt lat="39.9860850" lon="0.0220430">
        <ele>4.5</ele>
        <time>2019-09-04T07:05:34Z</time>
      </trkpt>
      <trkpt lat="39.9861520" lon="0.0220810">
        <ele>4.7</ele>
        <time>2019-09-04T07:05:35Z</time>
      </trkpt>
      <trkpt lat="39.9866860" lon="0.0223660">
        <ele>5.5</ele>
        <time>2019-09-04T07:05:43Z</time>
      </trkpt>
      <trkpt lat="39.9870890" lon="0.0225690">
        <ele>6.2</ele>
        <time>2019-09-04T07:05:49Z</time>
      </trkpt>
      <trkpt lat="39.9873810" lon="0.0227020">
        <ele>6.7</ele>
        <time>2019-09-04T07:05:54Z</time>
      </trkpt>
      <trkpt lat="39.9876960" lon="0.0229020">
        <ele>6.8</ele>
        <time>2019-09-04T07:05:59Z</time>
      </trkpt>
      <trkpt lat="39.9882310" lon="0.0232000">
        <ele>6.7</ele>
        <time>2019-09-04T07:06:07Z</time>
      </trkpt>
      <trkpt lat="39.9887640" lon="0.0234910">
        <ele>6.2</ele>
        <time>2019-09-04T07:06:15Z</time>
      </trkpt>
      <trkpt lat="39.9891020" lon="0.0236710">
        <ele>5.8</ele>
        <time>2019-09-04T07:06:20Z</time>
      </trkpt>
      <trkpt lat="39.9891700" lon="0.0237170">
        <ele>5.8</ele>
        <time>2019-09-04T07:06:21Z</time>
      </trkpt>
      <trkpt lat="39.9895840" lon="0.0239410">
        <ele>5.6</ele>
        <time>2019-09-04T07:06:27Z</time>
      </trkpt>
      <trkpt lat="39.9900020" lon="0.0241710">
        <ele>4.5</ele>
        <time>2019-09-04T07:06:33Z</time>
      </trkpt>
      <trkpt lat="39.9905600" lon="0.0244790">
        <ele>3.8</ele>
        <time>2019-09-04T07:06:41Z</time>
      </trkpt>
      <trkpt lat="39.9909510" lon="0.0247100">
        <ele>3.8</ele>
        <time>2019-09-04T07:06:47Z</time>
      </trkpt>
      <trkpt lat="39.9911370" lon="0.0247970">
        <ele>3.8</ele>
        <time>2019-09-04T07:06:50Z</time>
      </trkpt>
      <trkpt lat="39.9912930" lon="0.0248770">
        <ele>3.8</ele>
        <time>2019-09-04T07:06:53Z</time>
      </trkpt>
      <trkpt lat="39.9914010" lon="0.0249300">
        <ele>3.8</ele>
        <time>2019-09-04T07:06:56Z</time>
      </trkpt>
      <trkpt lat="39.9914150" lon="0.0249400">
        <ele>3.8</ele>
        <time>2019-09-04T07:06:57Z</time>
      </trkpt>
      <trkpt lat="39.9914210" lon="0.0249490">
        <ele>3.8</ele>
        <time>2019-09-04T07:06:59Z</time>
      </trkpt>
      <trkpt lat="39.9914210" lon="0.0249490">
        <ele>3.8</ele>
        <time>2019-09-04T07:07:01Z</time>
      </trkpt>
      <trkpt lat="39.9914750" lon="0.0249760">
        <ele>3.8</ele>
        <time>2019-09-04T07:07:05Z</time>
      </trkpt>
      <trkpt lat="39.9916150" lon="0.0250640">
        <ele>3.8</ele>
        <time>2019-09-04T07:07:09Z</time>
      </trkpt>
      <trkpt lat="39.9919120" lon="0.0252290">
        <ele>3.9</ele>
        <time>2019-09-04T07:07:15Z</time>
      </trkpt>
      <trkpt lat="39.9922460" lon="0.0254280">
        <ele>3.7</ele>
        <time>2019-09-04T07:07:21Z</time>
      </trkpt>
      <trkpt lat="39.9926000" lon="0.0256180">
        <ele>3.6</ele>
        <time>2019-09-04T07:07:27Z</time>
      </trkpt>
      <trkpt lat="39.9931110" lon="0.0259030">
        <ele>3.5</ele>
        <time>2019-09-04T07:07:35Z</time>
      </trkpt>
      <trkpt lat="39.9935270" lon="0.0261280">
        <ele>3.0</ele>
        <time>2019-09-04T07:07:42Z</time>
      </trkpt>
      <trkpt lat="39.9936320" lon="0.0261920">
        <ele>2.9</ele>
        <time>2019-09-04T07:07:44Z</time>
      </trkpt>
      <trkpt lat="39.9937160" lon="0.0262860">
        <ele>2.7</ele>
        <time>2019-09-04T07:07:46Z</time>
      </trkpt>
      <trkpt lat="39.9937440" lon="0.0263520">
        <ele>2.7</ele>
        <time>2019-09-04T07:07:47Z</time>
      </trkpt>
      <trkpt lat="39.9937960" lon="0.0264920">
        <ele>2.6</ele>
        <time>2019-09-04T07:07:49Z</time>
      </trkpt>
      <trkpt lat="39.9938850" lon="0.0265930">
        <ele>2.5</ele>
        <time>2019-09-04T07:07:51Z</time>
      </trkpt>
      <trkpt lat="39.9940070" lon="0.0266130">
        <ele>2.0</ele>
        <time>2019-09-04T07:07:53Z</time>
      </trkpt>
      <trkpt lat="39.9940680" lon="0.0265920">
        <ele>1.6</ele>
        <time>2019-09-04T07:07:54Z</time>
      </trkpt>
      <trkpt lat="39.9941900" lon="0.0265470">
        <ele>1.3</ele>
        <time>2019-09-04T07:07:56Z</time>
      </trkpt>
      <trkpt lat="39.9943200" lon="0.0265540">
        <ele>1.1</ele>
        <time>2019-09-04T07:07:58Z</time>
      </trkpt>
      <trkpt lat="39.9946330" lon="0.0267250">
        <ele>1.2</ele>
        <time>2019-09-04T07:08:03Z</time>
      </trkpt>
      <trkpt lat="39.9949470" lon="0.0269080">
        <ele>1.5</ele>
        <time>2019-09-04T07:08:08Z</time>
      </trkpt>
      <trkpt lat="39.9951390" lon="0.0270190">
        <ele>1.6</ele>
        <time>2019-09-04T07:08:11Z</time>
      </trkpt>
      <trkpt lat="39.9956090" lon="0.0272750">
        <ele>1.6</ele>
        <time>2019-09-04T07:08:18Z</time>
      </trkpt>
      <trkpt lat="39.9957430" lon="0.0273470">
        <ele>1.7</ele>
        <time>2019-09-04T07:08:20Z</time>
      </trkpt>
      <trkpt lat="39.9960120" lon="0.0274950">
        <ele>1.5</ele>
        <time>2019-09-04T07:08:24Z</time>
      </trkpt>
      <trkpt lat="39.9965560" lon="0.0277910">
        <ele>0.5</ele>
        <time>2019-09-04T07:08:32Z</time>
      </trkpt>
      <trkpt lat="39.9966240" lon="0.0278270">
        <ele>1.0</ele>
        <time>2019-09-04T07:08:33Z</time>
      </trkpt>
      <trkpt lat="39.9969690" lon="0.0280210">
        <ele>3.1</ele>
        <time>2019-09-04T07:08:38Z</time>
      </trkpt>
      <trkpt lat="39.9971790" lon="0.0281310">
        <ele>2.5</ele>
        <time>2019-09-04T07:08:41Z</time>
      </trkpt>
      <trkpt lat="39.9977300" lon="0.0284020">
        <ele>1.9</ele>
        <time>2019-09-04T07:08:49Z</time>
      </trkpt>
      <trkpt lat="39.9982860" lon="0.0286490">
        <ele>1.5</ele>
        <time>2019-09-04T07:08:57Z</time>
      </trkpt>
      <trkpt lat="39.9988510" lon="0.0288710">
        <ele>1.1</ele>
        <time>2019-09-04T07:09:05Z</time>
      </trkpt>
      <trkpt lat="39.9989230" lon="0.0288990">
        <ele>1.1</ele>
        <time>2019-09-04T07:09:06Z</time>
      </trkpt>
      <trkpt lat="39.9993540" lon="0.0290710">
        <ele>1.5</ele>
        <time>2019-09-04T07:09:12Z</time>
      </trkpt>
      <trkpt lat="39.9999220" lon="0.0292730">
        <ele>1.9</ele>
        <time>2019-09-04T07:09:20Z</time>
      </trkpt>
      <trkpt lat="40.0000610" lon="0.0293280">
        <ele>1.9</ele>
        <time>2019-09-04T07:09:22Z</time>
      </trkpt>
      <trkpt lat="40.0006240" lon="0.0295470">
        <ele>1.9</ele>
        <time>2019-09-04T07:09:30Z</time>
      </trkpt>
      <trkpt lat="40.0007630" lon="0.0295980">
        <ele>1.9</ele>
        <time>2019-09-04T07:09:32Z</time>
      </trkpt>
      <trkpt lat="40.0013320" lon="0.0298430">
        <ele>2.1</ele>
        <time>2019-09-04T07:09:40Z</time>
      </trkpt>
      <trkpt lat="40.0014020" lon="0.0298670">
        <ele>2.1</ele>
        <time>2019-09-04T07:09:41Z</time>
      </trkpt>
      <trkpt lat="40.0016820" lon="0.0299660">
        <ele>2.0</ele>
        <time>2019-09-04T07:09:46Z</time>
      </trkpt>
      <trkpt lat="40.0019870" lon="0.0300950">
        <ele>0.8</ele>
        <time>2019-09-04T07:09:51Z</time>
      </trkpt>
      <trkpt lat="40.0022650" lon="0.0302040">
        <ele>0.4</ele>
        <time>2019-09-04T07:09:55Z</time>
      </trkpt>
      <trkpt lat="40.0024690" lon="0.0302930">
        <ele>0.8</ele>
        <time>2019-09-04T07:09:58Z</time>
      </trkpt>
      <trkpt lat="40.0028470" lon="0.0304360">
        <ele>1.4</ele>
        <time>2019-09-04T07:10:04Z</time>
      </trkpt>
      <trkpt lat="40.0033530" lon="0.0306420">
        <ele>2.7</ele>
        <time>2019-09-04T07:10:12Z</time>
      </trkpt>
      <trkpt lat="40.0038990" lon="0.0308590">
        <ele>3.9</ele>
        <time>2019-09-04T07:10:20Z</time>
      </trkpt>
      <trkpt lat="40.0039710" lon="0.0308860">
        <ele>4.0</ele>
        <time>2019-09-04T07:10:21Z</time>
      </trkpt>
      <trkpt lat="40.0045460" lon="0.0311110">
        <ele>3.9</ele>
        <time>2019-09-04T07:10:29Z</time>
      </trkpt>
      <trkpt lat="40.0051290" lon="0.0313360">
        <ele>3.0</ele>
        <time>2019-09-04T07:10:37Z</time>
      </trkpt>
      <trkpt lat="40.0052760" lon="0.0313950">
        <ele>2.8</ele>
        <time>2019-09-04T07:10:39Z</time>
      </trkpt>
      <trkpt lat="40.0058550" lon="0.0316200">
        <ele>2.6</ele>
        <time>2019-09-04T07:10:47Z</time>
      </trkpt>
      <trkpt lat="40.0063580" lon="0.0317910">
        <ele>2.9</ele>
        <time>2019-09-04T07:10:54Z</time>
      </trkpt>
      <trkpt lat="40.0069310" lon="0.0320350">
        <ele>2.8</ele>
        <time>2019-09-04T07:11:02Z</time>
      </trkpt>
      <trkpt lat="40.0070050" lon="0.0320670">
        <ele>2.6</ele>
        <time>2019-09-04T07:11:03Z</time>
      </trkpt>
      <trkpt lat="40.0075900" lon="0.0322970">
        <ele>2.5</ele>
        <time>2019-09-04T07:11:11Z</time>
      </trkpt>
      <trkpt lat="40.0081740" lon="0.0325220">
        <ele>2.4</ele>
        <time>2019-09-04T07:11:19Z</time>
      </trkpt>
      <trkpt lat="40.0082480" lon="0.0325520">
        <ele>2.4</ele>
        <time>2019-09-04T07:11:20Z</time>
      </trkpt>
      <trkpt lat="40.0087710" lon="0.0327590">
        <ele>3.1</ele>
        <time>2019-09-04T07:11:27Z</time>
      </trkpt>
      <trkpt lat="40.0093000" lon="0.0329790">
        <ele>4.3</ele>
        <time>2019-09-04T07:11:34Z</time>
      </trkpt>
      <trkpt lat="40.0098300" lon="0.0331670">
        <ele>4.9</ele>
        <time>2019-09-04T07:11:41Z</time>
      </trkpt>
      <trkpt lat="40.0099110" lon="0.0331990">
        <ele>5.1</ele>
        <time>2019-09-04T07:11:42Z</time>
      </trkpt>
      <trkpt lat="40.0104810" lon="0.0334350">
        <ele>5.8</ele>
        <time>2019-09-04T07:11:49Z</time>
      </trkpt>
      <trkpt lat="40.0107140" lon="0.0335280">
        <ele>5.3</ele>
        <time>2019-09-04T07:11:52Z</time>
      </trkpt>
      <trkpt lat="40.0112560" lon="0.0337360">
        <ele>3.5</ele>
        <time>2019-09-04T07:11:59Z</time>
      </trkpt>
      <trkpt lat="40.0113320" lon="0.0337680">
        <ele>3.2</ele>
        <time>2019-09-04T07:12:00Z</time>
      </trkpt>
      <trkpt lat="40.0118580" lon="0.0340380">
        <ele>2.1</ele>
        <time>2019-09-04T07:12:07Z</time>
      </trkpt>
      <trkpt lat="40.0123520" lon="0.0344080">
        <ele>2.5</ele>
        <time>2019-09-04T07:12:14Z</time>
      </trkpt>
      <trkpt lat="40.0127900" lon="0.0348630">
        <ele>2.2</ele>
        <time>2019-09-04T07:12:21Z</time>
      </trkpt>
      <trkpt lat="40.0132170" lon="0.0353650">
        <ele>2.1</ele>
        <time>2019-09-04T07:12:28Z</time>
      </trkpt>
      <trkpt lat="40.0132760" lon="0.0354410">
        <ele>2.1</ele>
        <time>2019-09-04T07:12:29Z</time>
      </trkpt>
      <trkpt lat="40.0136920" lon="0.0359560">
        <ele>2.7</ele>
        <time>2019-09-04T07:12:36Z</time>
      </trkpt>
      <trkpt lat="40.0137490" lon="0.0360280">
        <ele>2.8</ele>
        <time>2019-09-04T07:12:37Z</time>
      </trkpt>
      <trkpt lat="40.0141500" lon="0.0364990">
        <ele>3.9</ele>
        <time>2019-09-04T07:12:44Z</time>
      </trkpt>
      <trkpt lat="40.0145520" lon="0.0369910">
        <ele>4.4</ele>
        <time>2019-09-04T07:12:51Z</time>
      </trkpt>
      <trkpt lat="40.0149590" lon="0.0374860">
        <ele>3.8</ele>
        <time>2019-09-04T07:12:58Z</time>
      </trkpt>
      <trkpt lat="40.0150160" lon="0.0375550">
        <ele>3.7</ele>
        <time>2019-09-04T07:12:59Z</time>
      </trkpt>
      <trkpt lat="40.0153930" lon="0.0379920">
        <ele>2.2</ele>
        <time>2019-09-04T07:13:06Z</time>
      </trkpt>
      <trkpt lat="40.0155780" lon="0.0382300">
        <ele>1.9</ele>
        <time>2019-09-04T07:13:10Z</time>
      </trkpt>
      <trkpt lat="40.0156230" lon="0.0382850">
        <ele>1.9</ele>
        <time>2019-09-04T07:13:11Z</time>
      </trkpt>
      <trkpt lat="40.0156610" lon="0.0383440">
        <ele>1.9</ele>
        <time>2019-09-04T07:13:12Z</time>
      </trkpt>
      <trkpt lat="40.0157340" lon="0.0384580">
        <ele>1.9</ele>
        <time>2019-09-04T07:13:14Z</time>
      </trkpt>
      <trkpt lat="40.0157790" lon="0.0385020">
        <ele>2.0</ele>
        <time>2019-09-04T07:13:15Z</time>
      </trkpt>
      <trkpt lat="40.0158300" lon="0.0385330">
        <ele>2.1</ele>
        <time>2019-09-04T07:13:16Z</time>
      </trkpt>
      <trkpt lat="40.0159410" lon="0.0386100">
        <ele>2.5</ele>
        <time>2019-09-04T07:13:18Z</time>
      </trkpt>
      <trkpt lat="40.0159940" lon="0.0386650">
        <ele>2.6</ele>
        <time>2019-09-04T07:13:19Z</time>
      </trkpt>
      <trkpt lat="40.0161980" lon="0.0388930">
        <ele>4.3</ele>
        <time>2019-09-04T07:13:23Z</time>
      </trkpt>
      <trkpt lat="40.0162650" lon="0.0389450">
        <ele>4.5</ele>
        <time>2019-09-04T07:13:24Z</time>
      </trkpt>
      <trkpt lat="40.0163190" lon="0.0389980">
        <ele>4.7</ele>
        <time>2019-09-04T07:13:25Z</time>
      </trkpt>
      <trkpt lat="40.0164660" lon="0.0391630">
        <ele>4.8</ele>
        <time>2019-09-04T07:13:28Z</time>
      </trkpt>
      <trkpt lat="40.0168750" lon="0.0396870">
        <ele>4.5</ele>
        <time>2019-09-04T07:13:37Z</time>
      </trkpt>
      <trkpt lat="40.0169650" lon="0.0397940">
        <ele>4.4</ele>
        <time>2019-09-04T07:13:39Z</time>
      </trkpt>
      <trkpt lat="40.0172110" lon="0.0400340">
        <ele>4.4</ele>
        <time>2019-09-04T07:13:44Z</time>
      </trkpt>
      <trkpt lat="40.0176000" lon="0.0403120">
        <ele>4.8</ele>
        <time>2019-09-04T07:13:51Z</time>
      </trkpt>
      <trkpt lat="40.0179590" lon="0.0404720">
        <ele>5.7</ele>
        <time>2019-09-04T07:13:57Z</time>
      </trkpt>
      <trkpt lat="40.0184780" lon="0.0406590">
        <ele>5.5</ele>
        <time>2019-09-04T07:14:05Z</time>
      </trkpt>
      <trkpt lat="40.0190090" lon="0.0408860">
        <ele>5.3</ele>
        <time>2019-09-04T07:14:13Z</time>
      </trkpt>
      <trkpt lat="40.0194860" lon="0.0410690">
        <ele>5.3</ele>
        <time>2019-09-04T07:14:20Z</time>
      </trkpt>
      <trkpt lat="40.0200340" lon="0.0412880">
        <ele>5.3</ele>
        <time>2019-09-04T07:14:28Z</time>
      </trkpt>
      <trkpt lat="40.0201100" lon="0.0413090">
        <ele>5.3</ele>
        <time>2019-09-04T07:14:29Z</time>
      </trkpt>
      <trkpt lat="40.0205170" lon="0.0414720">
        <ele>5.4</ele>
        <time>2019-09-04T07:14:35Z</time>
      </trkpt>
      <trkpt lat="40.0209950" lon="0.0416640">
        <ele>5.7</ele>
        <time>2019-09-04T07:14:42Z</time>
      </trkpt>
      <trkpt lat="40.0214810" lon="0.0418530">
        <ele>6.0</ele>
        <time>2019-09-04T07:14:49Z</time>
      </trkpt>
      <trkpt lat="40.0215510" lon="0.0418810">
        <ele>6.0</ele>
        <time>2019-09-04T07:14:50Z</time>
      </trkpt>
      <trkpt lat="40.0221130" lon="0.0421210">
        <ele>6.1</ele>
        <time>2019-09-04T07:14:58Z</time>
      </trkpt>
      <trkpt lat="40.0226700" lon="0.0423350">
        <ele>6.9</ele>
        <time>2019-09-04T07:15:06Z</time>
      </trkpt>
      <trkpt lat="40.0227410" lon="0.0423650">
        <ele>7.0</ele>
        <time>2019-09-04T07:15:07Z</time>
      </trkpt>
      <trkpt lat="40.0230880" lon="0.0424990">
        <ele>7.6</ele>
        <time>2019-09-04T07:15:12Z</time>
      </trkpt>
      <trkpt lat="40.0236140" lon="0.0427080">
        <ele>6.5</ele>
        <time>2019-09-04T07:15:20Z</time>
      </trkpt>
      <trkpt lat="40.0238800" lon="0.0428030">
        <ele>6.4</ele>
        <time>2019-09-04T07:15:24Z</time>
      </trkpt>
      <trkpt lat="40.0240150" lon="0.0428470">
        <ele>6.3</ele>
        <time>2019-09-04T07:15:26Z</time>
      </trkpt>
      <trkpt lat="40.0245660" lon="0.0430770">
        <ele>5.8</ele>
        <time>2019-09-04T07:15:34Z</time>
      </trkpt>
      <trkpt lat="40.0249110" lon="0.0432160">
        <ele>5.8</ele>
        <time>2019-09-04T07:15:39Z</time>
      </trkpt>
      <trkpt lat="40.0254750" lon="0.0434260">
        <ele>6.1</ele>
        <time>2019-09-04T07:15:47Z</time>
      </trkpt>
      <trkpt lat="40.0260330" lon="0.0436600">
        <ele>5.7</ele>
        <time>2019-09-04T07:15:55Z</time>
      </trkpt>
      <trkpt lat="40.0265980" lon="0.0438880">
        <ele>5.5</ele>
        <time>2019-09-04T07:16:03Z</time>
      </trkpt>
      <trkpt lat="40.0266690" lon="0.0439160">
        <ele>5.5</ele>
        <time>2019-09-04T07:16:04Z</time>
      </trkpt>
      <trkpt lat="40.0270300" lon="0.0440340">
        <ele>5.5</ele>
        <time>2019-09-04T07:16:09Z</time>
      </trkpt>
      <trkpt lat="40.0271020" lon="0.0440600">
        <ele>5.5</ele>
        <time>2019-09-04T07:16:10Z</time>
      </trkpt>
      <trkpt lat="40.0276030" lon="0.0442730">
        <ele>3.9</ele>
        <time>2019-09-04T07:16:17Z</time>
      </trkpt>
      <trkpt lat="40.0280250" lon="0.0444460">
        <ele>3.9</ele>
        <time>2019-09-04T07:16:23Z</time>
      </trkpt>
      <trkpt lat="40.0286010" lon="0.0446660">
        <ele>4.2</ele>
        <time>2019-09-04T07:16:31Z</time>
      </trkpt>
      <trkpt lat="40.0291790" lon="0.0448870">
        <ele>4.9</ele>
        <time>2019-09-04T07:16:39Z</time>
      </trkpt>
      <trkpt lat="40.0297400" lon="0.0451180">
        <ele>4.9</ele>
        <time>2019-09-04T07:16:47Z</time>
      </trkpt>
      <trkpt lat="40.0302310" lon="0.0453140">
        <ele>5.1</ele>
        <time>2019-09-04T07:16:54Z</time>
      </trkpt>
      <trkpt lat="40.0304400" lon="0.0453810">
        <ele>5.3</ele>
        <time>2019-09-04T07:16:57Z</time>
      </trkpt>
      <trkpt lat="40.0309310" lon="0.0455930">
        <ele>5.9</ele>
        <time>2019-09-04T07:17:04Z</time>
      </trkpt>
      <trkpt lat="40.0314740" lon="0.0458780">
        <ele>6.1</ele>
        <time>2019-09-04T07:17:12Z</time>
      </trkpt>
      <trkpt lat="40.0318710" lon="0.0461390">
        <ele>5.5</ele>
        <time>2019-09-04T07:17:18Z</time>
      </trkpt>
      <trkpt lat="40.0323730" lon="0.0465360">
        <ele>5.4</ele>
        <time>2019-09-04T07:17:26Z</time>
      </trkpt>
      <trkpt lat="40.0324340" lon="0.0465920">
        <ele>5.4</ele>
        <time>2019-09-04T07:17:27Z</time>
      </trkpt>
      <trkpt lat="40.0329420" lon="0.0470270">
        <ele>5.3</ele>
        <time>2019-09-04T07:17:35Z</time>
      </trkpt>
      <trkpt lat="40.0330060" lon="0.0470810">
        <ele>5.3</ele>
        <time>2019-09-04T07:17:36Z</time>
      </trkpt>
      <trkpt lat="40.0334500" lon="0.0474730">
        <ele>4.3</ele>
        <time>2019-09-04T07:17:43Z</time>
      </trkpt>
      <trkpt lat="40.0338730" lon="0.0478520">
        <ele>4.5</ele>
        <time>2019-09-04T07:17:50Z</time>
      </trkpt>
      <trkpt lat="40.0343260" lon="0.0482420">
        <ele>5.3</ele>
        <time>2019-09-04T07:17:57Z</time>
      </trkpt>
      <trkpt lat="40.0344570" lon="0.0483560">
        <ele>5.6</ele>
        <time>2019-09-04T07:17:59Z</time>
      </trkpt>
      <trkpt lat="40.0348960" lon="0.0487340">
        <ele>6.7</ele>
        <time>2019-09-04T07:18:06Z</time>
      </trkpt>
      <trkpt lat="40.0353170" lon="0.0491140">
        <ele>6.4</ele>
        <time>2019-09-04T07:18:13Z</time>
      </trkpt>
      <trkpt lat="40.0357890" lon="0.0495250">
        <ele>6.3</ele>
        <time>2019-09-04T07:18:21Z</time>
      </trkpt>
      <trkpt lat="40.0358450" lon="0.0495760">
        <ele>6.2</ele>
        <time>2019-09-04T07:18:22Z</time>
      </trkpt>
      <trkpt lat="40.0362140" lon="0.0499100">
        <ele>5.3</ele>
        <time>2019-09-04T07:18:29Z</time>
      </trkpt>
      <trkpt lat="40.0365140" lon="0.0502090">
        <ele>5.9</ele>
        <time>2019-09-04T07:18:35Z</time>
      </trkpt>
      <trkpt lat="40.0369060" lon="0.0505550">
        <ele>6.3</ele>
        <time>2019-09-04T07:18:42Z</time>
      </trkpt>
      <trkpt lat="40.0374030" lon="0.0509880">
        <ele>6.8</ele>
        <time>2019-09-04T07:18:51Z</time>
      </trkpt>
      <trkpt lat="40.0377480" lon="0.0513690">
        <ele>7.2</ele>
        <time>2019-09-04T07:18:58Z</time>
      </trkpt>
      <trkpt lat="40.0380940" lon="0.0519260">
        <ele>9.0</ele>
        <time>2019-09-04T07:19:06Z</time>
      </trkpt>
      <trkpt lat="40.0384270" lon="0.0525170">
        <ele>9.6</ele>
        <time>2019-09-04T07:19:14Z</time>
      </trkpt>
      <trkpt lat="40.0387200" lon="0.0530410">
        <ele>9.6</ele>
        <time>2019-09-04T07:19:21Z</time>
      </trkpt>
      <trkpt lat="40.0390320" lon="0.0536290">
        <ele>8.8</ele>
        <time>2019-09-04T07:19:29Z</time>
      </trkpt>
      <trkpt lat="40.0391090" lon="0.0537810">
        <ele>8.5</ele>
        <time>2019-09-04T07:19:31Z</time>
      </trkpt>
      <trkpt lat="40.0394220" lon="0.0543870">
        <ele>7.4</ele>
        <time>2019-09-04T07:19:39Z</time>
      </trkpt>
      <trkpt lat="40.0397550" lon="0.0550110">
        <ele>7.3</ele>
        <time>2019-09-04T07:19:47Z</time>
      </trkpt>
      <trkpt lat="40.0398000" lon="0.0550910">
        <ele>7.9</ele>
        <time>2019-09-04T07:19:48Z</time>
      </trkpt>
      <trkpt lat="40.0401400" lon="0.0557200">
        <ele>10.9</ele>
        <time>2019-09-04T07:19:56Z</time>
      </trkpt>
      <trkpt lat="40.0401820" lon="0.0557980">
        <ele>11.2</ele>
        <time>2019-09-04T07:19:57Z</time>
      </trkpt>
      <trkpt lat="40.0405160" lon="0.0564220">
        <ele>11.8</ele>
        <time>2019-09-04T07:20:05Z</time>
      </trkpt>
      <trkpt lat="40.0405560" lon="0.0564980">
        <ele>11.8</ele>
        <time>2019-09-04T07:20:06Z</time>
      </trkpt>
      <trkpt lat="40.0408820" lon="0.0570910">
        <ele>10.8</ele>
        <time>2019-09-04T07:20:14Z</time>
      </trkpt>
      <trkpt lat="40.0409600" lon="0.0572420">
        <ele>10.5</ele>
        <time>2019-09-04T07:20:16Z</time>
      </trkpt>
      <trkpt lat="40.0412740" lon="0.0578510">
        <ele>10.7</ele>
        <time>2019-09-04T07:20:24Z</time>
      </trkpt>
      <trkpt lat="40.0413150" lon="0.0579230">
        <ele>11.2</ele>
        <time>2019-09-04T07:20:25Z</time>
      </trkpt>
      <trkpt lat="40.0416020" lon="0.0584590">
        <ele>11.8</ele>
        <time>2019-09-04T07:20:32Z</time>
      </trkpt>
      <trkpt lat="40.0418510" lon="0.0589130">
        <ele>10.6</ele>
        <time>2019-09-04T07:20:38Z</time>
      </trkpt>
      <trkpt lat="40.0421110" lon="0.0593910">
        <ele>9.7</ele>
        <time>2019-09-04T07:20:44Z</time>
      </trkpt>
      <trkpt lat="40.0423940" lon="0.0598500">
        <ele>10.1</ele>
        <time>2019-09-04T07:20:50Z</time>
      </trkpt>
      <trkpt lat="40.0428070" lon="0.0604250">
        <ele>10.6</ele>
        <time>2019-09-04T07:20:58Z</time>
      </trkpt>
      <trkpt lat="40.0431750" lon="0.0609170">
        <ele>10.8</ele>
        <time>2019-09-04T07:21:05Z</time>
      </trkpt>
      <trkpt lat="40.0432250" lon="0.0609880">
        <ele>10.9</ele>
        <time>2019-09-04T07:21:06Z</time>
      </trkpt>
      <trkpt lat="40.0436540" lon="0.0615510">
        <ele>11.4</ele>
        <time>2019-09-04T07:21:14Z</time>
      </trkpt>
      <trkpt lat="40.0437080" lon="0.0616230">
        <ele>11.3</ele>
        <time>2019-09-04T07:21:15Z</time>
      </trkpt>
      <trkpt lat="40.0441020" lon="0.0621140">
        <ele>9.9</ele>
        <time>2019-09-04T07:21:22Z</time>
      </trkpt>
      <trkpt lat="40.0441610" lon="0.0621820">
        <ele>9.7</ele>
        <time>2019-09-04T07:21:23Z</time>
      </trkpt>
      <trkpt lat="40.0446150" lon="0.0627070">
        <ele>8.8</ele>
        <time>2019-09-04T07:21:30Z</time>
      </trkpt>
      <trkpt lat="40.0446840" lon="0.0627760">
        <ele>8.8</ele>
        <time>2019-09-04T07:21:31Z</time>
      </trkpt>
      <trkpt lat="40.0451580" lon="0.0632620">
        <ele>9.7</ele>
        <time>2019-09-04T07:21:38Z</time>
      </trkpt>
      <trkpt lat="40.0453880" lon="0.0635300">
        <ele>10.1</ele>
        <time>2019-09-04T07:21:42Z</time>
      </trkpt>
      <trkpt lat="40.0455110" lon="0.0636560">
        <ele>10.2</ele>
        <time>2019-09-04T07:21:44Z</time>
      </trkpt>
      <trkpt lat="40.0459230" lon="0.0641000">
        <ele>11.6</ele>
        <time>2019-09-04T07:21:51Z</time>
      </trkpt>
      <trkpt lat="40.0463770" lon="0.0645910">
        <ele>12.6</ele>
        <time>2019-09-04T07:21:59Z</time>
      </trkpt>
      <trkpt lat="40.0466080" lon="0.0648660">
        <ele>11.9</ele>
        <time>2019-09-04T07:22:04Z</time>
      </trkpt>
      <trkpt lat="40.0466570" lon="0.0649040">
        <ele>11.8</ele>
        <time>2019-09-04T07:22:05Z</time>
      </trkpt>
      <trkpt lat="40.0467790" lon="0.0650250">
        <ele>11.3</ele>
        <time>2019-09-04T07:22:08Z</time>
      </trkpt>
      <trkpt lat="40.0469220" lon="0.0651440">
        <ele>11.3</ele>
        <time>2019-09-04T07:22:12Z</time>
      </trkpt>
      <trkpt lat="40.0469930" lon="0.0651940">
        <ele>11.3</ele>
        <time>2019-09-04T07:22:14Z</time>
      </trkpt>
      <trkpt lat="40.0470950" lon="0.0652750">
        <ele>10.8</ele>
        <time>2019-09-04T07:22:17Z</time>
      </trkpt>
      <trkpt lat="40.0471310" lon="0.0653010">
        <ele>10.5</ele>
        <time>2019-09-04T07:22:18Z</time>
      </trkpt>
      <trkpt lat="40.0471950" lon="0.0653560">
        <ele>9.8</ele>
        <time>2019-09-04T07:22:20Z</time>
      </trkpt>
      <trkpt lat="40.0472790" lon="0.0654500">
        <ele>9.9</ele>
        <time>2019-09-04T07:22:23Z</time>
      </trkpt>
      <trkpt lat="40.0474050" lon="0.0656330">
        <ele>9.5</ele>
        <time>2019-09-04T07:22:28Z</time>
      </trkpt>
      <trkpt lat="40.0474860" lon="0.0657700">
        <ele>9.2</ele>
        <time>2019-09-04T07:22:31Z</time>
      </trkpt>
      <trkpt lat="40.0475430" lon="0.0658820">
        <ele>9.0</ele>
        <time>2019-09-04T07:22:33Z</time>
      </trkpt>
      <trkpt lat="40.0477000" lon="0.0661760">
        <ele>9.2</ele>
        <time>2019-09-04T07:22:38Z</time>
      </trkpt>
      <trkpt lat="40.0477510" lon="0.0663190">
        <ele>9.3</ele>
        <time>2019-09-04T07:22:40Z</time>
      </trkpt>
      <trkpt lat="40.0478040" lon="0.0664670">
        <ele>9.6</ele>
        <time>2019-09-04T07:22:42Z</time>
      </trkpt>
      <trkpt lat="40.0478540" lon="0.0666100">
        <ele>9.8</ele>
        <time>2019-09-04T07:22:44Z</time>
      </trkpt>
      <trkpt lat="40.0479090" lon="0.0667450">
        <ele>10.1</ele>
        <time>2019-09-04T07:22:46Z</time>
      </trkpt>
      <trkpt lat="40.0480500" lon="0.0670790">
        <ele>10.8</ele>
        <time>2019-09-04T07:22:51Z</time>
      </trkpt>
      <trkpt lat="40.0481070" lon="0.0672080">
        <ele>11.1</ele>
        <time>2019-09-04T07:22:53Z</time>
      </trkpt>
      <trkpt lat="40.0482080" lon="0.0674080">
        <ele>11.6</ele>
        <time>2019-09-04T07:22:56Z</time>
      </trkpt>
      <trkpt lat="40.0483140" lon="0.0676130">
        <ele>12.2</ele>
        <time>2019-09-04T07:22:59Z</time>
      </trkpt>
      <trkpt lat="40.0483860" lon="0.0677540">
        <ele>12.3</ele>
        <time>2019-09-04T07:23:01Z</time>
      </trkpt>
      <trkpt lat="40.0485080" lon="0.0679580">
        <ele>12.4</ele>
        <time>2019-09-04T07:23:04Z</time>
      </trkpt>
      <trkpt lat="40.0485870" lon="0.0680900">
        <ele>12.0</ele>
        <time>2019-09-04T07:23:06Z</time>
      </trkpt>
      <trkpt lat="40.0486250" lon="0.0681610">
        <ele>12.0</ele>
        <time>2019-09-04T07:23:07Z</time>
      </trkpt>
      <trkpt lat="40.0488060" lon="0.0685190">
        <ele>10.4</ele>
        <time>2019-09-04T07:23:12Z</time>
      </trkpt>
      <trkpt lat="40.0491290" lon="0.0691310">
        <ele>8.4</ele>
        <time>2019-09-04T07:23:20Z</time>
      </trkpt>
      <trkpt lat="40.0493570" lon="0.0695830">
        <ele>7.8</ele>
        <time>2019-09-04T07:23:26Z</time>
      </trkpt>
      <trkpt lat="40.0496420" lon="0.0701220">
        <ele>8.1</ele>
        <time>2019-09-04T07:23:33Z</time>
      </trkpt>
      <trkpt lat="40.0498880" lon="0.0706110">
        <ele>8.5</ele>
        <time>2019-09-04T07:23:40Z</time>
      </trkpt>
      <trkpt lat="40.0500190" lon="0.0708750">
        <ele>7.7</ele>
        <time>2019-09-04T07:23:44Z</time>
      </trkpt>
      <trkpt lat="40.0501210" lon="0.0710700">
        <ele>6.7</ele>
        <time>2019-09-04T07:23:47Z</time>
      </trkpt>
      <trkpt lat="40.0503180" lon="0.0714340">
        <ele>4.5</ele>
        <time>2019-09-04T07:23:53Z</time>
      </trkpt>
      <trkpt lat="40.0504310" lon="0.0716660">
        <ele>3.8</ele>
        <time>2019-09-04T07:23:57Z</time>
      </trkpt>
      <trkpt lat="40.0505280" lon="0.0718440">
        <ele>3.3</ele>
        <time>2019-09-04T07:24:00Z</time>
      </trkpt>
      <trkpt lat="40.0507380" lon="0.0722190">
        <ele>3.1</ele>
        <time>2019-09-04T07:24:06Z</time>
      </trkpt>
      <trkpt lat="40.0507780" lon="0.0722820">
        <ele>3.2</ele>
        <time>2019-09-04T07:24:07Z</time>
      </trkpt>
      <trkpt lat="40.0509270" lon="0.0725500">
        <ele>3.5</ele>
        <time>2019-09-04T07:24:11Z</time>
      </trkpt>
      <trkpt lat="40.0510760" lon="0.0728700">
        <ele>4.0</ele>
        <time>2019-09-04T07:24:16Z</time>
      </trkpt>
      <trkpt lat="40.0512000" lon="0.0731150">
        <ele>4.2</ele>
        <time>2019-09-04T07:24:20Z</time>
      </trkpt>
      <trkpt lat="40.0512630" lon="0.0732350">
        <ele>4.3</ele>
        <time>2019-09-04T07:24:22Z</time>
      </trkpt>
      <trkpt lat="40.0512960" lon="0.0732980">
        <ele>4.4</ele>
        <time>2019-09-04T07:24:23Z</time>
      </trkpt>
      <trkpt lat="40.0515060" lon="0.0737000">
        <ele>5.0</ele>
        <time>2019-09-04T07:24:29Z</time>
      </trkpt>
      <trkpt lat="40.0517680" lon="0.0742150">
        <ele>5.9</ele>
        <time>2019-09-04T07:24:37Z</time>
      </trkpt>
      <trkpt lat="40.0518000" lon="0.0742800">
        <ele>6.0</ele>
        <time>2019-09-04T07:24:38Z</time>
      </trkpt>
      <trkpt lat="40.0520270" lon="0.0747240">
        <ele>6.6</ele>
        <time>2019-09-04T07:24:45Z</time>
      </trkpt>
      <trkpt lat="40.0521930" lon="0.0750500">
        <ele>5.9</ele>
        <time>2019-09-04T07:24:51Z</time>
      </trkpt>
      <trkpt lat="40.0523550" lon="0.0753680">
        <ele>6.6</ele>
        <time>2019-09-04T07:24:58Z</time>
      </trkpt>
      <trkpt lat="40.0524200" lon="0.0754210">
        <ele>6.5</ele>
        <time>2019-09-04T07:25:00Z</time>
      </trkpt>
      <trkpt lat="40.0524560" lon="0.0754190">
        <ele>6.3</ele>
        <time>2019-09-04T07:25:01Z</time>
      </trkpt>
      <trkpt lat="40.0524950" lon="0.0754010">
        <ele>6.2</ele>
        <time>2019-09-04T07:25:02Z</time>
      </trkpt>
      <trkpt lat="40.0525700" lon="0.0753370">
        <ele>6.0</ele>
        <time>2019-09-04T07:25:04Z</time>
      </trkpt>
      <trkpt lat="40.0526980" lon="0.0752050">
        <ele>5.9</ele>
        <time>2019-09-04T07:25:07Z</time>
      </trkpt>
      <trkpt lat="40.0528390" lon="0.0750670">
        <ele>5.9</ele>
        <time>2019-09-04T07:25:10Z</time>
      </trkpt>
      <trkpt lat="40.0530780" lon="0.0748170">
        <ele>6.0</ele>
        <time>2019-09-04T07:25:15Z</time>
      </trkpt>
      <trkpt lat="40.0531800" lon="0.0747170">
        <ele>6.2</ele>
        <time>2019-09-04T07:25:17Z</time>
      </trkpt>
      <trkpt lat="40.0534380" lon="0.0744640">
        <ele>6.5</ele>
        <time>2019-09-04T07:25:22Z</time>
      </trkpt>
      <trkpt lat="40.0535980" lon="0.0743080">
        <ele>6.5</ele>
        <time>2019-09-04T07:25:25Z</time>
      </trkpt>
      <trkpt lat="40.0539260" lon="0.0739950">
        <ele>6.5</ele>
        <time>2019-09-04T07:25:31Z</time>
      </trkpt>
      <trkpt lat="40.0539820" lon="0.0739470">
        <ele>6.5</ele>
        <time>2019-09-04T07:25:32Z</time>
      </trkpt>
      <trkpt lat="40.0540900" lon="0.0738420">
        <ele>6.5</ele>
        <time>2019-09-04T07:25:34Z</time>
      </trkpt>
      <trkpt lat="40.0543620" lon="0.0735920">
        <ele>6.6</ele>
        <time>2019-09-04T07:25:39Z</time>
      </trkpt>
      <trkpt lat="40.0546060" lon="0.0733580">
        <ele>7.4</ele>
        <time>2019-09-04T07:25:44Z</time>
      </trkpt>
      <trkpt lat="40.0546880" lon="0.0732800">
        <ele>7.5</ele>
        <time>2019-09-04T07:25:46Z</time>
      </trkpt>
      <trkpt lat="40.0547990" lon="0.0731620">
        <ele>7.6</ele>
        <time>2019-09-04T07:25:49Z</time>
      </trkpt>
      <trkpt lat="40.0548330" lon="0.0731320">
        <ele>7.6</ele>
        <time>2019-09-04T07:25:50Z</time>
      </trkpt>
      <trkpt lat="40.0549270" lon="0.0730470">
        <ele>7.2</ele>
        <time>2019-09-04T07:25:53Z</time>
      </trkpt>
      <trkpt lat="40.0549500" lon="0.0730060">
        <ele>7.1</ele>
        <time>2019-09-04T07:25:56Z</time>
      </trkpt>
      <trkpt lat="40.0549510" lon="0.0730060">
        <ele>7.1</ele>
        <time>2019-09-04T07:25:59Z</time>
      </trkpt>
      <trkpt lat="40.0549510" lon="0.0730060">
        <ele>7.1</ele>
        <time>2019-09-04T07:26:05Z</time>
      </trkpt>
      <trkpt lat="40.0549580" lon="0.0729970">
        <ele>7.1</ele>
        <time>2019-09-04T07:26:08Z</time>
      </trkpt>
      <trkpt lat="40.0550470" lon="0.0729330">
        <ele>6.8</ele>
        <time>2019-09-04T07:26:12Z</time>
      </trkpt>
      <trkpt lat="40.0551780" lon="0.0727880">
        <ele>6.5</ele>
        <time>2019-09-04T07:26:16Z</time>
      </trkpt>
      <trkpt lat="40.0552240" lon="0.0727600">
        <ele>6.7</ele>
        <time>2019-09-04T07:26:17Z</time>
      </trkpt>
      <trkpt lat="40.0553140" lon="0.0726720">
        <ele>6.9</ele>
        <time>2019-09-04T07:26:19Z</time>
      </trkpt>
      <trkpt lat="40.0554570" lon="0.0725260">
        <ele>7.1</ele>
        <time>2019-09-04T07:26:22Z</time>
      </trkpt>
      <trkpt lat="40.0555030" lon="0.0724780">
        <ele>7.1</ele>
        <time>2019-09-04T07:26:23Z</time>
      </trkpt>
      <trkpt lat="40.0558370" lon="0.0721340">
        <ele>7.4</ele>
        <time>2019-09-04T07:26:30Z</time>
      </trkpt>
      <trkpt lat="40.0560210" lon="0.0719290">
        <ele>7.6</ele>
        <time>2019-09-04T07:26:34Z</time>
      </trkpt>
      <trkpt lat="40.0561230" lon="0.0718340">
        <ele>7.7</ele>
        <time>2019-09-04T07:26:36Z</time>
      </trkpt>
      <trkpt lat="40.0563590" lon="0.0715910">
        <ele>7.8</ele>
        <time>2019-09-04T07:26:41Z</time>
      </trkpt>
      <trkpt lat="40.0564040" lon="0.0715520">
        <ele>7.9</ele>
        <time>2019-09-04T07:26:42Z</time>
      </trkpt>
      <trkpt lat="40.0564880" lon="0.0714630">
        <ele>7.9</ele>
        <time>2019-09-04T07:26:44Z</time>
      </trkpt>
      <trkpt lat="40.0565250" lon="0.0714200">
        <ele>7.9</ele>
        <time>2019-09-04T07:26:45Z</time>
      </trkpt>
      <trkpt lat="40.0566630" lon="0.0712410">
        <ele>8.1</ele>
        <time>2019-09-04T07:26:49Z</time>
      </trkpt>
      <trkpt lat="40.0566890" lon="0.0711960">
        <ele>8.2</ele>
        <time>2019-09-04T07:26:50Z</time>
      </trkpt>
      <trkpt lat="40.0567740" lon="0.0710090">
        <ele>8.3</ele>
        <time>2019-09-04T07:26:54Z</time>
      </trkpt>
      <trkpt lat="40.0567810" lon="0.0709550">
        <ele>8.2</ele>
        <time>2019-09-04T07:26:55Z</time>
      </trkpt>
      <trkpt lat="40.0567880" lon="0.0708940">
        <ele>8.2</ele>
        <time>2019-09-04T07:26:56Z</time>
      </trkpt>
      <trkpt lat="40.0567700" lon="0.0706730">
        <ele>8.2</ele>
        <time>2019-09-04T07:26:59Z</time>
      </trkpt>
      <trkpt lat="40.0567440" lon="0.0704330">
        <ele>8.1</ele>
        <time>2019-09-04T07:27:02Z</time>
      </trkpt>
      <trkpt lat="40.0567300" lon="0.0702860">
        <ele>8.1</ele>
        <time>2019-09-04T07:27:04Z</time>
      </trkpt>
      <trkpt lat="40.0567130" lon="0.0701700">
        <ele>8.2</ele>
        <time>2019-09-04T07:27:06Z</time>
      </trkpt>
      <trkpt lat="40.0566950" lon="0.0700330">
        <ele>8.3</ele>
        <time>2019-09-04T07:27:08Z</time>
      </trkpt>
      <trkpt lat="40.0566670" lon="0.0696480">
        <ele>9.4</ele>
        <time>2019-09-04T07:27:13Z</time>
      </trkpt>
      <trkpt lat="40.0566490" lon="0.0694900">
        <ele>9.7</ele>
        <time>2019-09-04T07:27:15Z</time>
      </trkpt>
      <trkpt lat="40.0566230" lon="0.0691960">
        <ele>10.0</ele>
        <time>2019-09-04T07:27:19Z</time>
      </trkpt>
      <trkpt lat="40.0566230" lon="0.0691310">
        <ele>10.1</ele>
        <time>2019-09-04T07:27:20Z</time>
      </trkpt>
      <trkpt lat="40.0566150" lon="0.0690070">
        <ele>10.4</ele>
        <time>2019-09-04T07:27:22Z</time>
      </trkpt>
      <trkpt lat="40.0566200" lon="0.0689120">
        <ele>10.6</ele>
        <time>2019-09-04T07:27:24Z</time>
      </trkpt>
      <trkpt lat="40.0566210" lon="0.0688690">
        <ele>10.7</ele>
        <time>2019-09-04T07:27:25Z</time>
      </trkpt>
      <trkpt lat="40.0566230" lon="0.0687730">
        <ele>11.0</ele>
        <time>2019-09-04T07:27:28Z</time>
      </trkpt>
      <trkpt lat="40.0566140" lon="0.0687550">
        <ele>11.3</ele>
        <time>2019-09-04T07:27:29Z</time>
      </trkpt>
      <trkpt lat="40.0565750" lon="0.0686690">
        <ele>11.5</ele>
        <time>2019-09-04T07:27:31Z</time>
      </trkpt>
      <trkpt lat="40.0565700" lon="0.0686030">
        <ele>11.6</ele>
        <time>2019-09-04T07:27:32Z</time>
      </trkpt>
      <trkpt lat="40.0565480" lon="0.0683870">
        <ele>12.2</ele>
        <time>2019-09-04T07:27:35Z</time>
      </trkpt>
      <trkpt lat="40.0565360" lon="0.0682480">
        <ele>12.5</ele>
        <time>2019-09-04T07:27:37Z</time>
      </trkpt>
      <trkpt lat="40.0565150" lon="0.0681230">
        <ele>12.7</ele>
        <time>2019-09-04T07:27:39Z</time>
      </trkpt>
      <trkpt lat="40.0565080" lon="0.0680690">
        <ele>12.7</ele>
        <time>2019-09-04T07:27:40Z</time>
      </trkpt>
      <trkpt lat="40.0565090" lon="0.0679550">
        <ele>12.9</ele>
        <time>2019-09-04T07:27:42Z</time>
      </trkpt>
      <trkpt lat="40.0565180" lon="0.0678970">
        <ele>12.9</ele>
        <time>2019-09-04T07:27:43Z</time>
      </trkpt>
      <trkpt lat="40.0565220" lon="0.0678360">
        <ele>13.0</ele>
        <time>2019-09-04T07:27:44Z</time>
      </trkpt>
      <trkpt lat="40.0564920" lon="0.0675980">
        <ele>13.3</ele>
        <time>2019-09-04T07:27:48Z</time>
      </trkpt>
      <trkpt lat="40.0564620" lon="0.0674900">
        <ele>13.4</ele>
        <time>2019-09-04T07:27:50Z</time>
      </trkpt>
      <trkpt lat="40.0564560" lon="0.0674350">
        <ele>13.5</ele>
        <time>2019-09-04T07:27:51Z</time>
      </trkpt>
      <trkpt lat="40.0564620" lon="0.0673160">
        <ele>13.7</ele>
        <time>2019-09-04T07:27:53Z</time>
      </trkpt>
      <trkpt lat="40.0564610" lon="0.0671790">
        <ele>14.1</ele>
        <time>2019-09-04T07:27:55Z</time>
      </trkpt>
      <trkpt lat="40.0564500" lon="0.0670450">
        <ele>14.6</ele>
        <time>2019-09-04T07:27:57Z</time>
      </trkpt>
      <trkpt lat="40.0564340" lon="0.0668400">
        <ele>15.5</ele>
        <time>2019-09-04T07:28:00Z</time>
      </trkpt>
      <trkpt lat="40.0564080" lon="0.0666430">
        <ele>16.3</ele>
        <time>2019-09-04T07:28:03Z</time>
      </trkpt>
      <trkpt lat="40.0564100" lon="0.0664560">
        <ele>17.3</ele>
        <time>2019-09-04T07:28:06Z</time>
      </trkpt>
      <trkpt lat="40.0564060" lon="0.0663260">
        <ele>18.0</ele>
        <time>2019-09-04T07:28:08Z</time>
      </trkpt>
      <trkpt lat="40.0563910" lon="0.0659310">
        <ele>20.0</ele>
        <time>2019-09-04T07:28:14Z</time>
      </trkpt>
      <trkpt lat="40.0563620" lon="0.0657570">
        <ele>20.7</ele>
        <time>2019-09-04T07:28:17Z</time>
      </trkpt>
      <trkpt lat="40.0563400" lon="0.0657060">
        <ele>20.7</ele>
        <time>2019-09-04T07:28:18Z</time>
      </trkpt>
      <trkpt lat="40.0563020" lon="0.0656450">
        <ele>20.9</ele>
        <time>2019-09-04T07:28:19Z</time>
      </trkpt>
      <trkpt lat="40.0561190" lon="0.0653820">
        <ele>20.4</ele>
        <time>2019-09-04T07:28:23Z</time>
      </trkpt>
      <trkpt lat="40.0558050" lon="0.0649640">
        <ele>20.1</ele>
        <time>2019-09-04T07:28:30Z</time>
      </trkpt>
      <trkpt lat="40.0556000" lon="0.0646000">
        <ele>20.1</ele>
        <time>2019-09-04T07:28:36Z</time>
      </trkpt>
      <trkpt lat="40.0555100" lon="0.0644120">
        <ele>19.9</ele>
        <time>2019-09-04T07:28:39Z</time>
      </trkpt>
      <trkpt lat="40.0554520" lon="0.0643050">
        <ele>20.0</ele>
        <time>2019-09-04T07:28:41Z</time>
      </trkpt>
      <trkpt lat="40.0552510" lon="0.0639650">
        <ele>20.5</ele>
        <time>2019-09-04T07:28:47Z</time>
      </trkpt>
      <trkpt lat="40.0551880" lon="0.0638630">
        <ele>20.6</ele>
        <time>2019-09-04T07:28:49Z</time>
      </trkpt>
      <trkpt lat="40.0551210" lon="0.0637660">
        <ele>20.8</ele>
        <time>2019-09-04T07:28:51Z</time>
      </trkpt>
      <trkpt lat="40.0550910" lon="0.0637080">
        <ele>20.9</ele>
        <time>2019-09-04T07:28:52Z</time>
      </trkpt>
      <trkpt lat="40.0548980" lon="0.0633330">
        <ele>21.7</ele>
        <time>2019-09-04T07:28:58Z</time>
      </trkpt>
      <trkpt lat="40.0548650" lon="0.0632710">
        <ele>21.8</ele>
        <time>2019-09-04T07:28:59Z</time>
      </trkpt>
      <trkpt lat="40.0546900" lon="0.0629820">
        <ele>21.9</ele>
        <time>2019-09-04T07:29:04Z</time>
      </trkpt>
      <trkpt lat="40.0544950" lon="0.0626260">
        <ele>21.9</ele>
        <time>2019-09-04T07:29:10Z</time>
      </trkpt>
      <trkpt lat="40.0542920" lon="0.0622930">
        <ele>22.4</ele>
        <time>2019-09-04T07:29:16Z</time>
      </trkpt>
      <trkpt lat="40.0540730" lon="0.0619430">
        <ele>23.1</ele>
        <time>2019-09-04T07:29:22Z</time>
      </trkpt>
      <trkpt lat="40.0538160" lon="0.0614940">
        <ele>23.2</ele>
        <time>2019-09-04T07:29:29Z</time>
      </trkpt>
      <trkpt lat="40.0537780" lon="0.0614300">
        <ele>23.2</ele>
        <time>2019-09-04T07:29:30Z</time>
      </trkpt>
      <trkpt lat="40.0535960" lon="0.0611010">
        <ele>23.7</ele>
        <time>2019-09-04T07:29:35Z</time>
      </trkpt>
      <trkpt lat="40.0532610" lon="0.0605730">
        <ele>26.7</ele>
        <time>2019-09-04T07:29:43Z</time>
      </trkpt>
      <trkpt lat="40.0530380" lon="0.0601960">
        <ele>27.9</ele>
        <time>2019-09-04T07:29:49Z</time>
      </trkpt>
      <trkpt lat="40.0529710" lon="0.0600880">
        <ele>28.3</ele>
        <time>2019-09-04T07:29:51Z</time>
      </trkpt>
      <trkpt lat="40.0528190" lon="0.0598240">
        <ele>28.8</ele>
        <time>2019-09-04T07:29:56Z</time>
      </trkpt>
      <trkpt lat="40.0527850" lon="0.0597630">
        <ele>28.8</ele>
        <time>2019-09-04T07:29:57Z</time>
      </trkpt>
      <trkpt lat="40.0526640" lon="0.0595270">
        <ele>28.7</ele>
        <time>2019-09-04T07:30:01Z</time>
      </trkpt>
      <trkpt lat="40.0525990" lon="0.0594190">
        <ele>28.7</ele>
        <time>2019-09-04T07:30:03Z</time>
      </trkpt>
      <trkpt lat="40.0525290" lon="0.0593980">
        <ele>28.7</ele>
        <time>2019-09-04T07:30:05Z</time>
      </trkpt>
      <trkpt lat="40.0525020" lon="0.0594270">
        <ele>28.7</ele>
        <time>2019-09-04T07:30:06Z</time>
      </trkpt>
      <trkpt lat="40.0524740" lon="0.0594610">
        <ele>28.7</ele>
        <time>2019-09-04T07:30:07Z</time>
      </trkpt>
      <trkpt lat="40.0528730" lon="0.0599290">
        <ele>28.8</ele>
        <time>2019-09-04T07:41:35Z</time>
      </trkpt>
      <trkpt lat="40.0528810" lon="0.0599400">
        <ele>28.8</ele>
        <time>2019-09-04T07:41:36Z</time>
      </trkpt>
      <trkpt lat="40.0528870" lon="0.0599490">
        <ele>28.7</ele>
        <time>2019-09-04T07:41:37Z</time>
      </trkpt>
      <trkpt lat="40.0530130" lon="0.0599750">
        <ele>28.6</ele>
        <time>2019-09-04T07:41:59Z</time>
      </trkpt>
      <trkpt lat="40.0530230" lon="0.0599910">
        <ele>28.6</ele>
        <time>2019-09-04T07:42:03Z</time>
      </trkpt>
      <trkpt lat="40.0530340" lon="0.0600020">
        <ele>28.6</ele>
        <time>2019-09-04T07:42:04Z</time>
      </trkpt>
      <trkpt lat="40.0530550" lon="0.0599810">
        <ele>28.6</ele>
        <time>2019-09-04T07:42:06Z</time>
      </trkpt>
      <trkpt lat="40.0530740" lon="0.0599650">
        <ele>28.5</ele>
        <time>2019-09-04T07:42:07Z</time>
      </trkpt>
      <trkpt lat="40.0531140" lon="0.0599320">
        <ele>28.5</ele>
        <time>2019-09-04T07:42:08Z</time>
      </trkpt>
      <trkpt lat="40.0531570" lon="0.0598950">
        <ele>28.4</ele>
        <time>2019-09-04T07:42:09Z</time>
      </trkpt>
      <trkpt lat="40.0532350" lon="0.0598100">
        <ele>28.3</ele>
        <time>2019-09-04T07:42:11Z</time>
      </trkpt>
      <trkpt lat="40.0532790" lon="0.0597760">
        <ele>28.2</ele>
        <time>2019-09-04T07:42:12Z</time>
      </trkpt>
      <trkpt lat="40.0533710" lon="0.0597080">
        <ele>28.2</ele>
        <time>2019-09-04T07:42:14Z</time>
      </trkpt>
      <trkpt lat="40.0534110" lon="0.0596730">
        <ele>28.2</ele>
        <time>2019-09-04T07:42:15Z</time>
      </trkpt>
      <trkpt lat="40.0534440" lon="0.0596260">
        <ele>28.2</ele>
        <time>2019-09-04T07:42:16Z</time>
      </trkpt>
      <trkpt lat="40.0535160" lon="0.0595420">
        <ele>28.3</ele>
        <time>2019-09-04T07:42:18Z</time>
      </trkpt>
      <trkpt lat="40.0535420" lon="0.0594910">
        <ele>28.4</ele>
        <time>2019-09-04T07:42:19Z</time>
      </trkpt>
      <trkpt lat="40.0536250" lon="0.0593340">
        <ele>28.7</ele>
        <time>2019-09-04T07:42:22Z</time>
      </trkpt>
      <trkpt lat="40.0536630" lon="0.0592930">
        <ele>28.8</ele>
        <time>2019-09-04T07:42:23Z</time>
      </trkpt>
      <trkpt lat="40.0537310" lon="0.0592050">
        <ele>29.1</ele>
        <time>2019-09-04T07:42:25Z</time>
      </trkpt>
      <trkpt lat="40.0537640" lon="0.0591610">
        <ele>29.0</ele>
        <time>2019-09-04T07:42:26Z</time>
      </trkpt>
      <trkpt lat="40.0538980" lon="0.0590550">
        <ele>28.8</ele>
        <time>2019-09-04T07:42:29Z</time>
      </trkpt>
      <trkpt lat="40.0540150" lon="0.0589320">
        <ele>28.6</ele>
        <time>2019-09-04T07:42:32Z</time>
      </trkpt>
      <trkpt lat="40.0540790" lon="0.0588220">
        <ele>28.4</ele>
        <time>2019-09-04T07:42:34Z</time>
      </trkpt>
      <trkpt lat="40.0541970" lon="0.0585050">
        <ele>28.0</ele>
        <time>2019-09-04T07:42:38Z</time>
      </trkpt>
      <trkpt lat="40.0543640" lon="0.0580340">
        <ele>28.7</ele>
        <time>2019-09-04T07:42:43Z</time>
      </trkpt>
      <trkpt lat="40.0544090" lon="0.0578260">
        <ele>29.3</ele>
        <time>2019-09-04T07:42:46Z</time>
      </trkpt>
      <trkpt lat="40.0544150" lon="0.0577610">
        <ele>29.5</ele>
        <time>2019-09-04T07:42:47Z</time>
      </trkpt>
      <trkpt lat="40.0544110" lon="0.0577000">
        <ele>29.6</ele>
        <time>2019-09-04T07:42:48Z</time>
      </trkpt>
      <trkpt lat="40.0544060" lon="0.0575850">
        <ele>29.9</ele>
        <time>2019-09-04T07:42:50Z</time>
      </trkpt>
      <trkpt lat="40.0544130" lon="0.0575240">
        <ele>30.0</ele>
        <time>2019-09-04T07:42:51Z</time>
      </trkpt>
      <trkpt lat="40.0544320" lon="0.0574030">
        <ele>30.2</ele>
        <time>2019-09-04T07:42:53Z</time>
      </trkpt>
      <trkpt lat="40.0544330" lon="0.0573340">
        <ele>30.3</ele>
        <time>2019-09-04T07:42:54Z</time>
      </trkpt>
      <trkpt lat="40.0544390" lon="0.0572740">
        <ele>30.3</ele>
        <time>2019-09-04T07:42:55Z</time>
      </trkpt>
      <trkpt lat="40.0544550" lon="0.0572240">
        <ele>30.4</ele>
        <time>2019-09-04T07:42:56Z</time>
      </trkpt>
      <trkpt lat="40.0544770" lon="0.0571020">
        <ele>30.5</ele>
        <time>2019-09-04T07:42:58Z</time>
      </trkpt>
      <trkpt lat="40.0544850" lon="0.0570420">
        <ele>30.6</ele>
        <time>2019-09-04T07:42:59Z</time>
      </trkpt>
      <trkpt lat="40.0545000" lon="0.0569190">
        <ele>30.8</ele>
        <time>2019-09-04T07:43:01Z</time>
      </trkpt>
      <trkpt lat="40.0545040" lon="0.0568590">
        <ele>30.8</ele>
        <time>2019-09-04T07:43:02Z</time>
      </trkpt>
      <trkpt lat="40.0545080" lon="0.0566060">
        <ele>31.3</ele>
        <time>2019-09-04T07:43:06Z</time>
      </trkpt>
      <trkpt lat="40.0545090" lon="0.0562860">
        <ele>31.1</ele>
        <time>2019-09-04T07:43:11Z</time>
      </trkpt>
      <trkpt lat="40.0545030" lon="0.0562200">
        <ele>31.0</ele>
        <time>2019-09-04T07:43:12Z</time>
      </trkpt>
      <trkpt lat="40.0544990" lon="0.0561480">
        <ele>30.9</ele>
        <time>2019-09-04T07:43:13Z</time>
      </trkpt>
      <trkpt lat="40.0545050" lon="0.0560170">
        <ele>31.0</ele>
        <time>2019-09-04T07:43:15Z</time>
      </trkpt>
      <trkpt lat="40.0545120" lon="0.0558910">
        <ele>31.2</ele>
        <time>2019-09-04T07:43:17Z</time>
      </trkpt>
      <trkpt lat="40.0545120" lon="0.0556280">
        <ele>32.0</ele>
        <time>2019-09-04T07:43:21Z</time>
      </trkpt>
      <trkpt lat="40.0545120" lon="0.0555000">
        <ele>32.4</ele>
        <time>2019-09-04T07:43:23Z</time>
      </trkpt>
      <trkpt lat="40.0545120" lon="0.0553060">
        <ele>32.7</ele>
        <time>2019-09-04T07:43:26Z</time>
      </trkpt>
      <trkpt lat="40.0545110" lon="0.0552400">
        <ele>32.8</ele>
        <time>2019-09-04T07:43:27Z</time>
      </trkpt>
      <trkpt lat="40.0545070" lon="0.0551070">
        <ele>32.9</ele>
        <time>2019-09-04T07:43:29Z</time>
      </trkpt>
      <trkpt lat="40.0545200" lon="0.0549890">
        <ele>33.1</ele>
        <time>2019-09-04T07:43:31Z</time>
      </trkpt>
      <trkpt lat="40.0545130" lon="0.0549200">
        <ele>33.3</ele>
        <time>2019-09-04T07:43:32Z</time>
      </trkpt>
      <trkpt lat="40.0545010" lon="0.0548450">
        <ele>33.4</ele>
        <time>2019-09-04T07:43:33Z</time>
      </trkpt>
      <trkpt lat="40.0545030" lon="0.0547060">
        <ele>33.7</ele>
        <time>2019-09-04T07:43:35Z</time>
      </trkpt>
      <trkpt lat="40.0545040" lon="0.0546430">
        <ele>33.8</ele>
        <time>2019-09-04T07:43:36Z</time>
      </trkpt>
      <trkpt lat="40.0545090" lon="0.0545100">
        <ele>34.0</ele>
        <time>2019-09-04T07:43:38Z</time>
      </trkpt>
      <trkpt lat="40.0545220" lon="0.0543020">
        <ele>34.4</ele>
        <time>2019-09-04T07:43:41Z</time>
      </trkpt>
      <trkpt lat="40.0545290" lon="0.0538310">
        <ele>35.6</ele>
        <time>2019-09-04T07:43:48Z</time>
      </trkpt>
      <trkpt lat="40.0545430" lon="0.0535890">
        <ele>36.6</ele>
        <time>2019-09-04T07:43:52Z</time>
      </trkpt>
      <trkpt lat="40.0545460" lon="0.0534810">
        <ele>37.0</ele>
        <time>2019-09-04T07:43:54Z</time>
      </trkpt>
      <trkpt lat="40.0545470" lon="0.0533180">
        <ele>37.5</ele>
        <time>2019-09-04T07:43:57Z</time>
      </trkpt>
      <trkpt lat="40.0545470" lon="0.0532200">
        <ele>37.8</ele>
        <time>2019-09-04T07:43:59Z</time>
      </trkpt>
      <trkpt lat="40.0545380" lon="0.0529270">
        <ele>38.2</ele>
        <time>2019-09-04T07:44:06Z</time>
      </trkpt>
      <trkpt lat="40.0545450" lon="0.0526290">
        <ele>38.5</ele>
        <time>2019-09-04T07:44:13Z</time>
      </trkpt>
      <trkpt lat="40.0545500" lon="0.0523630">
        <ele>39.9</ele>
        <time>2019-09-04T07:44:19Z</time>
      </trkpt>
      <trkpt lat="40.0545620" lon="0.0520240">
        <ele>40.8</ele>
        <time>2019-09-04T07:44:26Z</time>
      </trkpt>
      <trkpt lat="40.0545810" lon="0.0515900">
        <ele>42.5</ele>
        <time>2019-09-04T07:44:33Z</time>
      </trkpt>
      <trkpt lat="40.0545850" lon="0.0513710">
        <ele>43.3</ele>
        <time>2019-09-04T07:44:36Z</time>
      </trkpt>
      <trkpt lat="40.0546050" lon="0.0510580">
        <ele>44.9</ele>
        <time>2019-09-04T07:44:40Z</time>
      </trkpt>
      <trkpt lat="40.0546500" lon="0.0509150">
        <ele>46.1</ele>
        <time>2019-09-04T07:44:42Z</time>
      </trkpt>
      <trkpt lat="40.0546670" lon="0.0508400">
        <ele>46.7</ele>
        <time>2019-09-04T07:44:43Z</time>
      </trkpt>
      <trkpt lat="40.0546710" lon="0.0507610">
        <ele>46.5</ele>
        <time>2019-09-04T07:44:44Z</time>
      </trkpt>
      <trkpt lat="40.0546560" lon="0.0506180">
        <ele>47.0</ele>
        <time>2019-09-04T07:44:46Z</time>
      </trkpt>
      <trkpt lat="40.0546660" lon="0.0504900">
        <ele>47.3</ele>
        <time>2019-09-04T07:44:48Z</time>
      </trkpt>
      <trkpt lat="40.0546730" lon="0.0504270">
        <ele>47.5</ele>
        <time>2019-09-04T07:44:49Z</time>
      </trkpt>
      <trkpt lat="40.0547180" lon="0.0498570">
        <ele>49.6</ele>
        <time>2019-09-04T07:44:58Z</time>
      </trkpt>
      <trkpt lat="40.0547200" lon="0.0497920">
        <ele>49.9</ele>
        <time>2019-09-04T07:44:59Z</time>
      </trkpt>
      <trkpt lat="40.0547270" lon="0.0495500">
        <ele>50.8</ele>
        <time>2019-09-04T07:45:03Z</time>
      </trkpt>
      <trkpt lat="40.0547280" lon="0.0494900">
        <ele>51.1</ele>
        <time>2019-09-04T07:45:04Z</time>
      </trkpt>
      <trkpt lat="40.0547340" lon="0.0493650">
        <ele>51.6</ele>
        <time>2019-09-04T07:45:06Z</time>
      </trkpt>
      <trkpt lat="40.0547360" lon="0.0492400">
        <ele>52.4</ele>
        <time>2019-09-04T07:45:08Z</time>
      </trkpt>
      <trkpt lat="40.0547330" lon="0.0491800">
        <ele>52.7</ele>
        <time>2019-09-04T07:45:09Z</time>
      </trkpt>
      <trkpt lat="40.0547340" lon="0.0490570">
        <ele>53.4</ele>
        <time>2019-09-04T07:45:11Z</time>
      </trkpt>
      <trkpt lat="40.0547510" lon="0.0488010">
        <ele>54.9</ele>
        <time>2019-09-04T07:45:15Z</time>
      </trkpt>
      <trkpt lat="40.0547570" lon="0.0486680">
        <ele>56.0</ele>
        <time>2019-09-04T07:45:17Z</time>
      </trkpt>
      <trkpt lat="40.0547620" lon="0.0485270">
        <ele>57.2</ele>
        <time>2019-09-04T07:45:19Z</time>
      </trkpt>
      <trkpt lat="40.0547670" lon="0.0483810">
        <ele>58.4</ele>
        <time>2019-09-04T07:45:21Z</time>
      </trkpt>
      <trkpt lat="40.0547770" lon="0.0481650">
        <ele>60.2</ele>
        <time>2019-09-04T07:45:24Z</time>
      </trkpt>
      <trkpt lat="40.0547800" lon="0.0480930">
        <ele>60.6</ele>
        <time>2019-09-04T07:45:25Z</time>
      </trkpt>
      <trkpt lat="40.0547950" lon="0.0478220">
        <ele>61.9</ele>
        <time>2019-09-04T07:45:29Z</time>
      </trkpt>
      <trkpt lat="40.0548160" lon="0.0472890">
        <ele>64.3</ele>
        <time>2019-09-04T07:45:37Z</time>
      </trkpt>
      <trkpt lat="40.0548300" lon="0.0472250">
        <ele>64.5</ele>
        <time>2019-09-04T07:45:38Z</time>
      </trkpt>
      <trkpt lat="40.0548640" lon="0.0471110">
        <ele>65.0</ele>
        <time>2019-09-04T07:45:40Z</time>
      </trkpt>
      <trkpt lat="40.0548850" lon="0.0470550">
        <ele>65.2</ele>
        <time>2019-09-04T07:45:41Z</time>
      </trkpt>
      <trkpt lat="40.0550320" lon="0.0467630">
        <ele>66.8</ele>
        <time>2019-09-04T07:45:47Z</time>
      </trkpt>
      <trkpt lat="40.0552170" lon="0.0464440">
        <ele>68.6</ele>
        <time>2019-09-04T07:45:54Z</time>
      </trkpt>
      <trkpt lat="40.0554550" lon="0.0460350">
        <ele>70.1</ele>
        <time>2019-09-04T07:46:02Z</time>
      </trkpt>
      <trkpt lat="40.0555860" lon="0.0458320">
        <ele>70.6</ele>
        <time>2019-09-04T07:46:06Z</time>
      </trkpt>
      <trkpt lat="40.0556660" lon="0.0457550">
        <ele>71.0</ele>
        <time>2019-09-04T07:46:08Z</time>
      </trkpt>
      <trkpt lat="40.0559190" lon="0.0456000">
        <ele>72.3</ele>
        <time>2019-09-04T07:46:14Z</time>
      </trkpt>
      <trkpt lat="40.0562790" lon="0.0454110">
        <ele>73.9</ele>
        <time>2019-09-04T07:46:22Z</time>
      </trkpt>
      <trkpt lat="40.0564170" lon="0.0453370">
        <ele>74.3</ele>
        <time>2019-09-04T07:46:25Z</time>
      </trkpt>
      <trkpt lat="40.0565150" lon="0.0452950">
        <ele>74.6</ele>
        <time>2019-09-04T07:46:27Z</time>
      </trkpt>
      <trkpt lat="40.0565650" lon="0.0452760">
        <ele>74.8</ele>
        <time>2019-09-04T07:46:28Z</time>
      </trkpt>
      <trkpt lat="40.0568250" lon="0.0452150">
        <ele>75.6</ele>
        <time>2019-09-04T07:46:33Z</time>
      </trkpt>
      <trkpt lat="40.0569860" lon="0.0452190">
        <ele>76.0</ele>
        <time>2019-09-04T07:46:36Z</time>
      </trkpt>
      <trkpt lat="40.0570940" lon="0.0452410">
        <ele>76.0</ele>
        <time>2019-09-04T07:46:38Z</time>
      </trkpt>
      <trkpt lat="40.0571460" lon="0.0452560">
        <ele>76.0</ele>
        <time>2019-09-04T07:46:39Z</time>
      </trkpt>
      <trkpt lat="40.0574600" lon="0.0453890">
        <ele>75.6</ele>
        <time>2019-09-04T07:46:45Z</time>
      </trkpt>
      <trkpt lat="40.0578040" lon="0.0455640">
        <ele>75.6</ele>
        <time>2019-09-04T07:46:51Z</time>
      </trkpt>
      <trkpt lat="40.0580620" lon="0.0457220">
        <ele>76.3</ele>
        <time>2019-09-04T07:46:56Z</time>
      </trkpt>
      <trkpt lat="40.0581160" lon="0.0457520">
        <ele>76.4</ele>
        <time>2019-09-04T07:46:57Z</time>
      </trkpt>
      <trkpt lat="40.0584410" lon="0.0459570">
        <ele>77.2</ele>
        <time>2019-09-04T07:47:04Z</time>
      </trkpt>
      <trkpt lat="40.0585310" lon="0.0460150">
        <ele>77.5</ele>
        <time>2019-09-04T07:47:06Z</time>
      </trkpt>
      <trkpt lat="40.0586780" lon="0.0460860">
        <ele>78.0</ele>
        <time>2019-09-04T07:47:09Z</time>
      </trkpt>
      <trkpt lat="40.0587750" lon="0.0461030">
        <ele>78.4</ele>
        <time>2019-09-04T07:47:11Z</time>
      </trkpt>
      <trkpt lat="40.0589090" lon="0.0460840">
        <ele>79.1</ele>
        <time>2019-09-04T07:47:14Z</time>
      </trkpt>
      <trkpt lat="40.0591690" lon="0.0459810">
        <ele>80.4</ele>
        <time>2019-09-04T07:47:20Z</time>
      </trkpt>
      <trkpt lat="40.0594390" lon="0.0458010">
        <ele>81.8</ele>
        <time>2019-09-04T07:47:27Z</time>
      </trkpt>
      <trkpt lat="40.0595110" lon="0.0457510">
        <ele>82.2</ele>
        <time>2019-09-04T07:47:29Z</time>
      </trkpt>
      <trkpt lat="40.0597160" lon="0.0456220">
        <ele>83.8</ele>
        <time>2019-09-04T07:47:34Z</time>
      </trkpt>
      <trkpt lat="40.0598060" lon="0.0455610">
        <ele>85.0</ele>
        <time>2019-09-04T07:47:36Z</time>
      </trkpt>
      <trkpt lat="40.0601750" lon="0.0453250">
        <ele>90.3</ele>
        <time>2019-09-04T07:47:44Z</time>
      </trkpt>
      <trkpt lat="40.0604510" lon="0.0451330">
        <ele>92.5</ele>
        <time>2019-09-04T07:47:51Z</time>
      </trkpt>
      <trkpt lat="40.0607450" lon="0.0449350">
        <ele>93.5</ele>
        <time>2019-09-04T07:47:59Z</time>
      </trkpt>
      <trkpt lat="40.0610680" lon="0.0447620">
        <ele>95.0</ele>
        <time>2019-09-04T07:48:08Z</time>
      </trkpt>
      <trkpt lat="40.0613340" lon="0.0446310">
        <ele>97.4</ele>
        <time>2019-09-04T07:48:15Z</time>
      </trkpt>
      <trkpt lat="40.0613740" lon="0.0446210">
        <ele>97.8</ele>
        <time>2019-09-04T07:48:16Z</time>
      </trkpt>
      <trkpt lat="40.0616400" lon="0.0445470">
        <ele>100.7</ele>
        <time>2019-09-04T07:48:23Z</time>
      </trkpt>
      <trkpt lat="40.0618890" lon="0.0444430">
        <ele>103.4</ele>
        <time>2019-09-04T07:48:30Z</time>
      </trkpt>
      <trkpt lat="40.0621120" lon="0.0443050">
        <ele>106.1</ele>
        <time>2019-09-04T07:48:37Z</time>
      </trkpt>
      <trkpt lat="40.0622790" lon="0.0441900">
        <ele>108.0</ele>
        <time>2019-09-04T07:48:42Z</time>
      </trkpt>
      <trkpt lat="40.0623790" lon="0.0441020">
        <ele>109.2</ele>
        <time>2019-09-04T07:48:45Z</time>
      </trkpt>
      <trkpt lat="40.0625050" lon="0.0439820">
        <ele>110.8</ele>
        <time>2019-09-04T07:48:49Z</time>
      </trkpt>
      <trkpt lat="40.0626450" lon="0.0437910">
        <ele>113.5</ele>
        <time>2019-09-04T07:48:54Z</time>
      </trkpt>
      <trkpt lat="40.0627240" lon="0.0436190">
        <ele>114.5</ele>
        <time>2019-09-04T07:48:58Z</time>
      </trkpt>
      <trkpt lat="40.0627590" lon="0.0435230">
        <ele>114.9</ele>
        <time>2019-09-04T07:49:00Z</time>
      </trkpt>
      <trkpt lat="40.0628700" lon="0.0431730">
        <ele>116.3</ele>
        <time>2019-09-04T07:49:07Z</time>
      </trkpt>
      <trkpt lat="40.0629130" lon="0.0430840">
        <ele>116.7</ele>
        <time>2019-09-04T07:49:09Z</time>
      </trkpt>
      <trkpt lat="40.0629660" lon="0.0430070">
        <ele>117.1</ele>
        <time>2019-09-04T07:49:11Z</time>
      </trkpt>
      <trkpt lat="40.0629930" lon="0.0429680">
        <ele>117.3</ele>
        <time>2019-09-04T07:49:12Z</time>
      </trkpt>
      <trkpt lat="40.0630820" lon="0.0428570">
        <ele>118.0</ele>
        <time>2019-09-04T07:49:15Z</time>
      </trkpt>
      <trkpt lat="40.0631820" lon="0.0427520">
        <ele>118.6</ele>
        <time>2019-09-04T07:49:18Z</time>
      </trkpt>
      <trkpt lat="40.0633200" lon="0.0426380">
        <ele>119.3</ele>
        <time>2019-09-04T07:49:22Z</time>
      </trkpt>
      <trkpt lat="40.0634320" lon="0.0425680">
        <ele>120.2</ele>
        <time>2019-09-04T07:49:25Z</time>
      </trkpt>
      <trkpt lat="40.0636710" lon="0.0424070">
        <ele>122.0</ele>
        <time>2019-09-04T07:49:32Z</time>
      </trkpt>
      <trkpt lat="40.0638360" lon="0.0422940">
        <ele>123.0</ele>
        <time>2019-09-04T07:49:37Z</time>
      </trkpt>
      <trkpt lat="40.0640540" lon="0.0421790">
        <ele>124.9</ele>
        <time>2019-09-04T07:49:43Z</time>
      </trkpt>
      <trkpt lat="40.0642480" lon="0.0421260">
        <ele>126.5</ele>
        <time>2019-09-04T07:49:48Z</time>
      </trkpt>
      <trkpt lat="40.0644550" lon="0.0420690">
        <ele>127.9</ele>
        <time>2019-09-04T07:49:54Z</time>
      </trkpt>
      <trkpt lat="40.0646680" lon="0.0419470">
        <ele>129.5</ele>
        <time>2019-09-04T07:50:01Z</time>
      </trkpt>
      <trkpt lat="40.0649010" lon="0.0417860">
        <ele>131.4</ele>
        <time>2019-09-04T07:50:08Z</time>
      </trkpt>
      <trkpt lat="40.0650700" lon="0.0416820">
        <ele>132.8</ele>
        <time>2019-09-04T07:50:13Z</time>
      </trkpt>
      <trkpt lat="40.0652420" lon="0.0415910">
        <ele>134.3</ele>
        <time>2019-09-04T07:50:18Z</time>
      </trkpt>
      <trkpt lat="40.0654290" lon="0.0414850">
        <ele>135.5</ele>
        <time>2019-09-04T07:50:24Z</time>
      </trkpt>
      <trkpt lat="40.0656020" lon="0.0413850">
        <ele>136.7</ele>
        <time>2019-09-04T07:50:30Z</time>
      </trkpt>
      <trkpt lat="40.0657440" lon="0.0413260">
        <ele>137.6</ele>
        <time>2019-09-04T07:50:35Z</time>
      </trkpt>
      <trkpt lat="40.0658960" lon="0.0413010">
        <ele>138.7</ele>
        <time>2019-09-04T07:50:40Z</time>
      </trkpt>
      <trkpt lat="40.0660850" lon="0.0413000">
        <ele>139.9</ele>
        <time>2019-09-04T07:50:46Z</time>
      </trkpt>
      <trkpt lat="40.0661480" lon="0.0412900">
        <ele>140.3</ele>
        <time>2019-09-04T07:50:48Z</time>
      </trkpt>
      <trkpt lat="40.0662040" lon="0.0412750">
        <ele>140.6</ele>
        <time>2019-09-04T07:50:50Z</time>
      </trkpt>
      <trkpt lat="40.0663570" lon="0.0411760">
        <ele>141.7</ele>
        <time>2019-09-04T07:50:56Z</time>
      </trkpt>
      <trkpt lat="40.0665400" lon="0.0410100">
        <ele>143.1</ele>
        <time>2019-09-04T07:51:03Z</time>
      </trkpt>
      <trkpt lat="40.0667050" lon="0.0408460">
        <ele>144.7</ele>
        <time>2019-09-04T07:51:10Z</time>
      </trkpt>
      <trkpt lat="40.0669090" lon="0.0407060">
        <ele>146.5</ele>
        <time>2019-09-04T07:51:18Z</time>
      </trkpt>
      <trkpt lat="40.0670470" lon="0.0406620">
        <ele>147.7</ele>
        <time>2019-09-04T07:51:23Z</time>
      </trkpt>
      <trkpt lat="40.0672530" lon="0.0405920">
        <ele>149.5</ele>
        <time>2019-09-04T07:51:30Z</time>
      </trkpt>
      <trkpt lat="40.0675230" lon="0.0405320">
        <ele>151.9</ele>
        <time>2019-09-04T07:51:39Z</time>
      </trkpt>
      <trkpt lat="40.0677980" lon="0.0404640">
        <ele>154.3</ele>
        <time>2019-09-04T07:51:49Z</time>
      </trkpt>
      <trkpt lat="40.0680170" lon="0.0404180">
        <ele>156.2</ele>
        <time>2019-09-04T07:51:57Z</time>
      </trkpt>
      <trkpt lat="40.0682360" lon="0.0403660">
        <ele>158.2</ele>
        <time>2019-09-04T07:52:05Z</time>
      </trkpt>
      <trkpt lat="40.0683700" lon="0.0403440">
        <ele>159.6</ele>
        <time>2019-09-04T07:52:10Z</time>
      </trkpt>
      <trkpt lat="40.0685650" lon="0.0403210">
        <ele>161.7</ele>
        <time>2019-09-04T07:52:17Z</time>
      </trkpt>
      <trkpt lat="40.0687530" lon="0.0403380">
        <ele>163.8</ele>
        <time>2019-09-04T07:52:24Z</time>
      </trkpt>
      <trkpt lat="40.0689460" lon="0.0403810">
        <ele>166.2</ele>
        <time>2019-09-04T07:52:31Z</time>
      </trkpt>
      <trkpt lat="40.0691950" lon="0.0404560">
        <ele>169.8</ele>
        <time>2019-09-04T07:52:40Z</time>
      </trkpt>
      <trkpt lat="40.0694260" lon="0.0405050">
        <ele>172.9</ele>
        <time>2019-09-04T07:52:48Z</time>
      </trkpt>
      <trkpt lat="40.0696290" lon="0.0404880">
        <ele>174.9</ele>
        <time>2019-09-04T07:52:55Z</time>
      </trkpt>
      <trkpt lat="40.0698230" lon="0.0404500">
        <ele>176.7</ele>
        <time>2019-09-04T07:53:02Z</time>
      </trkpt>
      <trkpt lat="40.0700410" lon="0.0404010">
        <ele>178.8</ele>
        <time>2019-09-04T07:53:10Z</time>
      </trkpt>
      <trkpt lat="40.0702060" lon="0.0403880">
        <ele>180.1</ele>
        <time>2019-09-04T07:53:16Z</time>
      </trkpt>
      <trkpt lat="40.0702330" lon="0.0403840">
        <ele>180.4</ele>
        <time>2019-09-04T07:53:17Z</time>
      </trkpt>
      <trkpt lat="40.0704280" lon="0.0403890">
        <ele>181.8</ele>
        <time>2019-09-04T07:53:24Z</time>
      </trkpt>
      <trkpt lat="40.0706500" lon="0.0403910">
        <ele>183.2</ele>
        <time>2019-09-04T07:53:32Z</time>
      </trkpt>
      <trkpt lat="40.0708080" lon="0.0404080">
        <ele>183.8</ele>
        <time>2019-09-04T07:53:38Z</time>
      </trkpt>
      <trkpt lat="40.0710090" lon="0.0404320">
        <ele>184.9</ele>
        <time>2019-09-04T07:53:46Z</time>
      </trkpt>
      <trkpt lat="40.0710580" lon="0.0404440">
        <ele>185.2</ele>
        <time>2019-09-04T07:53:48Z</time>
      </trkpt>
      <trkpt lat="40.0711790" lon="0.0404370">
        <ele>186.1</ele>
        <time>2019-09-04T07:53:53Z</time>
      </trkpt>
      <trkpt lat="40.0713290" lon="0.0403840">
        <ele>187.3</ele>
        <time>2019-09-04T07:53:59Z</time>
      </trkpt>
      <trkpt lat="40.0715100" lon="0.0402210">
        <ele>189.3</ele>
        <time>2019-09-04T07:54:07Z</time>
      </trkpt>
      <trkpt lat="40.0716820" lon="0.0400190">
        <ele>190.9</ele>
        <time>2019-09-04T07:54:16Z</time>
      </trkpt>
      <trkpt lat="40.0718170" lon="0.0399170">
        <ele>192.0</ele>
        <time>2019-09-04T07:54:22Z</time>
      </trkpt>
      <trkpt lat="40.0720120" lon="0.0398250">
        <ele>193.5</ele>
        <time>2019-09-04T07:54:30Z</time>
      </trkpt>
      <trkpt lat="40.0722220" lon="0.0397380">
        <ele>195.1</ele>
        <time>2019-09-04T07:54:38Z</time>
      </trkpt>
      <trkpt lat="40.0724230" lon="0.0396700">
        <ele>196.7</ele>
        <time>2019-09-04T07:54:46Z</time>
      </trkpt>
      <trkpt lat="40.0725440" lon="0.0397110">
        <ele>197.8</ele>
        <time>2019-09-04T07:54:51Z</time>
      </trkpt>
      <trkpt lat="40.0726130" lon="0.0398320">
        <ele>198.6</ele>
        <time>2019-09-04T07:54:56Z</time>
      </trkpt>
      <trkpt lat="40.0725880" lon="0.0400210">
        <ele>199.8</ele>
        <time>2019-09-04T07:55:02Z</time>
      </trkpt>
      <trkpt lat="40.0724910" lon="0.0401150">
        <ele>200.9</ele>
        <time>2019-09-04T07:55:07Z</time>
      </trkpt>
      <trkpt lat="40.0723340" lon="0.0401520">
        <ele>202.0</ele>
        <time>2019-09-04T07:55:13Z</time>
      </trkpt>
      <trkpt lat="40.0721790" lon="0.0401210">
        <ele>203.1</ele>
        <time>2019-09-04T07:55:19Z</time>
      </trkpt>
      <trkpt lat="40.0720370" lon="0.0401440">
        <ele>204.2</ele>
        <time>2019-09-04T07:55:25Z</time>
      </trkpt>
      <trkpt lat="40.0719420" lon="0.0402690">
        <ele>205.6</ele>
        <time>2019-09-04T07:55:30Z</time>
      </trkpt>
      <trkpt lat="40.0719170" lon="0.0404010">
        <ele>207.1</ele>
        <time>2019-09-04T07:55:33Z</time>
      </trkpt>
      <trkpt lat="40.0719260" lon="0.0404890">
        <ele>207.8</ele>
        <time>2019-09-04T07:55:35Z</time>
      </trkpt>
      <trkpt lat="40.0720060" lon="0.0406480">
        <ele>209.0</ele>
        <time>2019-09-04T07:55:40Z</time>
      </trkpt>
      <trkpt lat="40.0721340" lon="0.0406960">
        <ele>210.0</ele>
        <time>2019-09-04T07:55:45Z</time>
      </trkpt>
      <trkpt lat="40.0722860" lon="0.0406430">
        <ele>211.0</ele>
        <time>2019-09-04T07:55:51Z</time>
      </trkpt>
      <trkpt lat="40.0724740" lon="0.0405320">
        <ele>212.0</ele>
        <time>2019-09-04T07:55:58Z</time>
      </trkpt>
      <trkpt lat="40.0725990" lon="0.0405170">
        <ele>212.5</ele>
        <time>2019-09-04T07:56:03Z</time>
      </trkpt>
      <trkpt lat="40.0727400" lon="0.0406180">
        <ele>213.2</ele>
        <time>2019-09-04T07:56:09Z</time>
      </trkpt>
      <trkpt lat="40.0727740" lon="0.0407840">
        <ele>213.7</ele>
        <time>2019-09-04T07:56:14Z</time>
      </trkpt>
      <trkpt lat="40.0727400" lon="0.0409370">
        <ele>214.1</ele>
        <time>2019-09-04T07:56:19Z</time>
      </trkpt>
      <trkpt lat="40.0726050" lon="0.0410330">
        <ele>214.8</ele>
        <time>2019-09-04T07:56:25Z</time>
      </trkpt>
      <trkpt lat="40.0724330" lon="0.0410270">
        <ele>215.6</ele>
        <time>2019-09-04T07:56:31Z</time>
      </trkpt>
      <trkpt lat="40.0722190" lon="0.0409620">
        <ele>216.8</ele>
        <time>2019-09-04T07:56:39Z</time>
      </trkpt>
      <trkpt lat="40.0719990" lon="0.0409020">
        <ele>218.5</ele>
        <time>2019-09-04T07:56:47Z</time>
      </trkpt>
      <trkpt lat="40.0718090" lon="0.0409190">
        <ele>219.5</ele>
        <time>2019-09-04T07:56:54Z</time>
      </trkpt>
      <trkpt lat="40.0716270" lon="0.0410070">
        <ele>220.5</ele>
        <time>2019-09-04T07:57:01Z</time>
      </trkpt>
      <trkpt lat="40.0714830" lon="0.0411060">
        <ele>221.4</ele>
        <time>2019-09-04T07:57:06Z</time>
      </trkpt>
      <trkpt lat="40.0713690" lon="0.0411630">
        <ele>222.2</ele>
        <time>2019-09-04T07:57:10Z</time>
      </trkpt>
      <trkpt lat="40.0712890" lon="0.0412180">
        <ele>222.9</ele>
        <time>2019-09-04T07:57:13Z</time>
      </trkpt>
      <trkpt lat="40.0712050" lon="0.0413210">
        <ele>223.6</ele>
        <time>2019-09-04T07:57:17Z</time>
      </trkpt>
      <trkpt lat="40.0711740" lon="0.0415120">
        <ele>224.4</ele>
        <time>2019-09-04T07:57:22Z</time>
      </trkpt>
      <trkpt lat="40.0712270" lon="0.0417430">
        <ele>225.5</ele>
        <time>2019-09-04T07:57:28Z</time>
      </trkpt>
      <trkpt lat="40.0713020" lon="0.0419690">
        <ele>226.4</ele>
        <time>2019-09-04T07:57:34Z</time>
      </trkpt>
      <trkpt lat="40.0713110" lon="0.0420100">
        <ele>226.6</ele>
        <time>2019-09-04T07:57:35Z</time>
      </trkpt>
      <trkpt lat="40.0713340" lon="0.0422740">
        <ele>227.7</ele>
        <time>2019-09-04T07:57:42Z</time>
      </trkpt>
      <trkpt lat="40.0713690" lon="0.0424830">
        <ele>228.6</ele>
        <time>2019-09-04T07:57:48Z</time>
      </trkpt>
      <trkpt lat="40.0714410" lon="0.0426190">
        <ele>229.3</ele>
        <time>2019-09-04T07:57:53Z</time>
      </trkpt>
      <trkpt lat="40.0716090" lon="0.0426990">
        <ele>230.3</ele>
        <time>2019-09-04T07:57:59Z</time>
      </trkpt>
      <trkpt lat="40.0717500" lon="0.0426690">
        <ele>231.4</ele>
        <time>2019-09-04T07:58:04Z</time>
      </trkpt>
      <trkpt lat="40.0718870" lon="0.0425160">
        <ele>233.1</ele>
        <time>2019-09-04T07:58:10Z</time>
      </trkpt>
      <trkpt lat="40.0719370" lon="0.0422890">
        <ele>234.8</ele>
        <time>2019-09-04T07:58:16Z</time>
      </trkpt>
      <trkpt lat="40.0719020" lon="0.0421010">
        <ele>236.3</ele>
        <time>2019-09-04T07:58:21Z</time>
      </trkpt>
      <trkpt lat="40.0718200" lon="0.0418290">
        <ele>237.8</ele>
        <time>2019-09-04T07:58:28Z</time>
      </trkpt>
      <trkpt lat="40.0718150" lon="0.0415920">
        <ele>239.3</ele>
        <time>2019-09-04T07:58:34Z</time>
      </trkpt>
      <trkpt lat="40.0719140" lon="0.0414480">
        <ele>240.7</ele>
        <time>2019-09-04T07:58:39Z</time>
      </trkpt>
      <trkpt lat="40.0720630" lon="0.0414400">
        <ele>242.0</ele>
        <time>2019-09-04T07:58:44Z</time>
      </trkpt>
      <trkpt lat="40.0721970" lon="0.0415120">
        <ele>243.2</ele>
        <time>2019-09-04T07:58:49Z</time>
      </trkpt>
      <trkpt lat="40.0723850" lon="0.0416860">
        <ele>244.8</ele>
        <time>2019-09-04T07:58:57Z</time>
      </trkpt>
      <trkpt lat="40.0725230" lon="0.0417950">
        <ele>245.8</ele>
        <time>2019-09-04T07:59:03Z</time>
      </trkpt>
      <trkpt lat="40.0727320" lon="0.0418890">
        <ele>247.2</ele>
        <time>2019-09-04T07:59:11Z</time>
      </trkpt>
      <trkpt lat="40.0728530" lon="0.0418900">
        <ele>248.1</ele>
        <time>2019-09-04T07:59:16Z</time>
      </trkpt>
      <trkpt lat="40.0729600" lon="0.0418580">
        <ele>249.0</ele>
        <time>2019-09-04T07:59:20Z</time>
      </trkpt>
      <trkpt lat="40.0730980" lon="0.0418210">
        <ele>250.3</ele>
        <time>2019-09-04T07:59:25Z</time>
      </trkpt>
      <trkpt lat="40.0733050" lon="0.0418380">
        <ele>252.3</ele>
        <time>2019-09-04T07:59:32Z</time>
      </trkpt>
      <trkpt lat="40.0734660" lon="0.0419750">
        <ele>254.1</ele>
        <time>2019-09-04T07:59:39Z</time>
      </trkpt>
      <trkpt lat="40.0735610" lon="0.0421360">
        <ele>255.6</ele>
        <time>2019-09-04T07:59:45Z</time>
      </trkpt>
      <trkpt lat="40.0737020" lon="0.0423130">
        <ele>256.8</ele>
        <time>2019-09-04T07:59:52Z</time>
      </trkpt>
      <trkpt lat="40.0738640" lon="0.0423990">
        <ele>257.8</ele>
        <time>2019-09-04T07:59:58Z</time>
      </trkpt>
      <trkpt lat="40.0740360" lon="0.0424130">
        <ele>258.7</ele>
        <time>2019-09-04T08:00:03Z</time>
      </trkpt>
      <trkpt lat="40.0742740" lon="0.0423890">
        <ele>259.3</ele>
        <time>2019-09-04T08:00:10Z</time>
      </trkpt>
      <trkpt lat="40.0745700" lon="0.0423620">
        <ele>260.1</ele>
        <time>2019-09-04T08:00:18Z</time>
      </trkpt>
      <trkpt lat="40.0748490" lon="0.0423450">
        <ele>260.9</ele>
        <time>2019-09-04T08:00:25Z</time>
      </trkpt>
      <trkpt lat="40.0750290" lon="0.0423120">
        <ele>261.5</ele>
        <time>2019-09-04T08:00:30Z</time>
      </trkpt>
      <trkpt lat="40.0752290" lon="0.0422800">
        <ele>262.5</ele>
        <time>2019-09-04T08:00:36Z</time>
      </trkpt>
      <trkpt lat="40.0753910" lon="0.0422660">
        <ele>263.8</ele>
        <time>2019-09-04T08:00:41Z</time>
      </trkpt>
      <trkpt lat="40.0755430" lon="0.0422890">
        <ele>265.4</ele>
        <time>2019-09-04T08:00:46Z</time>
      </trkpt>
      <trkpt lat="40.0756710" lon="0.0424230">
        <ele>267.2</ele>
        <time>2019-09-04T08:00:51Z</time>
      </trkpt>
      <trkpt lat="40.0756960" lon="0.0426250">
        <ele>268.3</ele>
        <time>2019-09-04T08:00:57Z</time>
      </trkpt>
      <trkpt lat="40.0756110" lon="0.0428120">
        <ele>269.3</ele>
        <time>2019-09-04T08:01:03Z</time>
      </trkpt>
      <trkpt lat="40.0755680" lon="0.0428540">
        <ele>269.5</ele>
        <time>2019-09-04T08:01:05Z</time>
      </trkpt>
      <trkpt lat="40.0754610" lon="0.0428970">
        <ele>269.9</ele>
        <time>2019-09-04T08:01:09Z</time>
      </trkpt>
      <trkpt lat="40.0752280" lon="0.0429090">
        <ele>270.8</ele>
        <time>2019-09-04T08:01:17Z</time>
      </trkpt>
      <trkpt lat="40.0751190" lon="0.0429060">
        <ele>271.4</ele>
        <time>2019-09-04T08:01:22Z</time>
      </trkpt>
      <trkpt lat="40.0749840" lon="0.0429030">
        <ele>272.3</ele>
        <time>2019-09-04T08:01:27Z</time>
      </trkpt>
      <trkpt lat="40.0747660" lon="0.0429060">
        <ele>274.0</ele>
        <time>2019-09-04T08:01:35Z</time>
      </trkpt>
      <trkpt lat="40.0745800" lon="0.0429560">
        <ele>275.2</ele>
        <time>2019-09-04T08:01:42Z</time>
      </trkpt>
      <trkpt lat="40.0744590" lon="0.0430350">
        <ele>276.0</ele>
        <time>2019-09-04T08:01:47Z</time>
      </trkpt>
      <trkpt lat="40.0744170" lon="0.0430700">
        <ele>276.2</ele>
        <time>2019-09-04T08:01:49Z</time>
      </trkpt>
      <trkpt lat="40.0743420" lon="0.0432130">
        <ele>276.9</ele>
        <time>2019-09-04T08:01:54Z</time>
      </trkpt>
      <trkpt lat="40.0743170" lon="0.0432770">
        <ele>277.2</ele>
        <time>2019-09-04T08:01:56Z</time>
      </trkpt>
      <trkpt lat="40.0742200" lon="0.0434870">
        <ele>278.1</ele>
        <time>2019-09-04T08:02:03Z</time>
      </trkpt>
      <trkpt lat="40.0741140" lon="0.0435870">
        <ele>278.7</ele>
        <time>2019-09-04T08:02:08Z</time>
      </trkpt>
      <trkpt lat="40.0739390" lon="0.0435950">
        <ele>279.7</ele>
        <time>2019-09-04T08:02:14Z</time>
      </trkpt>
      <trkpt lat="40.0737730" lon="0.0435180">
        <ele>280.9</ele>
        <time>2019-09-04T08:02:20Z</time>
      </trkpt>
      <trkpt lat="40.0736220" lon="0.0434030">
        <ele>282.6</ele>
        <time>2019-09-04T08:02:26Z</time>
      </trkpt>
      <trkpt lat="40.0734630" lon="0.0433570">
        <ele>284.3</ele>
        <time>2019-09-04T08:02:32Z</time>
      </trkpt>
      <trkpt lat="40.0732660" lon="0.0434050">
        <ele>285.9</ele>
        <time>2019-09-04T08:02:39Z</time>
      </trkpt>
      <trkpt lat="40.0731230" lon="0.0435110">
        <ele>286.8</ele>
        <time>2019-09-04T08:02:45Z</time>
      </trkpt>
      <trkpt lat="40.0729410" lon="0.0436910">
        <ele>288.0</ele>
        <time>2019-09-04T08:02:53Z</time>
      </trkpt>
      <trkpt lat="40.0727190" lon="0.0438530">
        <ele>288.8</ele>
        <time>2019-09-04T08:03:02Z</time>
      </trkpt>
      <trkpt lat="40.0725020" lon="0.0439310">
        <ele>289.5</ele>
        <time>2019-09-04T08:03:10Z</time>
      </trkpt>
      <trkpt lat="40.0723560" lon="0.0439600">
        <ele>289.9</ele>
        <time>2019-09-04T08:03:15Z</time>
      </trkpt>
      <trkpt lat="40.0722690" lon="0.0439650">
        <ele>290.0</ele>
        <time>2019-09-04T08:03:18Z</time>
      </trkpt>
      <trkpt lat="40.0720370" lon="0.0439850">
        <ele>290.5</ele>
        <time>2019-09-04T08:03:26Z</time>
      </trkpt>
      <trkpt lat="40.0718440" lon="0.0440600">
        <ele>291.1</ele>
        <time>2019-09-04T08:03:33Z</time>
      </trkpt>
      <trkpt lat="40.0716610" lon="0.0441310">
        <ele>291.6</ele>
        <time>2019-09-04T08:03:40Z</time>
      </trkpt>
      <trkpt lat="40.0714920" lon="0.0442360">
        <ele>292.1</ele>
        <time>2019-09-04T08:03:47Z</time>
      </trkpt>
      <trkpt lat="40.0714040" lon="0.0444090">
        <ele>292.9</ele>
        <time>2019-09-04T08:03:53Z</time>
      </trkpt>
      <trkpt lat="40.0714230" lon="0.0445900">
        <ele>293.9</ele>
        <time>2019-09-04T08:03:58Z</time>
      </trkpt>
      <trkpt lat="40.0714390" lon="0.0446230">
        <ele>294.3</ele>
        <time>2019-09-04T08:03:59Z</time>
      </trkpt>
      <trkpt lat="40.0715390" lon="0.0447150">
        <ele>295.5</ele>
        <time>2019-09-04T08:04:03Z</time>
      </trkpt>
      <trkpt lat="40.0716860" lon="0.0447080">
        <ele>296.9</ele>
        <time>2019-09-04T08:04:08Z</time>
      </trkpt>
      <trkpt lat="40.0718590" lon="0.0445800">
        <ele>298.6</ele>
        <time>2019-09-04T08:04:15Z</time>
      </trkpt>
      <trkpt lat="40.0720610" lon="0.0444280">
        <ele>300.5</ele>
        <time>2019-09-04T08:04:23Z</time>
      </trkpt>
      <trkpt lat="40.0722470" lon="0.0443350">
        <ele>302.0</ele>
        <time>2019-09-04T08:04:30Z</time>
      </trkpt>
      <trkpt lat="40.0724350" lon="0.0443070">
        <ele>303.3</ele>
        <time>2019-09-04T08:04:36Z</time>
      </trkpt>
      <trkpt lat="40.0725940" lon="0.0443000">
        <ele>304.6</ele>
        <time>2019-09-04T08:04:43Z</time>
      </trkpt>
      <trkpt lat="40.0728490" lon="0.0442770">
        <ele>307.1</ele>
        <time>2019-09-04T08:04:53Z</time>
      </trkpt>
      <trkpt lat="40.0730840" lon="0.0442820">
        <ele>309.9</ele>
        <time>2019-09-04T08:05:02Z</time>
      </trkpt>
      <trkpt lat="40.0732880" lon="0.0443270">
        <ele>312.3</ele>
        <time>2019-09-04T08:05:10Z</time>
      </trkpt>
      <trkpt lat="40.0734880" lon="0.0444440">
        <ele>314.3</ele>
        <time>2019-09-04T08:05:17Z</time>
      </trkpt>
      <trkpt lat="40.0736800" lon="0.0445890">
        <ele>315.5</ele>
        <time>2019-09-04T08:05:25Z</time>
      </trkpt>
      <trkpt lat="40.0738990" lon="0.0447510">
        <ele>316.2</ele>
        <time>2019-09-04T08:05:34Z</time>
      </trkpt>
      <trkpt lat="40.0741190" lon="0.0448820">
        <ele>316.9</ele>
        <time>2019-09-04T08:05:43Z</time>
      </trkpt>
      <trkpt lat="40.0742180" lon="0.0449350">
        <ele>317.3</ele>
        <time>2019-09-04T08:05:48Z</time>
      </trkpt>
      <trkpt lat="40.0743600" lon="0.0449720">
        <ele>318.1</ele>
        <time>2019-09-04T08:05:55Z</time>
      </trkpt>
      <trkpt lat="40.0745720" lon="0.0450020">
        <ele>319.8</ele>
        <time>2019-09-04T08:06:02Z</time>
      </trkpt>
      <trkpt lat="40.0747420" lon="0.0450290">
        <ele>321.5</ele>
        <time>2019-09-04T08:06:09Z</time>
      </trkpt>
      <trkpt lat="40.0749830" lon="0.0450210">
        <ele>323.9</ele>
        <time>2019-09-04T08:06:17Z</time>
      </trkpt>
      <trkpt lat="40.0751580" lon="0.0450230">
        <ele>325.2</ele>
        <time>2019-09-04T08:06:23Z</time>
      </trkpt>
      <trkpt lat="40.0752100" lon="0.0450150">
        <ele>325.6</ele>
        <time>2019-09-04T08:06:25Z</time>
      </trkpt>
      <trkpt lat="40.0753170" lon="0.0450160">
        <ele>326.4</ele>
        <time>2019-09-04T08:06:29Z</time>
      </trkpt>
      <trkpt lat="40.0754420" lon="0.0450240">
        <ele>327.3</ele>
        <time>2019-09-04T08:06:33Z</time>
      </trkpt>
      <trkpt lat="40.0756800" lon="0.0450010">
        <ele>329.0</ele>
        <time>2019-09-04T08:06:41Z</time>
      </trkpt>
      <trkpt lat="40.0759020" lon="0.0449450">
        <ele>330.7</ele>
        <time>2019-09-04T08:06:49Z</time>
      </trkpt>
      <trkpt lat="40.0760920" lon="0.0448420">
        <ele>332.4</ele>
        <time>2019-09-04T08:06:57Z</time>
      </trkpt>
      <trkpt lat="40.0762650" lon="0.0447210">
        <ele>334.1</ele>
        <time>2019-09-04T08:07:05Z</time>
      </trkpt>
      <trkpt lat="40.0764040" lon="0.0446060">
        <ele>335.5</ele>
        <time>2019-09-04T08:07:12Z</time>
      </trkpt>
      <trkpt lat="40.0765040" lon="0.0445190">
        <ele>336.5</ele>
        <time>2019-09-04T08:07:17Z</time>
      </trkpt>
      <trkpt lat="40.0766050" lon="0.0444080">
        <ele>337.5</ele>
        <time>2019-09-04T08:07:22Z</time>
      </trkpt>
      <trkpt lat="40.0766220" lon="0.0443840">
        <ele>337.7</ele>
        <time>2019-09-04T08:07:23Z</time>
      </trkpt>
      <trkpt lat="40.0767270" lon="0.0442790">
        <ele>338.8</ele>
        <time>2019-09-04T08:07:28Z</time>
      </trkpt>
      <trkpt lat="40.0767640" lon="0.0442360">
        <ele>339.2</ele>
        <time>2019-09-04T08:07:30Z</time>
      </trkpt>
      <trkpt lat="40.0769240" lon="0.0441140">
        <ele>340.7</ele>
        <time>2019-09-04T08:07:37Z</time>
      </trkpt>
      <trkpt lat="40.0771400" lon="0.0439960">
        <ele>342.6</ele>
        <time>2019-09-04T08:07:46Z</time>
      </trkpt>
      <trkpt lat="40.0772660" lon="0.0439540">
        <ele>343.6</ele>
        <time>2019-09-04T08:07:51Z</time>
      </trkpt>
      <trkpt lat="40.0774530" lon="0.0438870">
        <ele>345.2</ele>
        <time>2019-09-04T08:07:58Z</time>
      </trkpt>
      <trkpt lat="40.0775920" lon="0.0438250">
        <ele>346.3</ele>
        <time>2019-09-04T08:08:04Z</time>
      </trkpt>
      <trkpt lat="40.0776800" lon="0.0437680">
        <ele>346.9</ele>
        <time>2019-09-04T08:08:08Z</time>
      </trkpt>
      <trkpt lat="40.0778440" lon="0.0436860">
        <ele>348.5</ele>
        <time>2019-09-04T08:08:15Z</time>
      </trkpt>
      <trkpt lat="40.0779730" lon="0.0435920">
        <ele>349.8</ele>
        <time>2019-09-04T08:08:21Z</time>
      </trkpt>
      <trkpt lat="40.0780970" lon="0.0434710">
        <ele>351.1</ele>
        <time>2019-09-04T08:08:27Z</time>
      </trkpt>
      <trkpt lat="40.0782100" lon="0.0433100">
        <ele>352.2</ele>
        <time>2019-09-04T08:08:33Z</time>
      </trkpt>
      <trkpt lat="40.0783130" lon="0.0431600">
        <ele>353.6</ele>
        <time>2019-09-04T08:08:39Z</time>
      </trkpt>
      <trkpt lat="40.0783930" lon="0.0429810">
        <ele>354.8</ele>
        <time>2019-09-04T08:08:45Z</time>
      </trkpt>
      <trkpt lat="40.0784550" lon="0.0428430">
        <ele>355.6</ele>
        <time>2019-09-04T08:08:50Z</time>
      </trkpt>
      <trkpt lat="40.0785470" lon="0.0426000">
        <ele>356.8</ele>
        <time>2019-09-04T08:08:58Z</time>
      </trkpt>
      <trkpt lat="40.0786520" lon="0.0425040">
        <ele>357.9</ele>
        <time>2019-09-04T08:09:03Z</time>
      </trkpt>
      <trkpt lat="40.0788740" lon="0.0423660">
        <ele>359.8</ele>
        <time>2019-09-04T08:09:12Z</time>
      </trkpt>
      <trkpt lat="40.0789960" lon="0.0423400">
        <ele>360.6</ele>
        <time>2019-09-04T08:09:17Z</time>
      </trkpt>
      <trkpt lat="40.0791620" lon="0.0423110">
        <ele>361.9</ele>
        <time>2019-09-04T08:09:24Z</time>
      </trkpt>
      <trkpt lat="40.0792470" lon="0.0422840">
        <ele>362.9</ele>
        <time>2019-09-04T08:09:29Z</time>
      </trkpt>
      <trkpt lat="40.0793230" lon="0.0421790">
        <ele>363.9</ele>
        <time>2019-09-04T08:09:34Z</time>
      </trkpt>
      <trkpt lat="40.0793910" lon="0.0420150">
        <ele>365.0</ele>
        <time>2019-09-04T08:09:40Z</time>
      </trkpt>
      <trkpt lat="40.0794160" lon="0.0419710">
        <ele>365.2</ele>
        <time>2019-09-04T08:09:42Z</time>
      </trkpt>
      <trkpt lat="40.0794240" lon="0.0419420">
        <ele>365.4</ele>
        <time>2019-09-04T08:09:43Z</time>
      </trkpt>
      <trkpt lat="40.0794650" lon="0.0418290">
        <ele>366.1</ele>
        <time>2019-09-04T08:09:47Z</time>
      </trkpt>
      <trkpt lat="40.0795520" lon="0.0416330">
        <ele>367.5</ele>
        <time>2019-09-04T08:09:54Z</time>
      </trkpt>
      <trkpt lat="40.0796030" lon="0.0415660">
        <ele>368.0</ele>
        <time>2019-09-04T08:09:57Z</time>
      </trkpt>
      <trkpt lat="40.0796490" lon="0.0415380">
        <ele>368.5</ele>
        <time>2019-09-04T08:09:59Z</time>
      </trkpt>
      <trkpt lat="40.0797640" lon="0.0414290">
        <ele>369.8</ele>
        <time>2019-09-04T08:10:05Z</time>
      </trkpt>
      <trkpt lat="40.0797790" lon="0.0414150">
        <ele>369.9</ele>
        <time>2019-09-04T08:10:06Z</time>
      </trkpt>
      <trkpt lat="40.0798730" lon="0.0413380">
        <ele>370.8</ele>
        <time>2019-09-04T08:10:11Z</time>
      </trkpt>
      <trkpt lat="40.0800140" lon="0.0411960">
        <ele>372.3</ele>
        <time>2019-09-04T08:10:18Z</time>
      </trkpt>
      <trkpt lat="40.0800740" lon="0.0410920">
        <ele>373.4</ele>
        <time>2019-09-04T08:10:22Z</time>
      </trkpt>
      <trkpt lat="40.0800860" lon="0.0410670">
        <ele>373.7</ele>
        <time>2019-09-04T08:10:23Z</time>
      </trkpt>
      <trkpt lat="40.0800910" lon="0.0410390">
        <ele>374.0</ele>
        <time>2019-09-04T08:10:24Z</time>
      </trkpt>
      <trkpt lat="40.0800860" lon="0.0409740">
        <ele>374.5</ele>
        <time>2019-09-04T08:10:26Z</time>
      </trkpt>
      <trkpt lat="40.0800730" lon="0.0409390">
        <ele>374.7</ele>
        <time>2019-09-04T08:10:27Z</time>
      </trkpt>
      <trkpt lat="40.0799620" lon="0.0408200">
        <ele>375.8</ele>
        <time>2019-09-04T08:10:32Z</time>
      </trkpt>
      <trkpt lat="40.0797940" lon="0.0407600">
        <ele>377.1</ele>
        <time>2019-09-04T08:10:39Z</time>
      </trkpt>
      <trkpt lat="40.0796210" lon="0.0406620">
        <ele>378.2</ele>
        <time>2019-09-04T08:10:46Z</time>
      </trkpt>
      <trkpt lat="40.0795100" lon="0.0405000">
        <ele>379.2</ele>
        <time>2019-09-04T08:10:52Z</time>
      </trkpt>
      <trkpt lat="40.0794870" lon="0.0403200">
        <ele>380.3</ele>
        <time>2019-09-04T08:10:57Z</time>
      </trkpt>
      <trkpt lat="40.0795230" lon="0.0400990">
        <ele>381.3</ele>
        <time>2019-09-04T08:11:03Z</time>
      </trkpt>
      <trkpt lat="40.0795300" lon="0.0400640">
        <ele>381.4</ele>
        <time>2019-09-04T08:11:04Z</time>
      </trkpt>
      <trkpt lat="40.0795590" lon="0.0399200">
        <ele>382.1</ele>
        <time>2019-09-04T08:11:08Z</time>
      </trkpt>
      <trkpt lat="40.0795690" lon="0.0397910">
        <ele>382.5</ele>
        <time>2019-09-04T08:11:11Z</time>
      </trkpt>
      <trkpt lat="40.0795260" lon="0.0394770">
        <ele>383.8</ele>
        <time>2019-09-04T08:11:18Z</time>
      </trkpt>
      <trkpt lat="40.0793750" lon="0.0393080">
        <ele>385.0</ele>
        <time>2019-09-04T08:11:23Z</time>
      </trkpt>
      <trkpt lat="40.0792910" lon="0.0392910">
        <ele>385.5</ele>
        <time>2019-09-04T08:11:25Z</time>
      </trkpt>
      <trkpt lat="40.0792090" lon="0.0393040">
        <ele>385.8</ele>
        <time>2019-09-04T08:11:27Z</time>
      </trkpt>
      <trkpt lat="40.0789460" lon="0.0393540">
        <ele>386.9</ele>
        <time>2019-09-04T08:11:34Z</time>
      </trkpt>
      <trkpt lat="40.0788660" lon="0.0393370">
        <ele>387.4</ele>
        <time>2019-09-04T08:11:36Z</time>
      </trkpt>
      <trkpt lat="40.0787390" lon="0.0392770">
        <ele>387.8</ele>
        <time>2019-09-04T08:11:39Z</time>
      </trkpt>
      <trkpt lat="40.0786990" lon="0.0392490">
        <ele>387.9</ele>
        <time>2019-09-04T08:11:40Z</time>
      </trkpt>
      <trkpt lat="40.0784890" lon="0.0390760">
        <ele>388.9</ele>
        <time>2019-09-04T08:11:45Z</time>
      </trkpt>
      <trkpt lat="40.0784510" lon="0.0390240">
        <ele>389.0</ele>
        <time>2019-09-04T08:11:46Z</time>
      </trkpt>
      <trkpt lat="40.0783150" lon="0.0388110">
        <ele>389.7</ele>
        <time>2019-09-04T08:11:50Z</time>
      </trkpt>
      <trkpt lat="40.0781970" lon="0.0385810">
        <ele>390.5</ele>
        <time>2019-09-04T08:11:54Z</time>
      </trkpt>
      <trkpt lat="40.0781050" lon="0.0383880">
        <ele>390.5</ele>
        <time>2019-09-04T08:11:57Z</time>
      </trkpt>
      <trkpt lat="40.0779290" lon="0.0379410">
        <ele>390.5</ele>
        <time>2019-09-04T08:12:03Z</time>
      </trkpt>
      <trkpt lat="40.0779070" lon="0.0377530">
        <ele>390.5</ele>
        <time>2019-09-04T08:12:05Z</time>
      </trkpt>
      <trkpt lat="40.0779380" lon="0.0375650">
        <ele>390.6</ele>
        <time>2019-09-04T08:12:07Z</time>
      </trkpt>
      <trkpt lat="40.0780990" lon="0.0370250">
        <ele>390.7</ele>
        <time>2019-09-04T08:12:13Z</time>
      </trkpt>
      <trkpt lat="40.0781500" lon="0.0367580">
        <ele>390.6</ele>
        <time>2019-09-04T08:12:16Z</time>
      </trkpt>
      <trkpt lat="40.0781690" lon="0.0364720">
        <ele>390.5</ele>
        <time>2019-09-04T08:12:19Z</time>
      </trkpt>
      <trkpt lat="40.0781710" lon="0.0361760">
        <ele>390.4</ele>
        <time>2019-09-04T08:12:22Z</time>
      </trkpt>
      <trkpt lat="40.0781830" lon="0.0358890">
        <ele>390.3</ele>
        <time>2019-09-04T08:12:25Z</time>
      </trkpt>
      <trkpt lat="40.0781930" lon="0.0357040">
        <ele>390.2</ele>
        <time>2019-09-04T08:12:27Z</time>
      </trkpt>
      <trkpt lat="40.0782050" lon="0.0354240">
        <ele>390.0</ele>
        <time>2019-09-04T08:12:30Z</time>
      </trkpt>
      <trkpt lat="40.0782040" lon="0.0350500">
        <ele>389.7</ele>
        <time>2019-09-04T08:12:34Z</time>
      </trkpt>
      <trkpt lat="40.0781830" lon="0.0348630">
        <ele>389.5</ele>
        <time>2019-09-04T08:12:36Z</time>
      </trkpt>
      <trkpt lat="40.0781650" lon="0.0346700">
        <ele>389.3</ele>
        <time>2019-09-04T08:12:38Z</time>
      </trkpt>
      <trkpt lat="40.0781690" lon="0.0344780">
        <ele>389.1</ele>
        <time>2019-09-04T08:12:40Z</time>
      </trkpt>
      <trkpt lat="40.0781890" lon="0.0343830">
        <ele>389.0</ele>
        <time>2019-09-04T08:12:41Z</time>
      </trkpt>
      <trkpt lat="40.0782230" lon="0.0342990">
        <ele>389.0</ele>
        <time>2019-09-04T08:12:42Z</time>
      </trkpt>
      <trkpt lat="40.0783200" lon="0.0341570">
        <ele>388.8</ele>
        <time>2019-09-04T08:12:44Z</time>
      </trkpt>
      <trkpt lat="40.0784290" lon="0.0340230">
        <ele>388.8</ele>
        <time>2019-09-04T08:12:46Z</time>
      </trkpt>
      <trkpt lat="40.0785250" lon="0.0338600">
        <ele>388.7</ele>
        <time>2019-09-04T08:12:48Z</time>
      </trkpt>
      <trkpt lat="40.0788750" lon="0.0332990">
        <ele>389.0</ele>
        <time>2019-09-04T08:12:55Z</time>
      </trkpt>
      <trkpt lat="40.0791390" lon="0.0329130">
        <ele>390.0</ele>
        <time>2019-09-04T08:13:00Z</time>
      </trkpt>
      <trkpt lat="40.0791530" lon="0.0328180">
        <ele>390.3</ele>
        <time>2019-09-04T08:13:01Z</time>
      </trkpt>
      <trkpt lat="40.0791440" lon="0.0327090">
        <ele>390.6</ele>
        <time>2019-09-04T08:13:02Z</time>
      </trkpt>
      <trkpt lat="40.0791030" lon="0.0325050">
        <ele>390.7</ele>
        <time>2019-09-04T08:13:04Z</time>
      </trkpt>
      <trkpt lat="40.0790690" lon="0.0324070">
        <ele>390.8</ele>
        <time>2019-09-04T08:13:05Z</time>
      </trkpt>
      <trkpt lat="40.0789970" lon="0.0322290">
        <ele>390.6</ele>
        <time>2019-09-04T08:13:07Z</time>
      </trkpt>
      <trkpt lat="40.0789530" lon="0.0321620">
        <ele>390.5</ele>
        <time>2019-09-04T08:13:08Z</time>
      </trkpt>
      <trkpt lat="40.0789040" lon="0.0321030">
        <ele>390.3</ele>
        <time>2019-09-04T08:13:09Z</time>
      </trkpt>
      <trkpt lat="40.0787310" lon="0.0319530">
        <ele>390.0</ele>
        <time>2019-09-04T08:13:12Z</time>
      </trkpt>
      <trkpt lat="40.0784940" lon="0.0317640">
        <ele>390.1</ele>
        <time>2019-09-04T08:13:17Z</time>
      </trkpt>
      <trkpt lat="40.0784560" lon="0.0317260">
        <ele>390.1</ele>
        <time>2019-09-04T08:13:18Z</time>
      </trkpt>
      <trkpt lat="40.0784220" lon="0.0316850">
        <ele>390.1</ele>
        <time>2019-09-04T08:13:19Z</time>
      </trkpt>
      <trkpt lat="40.0783240" lon="0.0315060">
        <ele>390.4</ele>
        <time>2019-09-04T08:13:23Z</time>
      </trkpt>
      <trkpt lat="40.0782700" lon="0.0313110">
        <ele>391.2</ele>
        <time>2019-09-04T08:13:28Z</time>
      </trkpt>
      <trkpt lat="40.0781890" lon="0.0310630">
        <ele>393.0</ele>
        <time>2019-09-04T08:13:34Z</time>
      </trkpt>
      <trkpt lat="40.0781600" lon="0.0309810">
        <ele>393.5</ele>
        <time>2019-09-04T08:13:36Z</time>
      </trkpt>
      <trkpt lat="40.0780190" lon="0.0307600">
        <ele>394.5</ele>
        <time>2019-09-04T08:13:43Z</time>
      </trkpt>
      <trkpt lat="40.0778830" lon="0.0305760">
        <ele>394.2</ele>
        <time>2019-09-04T08:13:49Z</time>
      </trkpt>
      <trkpt lat="40.0776800" lon="0.0303310">
        <ele>393.1</ele>
        <time>2019-09-04T08:13:56Z</time>
      </trkpt>
      <trkpt lat="40.0774260" lon="0.0300080">
        <ele>391.6</ele>
        <time>2019-09-04T08:14:04Z</time>
      </trkpt>
      <trkpt lat="40.0773640" lon="0.0299300">
        <ele>391.2</ele>
        <time>2019-09-04T08:14:06Z</time>
      </trkpt>
      <trkpt lat="40.0772400" lon="0.0298220">
        <ele>391.6</ele>
        <time>2019-09-04T08:14:10Z</time>
      </trkpt>
      <trkpt lat="40.0770290" lon="0.0297700">
        <ele>392.9</ele>
        <time>2019-09-04T08:14:17Z</time>
      </trkpt>
      <trkpt lat="40.0768590" lon="0.0297910">
        <ele>394.4</ele>
        <time>2019-09-04T08:14:23Z</time>
      </trkpt>
      <trkpt lat="40.0767390" lon="0.0298050">
        <ele>395.9</ele>
        <time>2019-09-04T08:14:28Z</time>
      </trkpt>
      <trkpt lat="40.0765830" lon="0.0297910">
        <ele>398.0</ele>
        <time>2019-09-04T08:14:34Z</time>
      </trkpt>
      <trkpt lat="40.0764770" lon="0.0296810">
        <ele>399.7</ele>
        <time>2019-09-04T08:14:39Z</time>
      </trkpt>
      <trkpt lat="40.0764380" lon="0.0294960">
        <ele>401.3</ele>
        <time>2019-09-04T08:14:45Z</time>
      </trkpt>
      <trkpt lat="40.0764290" lon="0.0293730">
        <ele>402.2</ele>
        <time>2019-09-04T08:14:49Z</time>
      </trkpt>
      <trkpt lat="40.0764300" lon="0.0293490">
        <ele>402.3</ele>
        <time>2019-09-04T08:14:50Z</time>
      </trkpt>
      <trkpt lat="40.0764320" lon="0.0293240">
        <ele>402.5</ele>
        <time>2019-09-04T08:14:51Z</time>
      </trkpt>
      <trkpt lat="40.0764400" lon="0.0292220">
        <ele>403.0</ele>
        <time>2019-09-04T08:14:54Z</time>
      </trkpt>
      <trkpt lat="40.0764160" lon="0.0289470">
        <ele>404.3</ele>
        <time>2019-09-04T08:15:01Z</time>
      </trkpt>
      <trkpt lat="40.0763840" lon="0.0287340">
        <ele>405.7</ele>
        <time>2019-09-04T08:15:07Z</time>
      </trkpt>
      <trkpt lat="40.0763120" lon="0.0284660">
        <ele>408.6</ele>
        <time>2019-09-04T08:15:15Z</time>
      </trkpt>
      <trkpt lat="40.0762510" lon="0.0283380">
        <ele>409.8</ele>
        <time>2019-09-04T08:15:20Z</time>
      </trkpt>
      <trkpt lat="40.0761820" lon="0.0281680">
        <ele>411.1</ele>
        <time>2019-09-04T08:15:26Z</time>
      </trkpt>
      <trkpt lat="40.0761090" lon="0.0280540">
        <ele>412.0</ele>
        <time>2019-09-04T08:15:32Z</time>
      </trkpt>
      <trkpt lat="40.0761420" lon="0.0278250">
        <ele>413.3</ele>
        <time>2019-09-04T08:15:39Z</time>
      </trkpt>
      <trkpt lat="40.0762030" lon="0.0276360">
        <ele>414.4</ele>
        <time>2019-09-04T08:15:45Z</time>
      </trkpt>
      <trkpt lat="40.0762540" lon="0.0275020">
        <ele>415.2</ele>
        <time>2019-09-04T08:15:49Z</time>
      </trkpt>
      <trkpt lat="40.0762840" lon="0.0273290">
        <ele>416.2</ele>
        <time>2019-09-04T08:15:54Z</time>
      </trkpt>
      <trkpt lat="40.0762410" lon="0.0270490">
        <ele>418.7</ele>
        <time>2019-09-04T08:16:01Z</time>
      </trkpt>
      <trkpt lat="40.0761320" lon="0.0268750">
        <ele>420.8</ele>
        <time>2019-09-04T08:16:07Z</time>
      </trkpt>
      <trkpt lat="40.0760090" lon="0.0267580">
        <ele>419.8</ele>
        <time>2019-09-04T08:16:13Z</time>
      </trkpt>
      <trkpt lat="40.0758370" lon="0.0266500">
        <ele>419.1</ele>
        <time>2019-09-04T08:16:20Z</time>
      </trkpt>
      <trkpt lat="40.0756690" lon="0.0266180">
        <ele>419.2</ele>
        <time>2019-09-04T08:16:26Z</time>
      </trkpt>
      <trkpt lat="40.0754870" lon="0.0266240">
        <ele>419.1</ele>
        <time>2019-09-04T08:16:33Z</time>
      </trkpt>
      <trkpt lat="40.0753490" lon="0.0266430">
        <ele>419.0</ele>
        <time>2019-09-04T08:16:38Z</time>
      </trkpt>
      <trkpt lat="40.0753230" lon="0.0266390">
        <ele>419.0</ele>
        <time>2019-09-04T08:16:39Z</time>
      </trkpt>
      <trkpt lat="40.0751570" lon="0.0266760">
        <ele>418.9</ele>
        <time>2019-09-04T08:16:44Z</time>
      </trkpt>
      <trkpt lat="40.0750000" lon="0.0267310">
        <ele>419.3</ele>
        <time>2019-09-04T08:16:49Z</time>
      </trkpt>
      <trkpt lat="40.0748100" lon="0.0267810">
        <ele>422.3</ele>
        <time>2019-09-04T08:16:54Z</time>
      </trkpt>
      <trkpt lat="40.0746900" lon="0.0268170">
        <ele>424.4</ele>
        <time>2019-09-04T08:16:57Z</time>
      </trkpt>
      <trkpt lat="40.0745690" lon="0.0268370">
        <ele>426.5</ele>
        <time>2019-09-04T08:17:00Z</time>
      </trkpt>
      <trkpt lat="40.0743920" lon="0.0268710">
        <ele>429.4</ele>
        <time>2019-09-04T08:17:04Z</time>
      </trkpt>
      <trkpt lat="40.0742960" lon="0.0268930">
        <ele>430.4</ele>
        <time>2019-09-04T08:17:06Z</time>
      </trkpt>
      <trkpt lat="40.0742010" lon="0.0269090">
        <ele>431.9</ele>
        <time>2019-09-04T08:17:08Z</time>
      </trkpt>
      <trkpt lat="40.0741120" lon="0.0269320">
        <ele>432.0</ele>
        <time>2019-09-04T08:17:10Z</time>
      </trkpt>
      <trkpt lat="40.0740180" lon="0.0269840">
        <ele>431.8</ele>
        <time>2019-09-04T08:17:12Z</time>
      </trkpt>
      <trkpt lat="40.0739150" lon="0.0270370">
        <ele>431.4</ele>
        <time>2019-09-04T08:17:14Z</time>
      </trkpt>
      <trkpt lat="40.0736520" lon="0.0271790">
        <ele>430.1</ele>
        <time>2019-09-04T08:17:19Z</time>
      </trkpt>
      <trkpt lat="40.0736010" lon="0.0272130">
        <ele>430.0</ele>
        <time>2019-09-04T08:17:20Z</time>
      </trkpt>
      <trkpt lat="40.0732870" lon="0.0273760">
        <ele>430.0</ele>
        <time>2019-09-04T08:17:26Z</time>
      </trkpt>
      <trkpt lat="40.0729920" lon="0.0274620">
        <ele>429.8</ele>
        <time>2019-09-04T08:17:32Z</time>
      </trkpt>
      <trkpt lat="40.0729260" lon="0.0274880">
        <ele>429.7</ele>
        <time>2019-09-04T08:17:34Z</time>
      </trkpt>
      <trkpt lat="40.0729020" lon="0.0274960">
        <ele>429.7</ele>
        <time>2019-09-04T08:17:35Z</time>
      </trkpt>
      <trkpt lat="40.0728320" lon="0.0274610">
        <ele>429.6</ele>
        <time>2019-09-04T08:28:50Z</time>
      </trkpt>
      <trkpt lat="40.0728190" lon="0.0274550">
        <ele>429.5</ele>
        <time>2019-09-04T08:28:51Z</time>
      </trkpt>
      <trkpt lat="40.0727530" lon="0.0274090">
        <ele>429.3</ele>
        <time>2019-09-04T08:28:54Z</time>
      </trkpt>
      <trkpt lat="40.0726450" lon="0.0273030">
        <ele>428.9</ele>
        <time>2019-09-04T08:28:58Z</time>
      </trkpt>
      <trkpt lat="40.0726170" lon="0.0272790">
        <ele>428.7</ele>
        <time>2019-09-04T08:28:59Z</time>
      </trkpt>
      <trkpt lat="40.0725400" lon="0.0272300">
        <ele>428.2</ele>
        <time>2019-09-04T08:29:01Z</time>
      </trkpt>
      <trkpt lat="40.0724380" lon="0.0272130">
        <ele>427.5</ele>
        <time>2019-09-04T08:29:03Z</time>
      </trkpt>
      <trkpt lat="40.0723300" lon="0.0272820">
        <ele>426.5</ele>
        <time>2019-09-04T08:29:05Z</time>
      </trkpt>
      <trkpt lat="40.0722190" lon="0.0274220">
        <ele>424.8</ele>
        <time>2019-09-04T08:29:07Z</time>
      </trkpt>
      <trkpt lat="40.0720970" lon="0.0276020">
        <ele>422.2</ele>
        <time>2019-09-04T08:29:09Z</time>
      </trkpt>
      <trkpt lat="40.0720350" lon="0.0277030">
        <ele>420.5</ele>
        <time>2019-09-04T08:29:10Z</time>
      </trkpt>
      <trkpt lat="40.0719010" lon="0.0279200">
        <ele>416.6</ele>
        <time>2019-09-04T08:29:12Z</time>
      </trkpt>
      <trkpt lat="40.0718250" lon="0.0280250">
        <ele>414.8</ele>
        <time>2019-09-04T08:29:13Z</time>
      </trkpt>
      <trkpt lat="40.0716290" lon="0.0281680">
        <ele>410.7</ele>
        <time>2019-09-04T08:29:15Z</time>
      </trkpt>
      <trkpt lat="40.0715120" lon="0.0282020">
        <ele>408.5</ele>
        <time>2019-09-04T08:29:16Z</time>
      </trkpt>
      <trkpt lat="40.0712630" lon="0.0282320">
        <ele>404.9</ele>
        <time>2019-09-04T08:29:18Z</time>
      </trkpt>
      <trkpt lat="40.0710150" lon="0.0282270">
        <ele>405.2</ele>
        <time>2019-09-04T08:29:20Z</time>
      </trkpt>
      <trkpt lat="40.0708210" lon="0.0281120">
        <ele>405.6</ele>
        <time>2019-09-04T08:29:22Z</time>
      </trkpt>
      <trkpt lat="40.0707340" lon="0.0278580">
        <ele>405.2</ele>
        <time>2019-09-04T08:29:24Z</time>
      </trkpt>
      <trkpt lat="40.0707730" lon="0.0275450">
        <ele>404.8</ele>
        <time>2019-09-04T08:29:26Z</time>
      </trkpt>
      <trkpt lat="40.0709210" lon="0.0270810">
        <ele>404.1</ele>
        <time>2019-09-04T08:29:29Z</time>
      </trkpt>
      <trkpt lat="40.0709450" lon="0.0269130">
        <ele>403.8</ele>
        <time>2019-09-04T08:29:30Z</time>
      </trkpt>
      <trkpt lat="40.0709470" lon="0.0267420">
        <ele>403.5</ele>
        <time>2019-09-04T08:29:31Z</time>
      </trkpt>
      <trkpt lat="40.0709170" lon="0.0264020">
        <ele>402.9</ele>
        <time>2019-09-04T08:29:33Z</time>
      </trkpt>
      <trkpt lat="40.0709730" lon="0.0261120">
        <ele>402.2</ele>
        <time>2019-09-04T08:29:35Z</time>
      </trkpt>
      <trkpt lat="40.0711390" lon="0.0259630">
        <ele>401.7</ele>
        <time>2019-09-04T08:29:37Z</time>
      </trkpt>
      <trkpt lat="40.0713590" lon="0.0259010">
        <ele>401.1</ele>
        <time>2019-09-04T08:29:39Z</time>
      </trkpt>
      <trkpt lat="40.0714690" lon="0.0258350">
        <ele>400.8</ele>
        <time>2019-09-04T08:29:40Z</time>
      </trkpt>
      <trkpt lat="40.0715710" lon="0.0257450">
        <ele>400.5</ele>
        <time>2019-09-04T08:29:41Z</time>
      </trkpt>
      <trkpt lat="40.0716490" lon="0.0256290">
        <ele>400.0</ele>
        <time>2019-09-04T08:29:42Z</time>
      </trkpt>
      <trkpt lat="40.0716950" lon="0.0254880">
        <ele>399.5</ele>
        <time>2019-09-04T08:29:43Z</time>
      </trkpt>
      <trkpt lat="40.0716970" lon="0.0253250">
        <ele>399.1</ele>
        <time>2019-09-04T08:29:44Z</time>
      </trkpt>
      <trkpt lat="40.0716540" lon="0.0251650">
        <ele>398.8</ele>
        <time>2019-09-04T08:29:45Z</time>
      </trkpt>
      <trkpt lat="40.0715810" lon="0.0250260">
        <ele>398.5</ele>
        <time>2019-09-04T08:29:46Z</time>
      </trkpt>
      <trkpt lat="40.0715110" lon="0.0248840">
        <ele>398.0</ele>
        <time>2019-09-04T08:29:47Z</time>
      </trkpt>
      <trkpt lat="40.0714680" lon="0.0247230">
        <ele>397.6</ele>
        <time>2019-09-04T08:29:48Z</time>
      </trkpt>
      <trkpt lat="40.0714640" lon="0.0245500">
        <ele>397.1</ele>
        <time>2019-09-04T08:29:49Z</time>
      </trkpt>
      <trkpt lat="40.0714920" lon="0.0243820">
        <ele>396.6</ele>
        <time>2019-09-04T08:29:50Z</time>
      </trkpt>
      <trkpt lat="40.0716050" lon="0.0238790">
        <ele>395.2</ele>
        <time>2019-09-04T08:29:53Z</time>
      </trkpt>
      <trkpt lat="40.0716050" lon="0.0237190">
        <ele>393.8</ele>
        <time>2019-09-04T08:29:54Z</time>
      </trkpt>
      <trkpt lat="40.0715680" lon="0.0235580">
        <ele>392.1</ele>
        <time>2019-09-04T08:29:55Z</time>
      </trkpt>
      <trkpt lat="40.0715030" lon="0.0234080">
        <ele>390.3</ele>
        <time>2019-09-04T08:29:56Z</time>
      </trkpt>
      <trkpt lat="40.0711690" lon="0.0228600">
        <ele>384.3</ele>
        <time>2019-09-04T08:30:00Z</time>
      </trkpt>
      <trkpt lat="40.0710740" lon="0.0227250">
        <ele>383.7</ele>
        <time>2019-09-04T08:30:01Z</time>
      </trkpt>
      <trkpt lat="40.0709680" lon="0.0225970">
        <ele>383.0</ele>
        <time>2019-09-04T08:30:02Z</time>
      </trkpt>
      <trkpt lat="40.0707340" lon="0.0223870">
        <ele>381.4</ele>
        <time>2019-09-04T08:30:04Z</time>
      </trkpt>
      <trkpt lat="40.0704820" lon="0.0222050">
        <ele>379.7</ele>
        <time>2019-09-04T08:30:06Z</time>
      </trkpt>
      <trkpt lat="40.0703500" lon="0.0221650">
        <ele>379.2</ele>
        <time>2019-09-04T08:30:07Z</time>
      </trkpt>
      <trkpt lat="40.0702160" lon="0.0221780">
        <ele>378.5</ele>
        <time>2019-09-04T08:30:08Z</time>
      </trkpt>
      <trkpt lat="40.0700870" lon="0.0222290">
        <ele>378.0</ele>
        <time>2019-09-04T08:30:09Z</time>
      </trkpt>
      <trkpt lat="40.0698320" lon="0.0223350">
        <ele>377.5</ele>
        <time>2019-09-04T08:30:11Z</time>
      </trkpt>
      <trkpt lat="40.0696980" lon="0.0223420">
        <ele>377.4</ele>
        <time>2019-09-04T08:30:12Z</time>
      </trkpt>
      <trkpt lat="40.0695630" lon="0.0223130">
        <ele>373.8</ele>
        <time>2019-09-04T08:30:13Z</time>
      </trkpt>
      <trkpt lat="40.0692980" lon="0.0221790">
        <ele>367.4</ele>
        <time>2019-09-04T08:30:15Z</time>
      </trkpt>
      <trkpt lat="40.0690380" lon="0.0220450">
        <ele>363.7</ele>
        <time>2019-09-04T08:30:17Z</time>
      </trkpt>
      <trkpt lat="40.0689040" lon="0.0220270">
        <ele>362.3</ele>
        <time>2019-09-04T08:30:18Z</time>
      </trkpt>
      <trkpt lat="40.0687700" lon="0.0220590">
        <ele>361.0</ele>
        <time>2019-09-04T08:30:19Z</time>
      </trkpt>
      <trkpt lat="40.0686460" lon="0.0221310">
        <ele>359.6</ele>
        <time>2019-09-04T08:30:20Z</time>
      </trkpt>
      <trkpt lat="40.0685220" lon="0.0222090">
        <ele>358.2</ele>
        <time>2019-09-04T08:30:21Z</time>
      </trkpt>
      <trkpt lat="40.0682520" lon="0.0222890">
        <ele>355.4</ele>
        <time>2019-09-04T08:30:23Z</time>
      </trkpt>
      <trkpt lat="40.0680030" lon="0.0222120">
        <ele>352.7</ele>
        <time>2019-09-04T08:30:25Z</time>
      </trkpt>
      <trkpt lat="40.0678480" lon="0.0219670">
        <ele>351.8</ele>
        <time>2019-09-04T08:30:27Z</time>
      </trkpt>
      <trkpt lat="40.0676140" lon="0.0215440">
        <ele>349.9</ele>
        <time>2019-09-04T08:30:30Z</time>
      </trkpt>
      <trkpt lat="40.0673790" lon="0.0213510">
        <ele>345.1</ele>
        <time>2019-09-04T08:30:32Z</time>
      </trkpt>
      <trkpt lat="40.0672680" lon="0.0212650">
        <ele>342.6</ele>
        <time>2019-09-04T08:30:33Z</time>
      </trkpt>
      <trkpt lat="40.0671780" lon="0.0211560">
        <ele>340.7</ele>
        <time>2019-09-04T08:30:34Z</time>
      </trkpt>
      <trkpt lat="40.0671180" lon="0.0210270">
        <ele>339.0</ele>
        <time>2019-09-04T08:30:35Z</time>
      </trkpt>
      <trkpt lat="40.0670980" lon="0.0208880">
        <ele>337.9</ele>
        <time>2019-09-04T08:30:36Z</time>
      </trkpt>
      <trkpt lat="40.0671170" lon="0.0207450">
        <ele>337.6</ele>
        <time>2019-09-04T08:30:37Z</time>
      </trkpt>
      <trkpt lat="40.0671680" lon="0.0205990">
        <ele>337.4</ele>
        <time>2019-09-04T08:30:38Z</time>
      </trkpt>
      <trkpt lat="40.0672390" lon="0.0204530">
        <ele>337.1</ele>
        <time>2019-09-04T08:30:39Z</time>
      </trkpt>
      <trkpt lat="40.0675750" lon="0.0197190">
        <ele>334.1</ele>
        <time>2019-09-04T08:30:44Z</time>
      </trkpt>
      <trkpt lat="40.0676050" lon="0.0195750">
        <ele>333.6</ele>
        <time>2019-09-04T08:30:45Z</time>
      </trkpt>
      <trkpt lat="40.0675870" lon="0.0194280">
        <ele>333.1</ele>
        <time>2019-09-04T08:30:46Z</time>
      </trkpt>
      <trkpt lat="40.0675280" lon="0.0192980">
        <ele>332.5</ele>
        <time>2019-09-04T08:30:47Z</time>
      </trkpt>
      <trkpt lat="40.0674400" lon="0.0192030">
        <ele>332.0</ele>
        <time>2019-09-04T08:30:48Z</time>
      </trkpt>
      <trkpt lat="40.0673310" lon="0.0191460">
        <ele>331.7</ele>
        <time>2019-09-04T08:30:49Z</time>
      </trkpt>
      <trkpt lat="40.0669900" lon="0.0190020">
        <ele>332.0</ele>
        <time>2019-09-04T08:30:52Z</time>
      </trkpt>
      <trkpt lat="40.0668800" lon="0.0189280">
        <ele>332.1</ele>
        <time>2019-09-04T08:30:53Z</time>
      </trkpt>
      <trkpt lat="40.0667720" lon="0.0188340">
        <ele>332.1</ele>
        <time>2019-09-04T08:30:54Z</time>
      </trkpt>
      <trkpt lat="40.0666120" lon="0.0185720">
        <ele>331.8</ele>
        <time>2019-09-04T08:30:56Z</time>
      </trkpt>
      <trkpt lat="40.0665780" lon="0.0182390">
        <ele>331.1</ele>
        <time>2019-09-04T08:30:58Z</time>
      </trkpt>
      <trkpt lat="40.0666900" lon="0.0175470">
        <ele>329.5</ele>
        <time>2019-09-04T08:31:02Z</time>
      </trkpt>
      <trkpt lat="40.0667030" lon="0.0173730">
        <ele>329.2</ele>
        <time>2019-09-04T08:31:03Z</time>
      </trkpt>
      <trkpt lat="40.0666730" lon="0.0170500">
        <ele>328.7</ele>
        <time>2019-09-04T08:31:05Z</time>
      </trkpt>
      <trkpt lat="40.0665930" lon="0.0167350">
        <ele>328.2</ele>
        <time>2019-09-04T08:31:07Z</time>
      </trkpt>
      <trkpt lat="40.0665670" lon="0.0164000">
        <ele>327.5</ele>
        <time>2019-09-04T08:31:09Z</time>
      </trkpt>
      <trkpt lat="40.0666370" lon="0.0157500">
        <ele>326.1</ele>
        <time>2019-09-04T08:31:13Z</time>
      </trkpt>
      <trkpt lat="40.0667000" lon="0.0154460">
        <ele>325.4</ele>
        <time>2019-09-04T08:31:15Z</time>
      </trkpt>
      <trkpt lat="40.0667480" lon="0.0153060">
        <ele>325.0</ele>
        <time>2019-09-04T08:31:16Z</time>
      </trkpt>
      <trkpt lat="40.0668110" lon="0.0151750">
        <ele>324.7</ele>
        <time>2019-09-04T08:31:17Z</time>
      </trkpt>
      <trkpt lat="40.0670010" lon="0.0147780">
        <ele>323.5</ele>
        <time>2019-09-04T08:31:20Z</time>
      </trkpt>
      <trkpt lat="40.0670400" lon="0.0144800">
        <ele>322.8</ele>
        <time>2019-09-04T08:31:22Z</time>
      </trkpt>
      <trkpt lat="40.0669110" lon="0.0142310">
        <ele>322.0</ele>
        <time>2019-09-04T08:31:24Z</time>
      </trkpt>
      <trkpt lat="40.0667030" lon="0.0141800">
        <ele>321.3</ele>
        <time>2019-09-04T08:31:26Z</time>
      </trkpt>
      <trkpt lat="40.0665110" lon="0.0143330">
        <ele>320.3</ele>
        <time>2019-09-04T08:31:28Z</time>
      </trkpt>
      <trkpt lat="40.0663490" lon="0.0145690">
        <ele>319.0</ele>
        <time>2019-09-04T08:31:30Z</time>
      </trkpt>
      <trkpt lat="40.0661660" lon="0.0148080">
        <ele>317.4</ele>
        <time>2019-09-04T08:31:32Z</time>
      </trkpt>
      <trkpt lat="40.0660580" lon="0.0149000">
        <ele>316.5</ele>
        <time>2019-09-04T08:31:33Z</time>
      </trkpt>
      <trkpt lat="40.0659360" lon="0.0149630">
        <ele>315.6</ele>
        <time>2019-09-04T08:31:34Z</time>
      </trkpt>
      <trkpt lat="40.0658020" lon="0.0149960">
        <ele>314.6</ele>
        <time>2019-09-04T08:31:35Z</time>
      </trkpt>
      <trkpt lat="40.0652070" lon="0.0150970">
        <ele>310.5</ele>
        <time>2019-09-04T08:31:39Z</time>
      </trkpt>
      <trkpt lat="40.0650570" lon="0.0151390">
        <ele>309.1</ele>
        <time>2019-09-04T08:31:40Z</time>
      </trkpt>
      <trkpt lat="40.0644340" lon="0.0153220">
        <ele>303.7</ele>
        <time>2019-09-04T08:31:44Z</time>
      </trkpt>
      <trkpt lat="40.0642720" lon="0.0153630">
        <ele>302.6</ele>
        <time>2019-09-04T08:31:45Z</time>
      </trkpt>
      <trkpt lat="40.0639550" lon="0.0154610">
        <ele>300.4</ele>
        <time>2019-09-04T08:31:47Z</time>
      </trkpt>
      <trkpt lat="40.0638110" lon="0.0155410">
        <ele>299.4</ele>
        <time>2019-09-04T08:31:48Z</time>
      </trkpt>
      <trkpt lat="40.0635730" lon="0.0157930">
        <ele>297.6</ele>
        <time>2019-09-04T08:31:50Z</time>
      </trkpt>
      <trkpt lat="40.0634630" lon="0.0159190">
        <ele>296.4</ele>
        <time>2019-09-04T08:31:51Z</time>
      </trkpt>
      <trkpt lat="40.0632250" lon="0.0160690">
        <ele>294.3</ele>
        <time>2019-09-04T08:31:53Z</time>
      </trkpt>
      <trkpt lat="40.0630060" lon="0.0159760">
        <ele>292.4</ele>
        <time>2019-09-04T08:31:55Z</time>
      </trkpt>
      <trkpt lat="40.0629040" lon="0.0156650">
        <ele>292.6</ele>
        <time>2019-09-04T08:31:57Z</time>
      </trkpt>
      <trkpt lat="40.0628790" lon="0.0152970">
        <ele>294.0</ele>
        <time>2019-09-04T08:31:59Z</time>
      </trkpt>
      <trkpt lat="40.0628320" lon="0.0151300">
        <ele>294.9</ele>
        <time>2019-09-04T08:32:00Z</time>
      </trkpt>
      <trkpt lat="40.0627550" lon="0.0149840">
        <ele>295.6</ele>
        <time>2019-09-04T08:32:01Z</time>
      </trkpt>
      <trkpt lat="40.0626600" lon="0.0148600">
        <ele>296.4</ele>
        <time>2019-09-04T08:32:02Z</time>
      </trkpt>
      <trkpt lat="40.0625590" lon="0.0147540">
        <ele>296.8</ele>
        <time>2019-09-04T08:32:03Z</time>
      </trkpt>
      <trkpt lat="40.0623580" lon="0.0145790">
        <ele>297.7</ele>
        <time>2019-09-04T08:32:05Z</time>
      </trkpt>
      <trkpt lat="40.0622650" lon="0.0144850">
        <ele>298.3</ele>
        <time>2019-09-04T08:32:06Z</time>
      </trkpt>
      <trkpt lat="40.0621270" lon="0.0142440">
        <ele>299.4</ele>
        <time>2019-09-04T08:32:08Z</time>
      </trkpt>
      <trkpt lat="40.0619370" lon="0.0136980">
        <ele>295.7</ele>
        <time>2019-09-04T08:32:12Z</time>
      </trkpt>
      <trkpt lat="40.0617730" lon="0.0134740">
        <ele>293.0</ele>
        <time>2019-09-04T08:32:14Z</time>
      </trkpt>
      <trkpt lat="40.0615500" lon="0.0133720">
        <ele>290.5</ele>
        <time>2019-09-04T08:32:16Z</time>
      </trkpt>
      <trkpt lat="40.0613130" lon="0.0133700">
        <ele>287.9</ele>
        <time>2019-09-04T08:32:18Z</time>
      </trkpt>
      <trkpt lat="40.0611910" lon="0.0134040">
        <ele>286.5</ele>
        <time>2019-09-04T08:32:19Z</time>
      </trkpt>
      <trkpt lat="40.0608300" lon="0.0135620">
        <ele>281.5</ele>
        <time>2019-09-04T08:32:22Z</time>
      </trkpt>
      <trkpt lat="40.0607040" lon="0.0135710">
        <ele>279.5</ele>
        <time>2019-09-04T08:32:23Z</time>
      </trkpt>
      <trkpt lat="40.0605860" lon="0.0135210">
        <ele>278.0</ele>
        <time>2019-09-04T08:32:24Z</time>
      </trkpt>
      <trkpt lat="40.0604820" lon="0.0134210">
        <ele>277.3</ele>
        <time>2019-09-04T08:32:25Z</time>
      </trkpt>
      <trkpt lat="40.0600910" lon="0.0129460">
        <ele>279.7</ele>
        <time>2019-09-04T08:32:29Z</time>
      </trkpt>
      <trkpt lat="40.0596280" lon="0.0123680">
        <ele>280.2</ele>
        <time>2019-09-04T08:32:34Z</time>
      </trkpt>
      <trkpt lat="40.0595390" lon="0.0122570">
        <ele>279.6</ele>
        <time>2019-09-04T08:32:35Z</time>
      </trkpt>
      <trkpt lat="40.0592370" lon="0.0119530">
        <ele>277.3</ele>
        <time>2019-09-04T08:32:38Z</time>
      </trkpt>
      <trkpt lat="40.0591220" lon="0.0118730">
        <ele>276.4</ele>
        <time>2019-09-04T08:32:39Z</time>
      </trkpt>
      <trkpt lat="40.0585370" lon="0.0115010">
        <ele>272.1</ele>
        <time>2019-09-04T08:32:44Z</time>
      </trkpt>
      <trkpt lat="40.0584140" lon="0.0114510">
        <ele>271.4</ele>
        <time>2019-09-04T08:32:45Z</time>
      </trkpt>
      <trkpt lat="40.0582810" lon="0.0114310">
        <ele>270.6</ele>
        <time>2019-09-04T08:32:46Z</time>
      </trkpt>
      <trkpt lat="40.0581470" lon="0.0114520">
        <ele>269.7</ele>
        <time>2019-09-04T08:32:47Z</time>
      </trkpt>
      <trkpt lat="40.0580130" lon="0.0115040">
        <ele>268.6</ele>
        <time>2019-09-04T08:32:48Z</time>
      </trkpt>
      <trkpt lat="40.0577580" lon="0.0116260">
        <ele>266.4</ele>
        <time>2019-09-04T08:32:50Z</time>
      </trkpt>
      <trkpt lat="40.0575000" lon="0.0117210">
        <ele>264.6</ele>
        <time>2019-09-04T08:32:52Z</time>
      </trkpt>
      <trkpt lat="40.0573680" lon="0.0117380">
        <ele>263.6</ele>
        <time>2019-09-04T08:32:53Z</time>
      </trkpt>
      <trkpt lat="40.0572360" lon="0.0117290">
        <ele>262.7</ele>
        <time>2019-09-04T08:32:54Z</time>
      </trkpt>
      <trkpt lat="40.0569610" lon="0.0116760">
        <ele>260.7</ele>
        <time>2019-09-04T08:32:56Z</time>
      </trkpt>
      <trkpt lat="40.0564000" lon="0.0116490">
        <ele>256.5</ele>
        <time>2019-09-04T08:33:00Z</time>
      </trkpt>
      <trkpt lat="40.0558370" lon="0.0116440">
        <ele>253.4</ele>
        <time>2019-09-04T08:33:04Z</time>
      </trkpt>
      <trkpt lat="40.0556960" lon="0.0116320">
        <ele>252.6</ele>
        <time>2019-09-04T08:33:05Z</time>
      </trkpt>
      <trkpt lat="40.0555550" lon="0.0116010">
        <ele>251.9</ele>
        <time>2019-09-04T08:33:06Z</time>
      </trkpt>
      <trkpt lat="40.0554170" lon="0.0115520">
        <ele>251.3</ele>
        <time>2019-09-04T08:33:07Z</time>
      </trkpt>
      <trkpt lat="40.0551640" lon="0.0114290">
        <ele>250.2</ele>
        <time>2019-09-04T08:33:09Z</time>
      </trkpt>
      <trkpt lat="40.0546500" lon="0.0111790">
        <ele>246.9</ele>
        <time>2019-09-04T08:33:13Z</time>
      </trkpt>
      <trkpt lat="40.0545160" lon="0.0111380">
        <ele>246.1</ele>
        <time>2019-09-04T08:33:14Z</time>
      </trkpt>
      <trkpt lat="40.0543800" lon="0.0111250">
        <ele>245.3</ele>
        <time>2019-09-04T08:33:15Z</time>
      </trkpt>
      <trkpt lat="40.0542430" lon="0.0111350">
        <ele>244.5</ele>
        <time>2019-09-04T08:33:16Z</time>
      </trkpt>
      <trkpt lat="40.0538230" lon="0.0111860">
        <ele>241.1</ele>
        <time>2019-09-04T08:33:19Z</time>
      </trkpt>
      <trkpt lat="40.0536800" lon="0.0111830">
        <ele>240.0</ele>
        <time>2019-09-04T08:33:20Z</time>
      </trkpt>
      <trkpt lat="40.0533970" lon="0.0111430">
        <ele>237.8</ele>
        <time>2019-09-04T08:33:22Z</time>
      </trkpt>
      <trkpt lat="40.0532650" lon="0.0111110">
        <ele>236.7</ele>
        <time>2019-09-04T08:33:23Z</time>
      </trkpt>
      <trkpt lat="40.0531520" lon="0.0110500">
        <ele>235.7</ele>
        <time>2019-09-04T08:33:24Z</time>
      </trkpt>
      <trkpt lat="40.0530710" lon="0.0109500">
        <ele>234.7</ele>
        <time>2019-09-04T08:33:25Z</time>
      </trkpt>
      <trkpt lat="40.0530350" lon="0.0108180">
        <ele>233.8</ele>
        <time>2019-09-04T08:33:26Z</time>
      </trkpt>
      <trkpt lat="40.0530450" lon="0.0106680">
        <ele>233.0</ele>
        <time>2019-09-04T08:33:27Z</time>
      </trkpt>
      <trkpt lat="40.0530830" lon="0.0105100">
        <ele>232.0</ele>
        <time>2019-09-04T08:33:28Z</time>
      </trkpt>
      <trkpt lat="40.0533140" lon="0.0098900">
        <ele>228.6</ele>
        <time>2019-09-04T08:33:32Z</time>
      </trkpt>
      <trkpt lat="40.0534720" lon="0.0094140">
        <ele>226.1</ele>
        <time>2019-09-04T08:33:35Z</time>
      </trkpt>
      <trkpt lat="40.0534940" lon="0.0092490">
        <ele>225.3</ele>
        <time>2019-09-04T08:33:36Z</time>
      </trkpt>
      <trkpt lat="40.0535170" lon="0.0090830">
        <ele>224.5</ele>
        <time>2019-09-04T08:33:37Z</time>
      </trkpt>
      <trkpt lat="40.0536210" lon="0.0087650">
        <ele>222.9</ele>
        <time>2019-09-04T08:33:39Z</time>
      </trkpt>
      <trkpt lat="40.0538210" lon="0.0085340">
        <ele>221.2</ele>
        <time>2019-09-04T08:33:41Z</time>
      </trkpt>
      <trkpt lat="40.0540820" lon="0.0084370">
        <ele>219.6</ele>
        <time>2019-09-04T08:33:43Z</time>
      </trkpt>
      <trkpt lat="40.0547640" lon="0.0083260">
        <ele>214.3</ele>
        <time>2019-09-04T08:33:48Z</time>
      </trkpt>
      <trkpt lat="40.0549870" lon="0.0081290">
        <ele>211.7</ele>
        <time>2019-09-04T08:33:50Z</time>
      </trkpt>
      <trkpt lat="40.0551690" lon="0.0078740">
        <ele>208.9</ele>
        <time>2019-09-04T08:33:52Z</time>
      </trkpt>
      <trkpt lat="40.0552200" lon="0.0077200">
        <ele>207.5</ele>
        <time>2019-09-04T08:33:53Z</time>
      </trkpt>
      <trkpt lat="40.0552360" lon="0.0075520">
        <ele>206.2</ele>
        <time>2019-09-04T08:33:54Z</time>
      </trkpt>
      <trkpt lat="40.0552190" lon="0.0073820">
        <ele>204.8</ele>
        <time>2019-09-04T08:33:55Z</time>
      </trkpt>
      <trkpt lat="40.0551270" lon="0.0065190">
        <ele>200.8</ele>
        <time>2019-09-04T08:34:00Z</time>
      </trkpt>
      <trkpt lat="40.0551000" lon="0.0063500">
        <ele>200.1</ele>
        <time>2019-09-04T08:34:01Z</time>
      </trkpt>
      <trkpt lat="40.0549420" lon="0.0056920">
        <ele>197.9</ele>
        <time>2019-09-04T08:34:05Z</time>
      </trkpt>
      <trkpt lat="40.0548900" lon="0.0055300">
        <ele>197.5</ele>
        <time>2019-09-04T08:34:06Z</time>
      </trkpt>
      <trkpt lat="40.0547220" lon="0.0052550">
        <ele>196.5</ele>
        <time>2019-09-04T08:34:08Z</time>
      </trkpt>
      <trkpt lat="40.0543000" lon="0.0048200">
        <ele>193.0</ele>
        <time>2019-09-04T08:34:12Z</time>
      </trkpt>
      <trkpt lat="40.0540870" lon="0.0046290">
        <ele>191.0</ele>
        <time>2019-09-04T08:34:14Z</time>
      </trkpt>
      <trkpt lat="40.0539690" lon="0.0045860">
        <ele>190.6</ele>
        <time>2019-09-04T08:34:15Z</time>
      </trkpt>
      <trkpt lat="40.0538420" lon="0.0045940">
        <ele>190.2</ele>
        <time>2019-09-04T08:34:16Z</time>
      </trkpt>
      <trkpt lat="40.0535840" lon="0.0046580">
        <ele>189.5</ele>
        <time>2019-09-04T08:34:18Z</time>
      </trkpt>
      <trkpt lat="40.0532030" lon="0.0048050">
        <ele>188.6</ele>
        <time>2019-09-04T08:34:21Z</time>
      </trkpt>
      <trkpt lat="40.0530060" lon="0.0050400">
        <ele>188.0</ele>
        <time>2019-09-04T08:34:23Z</time>
      </trkpt>
      <trkpt lat="40.0527540" lon="0.0054340">
        <ele>186.9</ele>
        <time>2019-09-04T08:34:26Z</time>
      </trkpt>
      <trkpt lat="40.0526450" lon="0.0055300">
        <ele>186.6</ele>
        <time>2019-09-04T08:34:27Z</time>
      </trkpt>
      <trkpt lat="40.0525230" lon="0.0055990">
        <ele>186.4</ele>
        <time>2019-09-04T08:34:28Z</time>
      </trkpt>
      <trkpt lat="40.0522650" lon="0.0056930">
        <ele>185.9</ele>
        <time>2019-09-04T08:34:30Z</time>
      </trkpt>
      <trkpt lat="40.0521350" lon="0.0057180">
        <ele>185.6</ele>
        <time>2019-09-04T08:34:31Z</time>
      </trkpt>
      <trkpt lat="40.0520030" lon="0.0057060">
        <ele>185.3</ele>
        <time>2019-09-04T08:34:32Z</time>
      </trkpt>
      <trkpt lat="40.0518770" lon="0.0056530">
        <ele>185.0</ele>
        <time>2019-09-04T08:34:33Z</time>
      </trkpt>
      <trkpt lat="40.0516380" lon="0.0054970">
        <ele>184.2</ele>
        <time>2019-09-04T08:34:35Z</time>
      </trkpt>
      <trkpt lat="40.0514000" lon="0.0053460">
        <ele>182.9</ele>
        <time>2019-09-04T08:34:37Z</time>
      </trkpt>
      <trkpt lat="40.0512720" lon="0.0053270">
        <ele>181.9</ele>
        <time>2019-09-04T08:34:38Z</time>
      </trkpt>
      <trkpt lat="40.0511480" lon="0.0053670">
        <ele>180.9</ele>
        <time>2019-09-04T08:34:39Z</time>
      </trkpt>
      <trkpt lat="40.0510360" lon="0.0054500">
        <ele>179.9</ele>
        <time>2019-09-04T08:34:40Z</time>
      </trkpt>
      <trkpt lat="40.0506990" lon="0.0057420">
        <ele>176.9</ele>
        <time>2019-09-04T08:34:43Z</time>
      </trkpt>
      <trkpt lat="40.0505700" lon="0.0057840">
        <ele>175.9</ele>
        <time>2019-09-04T08:34:44Z</time>
      </trkpt>
      <trkpt lat="40.0504440" lon="0.0057660">
        <ele>174.9</ele>
        <time>2019-09-04T08:34:45Z</time>
      </trkpt>
      <trkpt lat="40.0503390" lon="0.0056890">
        <ele>173.8</ele>
        <time>2019-09-04T08:34:46Z</time>
      </trkpt>
      <trkpt lat="40.0502560" lon="0.0055650">
        <ele>172.7</ele>
        <time>2019-09-04T08:34:47Z</time>
      </trkpt>
      <trkpt lat="40.0501890" lon="0.0054170">
        <ele>171.6</ele>
        <time>2019-09-04T08:34:48Z</time>
      </trkpt>
      <trkpt lat="40.0499220" lon="0.0046410">
        <ele>167.2</ele>
        <time>2019-09-04T08:34:53Z</time>
      </trkpt>
      <trkpt lat="40.0498670" lon="0.0044870">
        <ele>166.5</ele>
        <time>2019-09-04T08:34:54Z</time>
      </trkpt>
      <trkpt lat="40.0497650" lon="0.0041740">
        <ele>164.7</ele>
        <time>2019-09-04T08:34:56Z</time>
      </trkpt>
      <trkpt lat="40.0497060" lon="0.0038380">
        <ele>163.0</ele>
        <time>2019-09-04T08:34:58Z</time>
      </trkpt>
      <trkpt lat="40.0496100" lon="0.0029740">
        <ele>158.8</ele>
        <time>2019-09-04T08:35:03Z</time>
      </trkpt>
      <trkpt lat="40.0495620" lon="0.0024640">
        <ele>156.0</ele>
        <time>2019-09-04T08:35:06Z</time>
      </trkpt>
      <trkpt lat="40.0496040" lon="0.0021440">
        <ele>154.1</ele>
        <time>2019-09-04T08:35:08Z</time>
      </trkpt>
      <trkpt lat="40.0497000" lon="0.0018510">
        <ele>152.4</ele>
        <time>2019-09-04T08:35:10Z</time>
      </trkpt>
      <trkpt lat="40.0497080" lon="0.0016940">
        <ele>151.6</ele>
        <time>2019-09-04T08:35:11Z</time>
      </trkpt>
      <trkpt lat="40.0496790" lon="0.0015430">
        <ele>150.8</ele>
        <time>2019-09-04T08:35:12Z</time>
      </trkpt>
      <trkpt lat="40.0495890" lon="0.0012580">
        <ele>149.3</ele>
        <time>2019-09-04T08:35:14Z</time>
      </trkpt>
      <trkpt lat="40.0495300" lon="0.0009700">
        <ele>147.9</ele>
        <time>2019-09-04T08:35:16Z</time>
      </trkpt>
      <trkpt lat="40.0495340" lon="0.0008200">
        <ele>147.2</ele>
        <time>2019-09-04T08:35:17Z</time>
      </trkpt>
      <trkpt lat="40.0495630" lon="0.0006710">
        <ele>146.5</ele>
        <time>2019-09-04T08:35:18Z</time>
      </trkpt>
      <trkpt lat="40.0496160" lon="0.0005340">
        <ele>145.7</ele>
        <time>2019-09-04T08:35:19Z</time>
      </trkpt>
      <trkpt lat="40.0496900" lon="0.0004130">
        <ele>144.8</ele>
        <time>2019-09-04T08:35:20Z</time>
      </trkpt>
      <trkpt lat="40.0497870" lon="0.0003250">
        <ele>143.9</ele>
        <time>2019-09-04T08:35:21Z</time>
      </trkpt>
      <trkpt lat="40.0499060" lon="0.0002820">
        <ele>142.8</ele>
        <time>2019-09-04T08:35:22Z</time>
      </trkpt>
      <trkpt lat="40.0500360" lon="0.0002860">
        <ele>141.7</ele>
        <time>2019-09-04T08:35:23Z</time>
      </trkpt>
      <trkpt lat="40.0502850" lon="0.0003460">
        <ele>140.1</ele>
        <time>2019-09-04T08:35:25Z</time>
      </trkpt>
      <trkpt lat="40.0503950" lon="0.0003320">
        <ele>139.3</ele>
        <time>2019-09-04T08:35:26Z</time>
      </trkpt>
      <trkpt lat="40.0505010" lon="0.0002650">
        <ele>138.6</ele>
        <time>2019-09-04T08:35:27Z</time>
      </trkpt>
      <trkpt lat="40.0505880" lon="0.0001620">
        <ele>137.9</ele>
        <time>2019-09-04T08:35:28Z</time>
      </trkpt>
      <trkpt lat="40.0506450" lon="0.0000370">
        <ele>137.2</ele>
        <time>2019-09-04T08:35:29Z</time>
      </trkpt>
      <trkpt lat="40.0506760" lon="-0.0000930">
        <ele>136.2</ele>
        <time>2019-09-04T08:35:30Z</time>
      </trkpt>
      <trkpt lat="40.0506640" lon="-0.0002280">
        <ele>135.4</ele>
        <time>2019-09-04T08:35:31Z</time>
      </trkpt>
      <trkpt lat="40.0506170" lon="-0.0003550">
        <ele>134.6</ele>
        <time>2019-09-04T08:35:32Z</time>
      </trkpt>
      <trkpt lat="40.0505410" lon="-0.0004660">
        <ele>133.9</ele>
        <time>2019-09-04T08:35:33Z</time>
      </trkpt>
      <trkpt lat="40.0504460" lon="-0.0005540">
        <ele>133.1</ele>
        <time>2019-09-04T08:35:34Z</time>
      </trkpt>
      <trkpt lat="40.0499620" lon="-0.0009030">
        <ele>129.6</ele>
        <time>2019-09-04T08:35:39Z</time>
      </trkpt>
      <trkpt lat="40.0496730" lon="-0.0010880">
        <ele>127.4</ele>
        <time>2019-09-04T08:35:42Z</time>
      </trkpt>
      <trkpt lat="40.0495690" lon="-0.0011100">
        <ele>126.7</ele>
        <time>2019-09-04T08:35:43Z</time>
      </trkpt>
      <trkpt lat="40.0494660" lon="-0.0010870">
        <ele>126.0</ele>
        <time>2019-09-04T08:35:44Z</time>
      </trkpt>
      <trkpt lat="40.0493720" lon="-0.0010240">
        <ele>125.3</ele>
        <time>2019-09-04T08:35:45Z</time>
      </trkpt>
      <trkpt lat="40.0492980" lon="-0.0009280">
        <ele>124.7</ele>
        <time>2019-09-04T08:35:46Z</time>
      </trkpt>
      <trkpt lat="40.0492420" lon="-0.0008120">
        <ele>124.0</ele>
        <time>2019-09-04T08:35:47Z</time>
      </trkpt>
      <trkpt lat="40.0492030" lon="-0.0006800">
        <ele>123.5</ele>
        <time>2019-09-04T08:35:48Z</time>
      </trkpt>
      <trkpt lat="40.0491440" lon="-0.0004040">
        <ele>122.1</ele>
        <time>2019-09-04T08:35:50Z</time>
      </trkpt>
      <trkpt lat="40.0490640" lon="-0.0001480">
        <ele>121.4</ele>
        <time>2019-09-04T08:35:52Z</time>
      </trkpt>
      <trkpt lat="40.0490060" lon="-0.0000350">
        <ele>121.1</ele>
        <time>2019-09-04T08:35:53Z</time>
      </trkpt>
      <trkpt lat="40.0489260" lon="0.0000660">
        <ele>120.6</ele>
        <time>2019-09-04T08:35:54Z</time>
      </trkpt>
      <trkpt lat="40.0487370" lon="0.0002340">
        <ele>119.5</ele>
        <time>2019-09-04T08:35:56Z</time>
      </trkpt>
      <trkpt lat="40.0484230" lon="0.0004470">
        <ele>118.0</ele>
        <time>2019-09-04T08:35:59Z</time>
      </trkpt>
      <trkpt lat="40.0483070" lon="0.0004980">
        <ele>117.5</ele>
        <time>2019-09-04T08:36:00Z</time>
      </trkpt>
      <trkpt lat="40.0478340" lon="0.0006340">
        <ele>114.4</ele>
        <time>2019-09-04T08:36:04Z</time>
      </trkpt>
      <trkpt lat="40.0472530" lon="0.0007850">
        <ele>109.9</ele>
        <time>2019-09-04T08:36:09Z</time>
      </trkpt>
      <trkpt lat="40.0471380" lon="0.0008140">
        <ele>109.1</ele>
        <time>2019-09-04T08:36:10Z</time>
      </trkpt>
      <trkpt lat="40.0466990" lon="0.0008950">
        <ele>108.1</ele>
        <time>2019-09-04T08:36:14Z</time>
      </trkpt>
      <trkpt lat="40.0466000" lon="0.0008770">
        <ele>107.7</ele>
        <time>2019-09-04T08:36:15Z</time>
      </trkpt>
      <trkpt lat="40.0465020" lon="0.0008280">
        <ele>107.4</ele>
        <time>2019-09-04T08:36:16Z</time>
      </trkpt>
      <trkpt lat="40.0464090" lon="0.0007700">
        <ele>107.2</ele>
        <time>2019-09-04T08:36:17Z</time>
      </trkpt>
      <trkpt lat="40.0461540" lon="0.0005740">
        <ele>107.1</ele>
        <time>2019-09-04T08:36:20Z</time>
      </trkpt>
      <trkpt lat="40.0458440" lon="0.0003540">
        <ele>107.1</ele>
        <time>2019-09-04T08:36:24Z</time>
      </trkpt>
      <trkpt lat="40.0455500" lon="0.0001470">
        <ele>105.9</ele>
        <time>2019-09-04T08:36:28Z</time>
      </trkpt>
      <trkpt lat="40.0452400" lon="-0.0000330">
        <ele>104.0</ele>
        <time>2019-09-04T08:36:32Z</time>
      </trkpt>
      <trkpt lat="40.0451620" lon="-0.0000860">
        <ele>103.6</ele>
        <time>2019-09-04T08:36:33Z</time>
      </trkpt>
      <trkpt lat="40.0448410" lon="-0.0003630">
        <ele>101.1</ele>
        <time>2019-09-04T08:36:37Z</time>
      </trkpt>
      <trkpt lat="40.0447660" lon="-0.0004520">
        <ele>100.3</ele>
        <time>2019-09-04T08:36:38Z</time>
      </trkpt>
      <trkpt lat="40.0444490" lon="-0.0009690">
        <ele>96.5</ele>
        <time>2019-09-04T08:36:43Z</time>
      </trkpt>
      <trkpt lat="40.0441410" lon="-0.0015050">
        <ele>93.0</ele>
        <time>2019-09-04T08:36:48Z</time>
      </trkpt>
      <trkpt lat="40.0439410" lon="-0.0017990">
        <ele>92.0</ele>
        <time>2019-09-04T08:36:51Z</time>
      </trkpt>
      <trkpt lat="40.0438640" lon="-0.0018850">
        <ele>91.9</ele>
        <time>2019-09-04T08:36:52Z</time>
      </trkpt>
      <trkpt lat="40.0437840" lon="-0.0019640">
        <ele>91.8</ele>
        <time>2019-09-04T08:36:53Z</time>
      </trkpt>
      <trkpt lat="40.0436160" lon="-0.0020850">
        <ele>91.5</ele>
        <time>2019-09-04T08:36:55Z</time>
      </trkpt>
      <trkpt lat="40.0431230" lon="-0.0024290">
        <ele>89.3</ele>
        <time>2019-09-04T08:37:01Z</time>
      </trkpt>
      <trkpt lat="40.0430460" lon="-0.0024790">
        <ele>89.0</ele>
        <time>2019-09-04T08:37:02Z</time>
      </trkpt>
      <trkpt lat="40.0427470" lon="-0.0026870">
        <ele>87.5</ele>
        <time>2019-09-04T08:37:06Z</time>
      </trkpt>
      <trkpt lat="40.0424260" lon="-0.0028800">
        <ele>86.7</ele>
        <time>2019-09-04T08:37:10Z</time>
      </trkpt>
      <trkpt lat="40.0423490" lon="-0.0029260">
        <ele>86.5</ele>
        <time>2019-09-04T08:37:11Z</time>
      </trkpt>
      <trkpt lat="40.0420320" lon="-0.0031360">
        <ele>85.7</ele>
        <time>2019-09-04T08:37:15Z</time>
      </trkpt>
      <trkpt lat="40.0417260" lon="-0.0033510">
        <ele>84.5</ele>
        <time>2019-09-04T08:37:19Z</time>
      </trkpt>
      <trkpt lat="40.0414210" lon="-0.0035660">
        <ele>83.8</ele>
        <time>2019-09-04T08:37:23Z</time>
      </trkpt>
      <trkpt lat="40.0410320" lon="-0.0038380">
        <ele>82.6</ele>
        <time>2019-09-04T08:37:28Z</time>
      </trkpt>
      <trkpt lat="40.0407270" lon="-0.0040460">
        <ele>81.5</ele>
        <time>2019-09-04T08:37:32Z</time>
      </trkpt>
      <trkpt lat="40.0403410" lon="-0.0043140">
        <ele>80.2</ele>
        <time>2019-09-04T08:37:37Z</time>
      </trkpt>
      <trkpt lat="40.0400260" lon="-0.0045190">
        <ele>79.8</ele>
        <time>2019-09-04T08:37:41Z</time>
      </trkpt>
      <trkpt lat="40.0398610" lon="-0.0046310">
        <ele>79.5</ele>
        <time>2019-09-04T08:37:43Z</time>
      </trkpt>
      <trkpt lat="40.0393980" lon="-0.0049220">
        <ele>78.8</ele>
        <time>2019-09-04T08:37:48Z</time>
      </trkpt>
      <trkpt lat="40.0393010" lon="-0.0049840">
        <ele>78.6</ele>
        <time>2019-09-04T08:37:49Z</time>
      </trkpt>
      <trkpt lat="40.0389040" lon="-0.0052520">
        <ele>77.5</ele>
        <time>2019-09-04T08:37:53Z</time>
      </trkpt>
      <trkpt lat="40.0388090" lon="-0.0053170">
        <ele>77.1</ele>
        <time>2019-09-04T08:37:54Z</time>
      </trkpt>
      <trkpt lat="40.0386080" lon="-0.0054560">
        <ele>76.0</ele>
        <time>2019-09-04T08:37:56Z</time>
      </trkpt>
      <trkpt lat="40.0380990" lon="-0.0058100">
        <ele>73.0</ele>
        <time>2019-09-04T08:38:01Z</time>
      </trkpt>
      <trkpt lat="40.0379970" lon="-0.0058770">
        <ele>72.4</ele>
        <time>2019-09-04T08:38:02Z</time>
      </trkpt>
      <trkpt lat="40.0374930" lon="-0.0062150">
        <ele>69.4</ele>
        <time>2019-09-04T08:38:07Z</time>
      </trkpt>
      <trkpt lat="40.0373000" lon="-0.0063450">
        <ele>68.3</ele>
        <time>2019-09-04T08:38:09Z</time>
      </trkpt>
      <trkpt lat="40.0368130" lon="-0.0065920">
        <ele>66.5</ele>
        <time>2019-09-04T08:38:14Z</time>
      </trkpt>
      <trkpt lat="40.0363090" lon="-0.0067300">
        <ele>65.7</ele>
        <time>2019-09-04T08:38:19Z</time>
      </trkpt>
      <trkpt lat="40.0357030" lon="-0.0068650">
        <ele>65.0</ele>
        <time>2019-09-04T08:38:25Z</time>
      </trkpt>
      <trkpt lat="40.0351790" lon="-0.0069740">
        <ele>63.9</ele>
        <time>2019-09-04T08:38:30Z</time>
      </trkpt>
      <trkpt lat="40.0345440" lon="-0.0071280">
        <ele>60.5</ele>
        <time>2019-09-04T08:38:36Z</time>
      </trkpt>
      <trkpt lat="40.0340180" lon="-0.0072080">
        <ele>57.9</ele>
        <time>2019-09-04T08:38:41Z</time>
      </trkpt>
      <trkpt lat="40.0339170" lon="-0.0072060">
        <ele>57.2</ele>
        <time>2019-09-04T08:38:42Z</time>
      </trkpt>
      <trkpt lat="40.0337560" lon="-0.0071420">
        <ele>56.0</ele>
        <time>2019-09-04T08:38:44Z</time>
      </trkpt>
      <trkpt lat="40.0336710" lon="-0.0070750">
        <ele>55.5</ele>
        <time>2019-09-04T08:38:46Z</time>
      </trkpt>
      <trkpt lat="40.0336560" lon="-0.0070620">
        <ele>55.4</ele>
        <time>2019-09-04T08:38:47Z</time>
      </trkpt>
      <trkpt lat="40.0334240" lon="-0.0068070">
        <ele>53.8</ele>
        <time>2019-09-04T08:41:13Z</time>
      </trkpt>
      <trkpt lat="40.0334000" lon="-0.0067860">
        <ele>53.6</ele>
        <time>2019-09-04T08:41:14Z</time>
      </trkpt>
      <trkpt lat="40.0333360" lon="-0.0067450">
        <ele>53.1</ele>
        <time>2019-09-04T08:41:16Z</time>
      </trkpt>
      <trkpt lat="40.0332290" lon="-0.0066690">
        <ele>52.6</ele>
        <time>2019-09-04T08:41:19Z</time>
      </trkpt>
      <trkpt lat="40.0331520" lon="-0.0066100">
        <ele>52.3</ele>
        <time>2019-09-04T08:41:21Z</time>
      </trkpt>
      <trkpt lat="40.0331110" lon="-0.0065850">
        <ele>52.1</ele>
        <time>2019-09-04T08:41:22Z</time>
      </trkpt>
      <trkpt lat="40.0330660" lon="-0.0065610">
        <ele>51.8</ele>
        <time>2019-09-04T08:41:23Z</time>
      </trkpt>
      <trkpt lat="40.0329710" lon="-0.0065210">
        <ele>51.3</ele>
        <time>2019-09-04T08:41:25Z</time>
      </trkpt>
      <trkpt lat="40.0329220" lon="-0.0065100">
        <ele>51.0</ele>
        <time>2019-09-04T08:41:26Z</time>
      </trkpt>
      <trkpt lat="40.0328250" lon="-0.0065020">
        <ele>50.3</ele>
        <time>2019-09-04T08:41:28Z</time>
      </trkpt>
      <trkpt lat="40.0327080" lon="-0.0065250">
        <ele>49.6</ele>
        <time>2019-09-04T08:41:30Z</time>
      </trkpt>
      <trkpt lat="40.0322260" lon="-0.0066540">
        <ele>47.4</ele>
        <time>2019-09-04T08:41:38Z</time>
      </trkpt>
      <trkpt lat="40.0320240" lon="-0.0067100">
        <ele>46.7</ele>
        <time>2019-09-04T08:41:41Z</time>
      </trkpt>
      <trkpt lat="40.0317660" lon="-0.0067800">
        <ele>46.1</ele>
        <time>2019-09-04T08:41:45Z</time>
      </trkpt>
      <trkpt lat="40.0317010" lon="-0.0068010">
        <ele>46.0</ele>
        <time>2019-09-04T08:41:46Z</time>
      </trkpt>
      <trkpt lat="40.0315100" lon="-0.0068520">
        <ele>45.6</ele>
        <time>2019-09-04T08:41:49Z</time>
      </trkpt>
      <trkpt lat="40.0313410" lon="-0.0068930">
        <ele>45.2</ele>
        <time>2019-09-04T08:41:52Z</time>
      </trkpt>
      <trkpt lat="40.0311810" lon="-0.0069400">
        <ele>44.8</ele>
        <time>2019-09-04T08:41:55Z</time>
      </trkpt>
      <trkpt lat="40.0310770" lon="-0.0069640">
        <ele>44.6</ele>
        <time>2019-09-04T08:41:57Z</time>
      </trkpt>
      <trkpt lat="40.0309220" lon="-0.0069980">
        <ele>44.4</ele>
        <time>2019-09-04T08:42:00Z</time>
      </trkpt>
      <trkpt lat="40.0307770" lon="-0.0070340">
        <ele>44.3</ele>
        <time>2019-09-04T08:42:03Z</time>
      </trkpt>
      <trkpt lat="40.0307300" lon="-0.0070480">
        <ele>44.3</ele>
        <time>2019-09-04T08:42:04Z</time>
      </trkpt>
      <trkpt lat="40.0305860" lon="-0.0070930">
        <ele>44.2</ele>
        <time>2019-09-04T08:42:07Z</time>
      </trkpt>
      <trkpt lat="40.0304890" lon="-0.0071180">
        <ele>44.2</ele>
        <time>2019-09-04T08:42:09Z</time>
      </trkpt>
      <trkpt lat="40.0303350" lon="-0.0071500">
        <ele>44.0</ele>
        <time>2019-09-04T08:42:12Z</time>
      </trkpt>
      <trkpt lat="40.0298800" lon="-0.0072700">
        <ele>42.4</ele>
        <time>2019-09-04T08:42:20Z</time>
      </trkpt>
      <trkpt lat="40.0294500" lon="-0.0073890">
        <ele>41.1</ele>
        <time>2019-09-04T08:42:26Z</time>
      </trkpt>
      <trkpt lat="40.0289230" lon="-0.0075320">
        <ele>39.2</ele>
        <time>2019-09-04T08:42:32Z</time>
      </trkpt>
      <trkpt lat="40.0283450" lon="-0.0076810">
        <ele>37.1</ele>
        <time>2019-09-04T08:42:38Z</time>
      </trkpt>
      <trkpt lat="40.0280480" lon="-0.0077620">
        <ele>36.1</ele>
        <time>2019-09-04T08:42:41Z</time>
      </trkpt>
      <trkpt lat="40.0278690" lon="-0.0078110">
        <ele>35.5</ele>
        <time>2019-09-04T08:42:43Z</time>
      </trkpt>
      <trkpt lat="40.0277270" lon="-0.0078570">
        <ele>35.0</ele>
        <time>2019-09-04T08:42:45Z</time>
      </trkpt>
      <trkpt lat="40.0276170" lon="-0.0078920">
        <ele>34.6</ele>
        <time>2019-09-04T08:42:47Z</time>
      </trkpt>
      <trkpt lat="40.0275380" lon="-0.0079120">
        <ele>34.3</ele>
        <time>2019-09-04T08:42:49Z</time>
      </trkpt>
      <trkpt lat="40.0274820" lon="-0.0079290">
        <ele>34.2</ele>
        <time>2019-09-04T08:42:52Z</time>
      </trkpt>
      <trkpt lat="40.0273080" lon="-0.0079640">
        <ele>33.6</ele>
        <time>2019-09-04T08:42:53Z</time>
      </trkpt>
      <trkpt lat="40.0271350" lon="-0.0080000">
        <ele>33.1</ele>
        <time>2019-09-04T08:43:31Z</time>
      </trkpt>
      <trkpt lat="40.0269610" lon="-0.0080350">
        <ele>32.1</ele>
        <time>2019-09-04T08:43:32Z</time>
      </trkpt>
      <trkpt lat="40.0268370" lon="-0.0080460">
        <ele>31.5</ele>
        <time>2019-09-04T08:43:34Z</time>
      </trkpt>
      <trkpt lat="40.0267740" lon="-0.0080590">
        <ele>31.3</ele>
        <time>2019-09-04T08:43:35Z</time>
      </trkpt>
      <trkpt lat="40.0266340" lon="-0.0081170">
        <ele>30.7</ele>
        <time>2019-09-04T08:43:37Z</time>
      </trkpt>
      <trkpt lat="40.0265610" lon="-0.0081600">
        <ele>30.5</ele>
        <time>2019-09-04T08:43:38Z</time>
      </trkpt>
      <trkpt lat="40.0264280" lon="-0.0082790">
        <ele>30.0</ele>
        <time>2019-09-04T08:43:40Z</time>
      </trkpt>
      <trkpt lat="40.0263670" lon="-0.0083500">
        <ele>29.8</ele>
        <time>2019-09-04T08:43:41Z</time>
      </trkpt>
      <trkpt lat="40.0263060" lon="-0.0084140">
        <ele>29.6</ele>
        <time>2019-09-04T08:43:42Z</time>
      </trkpt>
      <trkpt lat="40.0261670" lon="-0.0084850">
        <ele>29.2</ele>
        <time>2019-09-04T08:43:44Z</time>
      </trkpt>
      <trkpt lat="40.0260160" lon="-0.0084530">
        <ele>28.9</ele>
        <time>2019-09-04T08:43:46Z</time>
      </trkpt>
      <trkpt lat="40.0259500" lon="-0.0084040">
        <ele>28.8</ele>
        <time>2019-09-04T08:43:47Z</time>
      </trkpt>
      <trkpt lat="40.0258900" lon="-0.0083370">
        <ele>28.7</ele>
        <time>2019-09-04T08:43:48Z</time>
      </trkpt>
      <trkpt lat="40.0256980" lon="-0.0081230">
        <ele>28.4</ele>
        <time>2019-09-04T08:43:51Z</time>
      </trkpt>
      <trkpt lat="40.0254790" lon="-0.0079140">
        <ele>27.7</ele>
        <time>2019-09-04T08:43:54Z</time>
      </trkpt>
      <trkpt lat="40.0253410" lon="-0.0077200">
        <ele>26.9</ele>
        <time>2019-09-04T08:43:56Z</time>
      </trkpt>
      <trkpt lat="40.0252860" lon="-0.0076150">
        <ele>26.7</ele>
        <time>2019-09-04T08:43:57Z</time>
      </trkpt>
      <trkpt lat="40.0252130" lon="-0.0074000">
        <ele>26.5</ele>
        <time>2019-09-04T08:43:59Z</time>
      </trkpt>
      <trkpt lat="40.0251870" lon="-0.0072930">
        <ele>26.5</ele>
        <time>2019-09-04T08:44:00Z</time>
      </trkpt>
      <trkpt lat="40.0251650" lon="-0.0070770">
        <ele>26.5</ele>
        <time>2019-09-04T08:44:02Z</time>
      </trkpt>
      <trkpt lat="40.0251590" lon="-0.0069770">
        <ele>26.5</ele>
        <time>2019-09-04T08:44:03Z</time>
      </trkpt>
      <trkpt lat="40.0251590" lon="-0.0068760">
        <ele>26.5</ele>
        <time>2019-09-04T08:44:04Z</time>
      </trkpt>
      <trkpt lat="40.0251720" lon="-0.0066650">
        <ele>26.4</ele>
        <time>2019-09-04T08:44:06Z</time>
      </trkpt>
      <trkpt lat="40.0251990" lon="-0.0059430">
        <ele>24.8</ele>
        <time>2019-09-04T08:44:13Z</time>
      </trkpt>
      <trkpt lat="40.0251890" lon="-0.0056300">
        <ele>24.4</ele>
        <time>2019-09-04T08:44:16Z</time>
      </trkpt>
      <trkpt lat="40.0251800" lon="-0.0054250">
        <ele>24.3</ele>
        <time>2019-09-04T08:44:18Z</time>
      </trkpt>
      <trkpt lat="40.0251720" lon="-0.0051310">
        <ele>24.3</ele>
        <time>2019-09-04T08:44:21Z</time>
      </trkpt>
      <trkpt lat="40.0251790" lon="-0.0048310">
        <ele>24.3</ele>
        <time>2019-09-04T08:44:24Z</time>
      </trkpt>
      <trkpt lat="40.0252120" lon="-0.0046400">
        <ele>24.3</ele>
        <time>2019-09-04T08:44:26Z</time>
      </trkpt>
      <trkpt lat="40.0252390" lon="-0.0045510">
        <ele>24.4</ele>
        <time>2019-09-04T08:44:27Z</time>
      </trkpt>
      <trkpt lat="40.0253340" lon="-0.0042940">
        <ele>24.6</ele>
        <time>2019-09-04T08:44:30Z</time>
      </trkpt>
      <trkpt lat="40.0254140" lon="-0.0041330">
        <ele>24.8</ele>
        <time>2019-09-04T08:44:32Z</time>
      </trkpt>
      <trkpt lat="40.0256400" lon="-0.0037560">
        <ele>25.5</ele>
        <time>2019-09-04T08:44:37Z</time>
      </trkpt>
      <trkpt lat="40.0258050" lon="-0.0034600">
        <ele>26.1</ele>
        <time>2019-09-04T08:44:41Z</time>
      </trkpt>
      <trkpt lat="40.0260110" lon="-0.0029990">
        <ele>26.5</ele>
        <time>2019-09-04T08:44:47Z</time>
      </trkpt>
      <trkpt lat="40.0260460" lon="-0.0028320">
        <ele>26.4</ele>
        <time>2019-09-04T08:44:49Z</time>
      </trkpt>
      <trkpt lat="40.0260200" lon="-0.0026750">
        <ele>26.3</ele>
        <time>2019-09-04T08:44:51Z</time>
      </trkpt>
      <trkpt lat="40.0259560" lon="-0.0025460">
        <ele>25.8</ele>
        <time>2019-09-04T08:44:53Z</time>
      </trkpt>
      <trkpt lat="40.0258740" lon="-0.0024690">
        <ele>25.5</ele>
        <time>2019-09-04T08:44:55Z</time>
      </trkpt>
      <trkpt lat="40.0256290" lon="-0.0023930">
        <ele>24.8</ele>
        <time>2019-09-04T08:44:59Z</time>
      </trkpt>
      <trkpt lat="40.0252060" lon="-0.0023260">
        <ele>24.1</ele>
        <time>2019-09-04T08:45:05Z</time>
      </trkpt>
      <trkpt lat="40.0247980" lon="-0.0023430">
        <ele>22.6</ele>
        <time>2019-09-04T08:45:10Z</time>
      </trkpt>
      <trkpt lat="40.0247110" lon="-0.0023490">
        <ele>22.3</ele>
        <time>2019-09-04T08:45:11Z</time>
      </trkpt>
      <trkpt lat="40.0244430" lon="-0.0023610">
        <ele>21.3</ele>
        <time>2019-09-04T08:45:14Z</time>
      </trkpt>
      <trkpt lat="40.0241560" lon="-0.0023710">
        <ele>20.0</ele>
        <time>2019-09-04T08:45:17Z</time>
      </trkpt>
      <trkpt lat="40.0237500" lon="-0.0023830">
        <ele>18.0</ele>
        <time>2019-09-04T08:45:21Z</time>
      </trkpt>
      <trkpt lat="40.0236500" lon="-0.0023880">
        <ele>17.5</ele>
        <time>2019-09-04T08:45:22Z</time>
      </trkpt>
      <trkpt lat="40.0234440" lon="-0.0023900">
        <ele>16.4</ele>
        <time>2019-09-04T08:45:24Z</time>
      </trkpt>
      <trkpt lat="40.0233440" lon="-0.0023740">
        <ele>15.9</ele>
        <time>2019-09-04T08:45:25Z</time>
      </trkpt>
      <trkpt lat="40.0231400" lon="-0.0022860">
        <ele>15.2</ele>
        <time>2019-09-04T08:45:27Z</time>
      </trkpt>
      <trkpt lat="40.0229450" lon="-0.0022130">
        <ele>14.7</ele>
        <time>2019-09-04T08:45:29Z</time>
      </trkpt>
      <trkpt lat="40.0228930" lon="-0.0021760">
        <ele>14.6</ele>
        <time>2019-09-04T08:45:30Z</time>
      </trkpt>
      <trkpt lat="40.0228300" lon="-0.0021390">
        <ele>14.2</ele>
        <time>2019-09-04T08:45:31Z</time>
      </trkpt>
      <trkpt lat="40.0227490" lon="-0.0021390">
        <ele>13.9</ele>
        <time>2019-09-04T08:45:32Z</time>
      </trkpt>
      <trkpt lat="40.0226750" lon="-0.0021590">
        <ele>13.6</ele>
        <time>2019-09-04T08:45:33Z</time>
      </trkpt>
      <trkpt lat="40.0225510" lon="-0.0022470">
        <ele>13.0</ele>
        <time>2019-09-04T08:45:35Z</time>
      </trkpt>
      <trkpt lat="40.0223550" lon="-0.0024620">
        <ele>12.5</ele>
        <time>2019-09-04T08:45:39Z</time>
      </trkpt>
      <trkpt lat="40.0223070" lon="-0.0025250">
        <ele>12.5</ele>
        <time>2019-09-04T08:45:40Z</time>
      </trkpt>
      <trkpt lat="40.0221960" lon="-0.0026380">
        <ele>12.4</ele>
        <time>2019-09-04T08:45:42Z</time>
      </trkpt>
      <trkpt lat="40.0220670" lon="-0.0027200">
        <ele>12.2</ele>
        <time>2019-09-04T08:45:44Z</time>
      </trkpt>
      <trkpt lat="40.0218780" lon="-0.0027610">
        <ele>11.7</ele>
        <time>2019-09-04T08:45:47Z</time>
      </trkpt>
      <trkpt lat="40.0217720" lon="-0.0027700">
        <ele>11.5</ele>
        <time>2019-09-04T08:45:49Z</time>
      </trkpt>
      <trkpt lat="40.0217340" lon="-0.0027440">
        <ele>11.4</ele>
        <time>2019-09-04T08:45:50Z</time>
      </trkpt>
      <trkpt lat="40.0217000" lon="-0.0026810">
        <ele>11.3</ele>
        <time>2019-09-04T08:45:51Z</time>
      </trkpt>
      <trkpt lat="40.0216590" lon="-0.0025750">
        <ele>11.2</ele>
        <time>2019-09-04T08:45:52Z</time>
      </trkpt>
      <trkpt lat="40.0216240" lon="-0.0024700">
        <ele>11.0</ele>
        <time>2019-09-04T08:45:53Z</time>
      </trkpt>
      <trkpt lat="40.0215780" lon="-0.0022670">
        <ele>10.9</ele>
        <time>2019-09-04T08:45:55Z</time>
      </trkpt>
      <trkpt lat="40.0215660" lon="-0.0021840">
        <ele>10.8</ele>
        <time>2019-09-04T08:45:56Z</time>
      </trkpt>
      <trkpt lat="40.0215450" lon="-0.0021280">
        <ele>10.8</ele>
        <time>2019-09-04T08:45:57Z</time>
      </trkpt>
      <trkpt lat="40.0214560" lon="-0.0020660">
        <ele>10.6</ele>
        <time>2019-09-04T08:45:59Z</time>
      </trkpt>
      <trkpt lat="40.0212690" lon="-0.0020350">
        <ele>10.2</ele>
        <time>2019-09-04T08:46:02Z</time>
      </trkpt>
      <trkpt lat="40.0212030" lon="-0.0020140">
        <ele>9.8</ele>
        <time>2019-09-04T08:46:03Z</time>
      </trkpt>
      <trkpt lat="40.0208160" lon="-0.0018970">
        <ele>8.4</ele>
        <time>2019-09-04T08:46:09Z</time>
      </trkpt>
      <trkpt lat="40.0206840" lon="-0.0018850">
        <ele>7.7</ele>
        <time>2019-09-04T08:46:11Z</time>
      </trkpt>
      <trkpt lat="40.0205550" lon="-0.0018810">
        <ele>7.1</ele>
        <time>2019-09-04T08:46:13Z</time>
      </trkpt>
      <trkpt lat="40.0204300" lon="-0.0018340">
        <ele>6.7</ele>
        <time>2019-09-04T08:46:15Z</time>
      </trkpt>
      <trkpt lat="40.0202980" lon="-0.0017880">
        <ele>6.5</ele>
        <time>2019-09-04T08:46:17Z</time>
      </trkpt>
      <trkpt lat="40.0202290" lon="-0.0018070">
        <ele>6.4</ele>
        <time>2019-09-04T08:46:18Z</time>
      </trkpt>
      <trkpt lat="40.0201710" lon="-0.0018510">
        <ele>6.3</ele>
        <time>2019-09-04T08:46:19Z</time>
      </trkpt>
      <trkpt lat="40.0200190" lon="-0.0020040">
        <ele>5.9</ele>
        <time>2019-09-04T08:46:22Z</time>
      </trkpt>
      <trkpt lat="40.0199750" lon="-0.0020380">
        <ele>5.8</ele>
        <time>2019-09-04T08:46:23Z</time>
      </trkpt>
      <trkpt lat="40.0198770" lon="-0.0020290">
        <ele>5.5</ele>
        <time>2019-09-04T08:46:25Z</time>
      </trkpt>
      <trkpt lat="40.0197940" lon="-0.0019120">
        <ele>5.3</ele>
        <time>2019-09-04T08:46:27Z</time>
      </trkpt>
      <trkpt lat="40.0197630" lon="-0.0018370">
        <ele>5.1</ele>
        <time>2019-09-04T08:46:28Z</time>
      </trkpt>
      <trkpt lat="40.0196780" lon="-0.0015920">
        <ele>4.6</ele>
        <time>2019-09-04T08:46:31Z</time>
      </trkpt>
      <trkpt lat="40.0196540" lon="-0.0015110">
        <ele>4.5</ele>
        <time>2019-09-04T08:46:32Z</time>
      </trkpt>
      <trkpt lat="40.0196420" lon="-0.0013380">
        <ele>4.4</ele>
        <time>2019-09-04T08:46:34Z</time>
      </trkpt>
      <trkpt lat="40.0196750" lon="-0.0010970">
        <ele>4.3</ele>
        <time>2019-09-04T08:46:37Z</time>
      </trkpt>
      <trkpt lat="40.0196940" lon="-0.0009420">
        <ele>4.3</ele>
        <time>2019-09-04T08:46:39Z</time>
      </trkpt>
      <trkpt lat="40.0197430" lon="-0.0004040">
        <ele>3.7</ele>
        <time>2019-09-04T08:46:46Z</time>
      </trkpt>
      <trkpt lat="40.0197660" lon="-0.0001570">
        <ele>3.3</ele>
        <time>2019-09-04T08:46:49Z</time>
      </trkpt>
      <trkpt lat="40.0197810" lon="0.0000100">
        <ele>3.0</ele>
        <time>2019-09-04T08:46:51Z</time>
      </trkpt>
      <trkpt lat="40.0197950" lon="0.0002720">
        <ele>2.7</ele>
        <time>2019-09-04T08:46:54Z</time>
      </trkpt>
      <trkpt lat="40.0197880" lon="0.0007230">
        <ele>2.3</ele>
        <time>2019-09-04T08:47:00Z</time>
      </trkpt>
      <trkpt lat="40.0197780" lon="0.0009130">
        <ele>2.2</ele>
        <time>2019-09-04T08:47:03Z</time>
      </trkpt>
      <trkpt lat="40.0197700" lon="0.0010870">
        <ele>2.2</ele>
        <time>2019-09-04T08:47:06Z</time>
      </trkpt>
      <trkpt lat="40.0197310" lon="0.0012130">
        <ele>1.9</ele>
        <time>2019-09-04T08:47:09Z</time>
      </trkpt>
      <trkpt lat="40.0196910" lon="0.0012430">
        <ele>1.6</ele>
        <time>2019-09-04T08:47:10Z</time>
      </trkpt>
      <trkpt lat="40.0196430" lon="0.0012640">
        <ele>1.4</ele>
        <time>2019-09-04T08:47:11Z</time>
      </trkpt>
      <trkpt lat="40.0195370" lon="0.0012960">
        <ele>1.1</ele>
        <time>2019-09-04T08:47:13Z</time>
      </trkpt>
      <trkpt lat="40.0194210" lon="0.0013200">
        <ele>1.1</ele>
        <time>2019-09-04T08:47:15Z</time>
      </trkpt>
      <trkpt lat="40.0193080" lon="0.0013480">
        <ele>1.0</ele>
        <time>2019-09-04T08:47:17Z</time>
      </trkpt>
      <trkpt lat="40.0190840" lon="0.0013950">
        <ele>1.0</ele>
        <time>2019-09-04T08:47:21Z</time>
      </trkpt>
      <trkpt lat="40.0186320" lon="0.0015090">
        <ele>0.9</ele>
        <time>2019-09-04T08:47:29Z</time>
      </trkpt>
      <trkpt lat="40.0182300" lon="0.0016030">
        <ele>0.9</ele>
        <time>2019-09-04T08:47:36Z</time>
      </trkpt>
      <trkpt lat="40.0178600" lon="0.0016890">
        <ele>0.7</ele>
        <time>2019-09-04T08:47:42Z</time>
      </trkpt>
      <trkpt lat="40.0177370" lon="0.0017220">
        <ele>0.7</ele>
        <time>2019-09-04T08:47:44Z</time>
      </trkpt>
      <trkpt lat="40.0173550" lon="0.0018180">
        <ele>0.6</ele>
        <time>2019-09-04T08:47:50Z</time>
      </trkpt>
      <trkpt lat="40.0172920" lon="0.0018350">
        <ele>0.5</ele>
        <time>2019-09-04T08:47:51Z</time>
      </trkpt>
      <trkpt lat="40.0169780" lon="0.0019190">
        <ele>0.5</ele>
        <time>2019-09-04T08:47:56Z</time>
      </trkpt>
      <trkpt lat="40.0167840" lon="0.0019600">
        <ele>0.5</ele>
        <time>2019-09-04T08:47:59Z</time>
      </trkpt>
      <trkpt lat="40.0163930" lon="0.0020550">
        <ele>0.5</ele>
        <time>2019-09-04T08:48:05Z</time>
      </trkpt>
      <trkpt lat="40.0159400" lon="0.0021800">
        <ele>1.1</ele>
        <time>2019-09-04T08:48:12Z</time>
      </trkpt>
      <trkpt lat="40.0158760" lon="0.0022010">
        <ele>1.2</ele>
        <time>2019-09-04T08:48:13Z</time>
      </trkpt>
      <trkpt lat="40.0155150" lon="0.0022780">
        <ele>1.6</ele>
        <time>2019-09-04T08:48:19Z</time>
      </trkpt>
      <trkpt lat="40.0150370" lon="0.0023930">
        <ele>1.6</ele>
        <time>2019-09-04T08:48:27Z</time>
      </trkpt>
      <trkpt lat="40.0146250" lon="0.0025110">
        <ele>1.7</ele>
        <time>2019-09-04T08:48:34Z</time>
      </trkpt>
      <trkpt lat="40.0142640" lon="0.0026030">
        <ele>2.0</ele>
        <time>2019-09-04T08:48:41Z</time>
      </trkpt>
      <trkpt lat="40.0141390" lon="0.0026680">
        <ele>2.0</ele>
        <time>2019-09-04T08:48:45Z</time>
      </trkpt>
      <trkpt lat="40.0140400" lon="0.0028180">
        <ele>1.4</ele>
        <time>2019-09-04T08:48:49Z</time>
      </trkpt>
      <trkpt lat="40.0139640" lon="0.0029540">
        <ele>1.3</ele>
        <time>2019-09-04T08:48:52Z</time>
      </trkpt>
      <trkpt lat="40.0138930" lon="0.0030870">
        <ele>1.4</ele>
        <time>2019-09-04T08:48:55Z</time>
      </trkpt>
      <trkpt lat="40.0138700" lon="0.0031260">
        <ele>1.4</ele>
        <time>2019-09-04T08:48:56Z</time>
      </trkpt>
      <trkpt lat="40.0137870" lon="0.0032870">
        <ele>1.7</ele>
        <time>2019-09-04T08:49:00Z</time>
      </trkpt>
      <trkpt lat="40.0137110" lon="0.0034360">
        <ele>1.8</ele>
        <time>2019-09-04T08:49:04Z</time>
      </trkpt>
      <trkpt lat="40.0136920" lon="0.0034670">
        <ele>1.8</ele>
        <time>2019-09-04T08:49:05Z</time>
      </trkpt>
      <trkpt lat="40.0136570" lon="0.0035320">
        <ele>1.9</ele>
        <time>2019-09-04T08:49:07Z</time>
      </trkpt>
      <trkpt lat="40.0136030" lon="0.0036350">
        <ele>1.9</ele>
        <time>2019-09-04T08:49:10Z</time>
      </trkpt>
      <trkpt lat="40.0135650" lon="0.0037030">
        <ele>1.9</ele>
        <time>2019-09-04T08:49:12Z</time>
      </trkpt>
      <trkpt lat="40.0135470" lon="0.0037390">
        <ele>1.9</ele>
        <time>2019-09-04T08:49:13Z</time>
      </trkpt>
      <trkpt lat="40.0134100" lon="0.0040030">
        <ele>1.9</ele>
        <time>2019-09-04T08:49:20Z</time>
      </trkpt>
      <trkpt lat="40.0132730" lon="0.0042750">
        <ele>1.9</ele>
        <time>2019-09-04T08:49:26Z</time>
      </trkpt>
      <trkpt lat="40.0131970" lon="0.0044270">
        <ele>1.9</ele>
        <time>2019-09-04T08:49:29Z</time>
      </trkpt>
      <trkpt lat="40.0131100" lon="0.0045870">
        <ele>1.9</ele>
        <time>2019-09-04T08:49:32Z</time>
      </trkpt>
      <trkpt lat="40.0128580" lon="0.0050360">
        <ele>1.8</ele>
        <time>2019-09-04T08:49:40Z</time>
      </trkpt>
      <trkpt lat="40.0126080" lon="0.0055240">
        <ele>1.8</ele>
        <time>2019-09-04T08:49:48Z</time>
      </trkpt>
      <trkpt lat="40.0124760" lon="0.0057790">
        <ele>1.8</ele>
        <time>2019-09-04T08:49:52Z</time>
      </trkpt>
      <trkpt lat="40.0124060" lon="0.0059090">
        <ele>1.8</ele>
        <time>2019-09-04T08:49:54Z</time>
      </trkpt>
      <trkpt lat="40.0123700" lon="0.0059780">
        <ele>1.8</ele>
        <time>2019-09-04T08:49:55Z</time>
      </trkpt>
      <trkpt lat="40.0122620" lon="0.0061830">
        <ele>1.8</ele>
        <time>2019-09-04T08:49:58Z</time>
      </trkpt>
      <trkpt lat="40.0120780" lon="0.0065320">
        <ele>1.7</ele>
        <time>2019-09-04T08:50:03Z</time>
      </trkpt>
      <trkpt lat="40.0117530" lon="0.0071410">
        <ele>1.7</ele>
        <time>2019-09-04T08:50:12Z</time>
      </trkpt>
      <trkpt lat="40.0117170" lon="0.0072060">
        <ele>1.8</ele>
        <time>2019-09-04T08:50:13Z</time>
      </trkpt>
      <trkpt lat="40.0115100" lon="0.0076040">
        <ele>2.0</ele>
        <time>2019-09-04T08:50:19Z</time>
      </trkpt>
      <trkpt lat="40.0113310" lon="0.0079580">
        <ele>1.9</ele>
        <time>2019-09-04T08:50:24Z</time>
      </trkpt>
      <trkpt lat="40.0111110" lon="0.0083720">
        <ele>1.9</ele>
        <time>2019-09-04T08:50:30Z</time>
      </trkpt>
      <trkpt lat="40.0108620" lon="0.0088500">
        <ele>1.8</ele>
        <time>2019-09-04T08:50:37Z</time>
      </trkpt>
      <trkpt lat="40.0106120" lon="0.0093340">
        <ele>1.7</ele>
        <time>2019-09-04T08:50:44Z</time>
      </trkpt>
      <trkpt lat="40.0103860" lon="0.0097510">
        <ele>1.7</ele>
        <time>2019-09-04T08:50:50Z</time>
      </trkpt>
      <trkpt lat="40.0101210" lon="0.0102670">
        <ele>1.7</ele>
        <time>2019-09-04T08:50:57Z</time>
      </trkpt>
      <trkpt lat="40.0100460" lon="0.0104140">
        <ele>1.7</ele>
        <time>2019-09-04T08:50:59Z</time>
      </trkpt>
      <trkpt lat="40.0097380" lon="0.0110030">
        <ele>1.3</ele>
        <time>2019-09-04T08:51:07Z</time>
      </trkpt>
      <trkpt lat="40.0096970" lon="0.0110750">
        <ele>1.3</ele>
        <time>2019-09-04T08:51:08Z</time>
      </trkpt>
      <trkpt lat="40.0093650" lon="0.0116930">
        <ele>1.3</ele>
        <time>2019-09-04T08:51:17Z</time>
      </trkpt>
      <trkpt lat="40.0091730" lon="0.0120620">
        <ele>1.2</ele>
        <time>2019-09-04T08:51:23Z</time>
      </trkpt>
      <trkpt lat="40.0089270" lon="0.0125560">
        <ele>1.1</ele>
        <time>2019-09-04T08:51:31Z</time>
      </trkpt>
      <trkpt lat="40.0088360" lon="0.0127230">
        <ele>1.1</ele>
        <time>2019-09-04T08:51:34Z</time>
      </trkpt>
      <trkpt lat="40.0087140" lon="0.0129520">
        <ele>1.1</ele>
        <time>2019-09-04T08:51:38Z</time>
      </trkpt>
      <trkpt lat="40.0085330" lon="0.0133070">
        <ele>1.1</ele>
        <time>2019-09-04T08:51:44Z</time>
      </trkpt>
      <trkpt lat="40.0083960" lon="0.0135680">
        <ele>1.2</ele>
        <time>2019-09-04T08:51:49Z</time>
      </trkpt>
      <trkpt lat="40.0083480" lon="0.0136420">
        <ele>1.3</ele>
        <time>2019-09-04T08:51:51Z</time>
      </trkpt>
      <trkpt lat="40.0079950" lon="0.0142900">
        <ele>1.4</ele>
        <time>2019-09-04T09:19:52Z</time>
      </trkpt>
      <trkpt lat="40.0079830" lon="0.0143140">
        <ele>1.0</ele>
        <time>2019-09-04T09:19:53Z</time>
      </trkpt>
      <trkpt lat="40.0078980" lon="0.0144700">
        <ele>0.7</ele>
        <time>2019-09-04T09:19:59Z</time>
      </trkpt>
      <trkpt lat="40.0077530" lon="0.0147420">
        <ele>0.6</ele>
        <time>2019-09-04T09:20:07Z</time>
      </trkpt>
      <trkpt lat="40.0076020" lon="0.0150320">
        <ele>0.4</ele>
        <time>2019-09-04T09:20:15Z</time>
      </trkpt>
      <trkpt lat="40.0074500" lon="0.0153180">
        <ele>0.4</ele>
        <time>2019-09-04T09:20:23Z</time>
      </trkpt>
      <trkpt lat="40.0073370" lon="0.0155420">
        <ele>0.7</ele>
        <time>2019-09-04T09:20:29Z</time>
      </trkpt>
      <trkpt lat="40.0071620" lon="0.0158390">
        <ele>0.9</ele>
        <time>2019-09-04T09:20:37Z</time>
      </trkpt>
      <trkpt lat="40.0070260" lon="0.0161050">
        <ele>1.0</ele>
        <time>2019-09-04T09:20:43Z</time>
      </trkpt>
      <trkpt lat="40.0068650" lon="0.0163900">
        <ele>0.9</ele>
        <time>2019-09-04T09:20:50Z</time>
      </trkpt>
      <trkpt lat="40.0066990" lon="0.0166920">
        <ele>0.7</ele>
        <time>2019-09-04T09:20:58Z</time>
      </trkpt>
      <trkpt lat="40.0065530" lon="0.0169710">
        <ele>0.8</ele>
        <time>2019-09-04T09:21:05Z</time>
      </trkpt>
      <trkpt lat="40.0063910" lon="0.0173050">
        <ele>1.0</ele>
        <time>2019-09-04T09:21:13Z</time>
      </trkpt>
      <trkpt lat="40.0062080" lon="0.0176570">
        <ele>0.9</ele>
        <time>2019-09-04T09:21:22Z</time>
      </trkpt>
      <trkpt lat="40.0060170" lon="0.0180190">
        <ele>0.7</ele>
        <time>2019-09-04T09:21:31Z</time>
      </trkpt>
      <trkpt lat="40.0058560" lon="0.0183390">
        <ele>0.7</ele>
        <time>2019-09-04T09:21:39Z</time>
      </trkpt>
      <trkpt lat="40.0056770" lon="0.0186710">
        <ele>-0.2</ele>
        <time>2019-09-04T09:21:47Z</time>
      </trkpt>
      <trkpt lat="40.0055150" lon="0.0189870">
        <ele>-0.4</ele>
        <time>2019-09-04T09:21:54Z</time>
      </trkpt>
      <trkpt lat="40.0053380" lon="0.0193200">
        <ele>0.6</ele>
        <time>2019-09-04T09:22:01Z</time>
      </trkpt>
      <trkpt lat="40.0051350" lon="0.0197070">
        <ele>0.5</ele>
        <time>2019-09-04T09:22:09Z</time>
      </trkpt>
      <trkpt lat="40.0050600" lon="0.0198600">
        <ele>0.5</ele>
        <time>2019-09-04T09:22:12Z</time>
      </trkpt>
      <trkpt lat="40.0049760" lon="0.0200090">
        <ele>0.6</ele>
        <time>2019-09-04T09:22:15Z</time>
      </trkpt>
      <trkpt lat="40.0047870" lon="0.0203820">
        <ele>0.6</ele>
        <time>2019-09-04T09:22:23Z</time>
      </trkpt>
      <trkpt lat="40.0045760" lon="0.0207810">
        <ele>0.3</ele>
        <time>2019-09-04T09:22:32Z</time>
      </trkpt>
      <trkpt lat="40.0043670" lon="0.0211970">
        <ele>0.2</ele>
        <time>2019-09-04T09:22:40Z</time>
      </trkpt>
      <trkpt lat="40.0042540" lon="0.0214100">
        <ele>0.2</ele>
        <time>2019-09-04T09:22:44Z</time>
      </trkpt>
      <trkpt lat="40.0041990" lon="0.0215160">
        <ele>0.2</ele>
        <time>2019-09-04T09:22:46Z</time>
      </trkpt>
      <trkpt lat="40.0039660" lon="0.0219530">
        <ele>0.3</ele>
        <time>2019-09-04T09:22:54Z</time>
      </trkpt>
      <trkpt lat="40.0038840" lon="0.0221240">
        <ele>0.6</ele>
        <time>2019-09-04T09:22:57Z</time>
      </trkpt>
      <trkpt lat="40.0038390" lon="0.0222670">
        <ele>0.8</ele>
        <time>2019-09-04T09:23:00Z</time>
      </trkpt>
      <trkpt lat="40.0038080" lon="0.0224470">
        <ele>1.1</ele>
        <time>2019-09-04T09:23:05Z</time>
      </trkpt>
      <trkpt lat="40.0037850" lon="0.0226620">
        <ele>1.9</ele>
        <time>2019-09-04T09:23:10Z</time>
      </trkpt>
      <trkpt lat="40.0037760" lon="0.0227150">
        <ele>2.1</ele>
        <time>2019-09-04T09:23:11Z</time>
      </trkpt>
      <trkpt lat="40.0037320" lon="0.0230220">
        <ele>2.7</ele>
        <time>2019-09-04T09:23:16Z</time>
      </trkpt>
      <trkpt lat="40.0037040" lon="0.0232860">
        <ele>2.6</ele>
        <time>2019-09-04T09:23:20Z</time>
      </trkpt>
      <trkpt lat="40.0036930" lon="0.0234050">
        <ele>2.4</ele>
        <time>2019-09-04T09:23:22Z</time>
      </trkpt>
      <trkpt lat="40.0036430" lon="0.0238070">
        <ele>1.4</ele>
        <time>2019-09-04T09:23:29Z</time>
      </trkpt>
      <trkpt lat="40.0036030" lon="0.0241220">
        <ele>1.1</ele>
        <time>2019-09-04T09:23:35Z</time>
      </trkpt>
      <trkpt lat="40.0035970" lon="0.0241800">
        <ele>1.0</ele>
        <time>2019-09-04T09:23:36Z</time>
      </trkpt>
      <trkpt lat="40.0035440" lon="0.0246630">
        <ele>0.9</ele>
        <time>2019-09-04T09:23:44Z</time>
      </trkpt>
      <trkpt lat="40.0034760" lon="0.0252730">
        <ele>0.8</ele>
        <time>2019-09-04T09:23:54Z</time>
      </trkpt>
      <trkpt lat="40.0034140" lon="0.0258290">
        <ele>0.5</ele>
        <time>2019-09-04T09:24:03Z</time>
      </trkpt>
      <trkpt lat="40.0033680" lon="0.0262060">
        <ele>0.6</ele>
        <time>2019-09-04T09:24:09Z</time>
      </trkpt>
      <trkpt lat="40.0033050" lon="0.0266890">
        <ele>1.0</ele>
        <time>2019-09-04T09:24:16Z</time>
      </trkpt>
      <trkpt lat="40.0032240" lon="0.0274030">
        <ele>1.7</ele>
        <time>2019-09-04T09:24:26Z</time>
      </trkpt>
      <trkpt lat="40.0031610" lon="0.0279350">
        <ele>2.1</ele>
        <time>2019-09-04T09:24:33Z</time>
      </trkpt>
      <trkpt lat="40.0031080" lon="0.0284610">
        <ele>1.9</ele>
        <time>2019-09-04T09:24:40Z</time>
      </trkpt>
      <trkpt lat="40.0030280" lon="0.0291420">
        <ele>1.1</ele>
        <time>2019-09-04T09:24:49Z</time>
      </trkpt>
      <trkpt lat="40.0029540" lon="0.0296810">
        <ele>1.1</ele>
        <time>2019-09-04T09:24:56Z</time>
      </trkpt>
      <trkpt lat="40.0028670" lon="0.0300950">
        <ele>1.4</ele>
        <time>2019-09-04T09:25:02Z</time>
      </trkpt>
      <trkpt lat="40.0028280" lon="0.0303170">
        <ele>1.4</ele>
        <time>2019-09-04T09:25:07Z</time>
      </trkpt>
      <trkpt lat="40.0028010" lon="0.0303540">
        <ele>1.4</ele>
        <time>2019-09-04T09:25:09Z</time>
      </trkpt>
      <trkpt lat="40.0027780" lon="0.0303530">
        <ele>1.4</ele>
        <time>2019-09-04T09:25:10Z</time>
      </trkpt>
      <trkpt lat="40.0025980" lon="0.0302860">
        <ele>1.1</ele>
        <time>2019-09-04T09:25:15Z</time>
      </trkpt>
      <trkpt lat="40.0022580" lon="0.0301470">
        <ele>0.2</ele>
        <time>2019-09-04T09:25:22Z</time>
      </trkpt>
      <trkpt lat="40.0018150" lon="0.0299810">
        <ele>1.7</ele>
        <time>2019-09-04T09:25:30Z</time>
      </trkpt>
      <trkpt lat="40.0012810" lon="0.0297610">
        <ele>2.1</ele>
        <time>2019-09-04T09:25:39Z</time>
      </trkpt>
      <trkpt lat="40.0008700" lon="0.0296170">
        <ele>1.9</ele>
        <time>2019-09-04T09:25:46Z</time>
      </trkpt>
      <trkpt lat="40.0005070" lon="0.0294640">
        <ele>1.9</ele>
        <time>2019-09-04T09:25:52Z</time>
      </trkpt>
      <trkpt lat="40.0000770" lon="0.0292950">
        <ele>1.9</ele>
        <time>2019-09-04T09:25:59Z</time>
      </trkpt>
      <trkpt lat="39.9994990" lon="0.0290660">
        <ele>1.6</ele>
        <time>2019-09-04T09:26:08Z</time>
      </trkpt>
      <trkpt lat="39.9989670" lon="0.0288630">
        <ele>1.1</ele>
        <time>2019-09-04T09:26:16Z</time>
      </trkpt>
      <trkpt lat="39.9984240" lon="0.0286540">
        <ele>1.2</ele>
        <time>2019-09-04T09:26:24Z</time>
      </trkpt>
      <trkpt lat="39.9983560" lon="0.0286300">
        <ele>1.4</ele>
        <time>2019-09-04T09:26:25Z</time>
      </trkpt>
      <trkpt lat="39.9978020" lon="0.0283870">
        <ele>2.0</ele>
        <time>2019-09-04T09:26:33Z</time>
      </trkpt>
      <trkpt lat="39.9977320" lon="0.0283580">
        <ele>1.9</ele>
        <time>2019-09-04T09:26:34Z</time>
      </trkpt>
      <trkpt lat="39.9971870" lon="0.0280780">
        <ele>2.5</ele>
        <time>2019-09-04T09:26:42Z</time>
      </trkpt>
      <trkpt lat="39.9970490" lon="0.0280000">
        <ele>2.9</ele>
        <time>2019-09-04T09:26:44Z</time>
      </trkpt>
      <trkpt lat="39.9965020" lon="0.0276900">
        <ele>0.5</ele>
        <time>2019-09-04T09:26:52Z</time>
      </trkpt>
      <trkpt lat="39.9963640" lon="0.0276150">
        <ele>1.0</ele>
        <time>2019-09-04T09:26:54Z</time>
      </trkpt>
      <trkpt lat="39.9958080" lon="0.0273130">
        <ele>1.7</ele>
        <time>2019-09-04T09:27:02Z</time>
      </trkpt>
      <trkpt lat="39.9956680" lon="0.0272420">
        <ele>1.6</ele>
        <time>2019-09-04T09:27:04Z</time>
      </trkpt>
      <trkpt lat="39.9951730" lon="0.0269700">
        <ele>1.6</ele>
        <time>2019-09-04T09:27:11Z</time>
      </trkpt>
      <trkpt lat="39.9951000" lon="0.0269310">
        <ele>1.5</ele>
        <time>2019-09-04T09:27:12Z</time>
      </trkpt>
      <trkpt lat="39.9945960" lon="0.0266420">
        <ele>1.1</ele>
        <time>2019-09-04T09:27:19Z</time>
      </trkpt>
      <trkpt lat="39.9945210" lon="0.0266060">
        <ele>1.0</ele>
        <time>2019-09-04T09:27:20Z</time>
      </trkpt>
      <trkpt lat="39.9942630" lon="0.0264450">
        <ele>1.0</ele>
        <time>2019-09-04T09:27:24Z</time>
      </trkpt>
      <trkpt lat="39.9942110" lon="0.0263820">
        <ele>1.0</ele>
        <time>2019-09-04T09:27:25Z</time>
      </trkpt>
      <trkpt lat="39.9941690" lon="0.0263080">
        <ele>1.2</ele>
        <time>2019-09-04T09:27:26Z</time>
      </trkpt>
      <trkpt lat="39.9940650" lon="0.0261680">
        <ele>2.0</ele>
        <time>2019-09-04T09:27:28Z</time>
      </trkpt>
      <trkpt lat="39.9939130" lon="0.0261230">
        <ele>2.5</ele>
        <time>2019-09-04T09:27:30Z</time>
      </trkpt>
      <trkpt lat="39.9936740" lon="0.0261510">
        <ele>2.8</ele>
        <time>2019-09-04T09:27:33Z</time>
      </trkpt>
      <trkpt lat="39.9934580" lon="0.0260630">
        <ele>3.1</ele>
        <time>2019-09-04T09:27:36Z</time>
      </trkpt>
      <trkpt lat="39.9930670" lon="0.0258590">
        <ele>3.5</ele>
        <time>2019-09-04T09:27:42Z</time>
      </trkpt>
      <trkpt lat="39.9926170" lon="0.0256010">
        <ele>3.6</ele>
        <time>2019-09-04T09:27:49Z</time>
      </trkpt>
      <trkpt lat="39.9921700" lon="0.0253430">
        <ele>3.8</ele>
        <time>2019-09-04T09:27:56Z</time>
      </trkpt>
      <trkpt lat="39.9917200" lon="0.0251100">
        <ele>3.8</ele>
        <time>2019-09-04T09:28:03Z</time>
      </trkpt>
      <trkpt lat="39.9911980" lon="0.0248170">
        <ele>3.8</ele>
        <time>2019-09-04T09:28:11Z</time>
      </trkpt>
      <trkpt lat="39.9910650" lon="0.0247460">
        <ele>3.8</ele>
        <time>2019-09-04T09:28:13Z</time>
      </trkpt>
      <trkpt lat="39.9905410" lon="0.0244670">
        <ele>3.8</ele>
        <time>2019-09-04T09:28:21Z</time>
      </trkpt>
      <trkpt lat="39.9900340" lon="0.0242030">
        <ele>4.5</ele>
        <time>2019-09-04T09:28:29Z</time>
      </trkpt>
      <trkpt lat="39.9895680" lon="0.0239380">
        <ele>5.7</ele>
        <time>2019-09-04T09:28:36Z</time>
      </trkpt>
      <trkpt lat="39.9891160" lon="0.0236590">
        <ele>5.8</ele>
        <time>2019-09-04T09:28:43Z</time>
      </trkpt>
      <trkpt lat="39.9887090" lon="0.0234440">
        <ele>6.4</ele>
        <time>2019-09-04T09:28:49Z</time>
      </trkpt>
      <trkpt lat="39.9882500" lon="0.0232030">
        <ele>6.7</ele>
        <time>2019-09-04T09:28:56Z</time>
      </trkpt>
      <trkpt lat="39.9877180" lon="0.0229140">
        <ele>6.8</ele>
        <time>2019-09-04T09:29:04Z</time>
      </trkpt>
      <trkpt lat="39.9873170" lon="0.0226990">
        <ele>6.6</ele>
        <time>2019-09-04T09:29:10Z</time>
      </trkpt>
      <trkpt lat="39.9869310" lon="0.0224700">
        <ele>5.9</ele>
        <time>2019-09-04T09:29:16Z</time>
      </trkpt>
      <trkpt lat="39.9863980" lon="0.0221740">
        <ele>5.0</ele>
        <time>2019-09-04T09:29:24Z</time>
      </trkpt>
      <trkpt lat="39.9862650" lon="0.0220970">
        <ele>4.8</ele>
        <time>2019-09-04T09:29:26Z</time>
      </trkpt>
      <trkpt lat="39.9857270" lon="0.0218110">
        <ele>4.2</ele>
        <time>2019-09-04T09:29:34Z</time>
      </trkpt>
      <trkpt lat="39.9852540" lon="0.0215510">
        <ele>4.5</ele>
        <time>2019-09-04T09:29:41Z</time>
      </trkpt>
      <trkpt lat="39.9848620" lon="0.0213280">
        <ele>5.2</ele>
        <time>2019-09-04T09:29:47Z</time>
      </trkpt>
      <trkpt lat="39.9843400" lon="0.0210410">
        <ele>5.3</ele>
        <time>2019-09-04T09:29:55Z</time>
      </trkpt>
      <trkpt lat="39.9838860" lon="0.0207970">
        <ele>5.8</ele>
        <time>2019-09-04T09:30:02Z</time>
      </trkpt>
      <trkpt lat="39.9833770" lon="0.0205170">
        <ele>6.4</ele>
        <time>2019-09-04T09:30:10Z</time>
      </trkpt>
      <trkpt lat="39.9829950" lon="0.0203100">
        <ele>6.5</ele>
        <time>2019-09-04T09:30:16Z</time>
      </trkpt>
      <trkpt lat="39.9825490" lon="0.0200510">
        <ele>5.9</ele>
        <time>2019-09-04T09:30:23Z</time>
      </trkpt>
      <trkpt lat="39.9820940" lon="0.0197930">
        <ele>5.7</ele>
        <time>2019-09-04T09:30:30Z</time>
      </trkpt>
      <trkpt lat="39.9815650" lon="0.0195050">
        <ele>5.5</ele>
        <time>2019-09-04T09:30:38Z</time>
      </trkpt>
      <trkpt lat="39.9811130" lon="0.0192590">
        <ele>5.4</ele>
        <time>2019-09-04T09:30:45Z</time>
      </trkpt>
      <trkpt lat="39.9806380" lon="0.0190050">
        <ele>5.3</ele>
        <time>2019-09-04T09:30:53Z</time>
      </trkpt>
      <trkpt lat="39.9803460" lon="0.0188350">
        <ele>5.1</ele>
        <time>2019-09-04T09:30:59Z</time>
      </trkpt>
      <trkpt lat="39.9799890" lon="0.0186120">
        <ele>5.0</ele>
        <time>2019-09-04T09:31:07Z</time>
      </trkpt>
      <trkpt lat="39.9796810" lon="0.0184460">
        <ele>5.1</ele>
        <time>2019-09-04T09:31:13Z</time>
      </trkpt>
      <trkpt lat="39.9792840" lon="0.0182300">
        <ele>5.0</ele>
        <time>2019-09-04T09:31:20Z</time>
      </trkpt>
      <trkpt lat="39.9790030" lon="0.0180780">
        <ele>5.2</ele>
        <time>2019-09-04T09:31:25Z</time>
      </trkpt>
      <trkpt lat="39.9789540" lon="0.0180430">
        <ele>5.2</ele>
        <time>2019-09-04T09:31:26Z</time>
      </trkpt>
      <trkpt lat="39.9789010" lon="0.0180130">
        <ele>5.2</ele>
        <time>2019-09-04T09:31:27Z</time>
      </trkpt>
      <trkpt lat="39.9786780" lon="0.0179130">
        <ele>5.3</ele>
        <time>2019-09-04T09:31:31Z</time>
      </trkpt>
      <trkpt lat="39.9782370" lon="0.0176260">
        <ele>6.2</ele>
        <time>2019-09-04T09:31:38Z</time>
      </trkpt>
      <trkpt lat="39.9777290" lon="0.0173150">
        <ele>6.2</ele>
        <time>2019-09-04T09:31:46Z</time>
      </trkpt>
      <trkpt lat="39.9776640" lon="0.0172770">
        <ele>6.1</ele>
        <time>2019-09-04T09:31:47Z</time>
      </trkpt>
      <trkpt lat="39.9771420" lon="0.0169880">
        <ele>5.2</ele>
        <time>2019-09-04T09:31:55Z</time>
      </trkpt>
      <trkpt lat="39.9770770" lon="0.0169590">
        <ele>5.2</ele>
        <time>2019-09-04T09:31:56Z</time>
      </trkpt>
      <trkpt lat="39.9766420" lon="0.0167270">
        <ele>4.6</ele>
        <time>2019-09-04T09:32:03Z</time>
      </trkpt>
      <trkpt lat="39.9765790" lon="0.0166970">
        <ele>4.5</ele>
        <time>2019-09-04T09:32:04Z</time>
      </trkpt>
      <trkpt lat="39.9763550" lon="0.0165420">
        <ele>4.5</ele>
        <time>2019-09-04T09:32:08Z</time>
      </trkpt>
      <trkpt lat="39.9761140" lon="0.0164080">
        <ele>4.5</ele>
        <time>2019-09-04T09:32:13Z</time>
      </trkpt>
      <trkpt lat="39.9757900" lon="0.0161620">
        <ele>4.6</ele>
        <time>2019-09-04T09:32:19Z</time>
      </trkpt>
      <trkpt lat="39.9754680" lon="0.0159580">
        <ele>4.9</ele>
        <time>2019-09-04T09:32:25Z</time>
      </trkpt>
      <trkpt lat="39.9751690" lon="0.0157360">
        <ele>5.9</ele>
        <time>2019-09-04T09:32:31Z</time>
      </trkpt>
      <trkpt lat="39.9751140" lon="0.0156100">
        <ele>6.1</ele>
        <time>2019-09-04T09:32:33Z</time>
      </trkpt>
      <trkpt lat="39.9751100" lon="0.0155360">
        <ele>6.2</ele>
        <time>2019-09-04T09:32:34Z</time>
      </trkpt>
      <trkpt lat="39.9751220" lon="0.0154590">
        <ele>6.3</ele>
        <time>2019-09-04T09:32:35Z</time>
      </trkpt>
      <trkpt lat="39.9751800" lon="0.0153220">
        <ele>6.3</ele>
        <time>2019-09-04T09:32:37Z</time>
      </trkpt>
      <trkpt lat="39.9752900" lon="0.0150290">
        <ele>6.7</ele>
        <time>2019-09-04T09:32:41Z</time>
      </trkpt>
      <trkpt lat="39.9753100" lon="0.0149590">
        <ele>6.9</ele>
        <time>2019-09-04T09:32:42Z</time>
      </trkpt>
      <trkpt lat="39.9753440" lon="0.0148230">
        <ele>7.3</ele>
        <time>2019-09-04T09:32:44Z</time>
      </trkpt>
      <trkpt lat="39.9754170" lon="0.0146300">
        <ele>7.2</ele>
        <time>2019-09-04T09:32:47Z</time>
      </trkpt>
      <trkpt lat="39.9754610" lon="0.0145030">
        <ele>7.2</ele>
        <time>2019-09-04T09:32:49Z</time>
      </trkpt>
      <trkpt lat="39.9755060" lon="0.0143890">
        <ele>7.2</ele>
        <time>2019-09-04T09:32:51Z</time>
      </trkpt>
      <trkpt lat="39.9756440" lon="0.0140650">
        <ele>6.7</ele>
        <time>2019-09-04T09:32:56Z</time>
      </trkpt>
      <trkpt lat="39.9758070" lon="0.0136650">
        <ele>6.5</ele>
        <time>2019-09-04T09:33:02Z</time>
      </trkpt>
      <trkpt lat="39.9759910" lon="0.0132160">
        <ele>6.7</ele>
        <time>2019-09-04T09:33:08Z</time>
      </trkpt>
      <trkpt lat="39.9762020" lon="0.0127190">
        <ele>6.4</ele>
        <time>2019-09-04T09:33:15Z</time>
      </trkpt>
      <trkpt lat="39.9762430" lon="0.0125740">
        <ele>5.9</ele>
        <time>2019-09-04T09:33:17Z</time>
      </trkpt>
      <trkpt lat="39.9762910" lon="0.0124330">
        <ele>5.7</ele>
        <time>2019-09-04T09:33:19Z</time>
      </trkpt>
      <trkpt lat="39.9763470" lon="0.0123050">
        <ele>5.5</ele>
        <time>2019-09-04T09:33:21Z</time>
      </trkpt>
      <trkpt lat="39.9764530" lon="0.0122380">
        <ele>5.4</ele>
        <time>2019-09-04T09:33:23Z</time>
      </trkpt>
      <trkpt lat="39.9765800" lon="0.0122230">
        <ele>5.1</ele>
        <time>2019-09-04T09:33:25Z</time>
      </trkpt>
      <trkpt lat="39.9766880" lon="0.0121140">
        <ele>4.9</ele>
        <time>2019-09-04T09:33:27Z</time>
      </trkpt>
      <trkpt lat="39.9767430" lon="0.0119610">
        <ele>4.4</ele>
        <time>2019-09-04T09:33:29Z</time>
      </trkpt>
      <trkpt lat="39.9767530" lon="0.0118810">
        <ele>4.2</ele>
        <time>2019-09-04T09:33:30Z</time>
      </trkpt>
      <trkpt lat="39.9767460" lon="0.0117940">
        <ele>4.1</ele>
        <time>2019-09-04T09:33:31Z</time>
      </trkpt>
      <trkpt lat="39.9766890" lon="0.0116430">
        <ele>3.9</ele>
        <time>2019-09-04T09:33:33Z</time>
      </trkpt>
      <trkpt lat="39.9766190" lon="0.0115030">
        <ele>3.4</ele>
        <time>2019-09-04T09:33:35Z</time>
      </trkpt>
      <trkpt lat="39.9765820" lon="0.0113450">
        <ele>3.0</ele>
        <time>2019-09-04T09:33:37Z</time>
      </trkpt>
      <trkpt lat="39.9765960" lon="0.0111750">
        <ele>2.7</ele>
        <time>2019-09-04T09:33:39Z</time>
      </trkpt>
      <trkpt lat="39.9766280" lon="0.0110080">
        <ele>2.5</ele>
        <time>2019-09-04T09:33:41Z</time>
      </trkpt>
      <trkpt lat="39.9767620" lon="0.0103410">
        <ele>2.2</ele>
        <time>2019-09-04T09:33:49Z</time>
      </trkpt>
      <trkpt lat="39.9769160" lon="0.0095930">
        <ele>1.3</ele>
        <time>2019-09-04T09:33:58Z</time>
      </trkpt>
      <trkpt lat="39.9769330" lon="0.0095120">
        <ele>1.3</ele>
        <time>2019-09-04T09:33:59Z</time>
      </trkpt>
      <trkpt lat="39.9770700" lon="0.0088390">
        <ele>2.3</ele>
        <time>2019-09-04T09:34:07Z</time>
      </trkpt>
      <trkpt lat="39.9772080" lon="0.0082060">
        <ele>3.2</ele>
        <time>2019-09-04T09:34:14Z</time>
      </trkpt>
      <trkpt lat="39.9773590" lon="0.0074140">
        <ele>2.8</ele>
        <time>2019-09-04T09:34:22Z</time>
      </trkpt>
      <trkpt lat="39.9773800" lon="0.0073130">
        <ele>2.7</ele>
        <time>2019-09-04T09:34:23Z</time>
      </trkpt>
      <trkpt lat="39.9775310" lon="0.0065730">
        <ele>1.6</ele>
        <time>2019-09-04T09:34:30Z</time>
      </trkpt>
      <trkpt lat="39.9776840" lon="0.0057810">
        <ele>0.8</ele>
        <time>2019-09-04T09:34:37Z</time>
      </trkpt>
      <trkpt lat="39.9777100" lon="0.0056680">
        <ele>0.8</ele>
        <time>2019-09-04T09:34:38Z</time>
      </trkpt>
      <trkpt lat="39.9778700" lon="0.0049680">
        <ele>0.5</ele>
        <time>2019-09-04T09:34:44Z</time>
      </trkpt>
      <trkpt lat="39.9779170" lon="0.0047340">
        <ele>-0.1</ele>
        <time>2019-09-04T09:34:46Z</time>
      </trkpt>
      <trkpt lat="39.9780620" lon="0.0040120">
        <ele>-1.3</ele>
        <time>2019-09-04T09:34:52Z</time>
      </trkpt>
      <trkpt lat="39.9780850" lon="0.0038860">
        <ele>-1.3</ele>
        <time>2019-09-04T09:34:53Z</time>
      </trkpt>
      <trkpt lat="39.9782340" lon="0.0031480">
        <ele>0.2</ele>
        <time>2019-09-04T09:34:59Z</time>
      </trkpt>
      <trkpt lat="39.9782590" lon="0.0030200">
        <ele>0.7</ele>
        <time>2019-09-04T09:35:00Z</time>
      </trkpt>
      <trkpt lat="39.9784200" lon="0.0022370">
        <ele>0.9</ele>
        <time>2019-09-04T09:35:06Z</time>
      </trkpt>
      <trkpt lat="39.9785550" lon="0.0015650">
        <ele>1.6</ele>
        <time>2019-09-04T09:35:11Z</time>
      </trkpt>
      <trkpt lat="39.9786050" lon="0.0012970">
        <ele>1.5</ele>
        <time>2019-09-04T09:35:13Z</time>
      </trkpt>
      <trkpt lat="39.9787680" lon="0.0005010">
        <ele>1.6</ele>
        <time>2019-09-04T09:35:19Z</time>
      </trkpt>
      <trkpt lat="39.9788230" lon="0.0002300">
        <ele>1.5</ele>
        <time>2019-09-04T09:35:21Z</time>
      </trkpt>
      <trkpt lat="39.9789580" lon="-0.0004600">
        <ele>1.3</ele>
        <time>2019-09-04T09:35:26Z</time>
      </trkpt>
      <trkpt lat="39.9790690" lon="-0.0010040">
        <ele>0.8</ele>
        <time>2019-09-04T09:35:30Z</time>
      </trkpt>
      <trkpt lat="39.9792060" lon="-0.0016880">
        <ele>0.9</ele>
        <time>2019-09-04T09:35:35Z</time>
      </trkpt>
      <trkpt lat="39.9792660" lon="-0.0019620">
        <ele>1.3</ele>
        <time>2019-09-04T09:35:37Z</time>
      </trkpt>
      <trkpt lat="39.9794060" lon="-0.0026400">
        <ele>1.6</ele>
        <time>2019-09-04T09:35:42Z</time>
      </trkpt>
      <trkpt lat="39.9795150" lon="-0.0031600">
        <ele>1.8</ele>
        <time>2019-09-04T09:35:46Z</time>
      </trkpt>
      <trkpt lat="39.9796540" lon="-0.0039150">
        <ele>3.0</ele>
        <time>2019-09-04T09:35:52Z</time>
      </trkpt>
      <trkpt lat="39.9796770" lon="-0.0040200">
        <ele>3.2</ele>
        <time>2019-09-04T09:35:53Z</time>
      </trkpt>
      <trkpt lat="39.9797320" lon="-0.0042220">
        <ele>3.4</ele>
        <time>2019-09-04T09:35:55Z</time>
      </trkpt>
      <trkpt lat="39.9798080" lon="-0.0044100">
        <ele>3.4</ele>
        <time>2019-09-04T09:35:57Z</time>
      </trkpt>
      <trkpt lat="39.9798460" lon="-0.0046170">
        <ele>3.4</ele>
        <time>2019-09-04T09:35:59Z</time>
      </trkpt>
      <trkpt lat="39.9798510" lon="-0.0047300">
        <ele>3.5</ele>
        <time>2019-09-04T09:36:00Z</time>
      </trkpt>
      <trkpt lat="39.9798600" lon="-0.0048460">
        <ele>3.5</ele>
        <time>2019-09-04T09:36:01Z</time>
      </trkpt>
      <trkpt lat="39.9799230" lon="-0.0051880">
        <ele>3.3</ele>
        <time>2019-09-04T09:36:04Z</time>
      </trkpt>
      <trkpt lat="39.9799470" lon="-0.0053030">
        <ele>3.2</ele>
        <time>2019-09-04T09:36:05Z</time>
      </trkpt>
      <trkpt lat="39.9800210" lon="-0.0056560">
        <ele>3.1</ele>
        <time>2019-09-04T09:36:08Z</time>
      </trkpt>
      <trkpt lat="39.9801450" lon="-0.0062650">
        <ele>3.7</ele>
        <time>2019-09-04T09:36:13Z</time>
      </trkpt>
      <trkpt lat="39.9802780" lon="-0.0069540">
        <ele>4.9</ele>
        <time>2019-09-04T09:36:19Z</time>
      </trkpt>
      <trkpt lat="39.9803260" lon="-0.0071780">
        <ele>5.0</ele>
        <time>2019-09-04T09:36:21Z</time>
      </trkpt>
      <trkpt lat="39.9804670" lon="-0.0078590">
        <ele>4.8</ele>
        <time>2019-09-04T09:36:27Z</time>
      </trkpt>
      <trkpt lat="39.9805160" lon="-0.0080870">
        <ele>5.0</ele>
        <time>2019-09-04T09:36:29Z</time>
      </trkpt>
      <trkpt lat="39.9806630" lon="-0.0088430">
        <ele>4.8</ele>
        <time>2019-09-04T09:36:36Z</time>
      </trkpt>
      <trkpt lat="39.9806840" lon="-0.0089430">
        <ele>4.8</ele>
        <time>2019-09-04T09:36:37Z</time>
      </trkpt>
      <trkpt lat="39.9808080" lon="-0.0094810">
        <ele>4.5</ele>
        <time>2019-09-04T09:36:43Z</time>
      </trkpt>
      <trkpt lat="39.9808850" lon="-0.0095580">
        <ele>4.4</ele>
        <time>2019-09-04T09:36:45Z</time>
      </trkpt>
      <trkpt lat="39.9809200" lon="-0.0095690">
        <ele>4.4</ele>
        <time>2019-09-04T09:36:46Z</time>
      </trkpt>
      <trkpt lat="39.9809550" lon="-0.0095840">
        <ele>4.5</ele>
        <time>2019-09-04T09:36:47Z</time>
      </trkpt>
      <trkpt lat="39.9810330" lon="-0.0096560">
        <ele>4.5</ele>
        <time>2019-09-04T09:36:49Z</time>
      </trkpt>
      <trkpt lat="39.9811050" lon="-0.0097760">
        <ele>4.5</ele>
        <time>2019-09-04T09:36:51Z</time>
      </trkpt>
      <trkpt lat="39.9811490" lon="-0.0099210">
        <ele>4.7</ele>
        <time>2019-09-04T09:36:53Z</time>
      </trkpt>
      <trkpt lat="39.9811390" lon="-0.0101510">
        <ele>4.9</ele>
        <time>2019-09-04T09:36:56Z</time>
      </trkpt>
      <trkpt lat="39.9811190" lon="-0.0102240">
        <ele>4.9</ele>
        <time>2019-09-04T09:36:57Z</time>
      </trkpt>
      <trkpt lat="39.9810890" lon="-0.0102880">
        <ele>5.0</ele>
        <time>2019-09-04T09:36:58Z</time>
      </trkpt>
      <trkpt lat="39.9810260" lon="-0.0104160">
        <ele>5.0</ele>
        <time>2019-09-04T09:37:00Z</time>
      </trkpt>
      <trkpt lat="39.9810100" lon="-0.0104960">
        <ele>5.1</ele>
        <time>2019-09-04T09:37:01Z</time>
      </trkpt>
      <trkpt lat="39.9810120" lon="-0.0105810">
        <ele>5.1</ele>
        <time>2019-09-04T09:37:02Z</time>
      </trkpt>
      <trkpt lat="39.9810510" lon="-0.0107560">
        <ele>5.3</ele>
        <time>2019-09-04T09:37:04Z</time>
      </trkpt>
      <trkpt lat="39.9811950" lon="-0.0114480">
        <ele>6.6</ele>
        <time>2019-09-04T09:37:11Z</time>
      </trkpt>
      <trkpt lat="39.9813410" lon="-0.0121820">
        <ele>7.7</ele>
        <time>2019-09-04T09:37:18Z</time>
      </trkpt>
      <trkpt lat="39.9813620" lon="-0.0122890">
        <ele>7.9</ele>
        <time>2019-09-04T09:37:19Z</time>
      </trkpt>
      <trkpt lat="39.9814580" lon="-0.0127770">
        <ele>8.6</ele>
        <time>2019-09-04T09:37:24Z</time>
      </trkpt>
      <trkpt lat="39.9816110" lon="-0.0135250">
        <ele>9.3</ele>
        <time>2019-09-04T09:37:32Z</time>
      </trkpt>
      <trkpt lat="39.9817510" lon="-0.0142090">
        <ele>9.6</ele>
        <time>2019-09-04T09:37:39Z</time>
      </trkpt>
      <trkpt lat="39.9818960" lon="-0.0149310">
        <ele>10.1</ele>
        <time>2019-09-04T09:37:46Z</time>
      </trkpt>
      <trkpt lat="39.9820550" lon="-0.0156890">
        <ele>10.1</ele>
        <time>2019-09-04T09:37:53Z</time>
      </trkpt>
      <trkpt lat="39.9820990" lon="-0.0159040">
        <ele>9.9</ele>
        <time>2019-09-04T09:37:55Z</time>
      </trkpt>
      <trkpt lat="39.9822270" lon="-0.0165530">
        <ele>9.6</ele>
        <time>2019-09-04T09:38:01Z</time>
      </trkpt>
      <trkpt lat="39.9823180" lon="-0.0169650">
        <ele>10.0</ele>
        <time>2019-09-04T09:38:05Z</time>
      </trkpt>
      <trkpt lat="39.9823530" lon="-0.0170510">
        <ele>10.1</ele>
        <time>2019-09-04T09:38:06Z</time>
      </trkpt>
      <trkpt lat="39.9824000" lon="-0.0171250">
        <ele>10.3</ele>
        <time>2019-09-04T09:38:07Z</time>
      </trkpt>
      <trkpt lat="39.9824880" lon="-0.0172870">
        <ele>10.6</ele>
        <time>2019-09-04T09:38:09Z</time>
      </trkpt>
      <trkpt lat="39.9825130" lon="-0.0173870">
        <ele>10.8</ele>
        <time>2019-09-04T09:38:10Z</time>
      </trkpt>
      <trkpt lat="39.9825200" lon="-0.0174890">
        <ele>10.9</ele>
        <time>2019-09-04T09:38:11Z</time>
      </trkpt>
      <trkpt lat="39.9824990" lon="-0.0177010">
        <ele>11.1</ele>
        <time>2019-09-04T09:38:13Z</time>
      </trkpt>
      <trkpt lat="39.9825210" lon="-0.0179120">
        <ele>11.4</ele>
        <time>2019-09-04T09:38:15Z</time>
      </trkpt>
      <trkpt lat="39.9825430" lon="-0.0180150">
        <ele>11.4</ele>
        <time>2019-09-04T09:38:16Z</time>
      </trkpt>
      <trkpt lat="39.9826670" lon="-0.0186040">
        <ele>12.6</ele>
        <time>2019-09-04T09:38:22Z</time>
      </trkpt>
      <trkpt lat="39.9828030" lon="-0.0192810">
        <ele>13.4</ele>
        <time>2019-09-04T09:38:29Z</time>
      </trkpt>
      <trkpt lat="39.9829430" lon="-0.0199710">
        <ele>13.6</ele>
        <time>2019-09-04T09:38:36Z</time>
      </trkpt>
      <trkpt lat="39.9829630" lon="-0.0200730">
        <ele>13.7</ele>
        <time>2019-09-04T09:38:37Z</time>
      </trkpt>
      <trkpt lat="39.9830800" lon="-0.0206590">
        <ele>13.7</ele>
        <time>2019-09-04T09:38:43Z</time>
      </trkpt>
      <trkpt lat="39.9832290" lon="-0.0214300">
        <ele>14.3</ele>
        <time>2019-09-04T09:38:51Z</time>
      </trkpt>
      <trkpt lat="39.9833830" lon="-0.0221000">
        <ele>15.0</ele>
        <time>2019-09-04T09:38:58Z</time>
      </trkpt>
      <trkpt lat="39.9835250" lon="-0.0227730">
        <ele>16.3</ele>
        <time>2019-09-04T09:39:05Z</time>
      </trkpt>
      <trkpt lat="39.9836560" lon="-0.0235330">
        <ele>17.0</ele>
        <time>2019-09-04T09:39:13Z</time>
      </trkpt>
      <trkpt lat="39.9837600" lon="-0.0240480">
        <ele>16.6</ele>
        <time>2019-09-04T09:39:19Z</time>
      </trkpt>
      <trkpt lat="39.9838400" lon="-0.0244080">
        <ele>17.0</ele>
        <time>2019-09-04T09:39:24Z</time>
      </trkpt>
      <trkpt lat="39.9838850" lon="-0.0244890">
        <ele>18.0</ele>
        <time>2019-09-04T09:39:27Z</time>
      </trkpt>
      <trkpt lat="39.9839150" lon="-0.0245130">
        <ele>18.3</ele>
        <time>2019-09-04T09:39:32Z</time>
      </trkpt>
      <trkpt lat="39.9839530" lon="-0.0245670">
        <ele>18.8</ele>
        <time>2019-09-04T09:39:35Z</time>
      </trkpt>
      <trkpt lat="39.9839800" lon="-0.0246250">
        <ele>19.2</ele>
        <time>2019-09-04T09:39:37Z</time>
      </trkpt>
      <trkpt lat="39.9840210" lon="-0.0247140">
        <ele>19.8</ele>
        <time>2019-09-04T09:39:39Z</time>
      </trkpt>
      <trkpt lat="39.9840290" lon="-0.0248340">
        <ele>20.5</ele>
        <time>2019-09-04T09:39:41Z</time>
      </trkpt>
      <trkpt lat="39.9839860" lon="-0.0249640">
        <ele>20.5</ele>
        <time>2019-09-04T09:39:43Z</time>
      </trkpt>
      <trkpt lat="39.9839450" lon="-0.0250230">
        <ele>20.5</ele>
        <time>2019-09-04T09:39:44Z</time>
      </trkpt>
      <trkpt lat="39.9838940" lon="-0.0250700">
        <ele>20.6</ele>
        <time>2019-09-04T09:39:45Z</time>
      </trkpt>
      <trkpt lat="39.9837770" lon="-0.0251050">
        <ele>20.6</ele>
        <time>2019-09-04T09:39:47Z</time>
      </trkpt>
      <trkpt lat="39.9836550" lon="-0.0250780">
        <ele>19.5</ele>
        <time>2019-09-04T09:39:49Z</time>
      </trkpt>
      <trkpt lat="39.9835280" lon="-0.0250340">
        <ele>17.8</ele>
        <time>2019-09-04T09:39:51Z</time>
      </trkpt>
      <trkpt lat="39.9833900" lon="-0.0250580">
        <ele>17.3</ele>
        <time>2019-09-04T09:39:53Z</time>
      </trkpt>
      <trkpt lat="39.9833210" lon="-0.0250800">
        <ele>17.2</ele>
        <time>2019-09-04T09:39:54Z</time>
      </trkpt>
      <trkpt lat="39.9827890" lon="-0.0253020">
        <ele>17.0</ele>
        <time>2019-09-04T09:40:02Z</time>
      </trkpt>
      <trkpt lat="39.9827260" lon="-0.0253320">
        <ele>17.1</ele>
        <time>2019-09-04T09:40:03Z</time>
      </trkpt>
      <trkpt lat="39.9822890" lon="-0.0255310">
        <ele>17.2</ele>
        <time>2019-09-04T09:40:10Z</time>
      </trkpt>
      <trkpt lat="39.9818670" lon="-0.0256980">
        <ele>17.0</ele>
        <time>2019-09-04T09:40:17Z</time>
      </trkpt>
      <trkpt lat="39.9817560" lon="-0.0257890">
        <ele>16.9</ele>
        <time>2019-09-04T09:40:19Z</time>
      </trkpt>
      <trkpt lat="39.9816360" lon="-0.0258580">
        <ele>16.6</ele>
        <time>2019-09-04T09:40:21Z</time>
      </trkpt>
      <trkpt lat="39.9812850" lon="-0.0259410">
        <ele>15.6</ele>
        <time>2019-09-04T09:40:26Z</time>
      </trkpt>
      <trkpt lat="39.9808180" lon="-0.0261900">
        <ele>14.6</ele>
        <time>2019-09-04T09:40:33Z</time>
      </trkpt>
      <trkpt lat="39.9803150" lon="-0.0265200">
        <ele>15.2</ele>
        <time>2019-09-04T09:40:41Z</time>
      </trkpt>
      <trkpt lat="39.9798120" lon="-0.0267880">
        <ele>16.7</ele>
        <time>2019-09-04T09:40:49Z</time>
      </trkpt>
      <trkpt lat="39.9793340" lon="-0.0270620">
        <ele>17.4</ele>
        <time>2019-09-04T09:40:57Z</time>
      </trkpt>
      <trkpt lat="39.9789830" lon="-0.0272620">
        <ele>18.0</ele>
        <time>2019-09-04T09:41:03Z</time>
      </trkpt>
      <trkpt lat="39.9784410" lon="-0.0275670">
        <ele>18.1</ele>
        <time>2019-09-04T09:41:12Z</time>
      </trkpt>
      <trkpt lat="39.9783810" lon="-0.0276020">
        <ele>18.1</ele>
        <time>2019-09-04T09:41:13Z</time>
      </trkpt>
      <trkpt lat="39.9778560" lon="-0.0279140">
        <ele>18.4</ele>
        <time>2019-09-04T09:41:22Z</time>
      </trkpt>
      <trkpt lat="39.9775020" lon="-0.0281220">
        <ele>18.7</ele>
        <time>2019-09-04T09:41:28Z</time>
      </trkpt>
      <trkpt lat="39.9774450" lon="-0.0281660">
        <ele>18.8</ele>
        <time>2019-09-04T09:41:29Z</time>
      </trkpt>
      <trkpt lat="39.9770840" lon="-0.0283680">
        <ele>19.0</ele>
        <time>2019-09-04T09:41:35Z</time>
      </trkpt>
      <trkpt lat="39.9765430" lon="-0.0286770">
        <ele>18.8</ele>
        <time>2019-09-04T09:41:44Z</time>
      </trkpt>
      <trkpt lat="39.9761740" lon="-0.0288840">
        <ele>19.0</ele>
        <time>2019-09-04T09:41:50Z</time>
      </trkpt>
      <trkpt lat="39.9761150" lon="-0.0289190">
        <ele>19.0</ele>
        <time>2019-09-04T09:41:51Z</time>
      </trkpt>
      <trkpt lat="39.9760010" lon="-0.0289760">
        <ele>18.9</ele>
        <time>2019-09-04T09:41:53Z</time>
      </trkpt>
      <trkpt lat="39.9758180" lon="-0.0290520">
        <ele>18.8</ele>
        <time>2019-09-04T09:41:56Z</time>
      </trkpt>
      <trkpt lat="39.9753820" lon="-0.0292770">
        <ele>19.4</ele>
        <time>2019-09-04T09:42:03Z</time>
      </trkpt>
      <trkpt lat="39.9750240" lon="-0.0294660">
        <ele>19.9</ele>
        <time>2019-09-04T09:42:09Z</time>
      </trkpt>
      <trkpt lat="39.9749370" lon="-0.0295550">
        <ele>20.0</ele>
        <time>2019-09-04T09:42:11Z</time>
      </trkpt>
      <trkpt lat="39.9749100" lon="-0.0296050">
        <ele>20.0</ele>
        <time>2019-09-04T09:42:12Z</time>
      </trkpt>
      <trkpt lat="39.9748970" lon="-0.0296670">
        <ele>20.1</ele>
        <time>2019-09-04T09:42:13Z</time>
      </trkpt>
      <trkpt lat="39.9748960" lon="-0.0298220">
        <ele>20.1</ele>
        <time>2019-09-04T09:42:15Z</time>
      </trkpt>
      <trkpt lat="39.9748880" lon="-0.0300000">
        <ele>19.7</ele>
        <time>2019-09-04T09:42:17Z</time>
      </trkpt>
      <trkpt lat="39.9748450" lon="-0.0301640">
        <ele>19.4</ele>
        <time>2019-09-04T09:42:19Z</time>
      </trkpt>
      <trkpt lat="39.9747600" lon="-0.0302980">
        <ele>19.0</ele>
        <time>2019-09-04T09:42:21Z</time>
      </trkpt>
      <trkpt lat="39.9747020" lon="-0.0303510">
        <ele>18.8</ele>
        <time>2019-09-04T09:42:22Z</time>
      </trkpt>
      <trkpt lat="39.9746410" lon="-0.0303910">
        <ele>18.6</ele>
        <time>2019-09-04T09:42:23Z</time>
      </trkpt>
      <trkpt lat="39.9745100" lon="-0.0304340">
        <ele>18.4</ele>
        <time>2019-09-04T09:42:25Z</time>
      </trkpt>
      <trkpt lat="39.9743770" lon="-0.0304730">
        <ele>18.2</ele>
        <time>2019-09-04T09:42:27Z</time>
      </trkpt>
      <trkpt lat="39.9742670" lon="-0.0305760">
        <ele>18.0</ele>
        <time>2019-09-04T09:42:29Z</time>
      </trkpt>
      <trkpt lat="39.9741260" lon="-0.0308870">
        <ele>17.7</ele>
        <time>2019-09-04T09:42:33Z</time>
      </trkpt>
      <trkpt lat="39.9738840" lon="-0.0315630">
        <ele>17.4</ele>
        <time>2019-09-04T09:42:41Z</time>
      </trkpt>
      <trkpt lat="39.9736750" lon="-0.0320420">
        <ele>17.7</ele>
        <time>2019-09-04T09:42:47Z</time>
      </trkpt>
      <trkpt lat="39.9734110" lon="-0.0326890">
        <ele>18.2</ele>
        <time>2019-09-04T09:42:55Z</time>
      </trkpt>
      <trkpt lat="39.9733780" lon="-0.0327700">
        <ele>18.3</ele>
        <time>2019-09-04T09:42:56Z</time>
      </trkpt>
      <trkpt lat="39.9731440" lon="-0.0333410">
        <ele>18.4</ele>
        <time>2019-09-04T09:43:03Z</time>
      </trkpt>
      <trkpt lat="39.9728700" lon="-0.0339770">
        <ele>18.3</ele>
        <time>2019-09-04T09:43:11Z</time>
      </trkpt>
      <trkpt lat="39.9727740" lon="-0.0342200">
        <ele>18.3</ele>
        <time>2019-09-04T09:43:14Z</time>
      </trkpt>
      <trkpt lat="39.9725480" lon="-0.0347680">
        <ele>18.6</ele>
        <time>2019-09-04T09:43:21Z</time>
      </trkpt>
      <trkpt lat="39.9723100" lon="-0.0353610">
        <ele>18.7</ele>
        <time>2019-09-04T09:43:29Z</time>
      </trkpt>
      <trkpt lat="39.9720920" lon="-0.0358850">
        <ele>18.8</ele>
        <time>2019-09-04T09:43:36Z</time>
      </trkpt>
      <trkpt lat="39.9719140" lon="-0.0363270">
        <ele>18.9</ele>
        <time>2019-09-04T09:43:42Z</time>
      </trkpt>
      <trkpt lat="39.9717200" lon="-0.0368010">
        <ele>19.1</ele>
        <time>2019-09-04T09:43:48Z</time>
      </trkpt>
      <trkpt lat="39.9715280" lon="-0.0372810">
        <ele>20.0</ele>
        <time>2019-09-04T09:43:54Z</time>
      </trkpt>
      <trkpt lat="39.9712720" lon="-0.0378870">
        <ele>21.1</ele>
        <time>2019-09-04T09:44:02Z</time>
      </trkpt>
      <trkpt lat="39.9710560" lon="-0.0384070">
        <ele>21.4</ele>
        <time>2019-09-04T09:44:09Z</time>
      </trkpt>
      <trkpt lat="39.9708490" lon="-0.0389090">
        <ele>21.6</ele>
        <time>2019-09-04T09:44:16Z</time>
      </trkpt>
      <trkpt lat="39.9706050" lon="-0.0394650">
        <ele>22.4</ele>
        <time>2019-09-04T09:44:24Z</time>
      </trkpt>
      <trkpt lat="39.9703880" lon="-0.0399250">
        <ele>23.2</ele>
        <time>2019-09-04T09:44:31Z</time>
      </trkpt>
      <trkpt lat="39.9703020" lon="-0.0402180">
        <ele>23.2</ele>
        <time>2019-09-04T09:44:35Z</time>
      </trkpt>
      <trkpt lat="39.9702980" lon="-0.0402990">
        <ele>23.3</ele>
        <time>2019-09-04T09:44:36Z</time>
      </trkpt>
      <trkpt lat="39.9703090" lon="-0.0403830">
        <ele>23.3</ele>
        <time>2019-09-04T09:44:37Z</time>
      </trkpt>
      <trkpt lat="39.9703290" lon="-0.0405480">
        <ele>23.4</ele>
        <time>2019-09-04T09:44:39Z</time>
      </trkpt>
      <trkpt lat="39.9703130" lon="-0.0406310">
        <ele>23.4</ele>
        <time>2019-09-04T09:44:40Z</time>
      </trkpt>
      <trkpt lat="39.9702780" lon="-0.0407000">
        <ele>23.5</ele>
        <time>2019-09-04T09:44:41Z</time>
      </trkpt>
      <trkpt lat="39.9701700" lon="-0.0407880">
        <ele>23.5</ele>
        <time>2019-09-04T09:44:43Z</time>
      </trkpt>
      <trkpt lat="39.9700550" lon="-0.0408730">
        <ele>23.6</ele>
        <time>2019-09-04T09:44:45Z</time>
      </trkpt>
      <trkpt lat="39.9699590" lon="-0.0409980">
        <ele>23.7</ele>
        <time>2019-09-04T09:44:47Z</time>
      </trkpt>
      <trkpt lat="39.9698030" lon="-0.0414080">
        <ele>24.2</ele>
        <time>2019-09-04T09:44:52Z</time>
      </trkpt>
      <trkpt lat="39.9695450" lon="-0.0420610">
        <ele>24.9</ele>
        <time>2019-09-04T09:45:00Z</time>
      </trkpt>
      <trkpt lat="39.9692990" lon="-0.0427330">
        <ele>25.6</ele>
        <time>2019-09-04T09:45:08Z</time>
      </trkpt>
      <trkpt lat="39.9691240" lon="-0.0433540">
        <ele>26.0</ele>
        <time>2019-09-04T09:45:15Z</time>
      </trkpt>
      <trkpt lat="39.9689820" lon="-0.0440930">
        <ele>26.6</ele>
        <time>2019-09-04T09:45:23Z</time>
      </trkpt>
      <trkpt lat="39.9689050" lon="-0.0448520">
        <ele>27.1</ele>
        <time>2019-09-04T09:45:31Z</time>
      </trkpt>
      <trkpt lat="39.9688990" lon="-0.0456310">
        <ele>27.6</ele>
        <time>2019-09-04T09:45:39Z</time>
      </trkpt>
      <trkpt lat="39.9689040" lon="-0.0457310">
        <ele>27.6</ele>
        <time>2019-09-04T09:45:40Z</time>
      </trkpt>
      <trkpt lat="39.9689750" lon="-0.0465200">
        <ele>28.2</ele>
        <time>2019-09-04T09:45:48Z</time>
      </trkpt>
      <trkpt lat="39.9690770" lon="-0.0470870">
        <ele>28.9</ele>
        <time>2019-09-04T09:45:54Z</time>
      </trkpt>
      <trkpt lat="39.9692610" lon="-0.0478350">
        <ele>29.9</ele>
        <time>2019-09-04T09:46:02Z</time>
      </trkpt>
      <trkpt lat="39.9694660" lon="-0.0485780">
        <ele>30.8</ele>
        <time>2019-09-04T09:46:10Z</time>
      </trkpt>
      <trkpt lat="39.9695160" lon="-0.0487720">
        <ele>30.7</ele>
        <time>2019-09-04T09:46:12Z</time>
      </trkpt>
      <trkpt lat="39.9697070" lon="-0.0494820">
        <ele>30.4</ele>
        <time>2019-09-04T09:46:20Z</time>
      </trkpt>
      <trkpt lat="39.9698300" lon="-0.0500180">
        <ele>30.9</ele>
        <time>2019-09-04T09:46:27Z</time>
      </trkpt>
      <trkpt lat="39.9698870" lon="-0.0503290">
        <ele>31.4</ele>
        <time>2019-09-04T09:46:32Z</time>
      </trkpt>
      <trkpt lat="39.9699090" lon="-0.0503990">
        <ele>31.5</ele>
        <time>2019-09-04T09:46:36Z</time>
      </trkpt>
      <trkpt lat="39.9699090" lon="-0.0503990">
        <ele>31.5</ele>
        <time>2019-09-04T09:46:43Z</time>
      </trkpt>
      <trkpt lat="39.9699330" lon="-0.0505000">
        <ele>31.7</ele>
        <time>2019-09-04T09:46:47Z</time>
      </trkpt>
      <trkpt lat="39.9699580" lon="-0.0505800">
        <ele>31.8</ele>
        <time>2019-09-04T09:46:51Z</time>
      </trkpt>
      <trkpt lat="39.9700100" lon="-0.0507180">
        <ele>31.9</ele>
        <time>2019-09-04T09:46:55Z</time>
      </trkpt>
      <trkpt lat="39.9700320" lon="-0.0507530">
        <ele>31.9</ele>
        <time>2019-09-04T09:46:59Z</time>
      </trkpt>
      <trkpt lat="39.9700650" lon="-0.0508080">
        <ele>31.9</ele>
        <time>2019-09-04T09:47:03Z</time>
      </trkpt>
      <trkpt lat="39.9701350" lon="-0.0508840">
        <ele>31.9</ele>
        <time>2019-09-04T09:47:07Z</time>
      </trkpt>
      <trkpt lat="39.9702520" lon="-0.0509530">
        <ele>31.7</ele>
        <time>2019-09-04T09:47:10Z</time>
      </trkpt>
      <trkpt lat="39.9702910" lon="-0.0509910">
        <ele>31.8</ele>
        <time>2019-09-04T09:47:11Z</time>
      </trkpt>
      <trkpt lat="39.9703260" lon="-0.0510390">
        <ele>31.8</ele>
        <time>2019-09-04T09:47:12Z</time>
      </trkpt>
      <trkpt lat="39.9703720" lon="-0.0511610">
        <ele>31.9</ele>
        <time>2019-09-04T09:47:14Z</time>
      </trkpt>
      <trkpt lat="39.9703780" lon="-0.0513010">
        <ele>31.9</ele>
        <time>2019-09-04T09:47:16Z</time>
      </trkpt>
      <trkpt lat="39.9703640" lon="-0.0513730">
        <ele>31.9</ele>
        <time>2019-09-04T09:47:17Z</time>
      </trkpt>
      <trkpt lat="39.9703450" lon="-0.0514450">
        <ele>32.2</ele>
        <time>2019-09-04T09:47:18Z</time>
      </trkpt>
      <trkpt lat="39.9702630" lon="-0.0515430">
        <ele>32.5</ele>
        <time>2019-09-04T09:47:20Z</time>
      </trkpt>
      <trkpt lat="39.9701530" lon="-0.0515850">
        <ele>32.7</ele>
        <time>2019-09-04T09:47:22Z</time>
      </trkpt>
      <trkpt lat="39.9700380" lon="-0.0515960">
        <ele>32.8</ele>
        <time>2019-09-04T09:47:24Z</time>
      </trkpt>
      <trkpt lat="39.9699140" lon="-0.0516130">
        <ele>32.9</ele>
        <time>2019-09-04T09:47:26Z</time>
      </trkpt>
      <trkpt lat="39.9697250" lon="-0.0517030">
        <ele>32.8</ele>
        <time>2019-09-04T09:47:29Z</time>
      </trkpt>
      <trkpt lat="39.9694020" lon="-0.0519550">
        <ele>32.2</ele>
        <time>2019-09-04T09:47:35Z</time>
      </trkpt>
      <trkpt lat="39.9690400" lon="-0.0522620">
        <ele>31.4</ele>
        <time>2019-09-04T09:47:42Z</time>
      </trkpt>
      <trkpt lat="39.9686250" lon="-0.0525230">
        <ele>31.4</ele>
        <time>2019-09-04T09:47:50Z</time>
      </trkpt>
      <trkpt lat="39.9685000" lon="-0.0526300">
        <ele>31.4</ele>
        <time>2019-09-04T09:47:53Z</time>
      </trkpt>
      <trkpt lat="39.9684440" lon="-0.0527510">
        <ele>31.5</ele>
        <time>2019-09-04T09:47:55Z</time>
      </trkpt>
      <trkpt lat="39.9684160" lon="-0.0528850">
        <ele>31.5</ele>
        <time>2019-09-04T09:47:57Z</time>
      </trkpt>
      <trkpt lat="39.9684090" lon="-0.0530120">
        <ele>31.5</ele>
        <time>2019-09-04T09:47:59Z</time>
      </trkpt>
      <trkpt lat="39.9683660" lon="-0.0531080">
        <ele>31.4</ele>
        <time>2019-09-04T09:48:01Z</time>
      </trkpt>
      <trkpt lat="39.9683360" lon="-0.0531400">
        <ele>31.3</ele>
        <time>2019-09-04T09:48:02Z</time>
      </trkpt>
      <trkpt lat="39.9682360" lon="-0.0532630">
        <ele>31.2</ele>
        <time>2019-09-04T09:48:06Z</time>
      </trkpt>
      <trkpt lat="39.9682150" lon="-0.0533050">
        <ele>31.2</ele>
        <time>2019-09-04T09:48:07Z</time>
      </trkpt>
      <trkpt lat="39.9680870" lon="-0.0534910">
        <ele>31.3</ele>
        <time>2019-09-04T09:48:11Z</time>
      </trkpt>
      <trkpt lat="39.9680280" lon="-0.0535740">
        <ele>31.2</ele>
        <time>2019-09-04T09:48:13Z</time>
      </trkpt>
      <trkpt lat="39.9680040" lon="-0.0536590">
        <ele>31.1</ele>
        <time>2019-09-04T09:48:15Z</time>
      </trkpt>
      <trkpt lat="39.9680310" lon="-0.0538180">
        <ele>31.0</ele>
        <time>2019-09-04T09:48:19Z</time>
      </trkpt>
      <trkpt lat="39.9681090" lon="-0.0540510">
        <ele>30.8</ele>
        <time>2019-09-04T09:48:25Z</time>
      </trkpt>
      <trkpt lat="39.9681230" lon="-0.0541000">
        <ele>30.9</ele>
        <time>2019-09-04T09:48:26Z</time>
      </trkpt>
      <trkpt lat="39.9682110" lon="-0.0543520">
        <ele>31.8</ele>
        <time>2019-09-04T09:48:31Z</time>
      </trkpt>
      <trkpt lat="39.9683770" lon="-0.0548290">
        <ele>34.0</ele>
        <time>2019-09-04T09:48:39Z</time>
      </trkpt>
      <trkpt lat="39.9685340" lon="-0.0553380">
        <ele>35.0</ele>
        <time>2019-09-04T09:48:47Z</time>
      </trkpt>
      <trkpt lat="39.9686570" lon="-0.0557100">
        <ele>34.6</ele>
        <time>2019-09-04T09:48:54Z</time>
      </trkpt>
      <trkpt lat="39.9687640" lon="-0.0560800">
        <ele>34.1</ele>
        <time>2019-09-04T09:49:01Z</time>
      </trkpt>
      <trkpt lat="39.9688070" lon="-0.0563230">
        <ele>33.7</ele>
        <time>2019-09-04T09:49:06Z</time>
      </trkpt>
      <trkpt lat="39.9687990" lon="-0.0563850">
        <ele>33.6</ele>
        <time>2019-09-04T09:49:07Z</time>
      </trkpt>
      <trkpt lat="39.9687480" lon="-0.0565150">
        <ele>33.5</ele>
        <time>2019-09-04T09:49:09Z</time>
      </trkpt>
      <trkpt lat="39.9684460" lon="-0.0569600">
        <ele>34.1</ele>
        <time>2019-09-04T09:49:16Z</time>
      </trkpt>
      <trkpt lat="39.9680680" lon="-0.0574930">
        <ele>35.1</ele>
        <time>2019-09-04T09:49:25Z</time>
      </trkpt>
      <trkpt lat="39.9677280" lon="-0.0579430">
        <ele>35.2</ele>
        <time>2019-09-04T09:49:33Z</time>
      </trkpt>
      <trkpt lat="39.9674280" lon="-0.0583880">
        <ele>35.2</ele>
        <time>2019-09-04T09:49:41Z</time>
      </trkpt>
      <trkpt lat="39.9673070" lon="-0.0585570">
        <ele>35.3</ele>
        <time>2019-09-04T09:49:45Z</time>
      </trkpt>
      <trkpt lat="39.9672770" lon="-0.0586600">
        <ele>35.6</ele>
        <time>2019-09-04T09:49:47Z</time>
      </trkpt>
      <trkpt lat="39.9672610" lon="-0.0587640">
        <ele>35.8</ele>
        <time>2019-09-04T09:49:49Z</time>
      </trkpt>
      <trkpt lat="39.9672850" lon="-0.0588820">
        <ele>36.1</ele>
        <time>2019-09-04T09:49:51Z</time>
      </trkpt>
      <trkpt lat="39.9674160" lon="-0.0591440">
        <ele>36.7</ele>
        <time>2019-09-04T09:49:56Z</time>
      </trkpt>
      <trkpt lat="39.9675860" lon="-0.0594780">
        <ele>37.0</ele>
        <time>2019-09-04T09:50:03Z</time>
      </trkpt>
      <trkpt lat="39.9676230" lon="-0.0595560">
        <ele>37.0</ele>
        <time>2019-09-04T09:50:06Z</time>
      </trkpt>
      <trkpt lat="39.9676360" lon="-0.0595620">
        <ele>37.0</ele>
        <time>2019-09-04T09:50:13Z</time>
      </trkpt>
      <trkpt lat="39.9676630" lon="-0.0595900">
        <ele>36.9</ele>
        <time>2019-09-04T09:50:18Z</time>
      </trkpt>
      <trkpt lat="39.9677730" lon="-0.0596930">
        <ele>36.7</ele>
        <time>2019-09-04T09:50:22Z</time>
      </trkpt>
      <trkpt lat="39.9678420" lon="-0.0597930">
        <ele>36.5</ele>
        <time>2019-09-04T09:50:24Z</time>
      </trkpt>
      <trkpt lat="39.9678910" lon="-0.0599300">
        <ele>36.5</ele>
        <time>2019-09-04T09:50:26Z</time>
      </trkpt>
      <trkpt lat="39.9678950" lon="-0.0600800">
        <ele>36.6</ele>
        <time>2019-09-04T09:50:28Z</time>
      </trkpt>
      <trkpt lat="39.9678580" lon="-0.0602260">
        <ele>36.8</ele>
        <time>2019-09-04T09:50:30Z</time>
      </trkpt>
      <trkpt lat="39.9677800" lon="-0.0603330">
        <ele>37.0</ele>
        <time>2019-09-04T09:50:32Z</time>
      </trkpt>
      <trkpt lat="39.9677300" lon="-0.0603720">
        <ele>37.1</ele>
        <time>2019-09-04T09:50:33Z</time>
      </trkpt>
      <trkpt lat="39.9676740" lon="-0.0603990">
        <ele>37.3</ele>
        <time>2019-09-04T09:50:34Z</time>
      </trkpt>
      <trkpt lat="39.9674910" lon="-0.0604230">
        <ele>37.5</ele>
        <time>2019-09-04T09:50:37Z</time>
      </trkpt>
      <trkpt lat="39.9673700" lon="-0.0604310">
        <ele>37.6</ele>
        <time>2019-09-04T09:50:39Z</time>
      </trkpt>
      <trkpt lat="39.9672650" lon="-0.0605080">
        <ele>37.7</ele>
        <time>2019-09-04T09:50:41Z</time>
      </trkpt>
      <trkpt lat="39.9670000" lon="-0.0608890">
        <ele>37.7</ele>
        <time>2019-09-04T09:50:47Z</time>
      </trkpt>
      <trkpt lat="39.9666160" lon="-0.0613960">
        <ele>37.7</ele>
        <time>2019-09-04T09:50:55Z</time>
      </trkpt>
      <trkpt lat="39.9662410" lon="-0.0619290">
        <ele>38.0</ele>
        <time>2019-09-04T09:51:03Z</time>
      </trkpt>
      <trkpt lat="39.9661980" lon="-0.0619880">
        <ele>38.0</ele>
        <time>2019-09-04T09:51:04Z</time>
      </trkpt>
      <trkpt lat="39.9661550" lon="-0.0620460">
        <ele>38.1</ele>
        <time>2019-09-04T09:51:05Z</time>
      </trkpt>
      <trkpt lat="39.9658960" lon="-0.0624530">
        <ele>38.4</ele>
        <time>2019-09-04T09:51:11Z</time>
      </trkpt>
      <trkpt lat="39.9655250" lon="-0.0629640">
        <ele>38.8</ele>
        <time>2019-09-04T09:51:19Z</time>
      </trkpt>
    </trkseg>
  </trk>
</gpx>
